<?xml version='1.0' encoding='UTF-8'?><gpx version="1.1" creator="JPX - https://github.com/jenetics/jpx" xmlns="http://www.topografix.com/GPX/1/1"><trk><trkseg><trkpt lat="45.3095881" lon="7.583605"><ele>400.99999999999994</ele><time>2026-04-04T12:09:46.78Z</time></trkpt><trkpt lat="45.3095238" lon="7.5835754"><ele>401.0</ele><time>2026-04-04T12:10:27.778Z</time></trkpt><trkpt lat="45.3094602" lon="7.5836118"><ele>401.0</ele><time>2026-04-04T12:10:33.777Z</time></trkpt><trkpt lat="45.3094025" lon="7.5836566"><ele>401.0</ele><time>2026-04-04T12:10:40.778Z</time></trkpt><trkpt lat="45.3095096" lon="7.5836592"><ele>400.99999999999994</ele><time>2026-04-04T12:33:04.772Z</time></trkpt><trkpt lat="45.3095462" lon="7.5837643"><ele>401.0</ele><time>2026-04-04T12:33:07.772Z</time></trkpt><trkpt lat="45.3096092" lon="7.5838121"><ele>400.8333333333333</ele><time>2026-04-04T12:33:11.772Z</time></trkpt><trkpt lat="45.3096856" lon="7.5837633"><ele>400.66666666666663</ele><time>2026-04-04T12:33:14.772Z</time></trkpt><trkpt lat="45.3097536" lon="7.5836928"><ele>400.5</ele><time>2026-04-04T12:33:21.772Z</time></trkpt><trkpt lat="45.3098237" lon="7.5835874"><ele>400.33333333333337</ele><time>2026-04-04T12:33:23.772Z</time></trkpt><trkpt lat="45.3098681" lon="7.5835059"><ele>400.1666666666667</ele><time>2026-04-04T12:33:24.772Z</time></trkpt><trkpt lat="45.309909" lon="7.5834056"><ele>400.0</ele><time>2026-04-04T12:33:25.771Z</time></trkpt><trkpt lat="45.3099457" lon="7.5833048"><ele>400.83333333333337</ele><time>2026-04-04T12:33:26.771Z</time></trkpt><trkpt lat="45.3099837" lon="7.5832126"><ele>401.6666666666667</ele><time>2026-04-04T12:33:27.771Z</time></trkpt><trkpt lat="45.3100326" lon="7.5831394"><ele>402.5</ele><time>2026-04-04T12:33:28.771Z</time></trkpt><trkpt lat="45.3100847" lon="7.5830858"><ele>403.33333333333337</ele><time>2026-04-04T12:33:29.771Z</time></trkpt><trkpt lat="45.3101475" lon="7.5830456"><ele>404.1666666666667</ele><time>2026-04-04T12:33:30.771Z</time></trkpt><trkpt lat="45.3102287" lon="7.5830275"><ele>405.0</ele><time>2026-04-04T12:33:31.772Z</time></trkpt><trkpt lat="45.310327" lon="7.5830147"><ele>405.0</ele><time>2026-04-04T12:33:32.771Z</time></trkpt><trkpt lat="45.3104306" lon="7.5830003"><ele>405.0</ele><time>2026-04-04T12:33:33.771Z</time></trkpt><trkpt lat="45.3105291" lon="7.5829795"><ele>405.0</ele><time>2026-04-04T12:33:34.771Z</time></trkpt><trkpt lat="45.3106295" lon="7.5829589"><ele>405.0</ele><time>2026-04-04T12:33:35.771Z</time></trkpt><trkpt lat="45.3107329" lon="7.5829409"><ele>405.0</ele><time>2026-04-04T12:33:36.771Z</time></trkpt><trkpt lat="45.3108315" lon="7.582923"><ele>406.2</ele><time>2026-04-04T12:33:37.771Z</time></trkpt><trkpt lat="45.3109269" lon="7.582901"><ele>407.4</ele><time>2026-04-04T12:33:38.772Z</time></trkpt><trkpt lat="45.3110189" lon="7.582883"><ele>408.6</ele><time>2026-04-04T12:33:39.771Z</time></trkpt><trkpt lat="45.3111073" lon="7.5828588"><ele>409.8</ele><time>2026-04-04T12:33:40.771Z</time></trkpt><trkpt lat="45.3111967" lon="7.5828324"><ele>411.0</ele><time>2026-04-04T12:33:41.772Z</time></trkpt><trkpt lat="45.3112888" lon="7.5828037"><ele>411.20000000000005</ele><time>2026-04-04T12:33:42.771Z</time></trkpt><trkpt lat="45.3113778" lon="7.5827714"><ele>411.40000000000003</ele><time>2026-04-04T12:33:43.771Z</time></trkpt><trkpt lat="45.3114654" lon="7.5827229"><ele>411.6</ele><time>2026-04-04T12:33:44.771Z</time></trkpt><trkpt lat="45.3115355" lon="7.5826418"><ele>411.8</ele><time>2026-04-04T12:33:45.771Z</time></trkpt><trkpt lat="45.3115954" lon="7.5825372"><ele>412.0</ele><time>2026-04-04T12:33:46.771Z</time></trkpt><trkpt lat="45.3116533" lon="7.5824372"><ele>412.83333333333337</ele><time>2026-04-04T12:33:47.771Z</time></trkpt><trkpt lat="45.311712" lon="7.5823553"><ele>413.6666666666667</ele><time>2026-04-04T12:33:48.771Z</time></trkpt><trkpt lat="45.3117629" lon="7.5822854"><ele>414.5</ele><time>2026-04-04T12:33:49.772Z</time></trkpt><trkpt lat="45.3118462" lon="7.5822278"><ele>415.33333333333337</ele><time>2026-04-04T12:33:51.771Z</time></trkpt><trkpt lat="45.3119057" lon="7.5821463"><ele>416.1666666666667</ele><time>2026-04-04T12:34:23.772Z</time></trkpt><trkpt lat="45.3118716" lon="7.5820075"><ele>417.0</ele><time>2026-04-04T12:34:25.772Z</time></trkpt><trkpt lat="45.3118319" lon="7.5819198"><ele>417.8</ele><time>2026-04-04T12:34:26.771Z</time></trkpt><trkpt lat="45.3117827" lon="7.5818135"><ele>418.6</ele><time>2026-04-04T12:34:27.772Z</time></trkpt><trkpt lat="45.3117296" lon="7.5816931"><ele>419.40000000000003</ele><time>2026-04-04T12:34:28.771Z</time></trkpt><trkpt lat="45.3116809" lon="7.5815512"><ele>420.20000000000005</ele><time>2026-04-04T12:34:29.772Z</time></trkpt><trkpt lat="45.3116421" lon="7.581405"><ele>421.0</ele><time>2026-04-04T12:34:30.771Z</time></trkpt><trkpt lat="45.3116131" lon="7.5812668"><ele>422.33333333333337</ele><time>2026-04-04T12:34:31.771Z</time></trkpt><trkpt lat="45.3115904" lon="7.581132"><ele>423.6666666666667</ele><time>2026-04-04T12:34:32.772Z</time></trkpt><trkpt lat="45.3115725" lon="7.5810103"><ele>425.0</ele><time>2026-04-04T12:34:33.771Z</time></trkpt><trkpt lat="45.311555" lon="7.5808941"><ele>426.33333333333337</ele><time>2026-04-04T12:34:34.772Z</time></trkpt><trkpt lat="45.31154" lon="7.5807742"><ele>427.6666666666667</ele><time>2026-04-04T12:34:35.772Z</time></trkpt><trkpt lat="45.3115301" lon="7.5806501"><ele>429.0</ele><time>2026-04-04T12:34:36.771Z</time></trkpt><trkpt lat="45.3115291" lon="7.5805165"><ele>429.0</ele><time>2026-04-04T12:34:37.771Z</time></trkpt><trkpt lat="45.3115323" lon="7.5803768"><ele>429.0</ele><time>2026-04-04T12:34:38.772Z</time></trkpt><trkpt lat="45.3115394" lon="7.5802263"><ele>429.0</ele><time>2026-04-04T12:34:39.771Z</time></trkpt><trkpt lat="45.3115422" lon="7.5800736"><ele>429.0</ele><time>2026-04-04T12:34:40.772Z</time></trkpt><trkpt lat="45.3115379" lon="7.5799327"><ele>429.0</ele><time>2026-04-04T12:34:41.771Z</time></trkpt><trkpt lat="45.3115243" lon="7.5798023"><ele>430.79999999999995</ele><time>2026-04-04T12:34:42.771Z</time></trkpt><trkpt lat="45.3115099" lon="7.5796716"><ele>432.59999999999997</ele><time>2026-04-04T12:34:43.771Z</time></trkpt><trkpt lat="45.3115012" lon="7.5795391"><ele>434.4</ele><time>2026-04-04T12:34:44.771Z</time></trkpt><trkpt lat="45.3115001" lon="7.5794012"><ele>436.2</ele><time>2026-04-04T12:34:45.771Z</time></trkpt><trkpt lat="45.3115099" lon="7.5792605"><ele>438.0</ele><time>2026-04-04T12:34:46.771Z</time></trkpt><trkpt lat="45.3115351" lon="7.579124"><ele>437.8333333333333</ele><time>2026-04-04T12:34:47.771Z</time></trkpt><trkpt lat="45.3115546" lon="7.5790029"><ele>437.66666666666663</ele><time>2026-04-04T12:34:48.772Z</time></trkpt><trkpt lat="45.3115557" lon="7.57889"><ele>437.5</ele><time>2026-04-04T12:34:49.771Z</time></trkpt><trkpt lat="45.3115363" lon="7.578791"><ele>437.3333333333333</ele><time>2026-04-04T12:34:50.772Z</time></trkpt><trkpt lat="45.311488" lon="7.5787058"><ele>437.16666666666663</ele><time>2026-04-04T12:34:51.771Z</time></trkpt><trkpt lat="45.3114157" lon="7.578609"><ele>437.0</ele><time>2026-04-04T12:34:52.772Z</time></trkpt><trkpt lat="45.3113505" lon="7.5784809"><ele>437.0</ele><time>2026-04-04T12:34:53.771Z</time></trkpt><trkpt lat="45.3113021" lon="7.578333"><ele>437.00000000000006</ele><time>2026-04-04T12:34:54.772Z</time></trkpt><trkpt lat="45.3112546" lon="7.5781835"><ele>437.00000000000006</ele><time>2026-04-04T12:34:55.771Z</time></trkpt><trkpt lat="45.3112005" lon="7.5780478"><ele>437.0</ele><time>2026-04-04T12:34:56.771Z</time></trkpt><trkpt lat="45.3111417" lon="7.57792"><ele>437.0</ele><time>2026-04-04T12:34:57.771Z</time></trkpt><trkpt lat="45.3110983" lon="7.57778"><ele>439.0</ele><time>2026-04-04T12:34:58.771Z</time></trkpt><trkpt lat="45.3110733" lon="7.5776283"><ele>441.0</ele><time>2026-04-04T12:34:59.772Z</time></trkpt><trkpt lat="45.3110783" lon="7.5774567"><ele>443.0</ele><time>2026-04-04T12:35:00.772Z</time></trkpt><trkpt lat="45.311105" lon="7.5772933"><ele>445.0</ele><time>2026-04-04T12:35:01.771Z</time></trkpt><trkpt lat="45.31115" lon="7.5771383"><ele>444.25</ele><time>2026-04-04T12:35:02.772Z</time></trkpt><trkpt lat="45.3112083" lon="7.5769917"><ele>443.5</ele><time>2026-04-04T12:35:03.772Z</time></trkpt><trkpt lat="45.3112833" lon="7.5768633"><ele>442.75</ele><time>2026-04-04T12:35:04.771Z</time></trkpt><trkpt lat="45.311365" lon="7.576745"><ele>442.0</ele><time>2026-04-04T12:35:05.771Z</time></trkpt><trkpt lat="45.31145" lon="7.5766267"><ele>445.75</ele><time>2026-04-04T12:35:06.772Z</time></trkpt><trkpt lat="45.3115317" lon="7.5765083"><ele>449.5</ele><time>2026-04-04T12:35:07.771Z</time></trkpt><trkpt lat="45.3115983" lon="7.5763867"><ele>453.25</ele><time>2026-04-04T12:35:08.771Z</time></trkpt><trkpt lat="45.311655" lon="7.5762533"><ele>457.0</ele><time>2026-04-04T12:35:09.772Z</time></trkpt><trkpt lat="45.31172" lon="7.5761167"><ele>457.0</ele><time>2026-04-04T12:35:10.771Z</time></trkpt><trkpt lat="45.3117883" lon="7.5759983"><ele>457.00000000000006</ele><time>2026-04-04T12:35:11.771Z</time></trkpt><trkpt lat="45.3118733" lon="7.5759083"><ele>457.00000000000006</ele><time>2026-04-04T12:35:12.771Z</time></trkpt><trkpt lat="45.3119683" lon="7.5758483"><ele>457.0</ele><time>2026-04-04T12:35:13.772Z</time></trkpt><trkpt lat="45.3120683" lon="7.5758367"><ele>457.0</ele><time>2026-04-04T12:35:14.771Z</time></trkpt><trkpt lat="45.312175" lon="7.575865"><ele>459.8</ele><time>2026-04-04T12:35:15.771Z</time></trkpt><trkpt lat="45.31228" lon="7.5759183"><ele>462.6</ele><time>2026-04-04T12:35:16.771Z</time></trkpt><trkpt lat="45.31238" lon="7.5759867"><ele>465.40000000000003</ele><time>2026-04-04T12:35:17.771Z</time></trkpt><trkpt lat="45.312475" lon="7.5760367"><ele>468.20000000000005</ele><time>2026-04-04T12:35:18.771Z</time></trkpt><trkpt lat="45.3125567" lon="7.5760933"><ele>471.0</ele><time>2026-04-04T12:35:19.772Z</time></trkpt><trkpt lat="45.31262" lon="7.5761717"><ele>471.8</ele><time>2026-04-04T12:35:20.771Z</time></trkpt><trkpt lat="45.3126683" lon="7.5762783"><ele>472.6</ele><time>2026-04-04T12:35:21.771Z</time></trkpt><trkpt lat="45.31269" lon="7.5764217"><ele>473.4</ele><time>2026-04-04T12:35:22.772Z</time></trkpt><trkpt lat="45.3126967" lon="7.5765667"><ele>474.2</ele><time>2026-04-04T12:35:23.771Z</time></trkpt><trkpt lat="45.3127067" lon="7.576695"><ele>475.0</ele><time>2026-04-04T12:35:24.771Z</time></trkpt><trkpt lat="45.312715" lon="7.576795"><ele>475.0</ele><time>2026-04-04T12:35:25.771Z</time></trkpt><trkpt lat="45.3127667" lon="7.5768883"><ele>475.0</ele><time>2026-04-04T12:35:27.771Z</time></trkpt><trkpt lat="45.312785" lon="7.5768"><ele>475.0</ele><time>2026-04-04T12:35:30.771Z</time></trkpt><trkpt lat="45.3127467" lon="7.5766333"><ele>475.0</ele><time>2026-04-04T12:35:32.771Z</time></trkpt><trkpt lat="45.31275" lon="7.5765083"><ele>475.0</ele><time>2026-04-04T12:35:33.771Z</time></trkpt><trkpt lat="45.3127667" lon="7.5763733"><ele>475.0</ele><time>2026-04-04T12:35:34.771Z</time></trkpt><trkpt lat="45.3127933" lon="7.5762283"><ele>475.0</ele><time>2026-04-04T12:35:35.772Z</time></trkpt><trkpt lat="45.3128333" lon="7.5761"><ele>475.0</ele><time>2026-04-04T12:35:36.771Z</time></trkpt><trkpt lat="45.3128833" lon="7.5759983"><ele>475.0</ele><time>2026-04-04T12:35:37.772Z</time></trkpt><trkpt lat="45.3129433" lon="7.5759183"><ele>475.0</ele><time>2026-04-04T12:35:38.771Z</time></trkpt><trkpt lat="45.313025" lon="7.575855"><ele>477.0</ele><time>2026-04-04T12:35:39.772Z</time></trkpt><trkpt lat="45.3131167" lon="7.5758067"><ele>479.0</ele><time>2026-04-04T12:35:40.772Z</time></trkpt><trkpt lat="45.3132017" lon="7.57576"><ele>481.0</ele><time>2026-04-04T12:35:41.771Z</time></trkpt><trkpt lat="45.3132967" lon="7.57573"><ele>483.0</ele><time>2026-04-04T12:35:42.771Z</time></trkpt><trkpt lat="45.3134017" lon="7.57571"><ele>485.0</ele><time>2026-04-04T12:35:43.771Z</time></trkpt><trkpt lat="45.3135133" lon="7.5757"><ele>485.0</ele><time>2026-04-04T12:35:44.771Z</time></trkpt><trkpt lat="45.3136233" lon="7.575685"><ele>485.0</ele><time>2026-04-04T12:35:45.771Z</time></trkpt><trkpt lat="45.3137383" lon="7.5756667"><ele>485.0</ele><time>2026-04-04T12:35:46.771Z</time></trkpt><trkpt lat="45.3138467" lon="7.575635"><ele>485.0</ele><time>2026-04-04T12:35:47.771Z</time></trkpt><trkpt lat="45.3139467" lon="7.575595"><ele>485.0</ele><time>2026-04-04T12:35:48.772Z</time></trkpt><trkpt lat="45.3140333" lon="7.5755467"><ele>484.3333333333333</ele><time>2026-04-04T12:35:49.771Z</time></trkpt><trkpt lat="45.31411" lon="7.5755133"><ele>483.66666666666663</ele><time>2026-04-04T12:35:50.771Z</time></trkpt><trkpt lat="45.3141717" lon="7.5754883"><ele>483.0</ele><time>2026-04-04T12:35:51.771Z</time></trkpt><trkpt lat="45.314235" lon="7.5754567"><ele>482.33333333333337</ele><time>2026-04-04T12:35:52.771Z</time></trkpt><trkpt lat="45.3143" lon="7.57542"><ele>481.6666666666667</ele><time>2026-04-04T12:35:53.771Z</time></trkpt><trkpt lat="45.31437" lon="7.57536"><ele>481.0</ele><time>2026-04-04T12:35:54.771Z</time></trkpt><trkpt lat="45.3144433" lon="7.5752683"><ele>481.0</ele><time>2026-04-04T12:35:55.772Z</time></trkpt><trkpt lat="45.3145367" lon="7.5751883"><ele>481.0</ele><time>2026-04-04T12:35:56.772Z</time></trkpt><trkpt lat="45.3146333" lon="7.5751167"><ele>481.0</ele><time>2026-04-04T12:35:57.771Z</time></trkpt><trkpt lat="45.31474" lon="7.5750483"><ele>481.0</ele><time>2026-04-04T12:35:58.772Z</time></trkpt><trkpt lat="45.3148483" lon="7.5749917"><ele>484.25</ele><time>2026-04-04T12:35:59.772Z</time></trkpt><trkpt lat="45.31496" lon="7.5749267"><ele>487.5</ele><time>2026-04-04T12:36:00.771Z</time></trkpt><trkpt lat="45.3150717" lon="7.5748683"><ele>490.75</ele><time>2026-04-04T12:36:01.772Z</time></trkpt><trkpt lat="45.3151883" lon="7.5748033"><ele>494.0</ele><time>2026-04-04T12:36:02.771Z</time></trkpt><trkpt lat="45.3152967" lon="7.5747433"><ele>494.0</ele><time>2026-04-04T12:36:03.771Z</time></trkpt><trkpt lat="45.3154" lon="7.5746733"><ele>494.0</ele><time>2026-04-04T12:36:04.771Z</time></trkpt><trkpt lat="45.3155033" lon="7.5746083"><ele>494.0</ele><time>2026-04-04T12:36:05.771Z</time></trkpt><trkpt lat="45.3155817" lon="7.5745433"><ele>494.0</ele><time>2026-04-04T12:36:06.771Z</time></trkpt><trkpt lat="45.3156817" lon="7.574505"><ele>494.0</ele><time>2026-04-04T12:36:07.771Z</time></trkpt><trkpt lat="45.3157883" lon="7.5744767"><ele>493.5</ele><time>2026-04-04T12:36:08.771Z</time></trkpt><trkpt lat="45.31589" lon="7.5744483"><ele>493.0</ele><time>2026-04-04T12:36:09.771Z</time></trkpt><trkpt lat="45.315995" lon="7.5743883"><ele>492.5</ele><time>2026-04-04T12:36:10.771Z</time></trkpt><trkpt lat="45.316095" lon="7.5743133"><ele>492.0</ele><time>2026-04-04T12:36:11.771Z</time></trkpt><trkpt lat="45.3162033" lon="7.574225"><ele>492.0</ele><time>2026-04-04T12:36:12.772Z</time></trkpt><trkpt lat="45.3162983" lon="7.574125"><ele>492.00000000000006</ele><time>2026-04-04T12:36:13.771Z</time></trkpt><trkpt lat="45.31639" lon="7.5740333"><ele>492.00000000000006</ele><time>2026-04-04T12:36:14.771Z</time></trkpt><trkpt lat="45.3164833" lon="7.5739483"><ele>492.0</ele><time>2026-04-04T12:36:15.772Z</time></trkpt><trkpt lat="45.3165717" lon="7.5738633"><ele>492.0</ele><time>2026-04-04T12:36:16.771Z</time></trkpt><trkpt lat="45.3166517" lon="7.5737867"><ele>494.3333333333333</ele><time>2026-04-04T12:36:17.771Z</time></trkpt><trkpt lat="45.3167067" lon="7.5736967"><ele>496.66666666666663</ele><time>2026-04-04T12:36:18.771Z</time></trkpt><trkpt lat="45.3167417" lon="7.5736083"><ele>499.0</ele><time>2026-04-04T12:36:19.771Z</time></trkpt><trkpt lat="45.3167433" lon="7.573455"><ele>501.3333333333333</ele><time>2026-04-04T12:36:21.771Z</time></trkpt><trkpt lat="45.316695" lon="7.5733867"><ele>503.66666666666663</ele><time>2026-04-04T12:36:22.772Z</time></trkpt><trkpt lat="45.3166167" lon="7.57332"><ele>506.0</ele><time>2026-04-04T12:36:23.772Z</time></trkpt><trkpt lat="45.3165167" lon="7.57325"><ele>506.0</ele><time>2026-04-04T12:36:24.771Z</time></trkpt><trkpt lat="45.316425" lon="7.5731767"><ele>506.0</ele><time>2026-04-04T12:36:25.772Z</time></trkpt><trkpt lat="45.3163483" lon="7.57308"><ele>506.0</ele><time>2026-04-04T12:36:26.771Z</time></trkpt><trkpt lat="45.31628" lon="7.5729983"><ele>506.0</ele><time>2026-04-04T12:36:27.771Z</time></trkpt><trkpt lat="45.3161967" lon="7.57293"><ele>506.0</ele><time>2026-04-04T12:36:28.771Z</time></trkpt><trkpt lat="45.3161133" lon="7.5728817"><ele>506.8333333333333</ele><time>2026-04-04T12:36:29.771Z</time></trkpt><trkpt lat="45.316045" lon="7.5728333"><ele>507.66666666666663</ele><time>2026-04-04T12:36:30.772Z</time></trkpt><trkpt lat="45.3159883" lon="7.5727533"><ele>508.5</ele><time>2026-04-04T12:36:31.771Z</time></trkpt><trkpt lat="45.3159583" lon="7.5726583"><ele>509.33333333333337</ele><time>2026-04-04T12:36:32.772Z</time></trkpt><trkpt lat="45.315955" lon="7.572555"><ele>510.1666666666667</ele><time>2026-04-04T12:36:33.771Z</time></trkpt><trkpt lat="45.316005" lon="7.5724783"><ele>511.0</ele><time>2026-04-04T12:36:34.771Z</time></trkpt><trkpt lat="45.3160667" lon="7.5724133"><ele>511.0</ele><time>2026-04-04T12:36:35.771Z</time></trkpt><trkpt lat="45.31615" lon="7.5723683"><ele>511.0</ele><time>2026-04-04T12:36:36.772Z</time></trkpt><trkpt lat="45.316235" lon="7.5723133"><ele>511.0</ele><time>2026-04-04T12:36:37.771Z</time></trkpt><trkpt lat="45.316315" lon="7.57224"><ele>511.0</ele><time>2026-04-04T12:36:38.772Z</time></trkpt><trkpt lat="45.3163867" lon="7.5721533"><ele>511.0</ele><time>2026-04-04T12:36:39.771Z</time></trkpt><trkpt lat="45.3164333" lon="7.5720633"><ele>513.0</ele><time>2026-04-04T12:36:40.771Z</time></trkpt><trkpt lat="45.3164467" lon="7.57197"><ele>515.0</ele><time>2026-04-04T12:36:41.771Z</time></trkpt><trkpt lat="45.3163833" lon="7.5718583"><ele>517.0</ele><time>2026-04-04T12:36:43.771Z</time></trkpt><trkpt lat="45.31631" lon="7.5718417"><ele>519.0</ele><time>2026-04-04T12:36:44.771Z</time></trkpt><trkpt lat="45.3162233" lon="7.5718533"><ele>521.0</ele><time>2026-04-04T12:36:45.771Z</time></trkpt><trkpt lat="45.3161283" lon="7.5718783"><ele>523.0</ele><time>2026-04-04T12:36:46.771Z</time></trkpt><trkpt lat="45.3160333" lon="7.5718967"><ele>523.0</ele><time>2026-04-04T12:36:47.771Z</time></trkpt><trkpt lat="45.3159417" lon="7.5719083"><ele>523.0</ele><time>2026-04-04T12:36:48.771Z</time></trkpt><trkpt lat="45.3158567" lon="7.57193"><ele>523.0</ele><time>2026-04-04T12:36:49.771Z</time></trkpt><trkpt lat="45.3157767" lon="7.5719267"><ele>523.0</ele><time>2026-04-04T12:36:50.772Z</time></trkpt><trkpt lat="45.3157" lon="7.5719"><ele>523.0</ele><time>2026-04-04T12:36:51.771Z</time></trkpt><trkpt lat="45.31563" lon="7.5718317"><ele>523.0</ele><time>2026-04-04T12:36:52.771Z</time></trkpt><trkpt lat="45.3155667" lon="7.5717217"><ele>521.0</ele><time>2026-04-04T12:36:53.771Z</time></trkpt><trkpt lat="45.31552" lon="7.5716083"><ele>519.0</ele><time>2026-04-04T12:36:54.771Z</time></trkpt><trkpt lat="45.3154817" lon="7.571485"><ele>517.0</ele><time>2026-04-04T12:36:55.771Z</time></trkpt><trkpt lat="45.3154617" lon="7.5713417"><ele>515.0</ele><time>2026-04-04T12:36:56.771Z</time></trkpt><trkpt lat="45.3154533" lon="7.5711667"><ele>513.0</ele><time>2026-04-04T12:36:57.771Z</time></trkpt><trkpt lat="45.3154517" lon="7.5709917"><ele>513.0</ele><time>2026-04-04T12:36:58.771Z</time></trkpt><trkpt lat="45.3154583" lon="7.5708333"><ele>513.0</ele><time>2026-04-04T12:36:59.772Z</time></trkpt><trkpt lat="45.31548" lon="7.57068"><ele>513.0</ele><time>2026-04-04T12:37:00.771Z</time></trkpt><trkpt lat="45.3155133" lon="7.5705267"><ele>513.0</ele><time>2026-04-04T12:37:01.771Z</time></trkpt><trkpt lat="45.3155483" lon="7.57037"><ele>520.75</ele><time>2026-04-04T12:37:02.772Z</time></trkpt><trkpt lat="45.31558" lon="7.570215"><ele>528.5</ele><time>2026-04-04T12:37:03.771Z</time></trkpt><trkpt lat="45.3155983" lon="7.57005"><ele>536.25</ele><time>2026-04-04T12:37:04.771Z</time></trkpt><trkpt lat="45.3156133" lon="7.5698883"><ele>544.0</ele><time>2026-04-04T12:37:05.771Z</time></trkpt><trkpt lat="45.3156167" lon="7.5697217"><ele>544.0</ele><time>2026-04-04T12:37:06.771Z</time></trkpt><trkpt lat="45.315625" lon="7.5695617"><ele>544.0</ele><time>2026-04-04T12:37:07.771Z</time></trkpt><trkpt lat="45.3156317" lon="7.56941"><ele>544.0</ele><time>2026-04-04T12:37:08.772Z</time></trkpt><trkpt lat="45.3156467" lon="7.56927"><ele>544.0</ele><time>2026-04-04T12:37:09.771Z</time></trkpt><trkpt lat="45.31567" lon="7.56914"><ele>544.0</ele><time>2026-04-04T12:37:10.771Z</time></trkpt><trkpt lat="45.315685" lon="7.5690333"><ele>543.5</ele><time>2026-04-04T12:37:11.771Z</time></trkpt><trkpt lat="45.315685" lon="7.5689433"><ele>543.0</ele><time>2026-04-04T12:37:12.771Z</time></trkpt><trkpt lat="45.3156217" lon="7.5688383"><ele>542.5</ele><time>2026-04-04T12:37:14.77Z</time></trkpt><trkpt lat="45.3155533" lon="7.56882"><ele>542.0</ele><time>2026-04-04T12:37:15.77Z</time></trkpt><trkpt lat="45.315465" lon="7.568805"><ele>541.5</ele><time>2026-04-04T12:37:16.77Z</time></trkpt><trkpt lat="45.31536" lon="7.56882"><ele>541.0</ele><time>2026-04-04T12:37:17.77Z</time></trkpt><trkpt lat="45.315245" lon="7.56887"><ele>541.0</ele><time>2026-04-04T12:37:18.77Z</time></trkpt><trkpt lat="45.3151433" lon="7.5689233"><ele>541.0</ele><time>2026-04-04T12:37:19.771Z</time></trkpt><trkpt lat="45.31507" lon="7.5689367"><ele>541.0</ele><time>2026-04-04T12:37:20.77Z</time></trkpt><trkpt lat="45.3149883" lon="7.56898"><ele>541.0</ele><time>2026-04-04T12:37:21.771Z</time></trkpt><trkpt lat="45.3149017" lon="7.56901"><ele>541.0</ele><time>2026-04-04T12:37:22.771Z</time></trkpt><trkpt lat="45.3148183" lon="7.5690083"><ele>541.0</ele><time>2026-04-04T12:37:23.77Z</time></trkpt><trkpt lat="45.3147383" lon="7.5689817"><ele>540.0</ele><time>2026-04-04T12:37:24.77Z</time></trkpt><trkpt lat="45.3146567" lon="7.5689067"><ele>539.0</ele><time>2026-04-04T12:37:25.77Z</time></trkpt><trkpt lat="45.3145783" lon="7.5687967"><ele>538.0</ele><time>2026-04-04T12:37:26.77Z</time></trkpt><trkpt lat="45.3144917" lon="7.56868"><ele>537.0</ele><time>2026-04-04T12:37:27.77Z</time></trkpt><trkpt lat="45.3144117" lon="7.5685967"><ele>536.0</ele><time>2026-04-04T12:37:28.77Z</time></trkpt><trkpt lat="45.3143167" lon="7.56855"><ele>538.0</ele><time>2026-04-04T12:37:29.771Z</time></trkpt><trkpt lat="45.3142117" lon="7.5685167"><ele>540.0</ele><time>2026-04-04T12:37:30.771Z</time></trkpt><trkpt lat="45.3141117" lon="7.5684883"><ele>542.0</ele><time>2026-04-04T12:37:31.77Z</time></trkpt><trkpt lat="45.31402" lon="7.5684533"><ele>544.0</ele><time>2026-04-04T12:37:32.77Z</time></trkpt><trkpt lat="45.3139317" lon="7.5683883"><ele>546.0</ele><time>2026-04-04T12:37:33.771Z</time></trkpt><trkpt lat="45.3138533" lon="7.56829"><ele>546.0</ele><time>2026-04-04T12:37:34.77Z</time></trkpt><trkpt lat="45.3137917" lon="7.56816"><ele>546.0</ele><time>2026-04-04T12:37:35.77Z</time></trkpt><trkpt lat="45.3137317" lon="7.56801"><ele>546.0</ele><time>2026-04-04T12:37:36.77Z</time></trkpt><trkpt lat="45.3136667" lon="7.5678733"><ele>546.0</ele><time>2026-04-04T12:37:37.771Z</time></trkpt><trkpt lat="45.3135883" lon="7.56775"><ele>551.0</ele><time>2026-04-04T12:37:38.77Z</time></trkpt><trkpt lat="45.3135" lon="7.56764"><ele>556.0</ele><time>2026-04-04T12:37:39.77Z</time></trkpt><trkpt lat="45.3134083" lon="7.567545"><ele>561.0</ele><time>2026-04-04T12:37:40.77Z</time></trkpt><trkpt lat="45.3133217" lon="7.567435"><ele>566.0</ele><time>2026-04-04T12:37:41.77Z</time></trkpt><trkpt lat="45.3132483" lon="7.5673083"><ele>566.0</ele><time>2026-04-04T12:37:42.77Z</time></trkpt><trkpt lat="45.313175" lon="7.567185"><ele>566.0</ele><time>2026-04-04T12:37:43.77Z</time></trkpt><trkpt lat="45.3131083" lon="7.5670483"><ele>566.0</ele><time>2026-04-04T12:37:44.77Z</time></trkpt><trkpt lat="45.3130367" lon="7.56693"><ele>566.0</ele><time>2026-04-04T12:37:45.77Z</time></trkpt><trkpt lat="45.3129533" lon="7.5668217"><ele>564.0</ele><time>2026-04-04T12:37:46.77Z</time></trkpt><trkpt lat="45.3128767" lon="7.5667283"><ele>562.0</ele><time>2026-04-04T12:37:47.771Z</time></trkpt><trkpt lat="45.3128217" lon="7.5666167"><ele>560.0</ele><time>2026-04-04T12:37:48.77Z</time></trkpt><trkpt lat="45.3128033" lon="7.566475"><ele>558.0</ele><time>2026-04-04T12:37:49.77Z</time></trkpt><trkpt lat="45.3128117" lon="7.56635"><ele>556.0</ele><time>2026-04-04T12:37:50.771Z</time></trkpt><trkpt lat="45.31286" lon="7.5662233"><ele>558.2</ele><time>2026-04-04T12:37:51.77Z</time></trkpt><trkpt lat="45.31293" lon="7.5661033"><ele>560.4000000000001</ele><time>2026-04-04T12:37:52.77Z</time></trkpt><trkpt lat="45.3130167" lon="7.5659967"><ele>562.6</ele><time>2026-04-04T12:37:53.77Z</time></trkpt><trkpt lat="45.31309" lon="7.56591"><ele>564.8000000000001</ele><time>2026-04-04T12:37:54.77Z</time></trkpt><trkpt lat="45.3131633" lon="7.565845"><ele>567.0</ele><time>2026-04-04T12:37:55.77Z</time></trkpt><trkpt lat="45.31324" lon="7.565815"><ele>567.0</ele><time>2026-04-04T12:37:56.77Z</time></trkpt><trkpt lat="45.313325" lon="7.56585"><ele>567.0</ele><time>2026-04-04T12:37:57.771Z</time></trkpt><trkpt lat="45.3133967" lon="7.56594"><ele>567.0</ele><time>2026-04-04T12:37:58.771Z</time></trkpt><trkpt lat="45.3134667" lon="7.5660683"><ele>567.0</ele><time>2026-04-04T12:37:59.771Z</time></trkpt><trkpt lat="45.3135417" lon="7.5661767"><ele>567.0</ele><time>2026-04-04T12:38:00.77Z</time></trkpt><trkpt lat="45.3136383" lon="7.5662433"><ele>569.25</ele><time>2026-04-04T12:38:01.771Z</time></trkpt><trkpt lat="45.3137533" lon="7.5662767"><ele>571.5</ele><time>2026-04-04T12:38:02.77Z</time></trkpt><trkpt lat="45.31387" lon="7.566305"><ele>573.75</ele><time>2026-04-04T12:38:03.77Z</time></trkpt><trkpt lat="45.3139883" lon="7.5663233"><ele>576.0</ele><time>2026-04-04T12:38:04.77Z</time></trkpt><trkpt lat="45.3140967" lon="7.566365"><ele>579.5</ele><time>2026-04-04T12:38:05.771Z</time></trkpt><trkpt lat="45.3142083" lon="7.5664133"><ele>583.0</ele><time>2026-04-04T12:38:06.77Z</time></trkpt><trkpt lat="45.3143183" lon="7.5664767"><ele>586.5</ele><time>2026-04-04T12:38:07.771Z</time></trkpt><trkpt lat="45.314425" lon="7.5665483"><ele>590.0</ele><time>2026-04-04T12:38:08.77Z</time></trkpt><trkpt lat="45.314525" lon="7.566625"><ele>590.0</ele><time>2026-04-04T12:38:09.77Z</time></trkpt><trkpt lat="45.3146167" lon="7.566715"><ele>590.0</ele><time>2026-04-04T12:38:10.77Z</time></trkpt><trkpt lat="45.3147233" lon="7.5668233"><ele>590.0</ele><time>2026-04-04T12:38:11.77Z</time></trkpt><trkpt lat="45.3148217" lon="7.5669"><ele>590.0</ele><time>2026-04-04T12:38:12.771Z</time></trkpt><trkpt lat="45.314925" lon="7.566955"><ele>589.75</ele><time>2026-04-04T12:38:13.771Z</time></trkpt><trkpt lat="45.31503" lon="7.5670017"><ele>589.5</ele><time>2026-04-04T12:38:14.77Z</time></trkpt><trkpt lat="45.3151417" lon="7.5670567"><ele>589.25</ele><time>2026-04-04T12:38:15.77Z</time></trkpt><trkpt lat="45.3152583" lon="7.5670983"><ele>589.0</ele><time>2026-04-04T12:38:16.77Z</time></trkpt><trkpt lat="45.3153633" lon="7.56715"><ele>589.0</ele><time>2026-04-04T12:38:17.77Z</time></trkpt><trkpt lat="45.3154567" lon="7.56721"><ele>589.0</ele><time>2026-04-04T12:38:18.771Z</time></trkpt><trkpt lat="45.3155367" lon="7.5672717"><ele>589.0</ele><time>2026-04-04T12:38:19.77Z</time></trkpt><trkpt lat="45.3156" lon="7.56733"><ele>589.0</ele><time>2026-04-04T12:38:20.771Z</time></trkpt><trkpt lat="45.3156517" lon="7.5673833"><ele>589.0</ele><time>2026-04-04T12:38:21.77Z</time></trkpt><trkpt lat="45.3157433" lon="7.5674033"><ele>589.0</ele><time>2026-04-04T12:38:23.77Z</time></trkpt><trkpt lat="45.3158" lon="7.567325"><ele>589.0</ele><time>2026-04-04T12:38:24.77Z</time></trkpt><trkpt lat="45.3158667" lon="7.56724"><ele>589.0</ele><time>2026-04-04T12:38:25.771Z</time></trkpt><trkpt lat="45.31595" lon="7.5671533"><ele>589.0</ele><time>2026-04-04T12:38:26.77Z</time></trkpt><trkpt lat="45.3160367" lon="7.56706"><ele>589.0</ele><time>2026-04-04T12:38:27.77Z</time></trkpt><trkpt lat="45.3161233" lon="7.56697"><ele>589.0</ele><time>2026-04-04T12:38:28.77Z</time></trkpt><trkpt lat="45.3162067" lon="7.56688"><ele>588.8333333333334</ele><time>2026-04-04T12:38:29.77Z</time></trkpt><trkpt lat="45.316285" lon="7.5667967"><ele>588.6666666666667</ele><time>2026-04-04T12:38:30.77Z</time></trkpt><trkpt lat="45.3163483" lon="7.56671"><ele>588.5</ele><time>2026-04-04T12:38:31.771Z</time></trkpt><trkpt lat="45.316385" lon="7.566625"><ele>588.3333333333334</ele><time>2026-04-04T12:38:32.771Z</time></trkpt><trkpt lat="45.3163967" lon="7.5665167"><ele>588.1666666666666</ele><time>2026-04-04T12:38:33.77Z</time></trkpt><trkpt lat="45.316385" lon="7.5663967"><ele>588.0</ele><time>2026-04-04T12:38:34.771Z</time></trkpt><trkpt lat="45.3163717" lon="7.5662783"><ele>587.1666666666666</ele><time>2026-04-04T12:38:35.77Z</time></trkpt><trkpt lat="45.3163517" lon="7.5661717"><ele>586.3333333333334</ele><time>2026-04-04T12:38:36.771Z</time></trkpt><trkpt lat="45.31635" lon="7.5660733"><ele>585.5</ele><time>2026-04-04T12:38:37.771Z</time></trkpt><trkpt lat="45.31638" lon="7.5659883"><ele>584.6666666666667</ele><time>2026-04-04T12:38:38.77Z</time></trkpt><trkpt lat="45.3164283" lon="7.5659067"><ele>583.8333333333334</ele><time>2026-04-04T12:38:39.77Z</time></trkpt><trkpt lat="45.3165" lon="7.5658317"><ele>583.0</ele><time>2026-04-04T12:38:40.771Z</time></trkpt><trkpt lat="45.31659" lon="7.565765"><ele>588.0</ele><time>2026-04-04T12:38:41.77Z</time></trkpt><trkpt lat="45.3166933" lon="7.5657017"><ele>593.0</ele><time>2026-04-04T12:38:42.771Z</time></trkpt><trkpt lat="45.3168" lon="7.5656467"><ele>598.0</ele><time>2026-04-04T12:38:43.77Z</time></trkpt><trkpt lat="45.3169133" lon="7.565605"><ele>603.0</ele><time>2026-04-04T12:38:44.77Z</time></trkpt><trkpt lat="45.3170117" lon="7.5655517"><ele>608.0</ele><time>2026-04-04T12:38:45.77Z</time></trkpt><trkpt lat="45.3170867" lon="7.56548"><ele>608.0</ele><time>2026-04-04T12:38:46.77Z</time></trkpt><trkpt lat="45.3171617" lon="7.5653933"><ele>608.0</ele><time>2026-04-04T12:38:47.77Z</time></trkpt><trkpt lat="45.317225" lon="7.5652917"><ele>608.0</ele><time>2026-04-04T12:38:48.77Z</time></trkpt><trkpt lat="45.3172867" lon="7.565175"><ele>608.0</ele><time>2026-04-04T12:38:49.77Z</time></trkpt><trkpt lat="45.31735" lon="7.565055"><ele>608.0</ele><time>2026-04-04T12:38:50.77Z</time></trkpt><trkpt lat="45.31741" lon="7.56494"><ele>607.6</ele><time>2026-04-04T12:38:51.77Z</time></trkpt><trkpt lat="45.3174733" lon="7.56482"><ele>607.1999999999999</ele><time>2026-04-04T12:38:52.771Z</time></trkpt><trkpt lat="45.31754" lon="7.5646917"><ele>606.8</ele><time>2026-04-04T12:38:53.77Z</time></trkpt><trkpt lat="45.317605" lon="7.5645767"><ele>606.4</ele><time>2026-04-04T12:38:54.77Z</time></trkpt><trkpt lat="45.3176717" lon="7.5644667"><ele>606.0</ele><time>2026-04-04T12:38:55.77Z</time></trkpt><trkpt lat="45.3177383" lon="7.564365"><ele>606.0</ele><time>2026-04-04T12:38:56.77Z</time></trkpt><trkpt lat="45.3178033" lon="7.56427"><ele>606.0</ele><time>2026-04-04T12:38:57.771Z</time></trkpt><trkpt lat="45.3178717" lon="7.564165"><ele>606.0</ele><time>2026-04-04T12:38:58.77Z</time></trkpt><trkpt lat="45.3179333" lon="7.5640683"><ele>606.0</ele><time>2026-04-04T12:38:59.77Z</time></trkpt><trkpt lat="45.3179917" lon="7.5639817"><ele>606.0</ele><time>2026-04-04T12:39:00.77Z</time></trkpt><trkpt lat="45.3180583" lon="7.5639"><ele>611.1666666666666</ele><time>2026-04-04T12:39:01.77Z</time></trkpt><trkpt lat="45.31812" lon="7.5638067"><ele>616.3333333333334</ele><time>2026-04-04T12:39:02.77Z</time></trkpt><trkpt lat="45.3181817" lon="7.5637183"><ele>621.5</ele><time>2026-04-04T12:39:03.77Z</time></trkpt><trkpt lat="45.3182417" lon="7.56363"><ele>626.6666666666667</ele><time>2026-04-04T12:39:04.771Z</time></trkpt><trkpt lat="45.318295" lon="7.5635367"><ele>631.8333333333334</ele><time>2026-04-04T12:39:05.77Z</time></trkpt><trkpt lat="45.3183533" lon="7.5634417"><ele>637.0</ele><time>2026-04-04T12:39:06.77Z</time></trkpt><trkpt lat="45.3184133" lon="7.5633467"><ele>637.0</ele><time>2026-04-04T12:39:07.77Z</time></trkpt><trkpt lat="45.3184667" lon="7.5632517"><ele>637.0</ele><time>2026-04-04T12:39:08.771Z</time></trkpt><trkpt lat="45.318515" lon="7.5631633"><ele>637.0</ele><time>2026-04-04T12:39:09.77Z</time></trkpt><trkpt lat="45.3185583" lon="7.563095"><ele>637.0</ele><time>2026-04-04T12:39:10.771Z</time></trkpt><trkpt lat="45.3186183" lon="7.56296"><ele>637.0</ele><time>2026-04-04T12:39:12.77Z</time></trkpt><trkpt lat="45.3185783" lon="7.56283"><ele>637.0</ele><time>2026-04-04T12:39:14.771Z</time></trkpt><trkpt lat="45.3185183" lon="7.5627167"><ele>636.3333333333334</ele><time>2026-04-04T12:39:16.771Z</time></trkpt><trkpt lat="45.31849" lon="7.5626267"><ele>635.6666666666667</ele><time>2026-04-04T12:39:17.77Z</time></trkpt><trkpt lat="45.3184783" lon="7.5625283"><ele>635.0</ele><time>2026-04-04T12:39:18.77Z</time></trkpt><trkpt lat="45.318485" lon="7.5624033"><ele>634.3333333333334</ele><time>2026-04-04T12:39:19.77Z</time></trkpt><trkpt lat="45.3185083" lon="7.5622667"><ele>633.6666666666666</ele><time>2026-04-04T12:39:20.77Z</time></trkpt><trkpt lat="45.3185483" lon="7.5621217"><ele>633.0</ele><time>2026-04-04T12:39:21.77Z</time></trkpt><trkpt lat="45.3186017" lon="7.5619783"><ele>632.8333333333334</ele><time>2026-04-04T12:39:22.77Z</time></trkpt><trkpt lat="45.3186567" lon="7.5618483"><ele>632.6666666666666</ele><time>2026-04-04T12:39:23.771Z</time></trkpt><trkpt lat="45.3187017" lon="7.5617317"><ele>632.5</ele><time>2026-04-04T12:39:24.77Z</time></trkpt><trkpt lat="45.31873" lon="7.5616183"><ele>632.3333333333333</ele><time>2026-04-04T12:39:25.77Z</time></trkpt><trkpt lat="45.3187533" lon="7.5615033"><ele>632.1666666666666</ele><time>2026-04-04T12:39:26.771Z</time></trkpt><trkpt lat="45.3187533" lon="7.5613933"><ele>632.0</ele><time>2026-04-04T12:39:27.77Z</time></trkpt><trkpt lat="45.3187517" lon="7.5612983"><ele>632.0</ele><time>2026-04-04T12:39:28.771Z</time></trkpt><trkpt lat="45.3187267" lon="7.5612133"><ele>632.0</ele><time>2026-04-04T12:39:29.77Z</time></trkpt><trkpt lat="45.31872" lon="7.5610433"><ele>632.0</ele><time>2026-04-04T12:39:31.77Z</time></trkpt><trkpt lat="45.3187633" lon="7.5609017"><ele>632.0</ele><time>2026-04-04T12:39:33.77Z</time></trkpt><trkpt lat="45.318865" lon="7.5607933"><ele>632.0</ele><time>2026-04-04T12:39:35.77Z</time></trkpt><trkpt lat="45.3189267" lon="7.560755"><ele>635.0000000000001</ele><time>2026-04-04T12:39:36.771Z</time></trkpt><trkpt lat="45.31899" lon="7.5607517"><ele>638.0</ele><time>2026-04-04T12:39:37.77Z</time></trkpt><trkpt lat="45.3190517" lon="7.5607817"><ele>641.0</ele><time>2026-04-04T12:39:38.77Z</time></trkpt><trkpt lat="45.3191133" lon="7.56084"><ele>644.0</ele><time>2026-04-04T12:39:39.77Z</time></trkpt><trkpt lat="45.3191817" lon="7.5609033"><ele>647.0</ele><time>2026-04-04T12:39:40.77Z</time></trkpt><trkpt lat="45.3192517" lon="7.560955"><ele>650.0000000000001</ele><time>2026-04-04T12:39:41.77Z</time></trkpt><trkpt lat="45.3193267" lon="7.5609833"><ele>653.0</ele><time>2026-04-04T12:39:42.77Z</time></trkpt><trkpt lat="45.3194033" lon="7.5609933"><ele>653.0</ele><time>2026-04-04T12:39:43.77Z</time></trkpt><trkpt lat="45.3194783" lon="7.5609817"><ele>653.0</ele><time>2026-04-04T12:39:44.771Z</time></trkpt><trkpt lat="45.31957" lon="7.5609583"><ele>653.0</ele><time>2026-04-04T12:39:45.77Z</time></trkpt><trkpt lat="45.31966" lon="7.5609283"><ele>653.0</ele><time>2026-04-04T12:39:46.77Z</time></trkpt><trkpt lat="45.319755" lon="7.5609067"><ele>653.0</ele><time>2026-04-04T12:39:47.77Z</time></trkpt><trkpt lat="45.319845" lon="7.5608767"><ele>656.6666666666666</ele><time>2026-04-04T12:39:48.77Z</time></trkpt><trkpt lat="45.31992" lon="7.560825"><ele>660.3333333333333</ele><time>2026-04-04T12:39:49.771Z</time></trkpt><trkpt lat="45.3199883" lon="7.560755"><ele>664.0</ele><time>2026-04-04T12:39:50.77Z</time></trkpt><trkpt lat="45.3200517" lon="7.5606617"><ele>667.6666666666666</ele><time>2026-04-04T12:39:51.77Z</time></trkpt><trkpt lat="45.32011" lon="7.56057"><ele>671.3333333333334</ele><time>2026-04-04T12:39:52.77Z</time></trkpt><trkpt lat="45.3201583" lon="7.5604967"><ele>675.0</ele><time>2026-04-04T12:39:53.77Z</time></trkpt><trkpt lat="45.3202533" lon="7.5603917"><ele>676.2</ele><time>2026-04-04T12:39:55.771Z</time></trkpt><trkpt lat="45.3203817" lon="7.560335"><ele>677.4</ele><time>2026-04-04T12:39:57.771Z</time></trkpt><trkpt lat="45.3204667" lon="7.5603317"><ele>678.5999999999999</ele><time>2026-04-04T12:39:58.77Z</time></trkpt><trkpt lat="45.3205483" lon="7.5603183"><ele>679.8</ele><time>2026-04-04T12:39:59.771Z</time></trkpt><trkpt lat="45.3206217" lon="7.5602967"><ele>681.0</ele><time>2026-04-04T12:40:00.77Z</time></trkpt><trkpt lat="45.3206933" lon="7.5602683"><ele>681.0</ele><time>2026-04-04T12:40:01.77Z</time></trkpt><trkpt lat="45.3207617" lon="7.56023"><ele>681.0</ele><time>2026-04-04T12:40:02.77Z</time></trkpt><trkpt lat="45.3208217" lon="7.5601833"><ele>681.0</ele><time>2026-04-04T12:40:03.771Z</time></trkpt><trkpt lat="45.3209267" lon="7.560095"><ele>681.0</ele><time>2026-04-04T12:40:05.77Z</time></trkpt><trkpt lat="45.3210483" lon="7.56008"><ele>681.0</ele><time>2026-04-04T12:40:07.771Z</time></trkpt><trkpt lat="45.3211183" lon="7.5600917"><ele>681.0</ele><time>2026-04-04T12:40:08.77Z</time></trkpt><trkpt lat="45.321195" lon="7.5601383"><ele>681.0</ele><time>2026-04-04T12:40:09.77Z</time></trkpt><trkpt lat="45.3212767" lon="7.5601983"><ele>681.0</ele><time>2026-04-04T12:40:10.77Z</time></trkpt><trkpt lat="45.3213533" lon="7.560255"><ele>681.0</ele><time>2026-04-04T12:40:11.77Z</time></trkpt><trkpt lat="45.3214267" lon="7.56031"><ele>681.0</ele><time>2026-04-04T12:40:12.77Z</time></trkpt><trkpt lat="45.3214917" lon="7.56037"><ele>681.0</ele><time>2026-04-04T12:40:13.77Z</time></trkpt><trkpt lat="45.3215517" lon="7.5604417"><ele>686.1666666666666</ele><time>2026-04-04T12:40:14.77Z</time></trkpt><trkpt lat="45.3216033" lon="7.5605067"><ele>691.3333333333334</ele><time>2026-04-04T12:40:15.771Z</time></trkpt><trkpt lat="45.3216517" lon="7.560565"><ele>696.5</ele><time>2026-04-04T12:40:16.77Z</time></trkpt><trkpt lat="45.3217583" lon="7.5606067"><ele>701.6666666666667</ele><time>2026-04-04T12:40:18.771Z</time></trkpt><trkpt lat="45.3218233" lon="7.5605867"><ele>706.8333333333334</ele><time>2026-04-04T12:40:19.77Z</time></trkpt><trkpt lat="45.3219283" lon="7.56051"><ele>712.0</ele><time>2026-04-04T12:40:21.77Z</time></trkpt><trkpt lat="45.321975" lon="7.5604317"><ele>710.1666666666667</ele><time>2026-04-04T12:40:22.77Z</time></trkpt><trkpt lat="45.3220117" lon="7.5603317"><ele>708.3333333333334</ele><time>2026-04-04T12:40:23.77Z</time></trkpt><trkpt lat="45.3220517" lon="7.56025"><ele>706.5</ele><time>2026-04-04T12:40:24.77Z</time></trkpt><trkpt lat="45.322095" lon="7.5601717"><ele>704.6666666666666</ele><time>2026-04-04T12:40:25.77Z</time></trkpt><trkpt lat="45.3221633" lon="7.5600717"><ele>702.8333333333333</ele><time>2026-04-04T12:40:27.77Z</time></trkpt><trkpt lat="45.3222583" lon="7.5600383"><ele>701.0</ele><time>2026-04-04T12:40:29.771Z</time></trkpt><trkpt lat="45.322375" lon="7.560095"><ele>701.0</ele><time>2026-04-04T12:40:31.77Z</time></trkpt><trkpt lat="45.3224317" lon="7.56017"><ele>701.0</ele><time>2026-04-04T12:40:33.77Z</time></trkpt><trkpt lat="45.3223767" lon="7.56028"><ele>701.0</ele><time>2026-04-04T12:40:37.77Z</time></trkpt><trkpt lat="45.3223517" lon="7.5603833"><ele>701.0</ele><time>2026-04-04T12:40:39.77Z</time></trkpt><trkpt lat="45.3223717" lon="7.5605383"><ele>701.0</ele><time>2026-04-04T12:40:41.77Z</time></trkpt><trkpt lat="45.3223783" lon="7.560635"><ele>701.0</ele><time>2026-04-04T12:40:42.77Z</time></trkpt><trkpt lat="45.3223917" lon="7.5607267"><ele>705.0</ele><time>2026-04-04T12:40:43.77Z</time></trkpt><trkpt lat="45.3223967" lon="7.5609017"><ele>709.0</ele><time>2026-04-04T12:40:45.77Z</time></trkpt><trkpt lat="45.3223933" lon="7.5610317"><ele>713.0</ele><time>2026-04-04T12:40:47.771Z</time></trkpt><trkpt lat="45.3223767" lon="7.561135"><ele>717.0</ele><time>2026-04-04T12:40:49.77Z</time></trkpt><trkpt lat="45.32237" lon="7.5612417"><ele>721.0</ele><time>2026-04-04T12:40:51.77Z</time></trkpt><trkpt lat="45.32236" lon="7.5613583"><ele>725.0</ele><time>2026-04-04T12:40:53.77Z</time></trkpt><trkpt lat="45.3223383" lon="7.5614833"><ele>727.4</ele><time>2026-04-04T12:40:55.77Z</time></trkpt><trkpt lat="45.3223017" lon="7.5615867"><ele>729.8</ele><time>2026-04-04T12:40:57.77Z</time></trkpt><trkpt lat="45.3222367" lon="7.561675"><ele>732.2</ele><time>2026-04-04T12:40:59.771Z</time></trkpt><trkpt lat="45.3221167" lon="7.561765"><ele>734.6</ele><time>2026-04-04T12:41:01.771Z</time></trkpt><trkpt lat="45.3220167" lon="7.5618317"><ele>737.0</ele><time>2026-04-04T12:41:03.77Z</time></trkpt><trkpt lat="45.3219317" lon="7.5618817"><ele>737.0</ele><time>2026-04-04T12:41:04.771Z</time></trkpt><trkpt lat="45.321825" lon="7.561945"><ele>737.0</ele><time>2026-04-04T12:41:05.771Z</time></trkpt><trkpt lat="45.3217183" lon="7.5620167"><ele>737.0</ele><time>2026-04-04T12:41:06.77Z</time></trkpt><trkpt lat="45.3216267" lon="7.5620733"><ele>737.0</ele><time>2026-04-04T12:41:07.77Z</time></trkpt><trkpt lat="45.3215333" lon="7.5621483"><ele>737.0</ele><time>2026-04-04T12:41:08.77Z</time></trkpt><trkpt lat="45.321445" lon="7.5622183"><ele>738.3333333333333</ele><time>2026-04-04T12:41:09.77Z</time></trkpt><trkpt lat="45.3213567" lon="7.5622917"><ele>739.6666666666666</ele><time>2026-04-04T12:41:10.771Z</time></trkpt><trkpt lat="45.3212767" lon="7.562365"><ele>741.0</ele><time>2026-04-04T12:41:11.77Z</time></trkpt><trkpt lat="45.3212283" lon="7.562455"><ele>742.3333333333334</ele><time>2026-04-04T12:41:12.769Z</time></trkpt><trkpt lat="45.321185" lon="7.5625483"><ele>743.6666666666667</ele><time>2026-04-04T12:41:13.769Z</time></trkpt><trkpt lat="45.3211383" lon="7.5626383"><ele>745.0</ele><time>2026-04-04T12:41:14.769Z</time></trkpt><trkpt lat="45.3211" lon="7.5627333"><ele>745.0</ele><time>2026-04-04T12:41:15.769Z</time></trkpt><trkpt lat="45.321065" lon="7.56283"><ele>745.0</ele><time>2026-04-04T12:41:16.769Z</time></trkpt><trkpt lat="45.3210267" lon="7.5629283"><ele>745.0</ele><time>2026-04-04T12:41:17.77Z</time></trkpt><trkpt lat="45.3209883" lon="7.5630233"><ele>745.0</ele><time>2026-04-04T12:41:18.769Z</time></trkpt><trkpt lat="45.3209517" lon="7.5630983"><ele>745.0</ele><time>2026-04-04T12:41:19.77Z</time></trkpt><trkpt lat="45.3208917" lon="7.5631833"><ele>745.0</ele><time>2026-04-04T12:41:21.769Z</time></trkpt><trkpt lat="45.3209417" lon="7.5630583"><ele>747.8333333333334</ele><time>2026-04-04T12:41:26.77Z</time></trkpt><trkpt lat="45.3210017" lon="7.563005"><ele>750.6666666666667</ele><time>2026-04-04T12:41:27.77Z</time></trkpt><trkpt lat="45.32107" lon="7.5629617"><ele>753.5</ele><time>2026-04-04T12:41:28.769Z</time></trkpt><trkpt lat="45.3211467" lon="7.5629267"><ele>756.3333333333334</ele><time>2026-04-04T12:41:29.769Z</time></trkpt><trkpt lat="45.3212267" lon="7.562895"><ele>759.1666666666666</ele><time>2026-04-04T12:41:30.769Z</time></trkpt><trkpt lat="45.321315" lon="7.5628783"><ele>762.0</ele><time>2026-04-04T12:41:31.769Z</time></trkpt><trkpt lat="45.3214033" lon="7.5628683"><ele>763.0</ele><time>2026-04-04T12:41:32.769Z</time></trkpt><trkpt lat="45.3215" lon="7.562855"><ele>764.0</ele><time>2026-04-04T12:41:33.77Z</time></trkpt><trkpt lat="45.3215917" lon="7.5628333"><ele>765.0</ele><time>2026-04-04T12:41:34.77Z</time></trkpt><trkpt lat="45.3216783" lon="7.5628083"><ele>766.0</ele><time>2026-04-04T12:41:35.769Z</time></trkpt><trkpt lat="45.32176" lon="7.562795"><ele>767.0</ele><time>2026-04-04T12:41:36.769Z</time></trkpt><trkpt lat="45.3218383" lon="7.5627883"><ele>768.0</ele><time>2026-04-04T12:41:37.769Z</time></trkpt><trkpt lat="45.3219167" lon="7.5628"><ele>768.0</ele><time>2026-04-04T12:41:38.77Z</time></trkpt><trkpt lat="45.3219867" lon="7.5628133"><ele>768.0</ele><time>2026-04-04T12:41:39.77Z</time></trkpt><trkpt lat="45.3220617" lon="7.5628317"><ele>768.0</ele><time>2026-04-04T12:41:40.77Z</time></trkpt><trkpt lat="45.322145" lon="7.5628683"><ele>768.0</ele><time>2026-04-04T12:41:41.769Z</time></trkpt><trkpt lat="45.3222267" lon="7.5629033"><ele>768.0</ele><time>2026-04-04T12:41:42.769Z</time></trkpt><trkpt lat="45.32231" lon="7.5629317"><ele>768.0</ele><time>2026-04-04T12:41:43.769Z</time></trkpt><trkpt lat="45.322395" lon="7.5629583"><ele>775.3333333333334</ele><time>2026-04-04T12:41:44.769Z</time></trkpt><trkpt lat="45.3224783" lon="7.5629733"><ele>782.6666666666667</ele><time>2026-04-04T12:41:45.769Z</time></trkpt><trkpt lat="45.3225617" lon="7.5629933"><ele>790.0</ele><time>2026-04-04T12:41:46.769Z</time></trkpt><trkpt lat="45.3226367" lon="7.5630083"><ele>797.3333333333334</ele><time>2026-04-04T12:41:47.769Z</time></trkpt><trkpt lat="45.3227283" lon="7.563055"><ele>804.6666666666667</ele><time>2026-04-04T12:41:48.77Z</time></trkpt><trkpt lat="45.322815" lon="7.5630833"><ele>812.0</ele><time>2026-04-04T12:41:49.769Z</time></trkpt><trkpt lat="45.322895" lon="7.5631"><ele>812.0</ele><time>2026-04-04T12:41:50.769Z</time></trkpt><trkpt lat="45.322975" lon="7.5631217"><ele>812.0</ele><time>2026-04-04T12:41:51.77Z</time></trkpt><trkpt lat="45.3230467" lon="7.5631367"><ele>812.0</ele><time>2026-04-04T12:41:52.77Z</time></trkpt><trkpt lat="45.3231217" lon="7.563165"><ele>812.0</ele><time>2026-04-04T12:41:53.769Z</time></trkpt><trkpt lat="45.3231983" lon="7.5632"><ele>812.0</ele><time>2026-04-04T12:41:54.769Z</time></trkpt><trkpt lat="45.323265" lon="7.5632333"><ele>812.0</ele><time>2026-04-04T12:41:55.769Z</time></trkpt><trkpt lat="45.3233283" lon="7.56325"><ele>812.0</ele><time>2026-04-04T12:41:56.769Z</time></trkpt><trkpt lat="45.3233933" lon="7.563265"><ele>813.5000000000001</ele><time>2026-04-04T12:41:57.769Z</time></trkpt><trkpt lat="45.3234633" lon="7.56328"><ele>815.0</ele><time>2026-04-04T12:41:58.77Z</time></trkpt><trkpt lat="45.3235317" lon="7.5632917"><ele>816.5</ele><time>2026-04-04T12:41:59.769Z</time></trkpt><trkpt lat="45.3236017" lon="7.563315"><ele>818.0</ele><time>2026-04-04T12:42:00.769Z</time></trkpt><trkpt lat="45.3236733" lon="7.563355"><ele>819.5000000000001</ele><time>2026-04-04T12:42:01.769Z</time></trkpt><trkpt lat="45.3237467" lon="7.5634117"><ele>821.0</ele><time>2026-04-04T12:42:02.77Z</time></trkpt><trkpt lat="45.3238217" lon="7.5634867"><ele>821.5000000000001</ele><time>2026-04-04T12:42:03.769Z</time></trkpt><trkpt lat="45.3239017" lon="7.5635617"><ele>822.0</ele><time>2026-04-04T12:42:04.769Z</time></trkpt><trkpt lat="45.32398" lon="7.563635"><ele>822.5</ele><time>2026-04-04T12:42:05.769Z</time></trkpt><trkpt lat="45.324055" lon="7.563705"><ele>823.0</ele><time>2026-04-04T12:42:06.769Z</time></trkpt><trkpt lat="45.324125" lon="7.5637783"><ele>823.5000000000001</ele><time>2026-04-04T12:42:07.769Z</time></trkpt><trkpt lat="45.3241883" lon="7.56385"><ele>824.0</ele><time>2026-04-04T12:42:08.769Z</time></trkpt><trkpt lat="45.3242483" lon="7.5639083"><ele>825.1666666666667</ele><time>2026-04-04T12:42:09.77Z</time></trkpt><trkpt lat="45.3243083" lon="7.563955"><ele>826.3333333333334</ele><time>2026-04-04T12:42:10.769Z</time></trkpt><trkpt lat="45.3244083" lon="7.56402"><ele>827.5</ele><time>2026-04-04T12:42:12.769Z</time></trkpt><trkpt lat="45.3244817" lon="7.5640883"><ele>828.6666666666667</ele><time>2026-04-04T12:46:02.769Z</time></trkpt><trkpt lat="45.3245717" lon="7.5641317"><ele>829.8333333333334</ele><time>2026-04-04T12:46:04.768Z</time></trkpt><trkpt lat="45.3246317" lon="7.5641783"><ele>831.0</ele><time>2026-04-04T12:46:05.768Z</time></trkpt><trkpt lat="45.3246867" lon="7.564235"><ele>832.0</ele><time>2026-04-04T12:46:06.768Z</time></trkpt><trkpt lat="45.3247367" lon="7.564315"><ele>833.0</ele><time>2026-04-04T12:46:07.769Z</time></trkpt><trkpt lat="45.3247783" lon="7.5644133"><ele>834.0</ele><time>2026-04-04T12:46:08.768Z</time></trkpt><trkpt lat="45.3248133" lon="7.5645167"><ele>835.0</ele><time>2026-04-04T12:46:09.768Z</time></trkpt><trkpt lat="45.3248417" lon="7.5646167"><ele>836.0</ele><time>2026-04-04T12:46:10.768Z</time></trkpt><trkpt lat="45.3248683" lon="7.5647083"><ele>837.0</ele><time>2026-04-04T12:46:11.768Z</time></trkpt><trkpt lat="45.3249017" lon="7.5648033"><ele>837.0</ele><time>2026-04-04T12:46:12.768Z</time></trkpt><trkpt lat="45.3249517" lon="7.564895"><ele>837.0</ele><time>2026-04-04T12:46:13.769Z</time></trkpt><trkpt lat="45.32502" lon="7.56498"><ele>837.0</ele><time>2026-04-04T12:46:14.768Z</time></trkpt><trkpt lat="45.3250833" lon="7.565045"><ele>837.0</ele><time>2026-04-04T12:46:15.769Z</time></trkpt><trkpt lat="45.32514" lon="7.5650883"><ele>837.0</ele><time>2026-04-04T12:46:16.768Z</time></trkpt><trkpt lat="45.3252533" lon="7.5651083"><ele>837.0</ele><time>2026-04-04T12:46:18.768Z</time></trkpt><trkpt lat="45.3253233" lon="7.5651167"><ele>837.0</ele><time>2026-04-04T12:46:19.768Z</time></trkpt><trkpt lat="45.3253967" lon="7.5651367"><ele>837.0</ele><time>2026-04-04T12:46:20.768Z</time></trkpt><trkpt lat="45.3254733" lon="7.5651583"><ele>837.0</ele><time>2026-04-04T12:46:21.768Z</time></trkpt><trkpt lat="45.32555" lon="7.5652"><ele>837.0</ele><time>2026-04-04T12:46:22.768Z</time></trkpt><trkpt lat="45.3256367" lon="7.5652533"><ele>837.0</ele><time>2026-04-04T12:46:23.768Z</time></trkpt><trkpt lat="45.32572" lon="7.56531"><ele>837.0</ele><time>2026-04-04T12:46:24.768Z</time></trkpt><trkpt lat="45.3258133" lon="7.5653617"><ele>836.2</ele><time>2026-04-04T12:46:25.769Z</time></trkpt><trkpt lat="45.3259083" lon="7.56543"><ele>835.4000000000001</ele><time>2026-04-04T12:46:26.768Z</time></trkpt><trkpt lat="45.3260033" lon="7.5654933"><ele>834.5999999999999</ele><time>2026-04-04T12:46:27.768Z</time></trkpt><trkpt lat="45.3260867" lon="7.5655567"><ele>833.8</ele><time>2026-04-04T12:46:28.768Z</time></trkpt><trkpt lat="45.32617" lon="7.565615"><ele>833.0</ele><time>2026-04-04T12:46:29.768Z</time></trkpt><trkpt lat="45.3262467" lon="7.5656917"><ele>833.0</ele><time>2026-04-04T12:46:30.768Z</time></trkpt><trkpt lat="45.3263067" lon="7.5657567"><ele>833.0</ele><time>2026-04-04T12:46:31.768Z</time></trkpt><trkpt lat="45.326365" lon="7.56582"><ele>833.0</ele><time>2026-04-04T12:46:32.768Z</time></trkpt><trkpt lat="45.3264167" lon="7.56589"><ele>833.0</ele><time>2026-04-04T12:46:33.769Z</time></trkpt><trkpt lat="45.3264617" lon="7.565965"><ele>833.0</ele><time>2026-04-04T12:46:34.768Z</time></trkpt><trkpt lat="45.3265083" lon="7.5660617"><ele>833.0</ele><time>2026-04-04T12:46:35.768Z</time></trkpt><trkpt lat="45.3265333" lon="7.5661483"><ele>833.0</ele><time>2026-04-04T12:46:36.769Z</time></trkpt><trkpt lat="45.32659" lon="7.56629"><ele>835.0</ele><time>2026-04-04T12:46:38.768Z</time></trkpt><trkpt lat="45.32659" lon="7.566405"><ele>837.0</ele><time>2026-04-04T12:46:40.768Z</time></trkpt><trkpt lat="45.32662" lon="7.5665083"><ele>839.0</ele><time>2026-04-04T12:46:42.769Z</time></trkpt><trkpt lat="45.32668" lon="7.5666133"><ele>841.0</ele><time>2026-04-04T12:46:44.768Z</time></trkpt><trkpt lat="45.3267867" lon="7.5666933"><ele>843.0</ele><time>2026-04-04T12:46:46.768Z</time></trkpt><trkpt lat="45.326885" lon="7.5667533"><ele>843.0</ele><time>2026-04-04T12:46:48.768Z</time></trkpt><trkpt lat="45.3269917" lon="7.5668133"><ele>843.0</ele><time>2026-04-04T12:46:50.769Z</time></trkpt><trkpt lat="45.32706" lon="7.56688"><ele>843.0</ele><time>2026-04-04T12:46:52.768Z</time></trkpt><trkpt lat="45.3271083" lon="7.5669433"><ele>843.0</ele><time>2026-04-04T12:46:53.768Z</time></trkpt><trkpt lat="45.3271733" lon="7.567075"><ele>843.0</ele><time>2026-04-04T12:46:54.768Z</time></trkpt><trkpt lat="45.3272083" lon="7.5671833"><ele>848.8333333333334</ele><time>2026-04-04T12:46:55.768Z</time></trkpt><trkpt lat="45.3272283" lon="7.5672833"><ele>854.6666666666667</ele><time>2026-04-04T12:46:56.768Z</time></trkpt><trkpt lat="45.327255" lon="7.5674133"><ele>860.5</ele><time>2026-04-04T12:46:57.768Z</time></trkpt><trkpt lat="45.3272583" lon="7.567515"><ele>866.3333333333334</ele><time>2026-04-04T12:46:58.768Z</time></trkpt><trkpt lat="45.327275" lon="7.56762"><ele>872.1666666666667</ele><time>2026-04-04T12:46:59.768Z</time></trkpt><trkpt lat="45.3272783" lon="7.5677317"><ele>878.0</ele><time>2026-04-04T12:47:00.768Z</time></trkpt><trkpt lat="45.3272733" lon="7.5678567"><ele>880.0000000000001</ele><time>2026-04-04T12:47:01.768Z</time></trkpt><trkpt lat="45.327255" lon="7.5679867"><ele>882.0</ele><time>2026-04-04T12:47:02.769Z</time></trkpt><trkpt lat="45.327225" lon="7.5681033"><ele>884.0</ele><time>2026-04-04T12:47:03.768Z</time></trkpt><trkpt lat="45.3271933" lon="7.5682133"><ele>886.0</ele><time>2026-04-04T12:47:04.768Z</time></trkpt><trkpt lat="45.327155" lon="7.5683167"><ele>888.0000000000001</ele><time>2026-04-04T12:47:05.769Z</time></trkpt><trkpt lat="45.3271083" lon="7.5684283"><ele>890.0</ele><time>2026-04-04T12:47:06.768Z</time></trkpt><trkpt lat="45.3270667" lon="7.5685567"><ele>885.0</ele><time>2026-04-04T12:47:07.768Z</time></trkpt><trkpt lat="45.3270233" lon="7.5686767"><ele>880.0</ele><time>2026-04-04T12:47:08.768Z</time></trkpt><trkpt lat="45.326985" lon="7.5688083"><ele>875.0</ele><time>2026-04-04T12:47:09.768Z</time></trkpt><trkpt lat="45.3269717" lon="7.568905"><ele>870.0</ele><time>2026-04-04T12:47:10.769Z</time></trkpt><trkpt lat="45.3269433" lon="7.5690617"><ele>865.0</ele><time>2026-04-04T12:47:12.768Z</time></trkpt><trkpt lat="45.32697" lon="7.5692"><ele>865.0</ele><time>2026-04-04T12:47:14.768Z</time></trkpt><trkpt lat="45.3270633" lon="7.5692783"><ele>865.0</ele><time>2026-04-04T12:47:16.768Z</time></trkpt><trkpt lat="45.32718" lon="7.5692967"><ele>865.0</ele><time>2026-04-04T12:47:18.769Z</time></trkpt><trkpt lat="45.3272933" lon="7.5693067"><ele>865.0</ele><time>2026-04-04T12:47:20.768Z</time></trkpt><trkpt lat="45.3274083" lon="7.5693633"><ele>867.4999999999999</ele><time>2026-04-04T12:47:22.768Z</time></trkpt><trkpt lat="45.327465" lon="7.56941"><ele>870.0</ele><time>2026-04-04T12:47:23.768Z</time></trkpt><trkpt lat="45.32753" lon="7.5695383"><ele>872.5</ele><time>2026-04-04T12:47:25.768Z</time></trkpt><trkpt lat="45.3275383" lon="7.5696383"><ele>875.0</ele><time>2026-04-04T12:47:26.769Z</time></trkpt><trkpt lat="45.327545" lon="7.56975"><ele>877.4999999999999</ele><time>2026-04-04T12:47:27.768Z</time></trkpt><trkpt lat="45.3275583" lon="7.5698717"><ele>880.0</ele><time>2026-04-04T12:47:28.769Z</time></trkpt><trkpt lat="45.3275783" lon="7.5699833"><ele>879.9999999999999</ele><time>2026-04-04T12:47:29.768Z</time></trkpt><trkpt lat="45.3276017" lon="7.570105"><ele>880.0</ele><time>2026-04-04T12:47:30.768Z</time></trkpt><trkpt lat="45.327615" lon="7.5702117"><ele>880.0</ele><time>2026-04-04T12:47:31.769Z</time></trkpt><trkpt lat="45.32763" lon="7.57031"><ele>880.0</ele><time>2026-04-04T12:47:32.769Z</time></trkpt><trkpt lat="45.3276417" lon="7.5704067"><ele>879.9999999999999</ele><time>2026-04-04T12:47:33.768Z</time></trkpt><trkpt lat="45.3276533" lon="7.5705167"><ele>880.0</ele><time>2026-04-04T12:47:34.768Z</time></trkpt><trkpt lat="45.3276517" lon="7.5706133"><ele>880.9999999999999</ele><time>2026-04-04T12:47:35.769Z</time></trkpt><trkpt lat="45.3276367" lon="7.5707883"><ele>882.0</ele><time>2026-04-04T12:47:37.768Z</time></trkpt><trkpt lat="45.32763" lon="7.57088"><ele>883.0</ele><time>2026-04-04T12:47:38.768Z</time></trkpt><trkpt lat="45.32762" lon="7.57097"><ele>884.0</ele><time>2026-04-04T12:47:39.768Z</time></trkpt><trkpt lat="45.3276217" lon="7.57106"><ele>884.9999999999999</ele><time>2026-04-04T12:47:40.768Z</time></trkpt><trkpt lat="45.327635" lon="7.57116"><ele>886.0</ele><time>2026-04-04T12:47:41.769Z</time></trkpt><trkpt lat="45.327645" lon="7.5712767"><ele>887.4999999999999</ele><time>2026-04-04T12:47:42.768Z</time></trkpt><trkpt lat="45.3276467" lon="7.571385"><ele>889.0</ele><time>2026-04-04T12:47:43.769Z</time></trkpt><trkpt lat="45.3276383" lon="7.5714817"><ele>890.5</ele><time>2026-04-04T12:47:44.768Z</time></trkpt><trkpt lat="45.327635" lon="7.5715733"><ele>892.0</ele><time>2026-04-04T12:47:45.768Z</time></trkpt><trkpt lat="45.327635" lon="7.5716633"><ele>893.4999999999999</ele><time>2026-04-04T12:47:46.768Z</time></trkpt><trkpt lat="45.3276483" lon="7.5718167"><ele>895.0</ele><time>2026-04-04T12:47:48.768Z</time></trkpt><trkpt lat="45.3276883" lon="7.57193"><ele>894.9999999999999</ele><time>2026-04-04T12:47:49.769Z</time></trkpt><trkpt lat="45.3277533" lon="7.5720183"><ele>895.0</ele><time>2026-04-04T12:47:51.768Z</time></trkpt><trkpt lat="45.327795" lon="7.572135"><ele>895.0</ele><time>2026-04-04T12:48:37.768Z</time></trkpt><trkpt lat="45.327805" lon="7.572005"><ele>895.0</ele><time>2026-04-04T12:48:40.769Z</time></trkpt><trkpt lat="45.3278067" lon="7.5718867"><ele>894.9999999999999</ele><time>2026-04-04T12:48:42.769Z</time></trkpt><trkpt lat="45.3278117" lon="7.5717683"><ele>895.0</ele><time>2026-04-04T12:48:44.768Z</time></trkpt><trkpt lat="45.3278083" lon="7.5716383"><ele>894.9999999999999</ele><time>2026-04-04T12:48:46.768Z</time></trkpt><trkpt lat="45.3278183" lon="7.5715033"><ele>895.0</ele><time>2026-04-04T12:48:48.768Z</time></trkpt><trkpt lat="45.3278333" lon="7.5714133"><ele>895.0</ele><time>2026-04-04T12:48:49.769Z</time></trkpt><trkpt lat="45.3278683" lon="7.5713283"><ele>895.0</ele><time>2026-04-04T12:48:50.768Z</time></trkpt><trkpt lat="45.3279167" lon="7.571255"><ele>894.9999999999999</ele><time>2026-04-04T12:48:51.768Z</time></trkpt><trkpt lat="45.327965" lon="7.5711883"><ele>895.0</ele><time>2026-04-04T12:48:52.768Z</time></trkpt><trkpt lat="45.3280283" lon="7.5711067"><ele>899.3333333333333</ele><time>2026-04-04T12:48:53.768Z</time></trkpt><trkpt lat="45.3280933" lon="7.5710317"><ele>903.6666666666666</ele><time>2026-04-04T12:48:54.768Z</time></trkpt><trkpt lat="45.3281517" lon="7.5709483"><ele>908.0</ele><time>2026-04-04T12:48:55.768Z</time></trkpt><trkpt lat="45.328205" lon="7.570865"><ele>912.3333333333333</ele><time>2026-04-04T12:48:56.769Z</time></trkpt><trkpt lat="45.3282617" lon="7.5707817"><ele>916.6666666666666</ele><time>2026-04-04T12:48:57.768Z</time></trkpt><trkpt lat="45.328315" lon="7.5707"><ele>921.0</ele><time>2026-04-04T12:48:58.768Z</time></trkpt><trkpt lat="45.3283583" lon="7.5706217"><ele>921.0</ele><time>2026-04-04T12:48:59.769Z</time></trkpt><trkpt lat="45.3283917" lon="7.5705317"><ele>921.0</ele><time>2026-04-04T12:49:00.768Z</time></trkpt><trkpt lat="45.3284183" lon="7.5704417"><ele>921.0</ele><time>2026-04-04T12:49:01.768Z</time></trkpt><trkpt lat="45.3284433" lon="7.5703567"><ele>921.0</ele><time>2026-04-04T12:49:02.768Z</time></trkpt><trkpt lat="45.3285017" lon="7.57022"><ele>921.0</ele><time>2026-04-04T12:49:04.768Z</time></trkpt><trkpt lat="45.3285567" lon="7.5701283"><ele>921.0</ele><time>2026-04-04T12:49:06.768Z</time></trkpt><trkpt lat="45.3286" lon="7.5700617"><ele>921.1999999999999</ele><time>2026-04-04T12:49:08.767Z</time></trkpt><trkpt lat="45.32864" lon="7.569965"><ele>921.3999999999999</ele><time>2026-04-04T12:49:10.767Z</time></trkpt><trkpt lat="45.32875" lon="7.5698267"><ele>921.6</ele><time>2026-04-04T12:50:09.767Z</time></trkpt><trkpt lat="45.3287833" lon="7.569695"><ele>921.8</ele><time>2026-04-04T12:50:11.767Z</time></trkpt><trkpt lat="45.3288217" lon="7.5695683"><ele>922.0</ele><time>2026-04-04T12:50:13.768Z</time></trkpt><trkpt lat="45.3288617" lon="7.5694733"><ele>928.2</ele><time>2026-04-04T12:50:15.768Z</time></trkpt><trkpt lat="45.328895" lon="7.5693683"><ele>934.4000000000001</ele><time>2026-04-04T12:50:17.767Z</time></trkpt><trkpt lat="45.3289583" lon="7.56923"><ele>940.5999999999999</ele><time>2026-04-04T12:50:19.768Z</time></trkpt><trkpt lat="45.32902" lon="7.5691117"><ele>946.8</ele><time>2026-04-04T12:50:21.768Z</time></trkpt><trkpt lat="45.329065" lon="7.56901"><ele>953.0</ele><time>2026-04-04T12:50:23.768Z</time></trkpt><trkpt lat="45.3290817" lon="7.5689083"><ele>953.0</ele><time>2026-04-04T12:50:25.767Z</time></trkpt><trkpt lat="45.3290917" lon="7.5688083"><ele>953.0</ele><time>2026-04-04T12:50:27.768Z</time></trkpt><trkpt lat="45.3291183" lon="7.5686933"><ele>953.0</ele><time>2026-04-04T12:50:29.768Z</time></trkpt><trkpt lat="45.3291767" lon="7.5685583"><ele>953.0</ele><time>2026-04-04T12:50:31.768Z</time></trkpt><trkpt lat="45.3292217" lon="7.56842"><ele>953.0</ele><time>2026-04-04T12:50:33.768Z</time></trkpt><trkpt lat="45.3292833" lon="7.5682417"><ele>953.0</ele><time>2026-04-04T12:50:35.767Z</time></trkpt><trkpt lat="45.3293367" lon="7.5681183"><ele>953.0</ele><time>2026-04-04T12:50:37.768Z</time></trkpt><trkpt lat="45.3294717" lon="7.567975"><ele>953.0</ele><time>2026-04-04T12:51:01.768Z</time></trkpt><trkpt lat="45.3295317" lon="7.56791"><ele>953.0</ele><time>2026-04-04T12:51:03.767Z</time></trkpt><trkpt lat="45.3296083" lon="7.56783"><ele>953.0</ele><time>2026-04-04T12:51:05.767Z</time></trkpt><trkpt lat="45.32968" lon="7.5676967"><ele>953.0</ele><time>2026-04-04T12:51:07.767Z</time></trkpt><trkpt lat="45.3297133" lon="7.56761"><ele>953.0</ele><time>2026-04-04T12:51:08.767Z</time></trkpt><trkpt lat="45.32979" lon="7.56748"><ele>953.0</ele><time>2026-04-04T12:51:10.768Z</time></trkpt><trkpt lat="45.329875" lon="7.5673883"><ele>953.0</ele><time>2026-04-04T12:51:12.768Z</time></trkpt><trkpt lat="45.3299783" lon="7.567315"><ele>953.0</ele><time>2026-04-04T12:51:14.767Z</time></trkpt><trkpt lat="45.3300517" lon="7.5672417"><ele>956.1666666666667</ele><time>2026-04-04T12:51:16.768Z</time></trkpt><trkpt lat="45.33012" lon="7.56714"><ele>959.3333333333334</ele><time>2026-04-04T12:51:18.768Z</time></trkpt><trkpt lat="45.3301633" lon="7.5670667"><ele>962.5</ele><time>2026-04-04T12:51:19.768Z</time></trkpt><trkpt lat="45.3302533" lon="7.5669267"><ele>965.6666666666667</ele><time>2026-04-04T12:51:21.767Z</time></trkpt><trkpt lat="45.3302983" lon="7.5668517"><ele>968.8333333333334</ele><time>2026-04-04T12:51:22.767Z</time></trkpt><trkpt lat="45.3303433" lon="7.5667783"><ele>972.0</ele><time>2026-04-04T12:51:23.767Z</time></trkpt><trkpt lat="45.330385" lon="7.5667017"><ele>972.0</ele><time>2026-04-04T12:51:24.768Z</time></trkpt><trkpt lat="45.330455" lon="7.5665717"><ele>972.0</ele><time>2026-04-04T12:51:26.767Z</time></trkpt><trkpt lat="45.33052" lon="7.5664733"><ele>972.0</ele><time>2026-04-04T12:51:28.767Z</time></trkpt><trkpt lat="45.330565" lon="7.5663933"><ele>972.0</ele><time>2026-04-04T12:51:30.767Z</time></trkpt><trkpt lat="45.3305633" lon="7.5662767"><ele>972.0</ele><time>2026-04-04T12:51:33.767Z</time></trkpt><trkpt lat="45.3305433" lon="7.566175"><ele>972.0</ele><time>2026-04-04T12:51:35.767Z</time></trkpt><trkpt lat="45.3305117" lon="7.5660683"><ele>972.8</ele><time>2026-04-04T12:51:37.767Z</time></trkpt><trkpt lat="45.3304583" lon="7.5659267"><ele>973.6</ele><time>2026-04-04T12:51:39.767Z</time></trkpt><trkpt lat="45.330415" lon="7.565775"><ele>974.3999999999999</ele><time>2026-04-04T12:51:41.767Z</time></trkpt><trkpt lat="45.3303883" lon="7.5656733"><ele>975.1999999999999</ele><time>2026-04-04T12:51:43.767Z</time></trkpt><trkpt lat="45.3303833" lon="7.56558"><ele>976.0</ele><time>2026-04-04T12:51:46.767Z</time></trkpt><trkpt lat="45.3303983" lon="7.5654433"><ele>975.9999999999999</ele><time>2026-04-04T12:52:57.768Z</time></trkpt><trkpt lat="45.33045" lon="7.5653783"><ele>976.0</ele><time>2026-04-04T12:54:07.767Z</time></trkpt><trkpt lat="45.3305017" lon="7.5652933"><ele>975.9999999999999</ele><time>2026-04-04T12:54:10.766Z</time></trkpt><trkpt lat="45.3305583" lon="7.5652283"><ele>975.9999999999999</ele><time>2026-04-04T12:54:13.767Z</time></trkpt><trkpt lat="45.330625" lon="7.565195"><ele>976.0</ele><time>2026-04-04T12:54:15.767Z</time></trkpt><trkpt lat="45.3306967" lon="7.5651633"><ele>975.9999999999999</ele><time>2026-04-04T12:54:17.766Z</time></trkpt><trkpt lat="45.3307717" lon="7.5651383"><ele>975.9999999999999</ele><time>2026-04-04T12:54:19.766Z</time></trkpt><trkpt lat="45.3309254" lon="7.5651364"><ele>980.3333333333333</ele><time>2026-04-04T12:55:57.767Z</time></trkpt><trkpt lat="45.3309321" lon="7.565243"><ele>984.6666666666666</ele><time>2026-04-04T12:56:58.765Z</time></trkpt><trkpt lat="45.3309545" lon="7.5651388"><ele>989.0</ele><time>2026-04-04T12:58:18.765Z</time></trkpt><trkpt lat="45.3309959" lon="7.5650697"><ele>993.3333333333333</ele><time>2026-04-04T12:58:20.765Z</time></trkpt><trkpt lat="45.3310339" lon="7.5649785"><ele>997.6666666666666</ele><time>2026-04-04T12:58:22.765Z</time></trkpt><trkpt lat="45.3310866" lon="7.5648963"><ele>1002.0</ele><time>2026-04-04T12:58:24.765Z</time></trkpt><trkpt lat="45.3311656" lon="7.5647852"><ele>1002.0</ele><time>2026-04-04T12:58:26.765Z</time></trkpt><trkpt lat="45.3312166" lon="7.5647225"><ele>1002.0</ele><time>2026-04-04T12:58:27.765Z</time></trkpt><trkpt lat="45.3312741" lon="7.5646694"><ele>1002.0</ele><time>2026-04-04T12:58:28.765Z</time></trkpt><trkpt lat="45.331379" lon="7.5645906"><ele>1002.0</ele><time>2026-04-04T12:58:30.765Z</time></trkpt><trkpt lat="45.33146" lon="7.5645316"><ele>1002.0</ele><time>2026-04-04T12:58:32.765Z</time></trkpt><trkpt lat="45.3315156" lon="7.5644652"><ele>1002.0</ele><time>2026-04-04T12:58:34.765Z</time></trkpt><trkpt lat="45.3315643" lon="7.5644023"><ele>1002.8333333333334</ele><time>2026-04-04T12:58:36.765Z</time></trkpt><trkpt lat="45.3316184" lon="7.5643337"><ele>1003.6666666666667</ele><time>2026-04-04T12:58:38.765Z</time></trkpt><trkpt lat="45.3316711" lon="7.5642649"><ele>1004.5</ele><time>2026-04-04T12:58:40.766Z</time></trkpt><trkpt lat="45.3317312" lon="7.564175"><ele>1005.3333333333334</ele><time>2026-04-04T12:58:42.766Z</time></trkpt><trkpt lat="45.3317903" lon="7.564095"><ele>1006.1666666666667</ele><time>2026-04-04T12:58:44.766Z</time></trkpt><trkpt lat="45.3318533" lon="7.5640084"><ele>1007.0</ele><time>2026-04-04T12:58:46.766Z</time></trkpt><trkpt lat="45.3319078" lon="7.5638959"><ele>1007.0000000000001</ele><time>2026-04-04T12:58:48.765Z</time></trkpt><trkpt lat="45.331944" lon="7.5637856"><ele>1007.0</ele><time>2026-04-04T12:58:50.765Z</time></trkpt><trkpt lat="45.3319634" lon="7.5636629"><ele>1007.0</ele><time>2026-04-04T12:58:52.765Z</time></trkpt><trkpt lat="45.3319929" lon="7.5635527"><ele>1007.0</ele><time>2026-04-04T12:58:54.765Z</time></trkpt><trkpt lat="45.3320382" lon="7.5634468"><ele>1007.0000000000001</ele><time>2026-04-04T12:58:57.765Z</time></trkpt><trkpt lat="45.3320822" lon="7.5633813"><ele>1007.0</ele><time>2026-04-04T12:59:00.765Z</time></trkpt><trkpt lat="45.3321552" lon="7.5633182"><ele>1004.2</ele><time>2026-04-04T12:59:06.765Z</time></trkpt><trkpt lat="45.3321839" lon="7.5632377"><ele>1001.4000000000001</ele><time>2026-04-04T12:59:08.765Z</time></trkpt><trkpt lat="45.332217" lon="7.5631246"><ele>998.5999999999999</ele><time>2026-04-04T12:59:10.766Z</time></trkpt><trkpt lat="45.3322787" lon="7.5630145"><ele>995.8</ele><time>2026-04-04T12:59:12.766Z</time></trkpt><trkpt lat="45.3323642" lon="7.5629014"><ele>993.0</ele><time>2026-04-04T12:59:14.765Z</time></trkpt><trkpt lat="45.3324344" lon="7.5628061"><ele>991.5</ele><time>2026-04-04T12:59:16.765Z</time></trkpt><trkpt lat="45.3324798" lon="7.5627369"><ele>990.0</ele><time>2026-04-04T12:59:18.766Z</time></trkpt><trkpt lat="45.3325253" lon="7.5626229"><ele>988.5</ele><time>2026-04-04T12:59:20.766Z</time></trkpt><trkpt lat="45.3325631" lon="7.5625247"><ele>987.0</ele><time>2026-04-04T12:59:23.765Z</time></trkpt><trkpt lat="45.3325787" lon="7.5624183"><ele>985.5</ele><time>2026-04-04T12:59:26.766Z</time></trkpt><trkpt lat="45.332597" lon="7.5622985"><ele>984.0</ele><time>2026-04-04T12:59:29.765Z</time></trkpt><trkpt lat="45.3326272" lon="7.5621588"><ele>984.0</ele><time>2026-04-04T12:59:32.765Z</time></trkpt><trkpt lat="45.3326736" lon="7.5620609"><ele>984.0000000000001</ele><time>2026-04-04T12:59:34.766Z</time></trkpt><trkpt lat="45.3327403" lon="7.5619588"><ele>984.0000000000001</ele><time>2026-04-04T12:59:36.765Z</time></trkpt><trkpt lat="45.3328074" lon="7.5618348"><ele>984.0</ele><time>2026-04-04T12:59:38.765Z</time></trkpt><trkpt lat="45.3328559" lon="7.5617303"><ele>984.0</ele><time>2026-04-04T12:59:40.765Z</time></trkpt><trkpt lat="45.332898" lon="7.5616128"><ele>984.0</ele><time>2026-04-04T12:59:42.766Z</time></trkpt><trkpt lat="45.3329405" lon="7.5615237"><ele>984.0</ele><time>2026-04-04T12:59:44.765Z</time></trkpt><trkpt lat="45.3329809" lon="7.5614321"><ele>984.0</ele><time>2026-04-04T12:59:46.765Z</time></trkpt><trkpt lat="45.3330373" lon="7.5613217"><ele>984.0</ele><time>2026-04-04T12:59:48.765Z</time></trkpt><trkpt lat="45.333115" lon="7.561222"><ele>984.0</ele><time>2026-04-04T12:59:50.765Z</time></trkpt><trkpt lat="45.3331726" lon="7.5611551"><ele>984.0</ele><time>2026-04-04T12:59:52.765Z</time></trkpt><trkpt lat="45.3332341" lon="7.5610983"><ele>984.0000000000001</ele><time>2026-04-04T12:59:54.765Z</time></trkpt><trkpt lat="45.3332762" lon="7.5610262"><ele>984.0</ele><time>2026-04-04T12:59:56.766Z</time></trkpt><trkpt lat="45.3333311" lon="7.5609595"><ele>984.0000000000001</ele><time>2026-04-04T12:59:58.765Z</time></trkpt><trkpt lat="45.3333851" lon="7.5608892"><ele>984.0000000000001</ele><time>2026-04-04T13:00:00.765Z</time></trkpt><trkpt lat="45.3334382" lon="7.5608133"><ele>984.0</ele><time>2026-04-04T13:00:02.766Z</time></trkpt><trkpt lat="45.3334913" lon="7.560758"><ele>984.0000000000001</ele><time>2026-04-04T13:00:04.765Z</time></trkpt><trkpt lat="45.3335278" lon="7.5606809"><ele>984.0000000000001</ele><time>2026-04-04T13:00:06.765Z</time></trkpt><trkpt lat="45.3335658" lon="7.5605932"><ele>984.0</ele><time>2026-04-04T13:00:08.766Z</time></trkpt><trkpt lat="45.3336347" lon="7.5605119"><ele>984.0000000000001</ele><time>2026-04-04T13:00:10.766Z</time></trkpt><trkpt lat="45.3337063" lon="7.5604208"><ele>984.0000000000001</ele><time>2026-04-04T13:00:12.765Z</time></trkpt><trkpt lat="45.333785" lon="7.56029"><ele>984.0</ele><time>2026-04-04T13:00:14.766Z</time></trkpt><trkpt lat="45.3338783" lon="7.56018"><ele>984.0</ele><time>2026-04-04T13:00:16.766Z</time></trkpt><trkpt lat="45.3339783" lon="7.5600783"><ele>985.3333333333334</ele><time>2026-04-04T13:00:18.765Z</time></trkpt><trkpt lat="45.3340717" lon="7.5599833"><ele>986.6666666666667</ele><time>2026-04-04T13:00:20.765Z</time></trkpt><trkpt lat="45.33414" lon="7.5599083"><ele>988.0</ele><time>2026-04-04T13:00:22.765Z</time></trkpt><trkpt lat="45.3341983" lon="7.55986"><ele>989.3333333333334</ele><time>2026-04-04T13:00:24.765Z</time></trkpt><trkpt lat="45.3342583" lon="7.5598233"><ele>990.6666666666667</ele><time>2026-04-04T13:00:26.765Z</time></trkpt><trkpt lat="45.3343417" lon="7.55977"><ele>992.0</ele><time>2026-04-04T13:00:29.765Z</time></trkpt><trkpt lat="45.3344033" lon="7.55974"><ele>992.0</ele><time>2026-04-04T13:00:32.765Z</time></trkpt><trkpt lat="45.3344717" lon="7.5596933"><ele>992.0</ele><time>2026-04-04T13:00:36.765Z</time></trkpt><trkpt lat="45.33459" lon="7.5596617"><ele>992.0</ele><time>2026-04-04T13:01:08.764Z</time></trkpt><trkpt lat="45.3346317" lon="7.55978"><ele>992.0</ele><time>2026-04-04T13:02:36.764Z</time></trkpt><trkpt lat="45.3345433" lon="7.5597367"><ele>992.0</ele><time>2026-04-04T13:04:12.764Z</time></trkpt><trkpt lat="45.3345567" lon="7.5596217"><ele>992.0000000000001</ele><time>2026-04-04T13:06:05.763Z</time></trkpt><trkpt lat="45.334605" lon="7.5595117"><ele>992.0</ele><time>2026-04-04T13:06:08.763Z</time></trkpt><trkpt lat="45.3346467" lon="7.5594417"><ele>992.0</ele><time>2026-04-04T13:06:11.764Z</time></trkpt><trkpt lat="45.3346" lon="7.559525"><ele>992.0</ele><time>2026-04-04T13:06:17.763Z</time></trkpt><trkpt lat="45.334565" lon="7.5596033"><ele>992.0000000000001</ele><time>2026-04-04T13:06:22.763Z</time></trkpt><trkpt lat="45.334505" lon="7.55968"><ele>992.0</ele><time>2026-04-04T13:06:26.763Z</time></trkpt><trkpt lat="45.3344417" lon="7.5597783"><ele>992.0</ele><time>2026-04-04T13:06:29.764Z</time></trkpt><trkpt lat="45.33439" lon="7.5598517"><ele>992.0000000000001</ele><time>2026-04-04T13:06:31.763Z</time></trkpt><trkpt lat="45.334335" lon="7.55993"><ele>992.0</ele><time>2026-04-04T13:06:33.763Z</time></trkpt><trkpt lat="45.3342767" lon="7.559995"><ele>992.0</ele><time>2026-04-04T13:06:34.763Z</time></trkpt><trkpt lat="45.3342283" lon="7.560055"><ele>992.0000000000001</ele><time>2026-04-04T13:06:35.763Z</time></trkpt><trkpt lat="45.3341717" lon="7.5601133"><ele>992.0</ele><time>2026-04-04T13:06:36.764Z</time></trkpt><trkpt lat="45.334105" lon="7.5601867"><ele>992.0</ele><time>2026-04-04T13:06:37.763Z</time></trkpt><trkpt lat="45.33404" lon="7.5602583"><ele>992.0000000000001</ele><time>2026-04-04T13:06:38.763Z</time></trkpt><trkpt lat="45.3339833" lon="7.5603217"><ele>992.0</ele><time>2026-04-04T13:06:39.764Z</time></trkpt><trkpt lat="45.3339367" lon="7.5603833"><ele>992.0</ele><time>2026-04-04T13:06:40.763Z</time></trkpt><trkpt lat="45.3338817" lon="7.560485"><ele>992.0</ele><time>2026-04-04T13:06:42.763Z</time></trkpt><trkpt lat="45.3338183" lon="7.5605783"><ele>992.0000000000001</ele><time>2026-04-04T13:06:45.763Z</time></trkpt><trkpt lat="45.3337533" lon="7.560645"><ele>992.0</ele><time>2026-04-04T13:06:47.764Z</time></trkpt><trkpt lat="45.3336983" lon="7.5607383"><ele>991.1666666666667</ele><time>2026-04-04T13:06:49.764Z</time></trkpt><trkpt lat="45.333625" lon="7.56079"><ele>990.3333333333334</ele><time>2026-04-04T13:06:51.763Z</time></trkpt><trkpt lat="45.3335633" lon="7.5608517"><ele>989.5</ele><time>2026-04-04T13:06:53.764Z</time></trkpt><trkpt lat="45.3335217" lon="7.560945"><ele>988.6666666666667</ele><time>2026-04-04T13:06:55.763Z</time></trkpt><trkpt lat="45.3334683" lon="7.56104"><ele>987.8333333333334</ele><time>2026-04-04T13:06:57.763Z</time></trkpt><trkpt lat="45.3334183" lon="7.56111"><ele>987.0</ele><time>2026-04-04T13:06:59.763Z</time></trkpt><trkpt lat="45.33335" lon="7.5612067"><ele>987.0</ele><time>2026-04-04T13:07:02.764Z</time></trkpt><trkpt lat="45.33326" lon="7.56129"><ele>987.0</ele><time>2026-04-04T13:07:04.763Z</time></trkpt><trkpt lat="45.3331883" lon="7.5613867"><ele>987.0</ele><time>2026-04-04T13:07:06.763Z</time></trkpt><trkpt lat="45.3331317" lon="7.56149"><ele>987.0</ele><time>2026-04-04T13:07:08.763Z</time></trkpt><trkpt lat="45.3330783" lon="7.561625"><ele>987.0</ele><time>2026-04-04T13:07:10.763Z</time></trkpt><trkpt lat="45.3330317" lon="7.5617617"><ele>986.4000000000001</ele><time>2026-04-04T13:07:12.763Z</time></trkpt><trkpt lat="45.3329933" lon="7.5619033"><ele>985.8000000000001</ele><time>2026-04-04T13:07:14.764Z</time></trkpt><trkpt lat="45.3329417" lon="7.5620033"><ele>985.2</ele><time>2026-04-04T13:07:16.763Z</time></trkpt><trkpt lat="45.332825" lon="7.562115"><ele>984.6</ele><time>2026-04-04T13:07:25.764Z</time></trkpt><trkpt lat="45.3327917" lon="7.5622017"><ele>984.0</ele><time>2026-04-04T13:07:27.763Z</time></trkpt><trkpt lat="45.3327783" lon="7.56231"><ele>984.0</ele><time>2026-04-04T13:07:29.763Z</time></trkpt><trkpt lat="45.3327717" lon="7.5624433"><ele>984.0</ele><time>2026-04-04T13:07:32.763Z</time></trkpt><trkpt lat="45.33277" lon="7.5625733"><ele>984.0</ele><time>2026-04-04T13:07:34.764Z</time></trkpt><trkpt lat="45.3327433" lon="7.562715"><ele>984.0</ele><time>2026-04-04T13:07:36.763Z</time></trkpt><trkpt lat="45.3327" lon="7.5627967"><ele>984.0</ele><time>2026-04-04T13:07:37.763Z</time></trkpt><trkpt lat="45.33265" lon="7.56287"><ele>984.0</ele><time>2026-04-04T13:07:38.763Z</time></trkpt><trkpt lat="45.3326017" lon="7.5629383"><ele>985.5</ele><time>2026-04-04T13:07:39.764Z</time></trkpt><trkpt lat="45.3325533" lon="7.563"><ele>987.0</ele><time>2026-04-04T13:07:40.763Z</time></trkpt><trkpt lat="45.3324683" lon="7.5631067"><ele>988.5</ele><time>2026-04-04T13:07:42.763Z</time></trkpt><trkpt lat="45.3324317" lon="7.5632267"><ele>990.0</ele><time>2026-04-04T13:07:44.763Z</time></trkpt><trkpt lat="45.3323983" lon="7.5633117"><ele>991.5</ele><time>2026-04-04T13:07:46.764Z</time></trkpt><trkpt lat="45.3323383" lon="7.5633567"><ele>993.0</ele><time>2026-04-04T13:07:48.763Z</time></trkpt><trkpt lat="45.3322817" lon="7.5634267"><ele>993.0</ele><time>2026-04-04T13:07:51.763Z</time></trkpt><trkpt lat="45.3322633" lon="7.563515"><ele>993.0</ele><time>2026-04-04T13:07:53.763Z</time></trkpt><trkpt lat="45.3322333" lon="7.5636017"><ele>993.0</ele><time>2026-04-04T13:07:55.763Z</time></trkpt><trkpt lat="45.33222" lon="7.5636933"><ele>993.0</ele><time>2026-04-04T13:07:57.763Z</time></trkpt><trkpt lat="45.33219" lon="7.56381"><ele>993.0</ele><time>2026-04-04T13:07:59.764Z</time></trkpt><trkpt lat="45.3321433" lon="7.5639233"><ele>993.0</ele><time>2026-04-04T13:08:01.764Z</time></trkpt><trkpt lat="45.332085" lon="7.564025"><ele>995.8</ele><time>2026-04-04T13:08:03.763Z</time></trkpt><trkpt lat="45.3320117" lon="7.5641267"><ele>998.5999999999999</ele><time>2026-04-04T13:08:05.763Z</time></trkpt><trkpt lat="45.3319417" lon="7.5642167"><ele>1001.4000000000001</ele><time>2026-04-04T13:08:07.763Z</time></trkpt><trkpt lat="45.3318833" lon="7.5643017"><ele>1004.2</ele><time>2026-04-04T13:08:09.763Z</time></trkpt><trkpt lat="45.3318233" lon="7.5643867"><ele>1007.0</ele><time>2026-04-04T13:08:11.763Z</time></trkpt><trkpt lat="45.331735" lon="7.5644783"><ele>1006.6666666666667</ele><time>2026-04-04T13:08:13.763Z</time></trkpt><trkpt lat="45.3316483" lon="7.5645917"><ele>1006.3333333333334</ele><time>2026-04-04T13:08:15.763Z</time></trkpt><trkpt lat="45.3315917" lon="7.564645"><ele>1006.0</ele><time>2026-04-04T13:08:16.763Z</time></trkpt><trkpt lat="45.331525" lon="7.5646967"><ele>1005.6666666666667</ele><time>2026-04-04T13:08:17.763Z</time></trkpt><trkpt lat="45.3314533" lon="7.5647533"><ele>1005.3333333333334</ele><time>2026-04-04T13:08:18.763Z</time></trkpt><trkpt lat="45.3313917" lon="7.5648117"><ele>1005.0</ele><time>2026-04-04T13:08:19.763Z</time></trkpt><trkpt lat="45.3313267" lon="7.5648733"><ele>1004.4</ele><time>2026-04-04T13:08:20.763Z</time></trkpt><trkpt lat="45.3312667" lon="7.5649333"><ele>1003.8</ele><time>2026-04-04T13:08:21.763Z</time></trkpt><trkpt lat="45.33117" lon="7.565025"><ele>1003.2</ele><time>2026-04-04T13:08:23.763Z</time></trkpt><trkpt lat="45.33111" lon="7.5651133"><ele>1002.6</ele><time>2026-04-04T13:08:25.763Z</time></trkpt><trkpt lat="45.331075" lon="7.5651967"><ele>1002.0</ele><time>2026-04-04T13:08:28.762Z</time></trkpt><trkpt lat="45.3309333" lon="7.5652867"><ele>1002.0</ele><time>2026-04-04T13:09:47.762Z</time></trkpt><trkpt lat="45.3308567" lon="7.5653117"><ele>1002.0</ele><time>2026-04-04T13:09:58.763Z</time></trkpt><trkpt lat="45.3307717" lon="7.5653467"><ele>1002.0</ele><time>2026-04-04T13:10:01.762Z</time></trkpt><trkpt lat="45.33068" lon="7.56537"><ele>1002.0</ele><time>2026-04-04T13:10:04.762Z</time></trkpt><trkpt lat="45.3305983" lon="7.5654267"><ele>1002.0</ele><time>2026-04-04T13:10:07.762Z</time></trkpt><trkpt lat="45.330565" lon="7.565505"><ele>1002.0</ele><time>2026-04-04T13:10:10.762Z</time></trkpt><trkpt lat="45.3305833" lon="7.5656017"><ele>1001.3333333333334</ele><time>2026-04-04T13:10:14.762Z</time></trkpt><trkpt lat="45.3306267" lon="7.56573"><ele>1000.6666666666667</ele><time>2026-04-04T13:10:17.762Z</time></trkpt><trkpt lat="45.3306833" lon="7.5658217"><ele>1000.0</ele><time>2026-04-04T13:10:19.762Z</time></trkpt><trkpt lat="45.330725" lon="7.5659167"><ele>999.3333333333334</ele><time>2026-04-04T13:10:21.762Z</time></trkpt><trkpt lat="45.33075" lon="7.56604"><ele>998.6666666666667</ele><time>2026-04-04T13:10:23.763Z</time></trkpt><trkpt lat="45.33077" lon="7.566145"><ele>998.0</ele><time>2026-04-04T13:10:26.762Z</time></trkpt><trkpt lat="45.3307867" lon="7.5662567"><ele>996.5000000000001</ele><time>2026-04-04T13:10:43.762Z</time></trkpt><trkpt lat="45.33079" lon="7.5663483"><ele>995.0</ele><time>2026-04-04T13:10:45.762Z</time></trkpt><trkpt lat="45.3307483" lon="7.5664517"><ele>993.5</ele><time>2026-04-04T13:10:47.763Z</time></trkpt><trkpt lat="45.3307167" lon="7.5665433"><ele>992.0</ele><time>2026-04-04T13:10:49.762Z</time></trkpt><trkpt lat="45.3306933" lon="7.5667117"><ele>990.5000000000001</ele><time>2026-04-04T13:10:51.763Z</time></trkpt><trkpt lat="45.330665" lon="7.5668033"><ele>989.0</ele><time>2026-04-04T13:10:52.762Z</time></trkpt><trkpt lat="45.33063" lon="7.5668833"><ele>989.0</ele><time>2026-04-04T13:10:53.762Z</time></trkpt><trkpt lat="45.33056" lon="7.567015"><ele>989.0</ele><time>2026-04-04T13:10:55.762Z</time></trkpt><trkpt lat="45.3304817" lon="7.567125"><ele>989.0</ele><time>2026-04-04T13:10:57.762Z</time></trkpt><trkpt lat="45.330415" lon="7.5672417"><ele>989.0</ele><time>2026-04-04T13:10:59.763Z</time></trkpt><trkpt lat="45.33032" lon="7.5673567"><ele>987.3333333333334</ele><time>2026-04-04T13:11:01.762Z</time></trkpt><trkpt lat="45.3302467" lon="7.5674117"><ele>985.6666666666667</ele><time>2026-04-04T13:11:02.762Z</time></trkpt><trkpt lat="45.330175" lon="7.5674633"><ele>984.0</ele><time>2026-04-04T13:11:03.762Z</time></trkpt><trkpt lat="45.3301083" lon="7.567505"><ele>982.3333333333333</ele><time>2026-04-04T13:11:04.762Z</time></trkpt><trkpt lat="45.33001" lon="7.5676033"><ele>980.6666666666666</ele><time>2026-04-04T13:11:06.762Z</time></trkpt><trkpt lat="45.3299683" lon="7.5676733"><ele>979.0</ele><time>2026-04-04T13:11:07.762Z</time></trkpt><trkpt lat="45.3299367" lon="7.5677533"><ele>979.0</ele><time>2026-04-04T13:11:08.762Z</time></trkpt><trkpt lat="45.3299017" lon="7.567835"><ele>979.0000000000001</ele><time>2026-04-04T13:11:09.762Z</time></trkpt><trkpt lat="45.3298183" lon="7.5679667"><ele>979.0000000000001</ele><time>2026-04-04T13:11:11.762Z</time></trkpt><trkpt lat="45.3297083" lon="7.56805"><ele>979.0</ele><time>2026-04-04T13:11:13.763Z</time></trkpt><trkpt lat="45.3295983" lon="7.56812"><ele>979.0</ele><time>2026-04-04T13:11:15.762Z</time></trkpt><trkpt lat="45.329505" lon="7.5682133"><ele>975.8333333333333</ele><time>2026-04-04T13:11:17.762Z</time></trkpt><trkpt lat="45.3294533" lon="7.5682983"><ele>972.6666666666666</ele><time>2026-04-04T13:11:19.762Z</time></trkpt><trkpt lat="45.329425" lon="7.5683817"><ele>969.5</ele><time>2026-04-04T13:11:21.763Z</time></trkpt><trkpt lat="45.3294033" lon="7.5685083"><ele>966.3333333333333</ele><time>2026-04-04T13:11:24.763Z</time></trkpt><trkpt lat="45.329375" lon="7.56862"><ele>963.1666666666666</ele><time>2026-04-04T13:11:26.763Z</time></trkpt><trkpt lat="45.32937" lon="7.568725"><ele>960.0</ele><time>2026-04-04T13:11:28.762Z</time></trkpt><trkpt lat="45.3293733" lon="7.568825"><ele>958.6</ele><time>2026-04-04T13:11:30.762Z</time></trkpt><trkpt lat="45.3293683" lon="7.5689483"><ele>957.2</ele><time>2026-04-04T13:11:32.762Z</time></trkpt><trkpt lat="45.329305" lon="7.569085"><ele>955.8</ele><time>2026-04-04T13:11:34.762Z</time></trkpt><trkpt lat="45.329235" lon="7.5691967"><ele>954.4</ele><time>2026-04-04T13:11:36.763Z</time></trkpt><trkpt lat="45.3291783" lon="7.5693183"><ele>953.0</ele><time>2026-04-04T13:11:38.762Z</time></trkpt><trkpt lat="45.3291233" lon="7.5694367"><ele>950.5999999999999</ele><time>2026-04-04T13:11:40.762Z</time></trkpt><trkpt lat="45.3290583" lon="7.5695583"><ele>948.1999999999999</ele><time>2026-04-04T13:11:42.762Z</time></trkpt><trkpt lat="45.3289817" lon="7.5696917"><ele>945.8</ele><time>2026-04-04T13:11:44.762Z</time></trkpt><trkpt lat="45.3289267" lon="7.5698433"><ele>943.4</ele><time>2026-04-04T13:11:46.762Z</time></trkpt><trkpt lat="45.328875" lon="7.56996"><ele>941.0</ele><time>2026-04-04T13:11:48.762Z</time></trkpt><trkpt lat="45.3288483" lon="7.5700417"><ele>938.5000000000001</ele><time>2026-04-04T13:11:51.763Z</time></trkpt><trkpt lat="45.3288317" lon="7.5701467"><ele>936.0</ele><time>2026-04-04T13:11:57.763Z</time></trkpt><trkpt lat="45.3288483" lon="7.5702333"><ele>933.5</ele><time>2026-04-04T13:11:59.763Z</time></trkpt><trkpt lat="45.3288867" lon="7.5703083"><ele>931.0</ele><time>2026-04-04T13:12:01.762Z</time></trkpt><trkpt lat="45.32896" lon="7.5703917"><ele>928.5000000000001</ele><time>2026-04-04T13:12:04.762Z</time></trkpt><trkpt lat="45.32903" lon="7.5704667"><ele>926.0</ele><time>2026-04-04T13:12:06.762Z</time></trkpt><trkpt lat="45.3290983" lon="7.570555"><ele>926.0</ele><time>2026-04-04T13:12:08.762Z</time></trkpt><trkpt lat="45.329185" lon="7.5706833"><ele>925.9999999999999</ele><time>2026-04-04T13:12:10.763Z</time></trkpt><trkpt lat="45.3292267" lon="7.570755"><ele>925.9999999999999</ele><time>2026-04-04T13:12:11.762Z</time></trkpt><trkpt lat="45.3292917" lon="7.5708667"><ele>926.0</ele><time>2026-04-04T13:12:13.761Z</time></trkpt><trkpt lat="45.3293717" lon="7.5709683"><ele>926.0</ele><time>2026-04-04T13:12:15.761Z</time></trkpt><trkpt lat="45.3294467" lon="7.5710683"><ele>926.0</ele><time>2026-04-04T13:12:17.761Z</time></trkpt><trkpt lat="45.3295367" lon="7.5711617"><ele>925.9999999999999</ele><time>2026-04-04T13:12:19.761Z</time></trkpt><trkpt lat="45.329625" lon="7.5712567"><ele>925.9999999999999</ele><time>2026-04-04T13:12:21.761Z</time></trkpt><trkpt lat="45.32971" lon="7.5713483"><ele>926.0</ele><time>2026-04-04T13:12:23.762Z</time></trkpt><trkpt lat="45.3297967" lon="7.571455"><ele>926.0</ele><time>2026-04-04T13:12:25.761Z</time></trkpt><trkpt lat="45.3298733" lon="7.5715233"><ele>922.1999999999999</ele><time>2026-04-04T13:12:27.761Z</time></trkpt><trkpt lat="45.3299567" lon="7.57159"><ele>918.3999999999999</ele><time>2026-04-04T13:12:29.762Z</time></trkpt><trkpt lat="45.3300467" lon="7.5716617"><ele>914.6</ele><time>2026-04-04T13:12:31.761Z</time></trkpt><trkpt lat="45.3301267" lon="7.5717467"><ele>910.8</ele><time>2026-04-04T13:12:33.761Z</time></trkpt><trkpt lat="45.330165" lon="7.5718533"><ele>907.0</ele><time>2026-04-04T13:12:35.761Z</time></trkpt><trkpt lat="45.3301617" lon="7.5719817"><ele>903.5</ele><time>2026-04-04T13:12:37.762Z</time></trkpt><trkpt lat="45.330135" lon="7.5721583"><ele>900.0</ele><time>2026-04-04T13:12:39.762Z</time></trkpt><trkpt lat="45.330115" lon="7.572245"><ele>896.5</ele><time>2026-04-04T13:12:40.762Z</time></trkpt><trkpt lat="45.330055" lon="7.5724017"><ele>893.0</ele><time>2026-04-04T13:12:42.762Z</time></trkpt><trkpt lat="45.3299683" lon="7.5725767"><ele>893.0000000000001</ele><time>2026-04-04T13:12:44.761Z</time></trkpt><trkpt lat="45.3299233" lon="7.57265"><ele>893.0</ele><time>2026-04-04T13:12:45.761Z</time></trkpt><trkpt lat="45.3298333" lon="7.5727433"><ele>893.0</ele><time>2026-04-04T13:12:47.761Z</time></trkpt><trkpt lat="45.3297583" lon="7.5728183"><ele>893.0</ele><time>2026-04-04T13:12:49.762Z</time></trkpt><trkpt lat="45.3297133" lon="7.5728867"><ele>893.0000000000001</ele><time>2026-04-04T13:12:51.761Z</time></trkpt><trkpt lat="45.3296817" lon="7.573"><ele>893.0</ele><time>2026-04-04T13:12:54.761Z</time></trkpt><trkpt lat="45.329705" lon="7.5731033"><ele>890.5000000000001</ele><time>2026-04-04T13:12:56.762Z</time></trkpt><trkpt lat="45.329745" lon="7.5731733"><ele>888.0</ele><time>2026-04-04T13:12:58.761Z</time></trkpt><trkpt lat="45.3298317" lon="7.57323"><ele>885.5</ele><time>2026-04-04T13:13:01.761Z</time></trkpt><trkpt lat="45.3299067" lon="7.5732333"><ele>883.0</ele><time>2026-04-04T13:13:03.762Z</time></trkpt><trkpt lat="45.3299983" lon="7.5732017"><ele>880.5000000000001</ele><time>2026-04-04T13:13:05.762Z</time></trkpt><trkpt lat="45.330105" lon="7.5731583"><ele>878.0</ele><time>2026-04-04T13:13:07.761Z</time></trkpt><trkpt lat="45.330205" lon="7.5731333"><ele>878.0</ele><time>2026-04-04T13:13:09.761Z</time></trkpt><trkpt lat="45.330305" lon="7.5731233"><ele>878.0</ele><time>2026-04-04T13:13:11.761Z</time></trkpt><trkpt lat="45.3304133" lon="7.5731117"><ele>878.0</ele><time>2026-04-04T13:13:13.762Z</time></trkpt><trkpt lat="45.3305217" lon="7.5731117"><ele>878.0</ele><time>2026-04-04T13:13:15.761Z</time></trkpt><trkpt lat="45.3306167" lon="7.573115"><ele>878.0</ele><time>2026-04-04T13:13:17.762Z</time></trkpt><trkpt lat="45.33072" lon="7.57309"><ele>876.8333333333334</ele><time>2026-04-04T13:13:19.761Z</time></trkpt><trkpt lat="45.3308083" lon="7.573085"><ele>875.6666666666667</ele><time>2026-04-04T13:13:21.761Z</time></trkpt><trkpt lat="45.3308883" lon="7.5730883"><ele>874.5</ele><time>2026-04-04T13:13:23.761Z</time></trkpt><trkpt lat="45.3309817" lon="7.573115"><ele>873.3333333333333</ele><time>2026-04-04T13:13:26.761Z</time></trkpt><trkpt lat="45.33102" lon="7.57319"><ele>872.1666666666666</ele><time>2026-04-04T13:13:28.762Z</time></trkpt><trkpt lat="45.33105" lon="7.573335"><ele>871.0</ele><time>2026-04-04T13:13:30.761Z</time></trkpt><trkpt lat="45.331065" lon="7.57352"><ele>870.9999999999999</ele><time>2026-04-04T13:13:32.761Z</time></trkpt><trkpt lat="45.3310667" lon="7.57363"><ele>871.0</ele><time>2026-04-04T13:13:33.761Z</time></trkpt><trkpt lat="45.3310567" lon="7.5737433"><ele>871.0</ele><time>2026-04-04T13:13:34.762Z</time></trkpt><trkpt lat="45.3310233" lon="7.57382"><ele>871.0</ele><time>2026-04-04T13:13:35.761Z</time></trkpt><trkpt lat="45.3309367" lon="7.5739417"><ele>870.9999999999999</ele><time>2026-04-04T13:13:37.762Z</time></trkpt><trkpt lat="45.330885" lon="7.57402"><ele>871.0</ele><time>2026-04-04T13:13:38.761Z</time></trkpt><trkpt lat="45.3308417" lon="7.5740917"><ele>867.3333333333333</ele><time>2026-04-04T13:13:39.762Z</time></trkpt><trkpt lat="45.330805" lon="7.574165"><ele>863.6666666666666</ele><time>2026-04-04T13:13:40.761Z</time></trkpt><trkpt lat="45.3307583" lon="7.5742883"><ele>860.0</ele><time>2026-04-04T13:13:42.762Z</time></trkpt><trkpt lat="45.3307417" lon="7.5744133"><ele>856.3333333333333</ele><time>2026-04-04T13:13:44.761Z</time></trkpt><trkpt lat="45.3307233" lon="7.5745183"><ele>852.6666666666666</ele><time>2026-04-04T13:14:03.761Z</time></trkpt><trkpt lat="45.3307283" lon="7.574655"><ele>849.0</ele><time>2026-04-04T13:14:06.762Z</time></trkpt><trkpt lat="45.3307083" lon="7.5747717"><ele>845.6666666666666</ele><time>2026-04-04T13:14:08.762Z</time></trkpt><trkpt lat="45.3306517" lon="7.5748617"><ele>842.3333333333333</ele><time>2026-04-04T13:14:10.762Z</time></trkpt><trkpt lat="45.3306033" lon="7.5749333"><ele>839.0</ele><time>2026-04-04T13:14:12.762Z</time></trkpt><trkpt lat="45.3306483" lon="7.575005"><ele>835.6666666666666</ele><time>2026-04-04T13:14:17.762Z</time></trkpt><trkpt lat="45.3307233" lon="7.5749767"><ele>832.3333333333333</ele><time>2026-04-04T13:14:21.761Z</time></trkpt><trkpt lat="45.3307867" lon="7.57491"><ele>829.0</ele><time>2026-04-04T13:14:24.762Z</time></trkpt><trkpt lat="45.330875" lon="7.5748767"><ele>829.0</ele><time>2026-04-04T13:15:09.761Z</time></trkpt><trkpt lat="45.33091" lon="7.5749733"><ele>829.0</ele><time>2026-04-04T13:15:11.761Z</time></trkpt><trkpt lat="45.33095" lon="7.5750733"><ele>829.0</ele><time>2026-04-04T13:15:13.762Z</time></trkpt><trkpt lat="45.3309783" lon="7.57516"><ele>829.0</ele><time>2026-04-04T13:15:15.762Z</time></trkpt><trkpt lat="45.331005" lon="7.5752667"><ele>829.0</ele><time>2026-04-04T13:15:17.761Z</time></trkpt><trkpt lat="45.3310083" lon="7.5753717"><ele>829.0</ele><time>2026-04-04T13:15:19.761Z</time></trkpt><trkpt lat="45.3310167" lon="7.57547"><ele>829.0</ele><time>2026-04-04T13:15:21.761Z</time></trkpt><trkpt lat="45.331075" lon="7.5755283"><ele>825.5714285714286</ele><time>2026-04-04T13:15:24.761Z</time></trkpt><trkpt lat="45.3311417" lon="7.57555"><ele>822.1428571428571</ele><time>2026-04-04T13:15:27.761Z</time></trkpt><trkpt lat="45.331215" lon="7.5755733"><ele>818.7142857142858</ele><time>2026-04-04T13:15:30.761Z</time></trkpt><trkpt lat="45.3312867" lon="7.575585"><ele>815.2857142857142</ele><time>2026-04-04T13:15:33.762Z</time></trkpt><trkpt lat="45.3313533" lon="7.5756217"><ele>811.8571428571429</ele><time>2026-04-04T13:15:36.761Z</time></trkpt><trkpt lat="45.331415" lon="7.575705"><ele>808.4285714285714</ele><time>2026-04-04T13:15:39.761Z</time></trkpt><trkpt lat="45.3314583" lon="7.5757783"><ele>805.0</ele><time>2026-04-04T13:15:41.761Z</time></trkpt><trkpt lat="45.3314933" lon="7.5758617"><ele>803.8333333333333</ele><time>2026-04-04T13:15:43.761Z</time></trkpt><trkpt lat="45.3315333" lon="7.575945"><ele>802.6666666666666</ele><time>2026-04-04T13:15:45.762Z</time></trkpt><trkpt lat="45.3315733" lon="7.5760383"><ele>801.5</ele><time>2026-04-04T13:15:47.762Z</time></trkpt><trkpt lat="45.3316117" lon="7.5761333"><ele>800.3333333333333</ele><time>2026-04-04T13:15:49.761Z</time></trkpt><trkpt lat="45.331655" lon="7.576205"><ele>799.1666666666666</ele><time>2026-04-04T13:15:51.761Z</time></trkpt><trkpt lat="45.3316983" lon="7.5762967"><ele>798.0</ele><time>2026-04-04T13:15:53.761Z</time></trkpt><trkpt lat="45.33174" lon="7.5764083"><ele>795.8333333333334</ele><time>2026-04-04T13:15:56.761Z</time></trkpt><trkpt lat="45.3317567" lon="7.57654"><ele>793.6666666666667</ele><time>2026-04-04T13:15:59.761Z</time></trkpt><trkpt lat="45.3317617" lon="7.57663"><ele>791.5</ele><time>2026-04-04T13:16:01.761Z</time></trkpt><trkpt lat="45.3318067" lon="7.5766967"><ele>789.3333333333334</ele><time>2026-04-04T13:16:04.762Z</time></trkpt><trkpt lat="45.3318817" lon="7.57669"><ele>787.1666666666667</ele><time>2026-04-04T13:16:07.761Z</time></trkpt><trkpt lat="45.3319383" lon="7.5766133"><ele>785.0</ele><time>2026-04-04T13:16:10.761Z</time></trkpt><trkpt lat="45.3319583" lon="7.5765083"><ele>785.0000000000001</ele><time>2026-04-04T13:16:13.761Z</time></trkpt><trkpt lat="45.3319567" lon="7.5764083"><ele>785.0</ele><time>2026-04-04T13:16:15.761Z</time></trkpt><trkpt lat="45.3319567" lon="7.5763133"><ele>785.0</ele><time>2026-04-04T13:16:17.761Z</time></trkpt><trkpt lat="45.3319433" lon="7.5761917"><ele>785.0</ele><time>2026-04-04T13:16:20.761Z</time></trkpt><trkpt lat="45.3319117" lon="7.5760717"><ele>785.0000000000001</ele><time>2026-04-04T13:16:23.76Z</time></trkpt><trkpt lat="45.3318967" lon="7.5759567"><ele>785.0</ele><time>2026-04-04T13:16:25.76Z</time></trkpt><trkpt lat="45.331945" lon="7.5758917"><ele>784.3333333333334</ele><time>2026-04-04T13:16:28.76Z</time></trkpt><trkpt lat="45.3320033" lon="7.5759383"><ele>783.6666666666667</ele><time>2026-04-04T13:16:30.761Z</time></trkpt><trkpt lat="45.3320817" lon="7.5760083"><ele>783.0</ele><time>2026-04-04T13:16:32.76Z</time></trkpt><trkpt lat="45.3321683" lon="7.57606"><ele>782.3333333333333</ele><time>2026-04-04T13:16:34.761Z</time></trkpt><trkpt lat="45.332245" lon="7.5761317"><ele>781.6666666666666</ele><time>2026-04-04T13:16:36.761Z</time></trkpt><trkpt lat="45.3323033" lon="7.5762183"><ele>781.0</ele><time>2026-04-04T13:16:38.761Z</time></trkpt><trkpt lat="45.3323483" lon="7.5763167"><ele>779.3333333333333</ele><time>2026-04-04T13:16:40.761Z</time></trkpt><trkpt lat="45.332385" lon="7.5764117"><ele>777.6666666666666</ele><time>2026-04-04T13:16:42.76Z</time></trkpt><trkpt lat="45.3324233" lon="7.5765033"><ele>776.0</ele><time>2026-04-04T13:16:45.76Z</time></trkpt><trkpt lat="45.3324967" lon="7.5766417"><ele>774.3333333333333</ele><time>2026-04-04T13:17:10.761Z</time></trkpt><trkpt lat="45.3325317" lon="7.5767183"><ele>772.6666666666666</ele><time>2026-04-04T13:17:14.76Z</time></trkpt><trkpt lat="45.33259" lon="7.5767883"><ele>771.0</ele><time>2026-04-04T13:17:27.761Z</time></trkpt><trkpt lat="45.33266" lon="7.5768767"><ele>771.0</ele><time>2026-04-04T13:17:30.76Z</time></trkpt><trkpt lat="45.332715" lon="7.576955"><ele>771.0</ele><time>2026-04-04T13:17:32.761Z</time></trkpt><trkpt lat="45.3327717" lon="7.5770533"><ele>771.0</ele><time>2026-04-04T13:17:34.76Z</time></trkpt><trkpt lat="45.3328417" lon="7.5771433"><ele>771.0</ele><time>2026-04-04T13:17:36.76Z</time></trkpt><trkpt lat="45.3329083" lon="7.5772567"><ele>771.0</ele><time>2026-04-04T13:17:38.76Z</time></trkpt><trkpt lat="45.3329567" lon="7.577375"><ele>769.5999999999999</ele><time>2026-04-04T13:17:40.76Z</time></trkpt><trkpt lat="45.3330067" lon="7.5775017"><ele>768.2</ele><time>2026-04-04T13:17:42.76Z</time></trkpt><trkpt lat="45.3330533" lon="7.5776367"><ele>766.8</ele><time>2026-04-04T13:17:44.76Z</time></trkpt><trkpt lat="45.3331033" lon="7.57777"><ele>765.4000000000001</ele><time>2026-04-04T13:17:46.76Z</time></trkpt><trkpt lat="45.3331767" lon="7.5778817"><ele>764.0</ele><time>2026-04-04T13:17:48.761Z</time></trkpt><trkpt lat="45.3332733" lon="7.5779767"><ele>760.5714285714286</ele><time>2026-04-04T13:17:50.761Z</time></trkpt><trkpt lat="45.3333317" lon="7.5780167"><ele>757.1428571428571</ele><time>2026-04-04T13:17:51.76Z</time></trkpt><trkpt lat="45.33339" lon="7.5780633"><ele>753.7142857142857</ele><time>2026-04-04T13:17:52.76Z</time></trkpt><trkpt lat="45.3334533" lon="7.5781283"><ele>750.2857142857142</ele><time>2026-04-04T13:17:53.761Z</time></trkpt><trkpt lat="45.333515" lon="7.5781933"><ele>746.8571428571429</ele><time>2026-04-04T13:17:54.76Z</time></trkpt><trkpt lat="45.3335767" lon="7.5782533"><ele>743.4285714285713</ele><time>2026-04-04T13:17:55.76Z</time></trkpt><trkpt lat="45.33364" lon="7.5783083"><ele>740.0</ele><time>2026-04-04T13:17:56.76Z</time></trkpt><trkpt lat="45.3337017" lon="7.5783583"><ele>739.9999999999999</ele><time>2026-04-04T13:17:57.76Z</time></trkpt><trkpt lat="45.333765" lon="7.578405"><ele>740.0</ele><time>2026-04-04T13:17:58.76Z</time></trkpt><trkpt lat="45.33383" lon="7.57845"><ele>740.0</ele><time>2026-04-04T13:17:59.76Z</time></trkpt><trkpt lat="45.3338917" lon="7.5785"><ele>740.0</ele><time>2026-04-04T13:18:00.76Z</time></trkpt><trkpt lat="45.3339567" lon="7.5785483"><ele>740.0</ele><time>2026-04-04T13:18:01.76Z</time></trkpt><trkpt lat="45.3340183" lon="7.5786017"><ele>739.9999999999999</ele><time>2026-04-04T13:18:02.76Z</time></trkpt><trkpt lat="45.334075" lon="7.5786617"><ele>740.0</ele><time>2026-04-04T13:18:03.76Z</time></trkpt><trkpt lat="45.3341233" lon="7.5787267"><ele>737.2</ele><time>2026-04-04T13:18:04.76Z</time></trkpt><trkpt lat="45.3342" lon="7.5788583"><ele>734.4</ele><time>2026-04-04T13:18:06.76Z</time></trkpt><trkpt lat="45.3342717" lon="7.5789967"><ele>731.5999999999999</ele><time>2026-04-04T13:18:08.761Z</time></trkpt><trkpt lat="45.3343483" lon="7.57911"><ele>728.8</ele><time>2026-04-04T13:18:10.761Z</time></trkpt><trkpt lat="45.3344067" lon="7.5791633"><ele>726.0</ele><time>2026-04-04T13:18:11.76Z</time></trkpt><trkpt lat="45.33447" lon="7.5792233"><ele>726.0</ele><time>2026-04-04T13:18:12.76Z</time></trkpt><trkpt lat="45.334535" lon="7.5792883"><ele>726.0</ele><time>2026-04-04T13:18:13.76Z</time></trkpt><trkpt lat="45.3345833" lon="7.5793567"><ele>726.0</ele><time>2026-04-04T13:18:14.76Z</time></trkpt><trkpt lat="45.3346517" lon="7.5794517"><ele>726.0</ele><time>2026-04-04T13:18:16.76Z</time></trkpt><trkpt lat="45.3347033" lon="7.57955"><ele>726.0</ele><time>2026-04-04T13:18:19.761Z</time></trkpt><trkpt lat="45.3346383" lon="7.5795233"><ele>726.0</ele><time>2026-04-04T13:21:51.76Z</time></trkpt><trkpt lat="45.3345883" lon="7.5794267"><ele>725.9999999999999</ele><time>2026-04-04T13:21:59.759Z</time></trkpt><trkpt lat="45.3345483" lon="7.5793433"><ele>726.0</ele><time>2026-04-04T13:22:03.759Z</time></trkpt><trkpt lat="45.3345033" lon="7.57927"><ele>726.0</ele><time>2026-04-04T13:22:08.759Z</time></trkpt><trkpt lat="45.33445" lon="7.57917"><ele>726.0</ele><time>2026-04-04T13:22:16.759Z</time></trkpt><trkpt lat="45.3345299" lon="7.579219"><ele>726.0</ele><time>2026-04-04T13:22:47.759Z</time></trkpt><trkpt lat="45.33457" lon="7.5792921"><ele>725.9999999999999</ele><time>2026-04-04T13:22:52.759Z</time></trkpt><trkpt lat="45.3346106" lon="7.5793672"><ele>726.0</ele><time>2026-04-04T13:22:58.76Z</time></trkpt><trkpt lat="45.3346417" lon="7.5794538"><ele>726.0</ele><time>2026-04-04T13:23:04.76Z</time></trkpt><trkpt lat="45.3346782" lon="7.5795279"><ele>726.0</ele><time>2026-04-04T13:23:10.759Z</time></trkpt><trkpt lat="45.3347388" lon="7.5796486"><ele>726.0</ele><time>2026-04-04T13:25:44.758Z</time></trkpt><trkpt lat="45.334786" lon="7.5795892"><ele>726.0</ele><time>2026-04-04T13:25:48.759Z</time></trkpt><trkpt lat="45.3347394" lon="7.5795211"><ele>726.0</ele><time>2026-04-04T13:25:50.759Z</time></trkpt><trkpt lat="45.3346641" lon="7.5794318"><ele>726.0</ele><time>2026-04-04T13:25:52.759Z</time></trkpt><trkpt lat="45.3345816" lon="7.5793372"><ele>725.9999999999999</ele><time>2026-04-04T13:25:54.759Z</time></trkpt><trkpt lat="45.3345222" lon="7.5792584"><ele>726.0</ele><time>2026-04-04T13:25:56.759Z</time></trkpt><trkpt lat="45.3344816" lon="7.5791798"><ele>726.0</ele><time>2026-04-04T13:25:59.758Z</time></trkpt><trkpt lat="45.3344678" lon="7.5792684"><ele>726.0</ele><time>2026-04-04T13:26:19.759Z</time></trkpt><trkpt lat="45.3344037" lon="7.5792573"><ele>726.0</ele><time>2026-04-04T13:26:30.759Z</time></trkpt><trkpt lat="45.3343578" lon="7.579332"><ele>725.9999999999999</ele><time>2026-04-04T13:26:34.759Z</time></trkpt><trkpt lat="45.3343967" lon="7.5794465"><ele>726.0</ele><time>2026-04-04T13:26:36.758Z</time></trkpt><trkpt lat="45.334443" lon="7.5795733"><ele>724.8333333333334</ele><time>2026-04-04T13:26:38.758Z</time></trkpt><trkpt lat="45.3345013" lon="7.5796971"><ele>723.6666666666666</ele><time>2026-04-04T13:26:40.758Z</time></trkpt><trkpt lat="45.3345628" lon="7.5798395"><ele>722.5</ele><time>2026-04-04T13:26:42.758Z</time></trkpt><trkpt lat="45.3345992" lon="7.5799172"><ele>721.3333333333333</ele><time>2026-04-04T13:26:43.758Z</time></trkpt><trkpt lat="45.3346319" lon="7.5799944"><ele>720.1666666666666</ele><time>2026-04-04T13:26:44.759Z</time></trkpt><trkpt lat="45.3346682" lon="7.5800695"><ele>719.0</ele><time>2026-04-04T13:26:45.759Z</time></trkpt><trkpt lat="45.3347464" lon="7.5801914"><ele>719.0</ele><time>2026-04-04T13:26:47.759Z</time></trkpt><trkpt lat="45.3348227" lon="7.5803029"><ele>719.0</ele><time>2026-04-04T13:26:49.758Z</time></trkpt><trkpt lat="45.3348884" lon="7.5804119"><ele>719.0</ele><time>2026-04-04T13:26:51.759Z</time></trkpt><trkpt lat="45.3349629" lon="7.5805368"><ele>719.0</ele><time>2026-04-04T13:26:53.759Z</time></trkpt><trkpt lat="45.3350512" lon="7.5806325"><ele>719.0</ele><time>2026-04-04T13:26:55.759Z</time></trkpt><trkpt lat="45.3351451" lon="7.5806527"><ele>715.3333333333333</ele><time>2026-04-04T13:26:57.759Z</time></trkpt><trkpt lat="45.3352194" lon="7.5806352"><ele>711.6666666666666</ele><time>2026-04-04T13:26:59.758Z</time></trkpt><trkpt lat="45.3352915" lon="7.5805993"><ele>708.0</ele><time>2026-04-04T13:27:02.758Z</time></trkpt><trkpt lat="45.3353859" lon="7.5805482"><ele>704.3333333333334</ele><time>2026-04-04T13:27:05.759Z</time></trkpt><trkpt lat="45.3354533" lon="7.5804972"><ele>700.6666666666667</ele><time>2026-04-04T13:27:07.759Z</time></trkpt><trkpt lat="45.3355239" lon="7.5804313"><ele>697.0</ele><time>2026-04-04T13:27:09.758Z</time></trkpt><trkpt lat="45.3356022" lon="7.5803824"><ele>697.8333333333334</ele><time>2026-04-04T13:27:11.759Z</time></trkpt><trkpt lat="45.3356731" lon="7.5803269"><ele>698.6666666666667</ele><time>2026-04-04T13:27:13.759Z</time></trkpt><trkpt lat="45.335727" lon="7.5802505"><ele>699.5</ele><time>2026-04-04T13:27:15.759Z</time></trkpt><trkpt lat="45.3357763" lon="7.5801803"><ele>700.3333333333334</ele><time>2026-04-04T13:27:17.758Z</time></trkpt><trkpt lat="45.3358513" lon="7.5801883"><ele>701.1666666666666</ele><time>2026-04-04T13:27:20.758Z</time></trkpt><trkpt lat="45.3358368" lon="7.5803167"><ele>702.0</ele><time>2026-04-04T13:27:22.758Z</time></trkpt><trkpt lat="45.3357774" lon="7.5804248"><ele>699.4000000000001</ele><time>2026-04-04T13:27:24.759Z</time></trkpt><trkpt lat="45.3357139" lon="7.5805378"><ele>696.8000000000001</ele><time>2026-04-04T13:27:26.758Z</time></trkpt><trkpt lat="45.335676" lon="7.5806751"><ele>694.2</ele><time>2026-04-04T13:27:28.758Z</time></trkpt><trkpt lat="45.3356783" lon="7.5808033"><ele>691.6</ele><time>2026-04-04T13:27:30.758Z</time></trkpt><trkpt lat="45.335695" lon="7.58094"><ele>689.0</ele><time>2026-04-04T13:27:32.759Z</time></trkpt><trkpt lat="45.3357033" lon="7.5810733"><ele>686.8333333333333</ele><time>2026-04-04T13:27:34.758Z</time></trkpt><trkpt lat="45.3357133" lon="7.5812183"><ele>684.6666666666666</ele><time>2026-04-04T13:27:36.758Z</time></trkpt><trkpt lat="45.3357183" lon="7.5813483"><ele>682.5</ele><time>2026-04-04T13:27:38.758Z</time></trkpt><trkpt lat="45.3357133" lon="7.5814617"><ele>680.3333333333334</ele><time>2026-04-04T13:27:40.759Z</time></trkpt><trkpt lat="45.33567" lon="7.5815583"><ele>678.1666666666667</ele><time>2026-04-04T13:27:42.758Z</time></trkpt><trkpt lat="45.3356" lon="7.5815833"><ele>676.0</ele><time>2026-04-04T13:27:44.758Z</time></trkpt><trkpt lat="45.335515" lon="7.5815867"><ele>674.6666666666667</ele><time>2026-04-04T13:27:46.758Z</time></trkpt><trkpt lat="45.335455" lon="7.5816333"><ele>673.3333333333334</ele><time>2026-04-04T13:27:48.759Z</time></trkpt><trkpt lat="45.335445" lon="7.581725"><ele>672.0</ele><time>2026-04-04T13:27:50.758Z</time></trkpt><trkpt lat="45.3354867" lon="7.5818533"><ele>670.6666666666666</ele><time>2026-04-04T13:27:52.758Z</time></trkpt><trkpt lat="45.33555" lon="7.5819833"><ele>669.3333333333333</ele><time>2026-04-04T13:27:54.758Z</time></trkpt><trkpt lat="45.3356217" lon="7.5820833"><ele>668.0</ele><time>2026-04-04T13:27:56.759Z</time></trkpt><trkpt lat="45.3357083" lon="7.582125"><ele>669.1428571428571</ele><time>2026-04-04T13:27:58.758Z</time></trkpt><trkpt lat="45.3357883" lon="7.5821183"><ele>670.2857142857143</ele><time>2026-04-04T13:28:00.758Z</time></trkpt><trkpt lat="45.3358733" lon="7.582055"><ele>671.4285714285714</ele><time>2026-04-04T13:28:02.758Z</time></trkpt><trkpt lat="45.3359233" lon="7.5819917"><ele>672.5714285714286</ele><time>2026-04-04T13:28:03.759Z</time></trkpt><trkpt lat="45.3359667" lon="7.581915"><ele>673.7142857142857</ele><time>2026-04-04T13:28:04.758Z</time></trkpt><trkpt lat="45.336005" lon="7.5818417"><ele>674.8571428571429</ele><time>2026-04-04T13:28:05.758Z</time></trkpt><trkpt lat="45.3360383" lon="7.581765"><ele>676.0</ele><time>2026-04-04T13:28:06.758Z</time></trkpt><trkpt lat="45.3361033" lon="7.5816217"><ele>676.0</ele><time>2026-04-04T13:28:08.758Z</time></trkpt><trkpt lat="45.3361583" lon="7.581495"><ele>676.0</ele><time>2026-04-04T13:28:10.758Z</time></trkpt><trkpt lat="45.3362217" lon="7.581375"><ele>676.0</ele><time>2026-04-04T13:28:12.758Z</time></trkpt><trkpt lat="45.3363033" lon="7.581265"><ele>676.0</ele><time>2026-04-04T13:28:14.759Z</time></trkpt><trkpt lat="45.3364067" lon="7.5811883"><ele>676.0</ele><time>2026-04-04T13:28:16.758Z</time></trkpt><trkpt lat="45.3364983" lon="7.5811217"><ele>672.5</ele><time>2026-04-04T13:28:18.757Z</time></trkpt><trkpt lat="45.336565" lon="7.581005"><ele>669.0</ele><time>2026-04-04T13:28:20.758Z</time></trkpt><trkpt lat="45.3366117" lon="7.5808517"><ele>665.5</ele><time>2026-04-04T13:28:22.757Z</time></trkpt><trkpt lat="45.3366433" lon="7.5806917"><ele>662.0</ele><time>2026-04-04T13:28:24.758Z</time></trkpt><trkpt lat="45.3366667" lon="7.5805267"><ele>662.0</ele><time>2026-04-04T13:28:26.757Z</time></trkpt><trkpt lat="45.3367033" lon="7.580365"><ele>662.0</ele><time>2026-04-04T13:28:28.757Z</time></trkpt><trkpt lat="45.3367317" lon="7.580285"><ele>662.0</ele><time>2026-04-04T13:28:29.758Z</time></trkpt><trkpt lat="45.3367717" lon="7.5802067"><ele>662.0</ele><time>2026-04-04T13:28:30.757Z</time></trkpt><trkpt lat="45.33684" lon="7.5800667"><ele>662.0</ele><time>2026-04-04T13:28:32.757Z</time></trkpt><trkpt lat="45.33688" lon="7.5799233"><ele>662.3333333333333</ele><time>2026-04-04T13:28:34.757Z</time></trkpt><trkpt lat="45.336905" lon="7.5797517"><ele>662.6666666666666</ele><time>2026-04-04T13:28:36.757Z</time></trkpt><trkpt lat="45.3369183" lon="7.5796633"><ele>663.0</ele><time>2026-04-04T13:28:37.757Z</time></trkpt><trkpt lat="45.33692" lon="7.57957"><ele>663.3333333333334</ele><time>2026-04-04T13:28:38.757Z</time></trkpt><trkpt lat="45.3369167" lon="7.579475"><ele>663.6666666666667</ele><time>2026-04-04T13:28:39.757Z</time></trkpt><trkpt lat="45.336905" lon="7.5793817"><ele>664.0</ele><time>2026-04-04T13:28:40.758Z</time></trkpt><trkpt lat="45.33689" lon="7.5792933"><ele>663.1666666666667</ele><time>2026-04-04T13:28:41.757Z</time></trkpt><trkpt lat="45.33686" lon="7.5791433"><ele>662.3333333333334</ele><time>2026-04-04T13:28:43.757Z</time></trkpt><trkpt lat="45.3368217" lon="7.5790283"><ele>661.5</ele><time>2026-04-04T13:28:45.757Z</time></trkpt><trkpt lat="45.3368" lon="7.5789283"><ele>660.6666666666666</ele><time>2026-04-04T13:28:47.757Z</time></trkpt><trkpt lat="45.3368483" lon="7.5788433"><ele>659.8333333333333</ele><time>2026-04-04T13:28:49.758Z</time></trkpt><trkpt lat="45.3369383" lon="7.5788183"><ele>659.0</ele><time>2026-04-04T13:28:51.757Z</time></trkpt><trkpt lat="45.33701" lon="7.5788317"><ele>659.0</ele><time>2026-04-04T13:28:52.757Z</time></trkpt><trkpt lat="45.337085" lon="7.57886"><ele>659.0</ele><time>2026-04-04T13:28:53.757Z</time></trkpt><trkpt lat="45.3371717" lon="7.5788917"><ele>659.0</ele><time>2026-04-04T13:28:54.757Z</time></trkpt><trkpt lat="45.337245" lon="7.5789267"><ele>659.0</ele><time>2026-04-04T13:28:55.757Z</time></trkpt><trkpt lat="45.337325" lon="7.5789633"><ele>659.0</ele><time>2026-04-04T13:28:56.757Z</time></trkpt><trkpt lat="45.3374" lon="7.5789967"><ele>659.0</ele><time>2026-04-04T13:28:57.758Z</time></trkpt><trkpt lat="45.3374717" lon="7.5790267"><ele>655.2857142857143</ele><time>2026-04-04T13:28:58.758Z</time></trkpt><trkpt lat="45.3375433" lon="7.57906"><ele>651.5714285714286</ele><time>2026-04-04T13:28:59.757Z</time></trkpt><trkpt lat="45.3376167" lon="7.5790883"><ele>647.8571428571429</ele><time>2026-04-04T13:29:00.757Z</time></trkpt><trkpt lat="45.33769" lon="7.579115"><ele>644.1428571428571</ele><time>2026-04-04T13:29:01.757Z</time></trkpt><trkpt lat="45.337765" lon="7.57914"><ele>640.4285714285714</ele><time>2026-04-04T13:29:02.757Z</time></trkpt><trkpt lat="45.3378383" lon="7.579155"><ele>636.7142857142857</ele><time>2026-04-04T13:29:03.758Z</time></trkpt><trkpt lat="45.3379067" lon="7.5791617"><ele>633.0</ele><time>2026-04-04T13:29:04.758Z</time></trkpt><trkpt lat="45.3379783" lon="7.5791583"><ele>633.0</ele><time>2026-04-04T13:29:05.757Z</time></trkpt><trkpt lat="45.3380483" lon="7.57915"><ele>633.0</ele><time>2026-04-04T13:29:06.757Z</time></trkpt><trkpt lat="45.3381167" lon="7.5791383"><ele>633.0</ele><time>2026-04-04T13:29:07.758Z</time></trkpt><trkpt lat="45.3381883" lon="7.5791283"><ele>633.0</ele><time>2026-04-04T13:29:08.757Z</time></trkpt><trkpt lat="45.33825" lon="7.579105"><ele>633.0</ele><time>2026-04-04T13:29:09.758Z</time></trkpt><trkpt lat="45.33831" lon="7.579075"><ele>633.0</ele><time>2026-04-04T13:29:10.757Z</time></trkpt><trkpt lat="45.3384117" lon="7.57901"><ele>628.0</ele><time>2026-04-04T13:29:12.757Z</time></trkpt><trkpt lat="45.33851" lon="7.5790083"><ele>623.0</ele><time>2026-04-04T13:29:14.757Z</time></trkpt><trkpt lat="45.33858" lon="7.5791267"><ele>618.0</ele><time>2026-04-04T13:29:16.757Z</time></trkpt><trkpt lat="45.3386017" lon="7.5793033"><ele>613.0</ele><time>2026-04-04T13:29:18.758Z</time></trkpt><trkpt lat="45.3386017" lon="7.57948"><ele>612.6</ele><time>2026-04-04T13:29:20.757Z</time></trkpt><trkpt lat="45.3385767" lon="7.5796467"><ele>612.1999999999999</ele><time>2026-04-04T13:29:22.757Z</time></trkpt><trkpt lat="45.3385367" lon="7.5798017"><ele>611.8</ele><time>2026-04-04T13:29:24.758Z</time></trkpt><trkpt lat="45.3385333" lon="7.579895"><ele>611.4</ele><time>2026-04-04T13:29:26.757Z</time></trkpt><trkpt lat="45.3386267" lon="7.5798783"><ele>611.0</ele><time>2026-04-04T13:29:30.757Z</time></trkpt><trkpt lat="45.3387417" lon="7.5797833"><ele>611.0</ele><time>2026-04-04T13:29:32.757Z</time></trkpt><trkpt lat="45.3388033" lon="7.5797383"><ele>611.0</ele><time>2026-04-04T13:29:33.758Z</time></trkpt><trkpt lat="45.3388667" lon="7.5796983"><ele>611.0</ele><time>2026-04-04T13:29:34.758Z</time></trkpt><trkpt lat="45.3389233" lon="7.5796517"><ele>611.0</ele><time>2026-04-04T13:29:35.757Z</time></trkpt><trkpt lat="45.3390117" lon="7.57956"><ele>611.0</ele><time>2026-04-04T13:29:37.757Z</time></trkpt><trkpt lat="45.339055" lon="7.5794633"><ele>611.0</ele><time>2026-04-04T13:29:39.757Z</time></trkpt><trkpt lat="45.3390733" lon="7.579375"><ele>608.0</ele><time>2026-04-04T13:29:41.757Z</time></trkpt><trkpt lat="45.3390733" lon="7.5792817"><ele>605.0</ele><time>2026-04-04T13:29:43.757Z</time></trkpt><trkpt lat="45.3390667" lon="7.5791733"><ele>602.0</ele><time>2026-04-04T13:29:45.757Z</time></trkpt><trkpt lat="45.3390583" lon="7.5790733"><ele>599.0</ele><time>2026-04-04T13:29:47.758Z</time></trkpt><trkpt lat="45.3390733" lon="7.57896"><ele>596.0</ele><time>2026-04-04T13:29:49.758Z</time></trkpt><trkpt lat="45.3391483" lon="7.5789"><ele>593.0</ele><time>2026-04-04T13:29:51.758Z</time></trkpt><trkpt lat="45.3392517" lon="7.5789367"><ele>593.0</ele><time>2026-04-04T13:29:53.758Z</time></trkpt><trkpt lat="45.3393133" lon="7.5789817"><ele>593.0</ele><time>2026-04-04T13:29:54.757Z</time></trkpt><trkpt lat="45.3393733" lon="7.5790267"><ele>593.0</ele><time>2026-04-04T13:29:55.757Z</time></trkpt><trkpt lat="45.33943" lon="7.5790733"><ele>593.0</ele><time>2026-04-04T13:29:56.757Z</time></trkpt><trkpt lat="45.33949" lon="7.5791383"><ele>593.0</ele><time>2026-04-04T13:29:57.757Z</time></trkpt><trkpt lat="45.3395583" lon="7.5792917"><ele>593.0</ele><time>2026-04-04T13:29:59.757Z</time></trkpt><trkpt lat="45.3395933" lon="7.5794517"><ele>592.3333333333333</ele><time>2026-04-04T13:30:01.757Z</time></trkpt><trkpt lat="45.3396167" lon="7.5795883"><ele>591.6666666666666</ele><time>2026-04-04T13:30:03.758Z</time></trkpt><trkpt lat="45.33963" lon="7.5797183"><ele>591.0</ele><time>2026-04-04T13:30:05.757Z</time></trkpt><trkpt lat="45.3396317" lon="7.5798283"><ele>590.3333333333334</ele><time>2026-04-04T13:30:07.757Z</time></trkpt><trkpt lat="45.3396383" lon="7.5799183"><ele>589.6666666666667</ele><time>2026-04-04T13:30:09.758Z</time></trkpt><trkpt lat="45.3396433" lon="7.5800167"><ele>589.0</ele><time>2026-04-04T13:30:11.757Z</time></trkpt><trkpt lat="45.339655" lon="7.5801117"><ele>589.0</ele><time>2026-04-04T13:30:13.757Z</time></trkpt><trkpt lat="45.3396683" lon="7.580255"><ele>589.0</ele><time>2026-04-04T13:30:16.758Z</time></trkpt><trkpt lat="45.3396517" lon="7.5803933"><ele>589.0</ele><time>2026-04-04T13:30:18.757Z</time></trkpt><trkpt lat="45.339635" lon="7.5805483"><ele>589.0</ele><time>2026-04-04T13:30:20.758Z</time></trkpt><trkpt lat="45.3396233" lon="7.5806367"><ele>589.0</ele><time>2026-04-04T13:30:21.757Z</time></trkpt><trkpt lat="45.33962" lon="7.5807717"><ele>587.5</ele><time>2026-04-04T13:30:23.757Z</time></trkpt><trkpt lat="45.33964" lon="7.5808833"><ele>586.0</ele><time>2026-04-04T13:30:25.757Z</time></trkpt><trkpt lat="45.339655" lon="7.5810233"><ele>584.5</ele><time>2026-04-04T13:30:27.757Z</time></trkpt><trkpt lat="45.33972" lon="7.58117"><ele>583.0</ele><time>2026-04-04T13:30:29.757Z</time></trkpt><trkpt lat="45.3397483" lon="7.5812517"><ele>581.5</ele><time>2026-04-04T13:30:30.757Z</time></trkpt><trkpt lat="45.3397717" lon="7.5813383"><ele>580.0</ele><time>2026-04-04T13:30:31.757Z</time></trkpt><trkpt lat="45.3397833" lon="7.5814467"><ele>577.6</ele><time>2026-04-04T13:30:32.757Z</time></trkpt><trkpt lat="45.3397917" lon="7.5815933"><ele>575.2</ele><time>2026-04-04T13:30:34.757Z</time></trkpt><trkpt lat="45.3398117" lon="7.5817117"><ele>572.8</ele><time>2026-04-04T13:30:36.757Z</time></trkpt><trkpt lat="45.339815" lon="7.581875"><ele>570.4</ele><time>2026-04-04T13:30:38.757Z</time></trkpt><trkpt lat="45.3397917" lon="7.5819767"><ele>568.0</ele><time>2026-04-04T13:30:39.757Z</time></trkpt><trkpt lat="45.339755" lon="7.58209"><ele>565.6666666666667</ele><time>2026-04-04T13:30:40.757Z</time></trkpt><trkpt lat="45.33971" lon="7.5822033"><ele>563.3333333333334</ele><time>2026-04-04T13:30:41.758Z</time></trkpt><trkpt lat="45.3396867" lon="7.5823133"><ele>561.0</ele><time>2026-04-04T13:30:42.757Z</time></trkpt><trkpt lat="45.3396717" lon="7.5824333"><ele>558.6666666666666</ele><time>2026-04-04T13:30:43.758Z</time></trkpt><trkpt lat="45.339675" lon="7.5825617"><ele>556.3333333333333</ele><time>2026-04-04T13:30:44.757Z</time></trkpt><trkpt lat="45.33969" lon="7.5826883"><ele>554.0</ele><time>2026-04-04T13:30:45.757Z</time></trkpt><trkpt lat="45.3396883" lon="7.5828083"><ele>553.8</ele><time>2026-04-04T13:30:46.757Z</time></trkpt><trkpt lat="45.33967" lon="7.58293"><ele>553.5999999999999</ele><time>2026-04-04T13:30:47.757Z</time></trkpt><trkpt lat="45.3396467" lon="7.5830767"><ele>553.4</ele><time>2026-04-04T13:30:48.757Z</time></trkpt><trkpt lat="45.3395983" lon="7.5832317"><ele>553.1999999999999</ele><time>2026-04-04T13:30:49.757Z</time></trkpt><trkpt lat="45.3395517" lon="7.5833767"><ele>553.0</ele><time>2026-04-04T13:30:50.758Z</time></trkpt><trkpt lat="45.33951" lon="7.58352"><ele>553.0</ele><time>2026-04-04T13:30:51.758Z</time></trkpt><trkpt lat="45.3394617" lon="7.5836783"><ele>553.0</ele><time>2026-04-04T13:30:52.757Z</time></trkpt><trkpt lat="45.33941" lon="7.5838333"><ele>553.0</ele><time>2026-04-04T13:30:53.757Z</time></trkpt><trkpt lat="45.339365" lon="7.583975"><ele>553.0</ele><time>2026-04-04T13:30:54.757Z</time></trkpt><trkpt lat="45.3393117" lon="7.5841017"><ele>554.6</ele><time>2026-04-04T13:30:55.757Z</time></trkpt><trkpt lat="45.3392533" lon="7.584225"><ele>556.1999999999999</ele><time>2026-04-04T13:30:56.758Z</time></trkpt><trkpt lat="45.3391967" lon="7.58435"><ele>557.8</ele><time>2026-04-04T13:30:57.757Z</time></trkpt><trkpt lat="45.3391367" lon="7.58447"><ele>559.4</ele><time>2026-04-04T13:30:58.757Z</time></trkpt><trkpt lat="45.3390617" lon="7.58458"><ele>561.0</ele><time>2026-04-04T13:30:59.757Z</time></trkpt><trkpt lat="45.3389867" lon="7.584675"><ele>560.3333333333334</ele><time>2026-04-04T13:31:00.758Z</time></trkpt><trkpt lat="45.3389017" lon="7.584755"><ele>559.6666666666666</ele><time>2026-04-04T13:31:01.758Z</time></trkpt><trkpt lat="45.33883" lon="7.5848183"><ele>559.0</ele><time>2026-04-04T13:31:02.758Z</time></trkpt><trkpt lat="45.338765" lon="7.584875"><ele>558.3333333333333</ele><time>2026-04-04T13:31:03.757Z</time></trkpt><trkpt lat="45.3387133" lon="7.58494"><ele>557.6666666666666</ele><time>2026-04-04T13:31:04.757Z</time></trkpt><trkpt lat="45.33866" lon="7.58501"><ele>557.0</ele><time>2026-04-04T13:31:05.757Z</time></trkpt><trkpt lat="45.3386083" lon="7.58509"><ele>557.0</ele><time>2026-04-04T13:31:06.757Z</time></trkpt><trkpt lat="45.33858" lon="7.5852067"><ele>557.0</ele><time>2026-04-04T13:31:07.758Z</time></trkpt><trkpt lat="45.33855" lon="7.5853283"><ele>557.0</ele><time>2026-04-04T13:31:08.757Z</time></trkpt><trkpt lat="45.3385233" lon="7.585445"><ele>557.0</ele><time>2026-04-04T13:31:09.757Z</time></trkpt><trkpt lat="45.3385017" lon="7.5855383"><ele>557.0</ele><time>2026-04-04T13:31:10.757Z</time></trkpt><trkpt lat="45.3384567" lon="7.58568"><ele>557.0</ele><time>2026-04-04T13:31:12.757Z</time></trkpt><trkpt lat="45.338425" lon="7.58581"><ele>557.8000000000001</ele><time>2026-04-04T13:31:14.757Z</time></trkpt><trkpt lat="45.3384417" lon="7.5859717"><ele>558.6</ele><time>2026-04-04T13:31:16.757Z</time></trkpt><trkpt lat="45.3384683" lon="7.5860567"><ele>559.4000000000001</ele><time>2026-04-04T13:31:17.757Z</time></trkpt><trkpt lat="45.338495" lon="7.586145"><ele>560.2</ele><time>2026-04-04T13:31:18.757Z</time></trkpt><trkpt lat="45.3385583" lon="7.5862983"><ele>561.0</ele><time>2026-04-04T13:31:20.758Z</time></trkpt><trkpt lat="45.3386117" lon="7.5864467"><ele>561.0</ele><time>2026-04-04T13:31:22.757Z</time></trkpt><trkpt lat="45.338605" lon="7.58655"><ele>561.0</ele><time>2026-04-04T13:31:23.757Z</time></trkpt><trkpt lat="45.33857" lon="7.5866633"><ele>561.0</ele><time>2026-04-04T13:31:24.758Z</time></trkpt><trkpt lat="45.3385233" lon="7.5867783"><ele>561.0</ele><time>2026-04-04T13:31:25.757Z</time></trkpt><trkpt lat="45.338475" lon="7.586895"><ele>561.0</ele><time>2026-04-04T13:31:26.757Z</time></trkpt><trkpt lat="45.33843" lon="7.5870133"><ele>561.0</ele><time>2026-04-04T13:31:27.758Z</time></trkpt><trkpt lat="45.3383917" lon="7.58713"><ele>560.4</ele><time>2026-04-04T13:31:28.758Z</time></trkpt><trkpt lat="45.3383417" lon="7.5872367"><ele>559.8</ele><time>2026-04-04T13:31:29.757Z</time></trkpt><trkpt lat="45.3382917" lon="7.5873333"><ele>559.1999999999999</ele><time>2026-04-04T13:31:30.758Z</time></trkpt><trkpt lat="45.3382317" lon="7.5874217"><ele>558.6</ele><time>2026-04-04T13:31:31.758Z</time></trkpt><trkpt lat="45.3381567" lon="7.5875067"><ele>558.0</ele><time>2026-04-04T13:31:32.758Z</time></trkpt><trkpt lat="45.3380717" lon="7.5875833"><ele>556.8</ele><time>2026-04-04T13:31:33.757Z</time></trkpt><trkpt lat="45.3379833" lon="7.587665"><ele>555.5999999999999</ele><time>2026-04-04T13:31:34.757Z</time></trkpt><trkpt lat="45.33791" lon="7.5877533"><ele>554.4000000000001</ele><time>2026-04-04T13:31:35.758Z</time></trkpt><trkpt lat="45.3378317" lon="7.5878367"><ele>553.2</ele><time>2026-04-04T13:31:36.758Z</time></trkpt><trkpt lat="45.3377533" lon="7.587925"><ele>552.0</ele><time>2026-04-04T13:31:37.757Z</time></trkpt><trkpt lat="45.3376667" lon="7.5880217"><ele>551.8000000000001</ele><time>2026-04-04T13:31:38.757Z</time></trkpt><trkpt lat="45.3375867" lon="7.5881167"><ele>551.6</ele><time>2026-04-04T13:31:39.757Z</time></trkpt><trkpt lat="45.33751" lon="7.5882183"><ele>551.4000000000001</ele><time>2026-04-04T13:31:40.757Z</time></trkpt><trkpt lat="45.3374267" lon="7.5883283"><ele>551.2</ele><time>2026-04-04T13:31:41.758Z</time></trkpt><trkpt lat="45.3373467" lon="7.58843"><ele>551.0</ele><time>2026-04-04T13:31:42.758Z</time></trkpt><trkpt lat="45.337255" lon="7.5885283"><ele>549.6</ele><time>2026-04-04T13:31:43.757Z</time></trkpt><trkpt lat="45.3371667" lon="7.5886267"><ele>548.2</ele><time>2026-04-04T13:31:44.758Z</time></trkpt><trkpt lat="45.3370783" lon="7.5887217"><ele>546.8</ele><time>2026-04-04T13:31:45.757Z</time></trkpt><trkpt lat="45.3369883" lon="7.5888083"><ele>545.4</ele><time>2026-04-04T13:31:46.757Z</time></trkpt><trkpt lat="45.3368933" lon="7.588895"><ele>544.0</ele><time>2026-04-04T13:31:47.757Z</time></trkpt><trkpt lat="45.3367967" lon="7.5889667"><ele>544.0</ele><time>2026-04-04T13:31:48.757Z</time></trkpt><trkpt lat="45.3366967" lon="7.5890383"><ele>544.0</ele><time>2026-04-04T13:31:49.758Z</time></trkpt><trkpt lat="45.3366033" lon="7.5891067"><ele>544.0</ele><time>2026-04-04T13:31:50.758Z</time></trkpt><trkpt lat="45.336505" lon="7.5891733"><ele>544.0</ele><time>2026-04-04T13:31:51.757Z</time></trkpt><trkpt lat="45.336415" lon="7.5892433"><ele>544.0</ele><time>2026-04-04T13:31:52.757Z</time></trkpt><trkpt lat="45.33633" lon="7.5893317"><ele>541.5</ele><time>2026-04-04T13:31:53.757Z</time></trkpt><trkpt lat="45.336245" lon="7.589445"><ele>539.0</ele><time>2026-04-04T13:31:54.757Z</time></trkpt><trkpt lat="45.33617" lon="7.589575"><ele>536.5</ele><time>2026-04-04T13:31:55.757Z</time></trkpt><trkpt lat="45.336095" lon="7.5897"><ele>534.0</ele><time>2026-04-04T13:31:56.758Z</time></trkpt><trkpt lat="45.33604" lon="7.5898317"><ele>534.0</ele><time>2026-04-04T13:31:57.758Z</time></trkpt><trkpt lat="45.335985" lon="7.58995"><ele>534.0</ele><time>2026-04-04T13:31:58.758Z</time></trkpt><trkpt lat="45.3359317" lon="7.590065"><ele>534.0</ele><time>2026-04-04T13:31:59.757Z</time></trkpt><trkpt lat="45.33589" lon="7.5901817"><ele>534.0</ele><time>2026-04-04T13:32:00.758Z</time></trkpt><trkpt lat="45.3358483" lon="7.590275"><ele>534.0</ele><time>2026-04-04T13:32:01.757Z</time></trkpt><trkpt lat="45.3358133" lon="7.590365"><ele>534.0</ele><time>2026-04-04T13:32:02.757Z</time></trkpt><trkpt lat="45.3357633" lon="7.5905017"><ele>534.0</ele><time>2026-04-04T13:32:04.758Z</time></trkpt><trkpt lat="45.335715" lon="7.59058"><ele>534.0</ele><time>2026-04-04T13:32:07.757Z</time></trkpt><trkpt lat="45.335675" lon="7.5904667"><ele>534.0</ele><time>2026-04-04T13:32:11.758Z</time></trkpt><trkpt lat="45.3356933" lon="7.590305"><ele>534.0</ele><time>2026-04-04T13:32:13.757Z</time></trkpt><trkpt lat="45.3357033" lon="7.5902"><ele>534.0</ele><time>2026-04-04T13:32:14.757Z</time></trkpt><trkpt lat="45.3357067" lon="7.5900733"><ele>534.0</ele><time>2026-04-04T13:32:15.757Z</time></trkpt><trkpt lat="45.335715" lon="7.5899417"><ele>534.0</ele><time>2026-04-04T13:32:16.757Z</time></trkpt><trkpt lat="45.335725" lon="7.5898167"><ele>534.0</ele><time>2026-04-04T13:32:17.757Z</time></trkpt><trkpt lat="45.3357367" lon="7.5896917"><ele>534.0</ele><time>2026-04-04T13:32:18.757Z</time></trkpt><trkpt lat="45.3357383" lon="7.589565"><ele>534.0</ele><time>2026-04-04T13:32:19.758Z</time></trkpt><trkpt lat="45.3357433" lon="7.5894333"><ele>534.0</ele><time>2026-04-04T13:32:20.758Z</time></trkpt><trkpt lat="45.3357433" lon="7.589305"><ele>534.0</ele><time>2026-04-04T13:32:21.757Z</time></trkpt><trkpt lat="45.3357283" lon="7.5891933"><ele>534.0</ele><time>2026-04-04T13:32:22.757Z</time></trkpt><trkpt lat="45.3357083" lon="7.5890883"><ele>534.0</ele><time>2026-04-04T13:32:23.757Z</time></trkpt><trkpt lat="45.33569" lon="7.58899"><ele>534.0</ele><time>2026-04-04T13:32:24.756Z</time></trkpt><trkpt lat="45.335665" lon="7.5889033"><ele>534.0</ele><time>2026-04-04T13:32:25.756Z</time></trkpt><trkpt lat="45.335595" lon="7.5887617"><ele>534.0</ele><time>2026-04-04T13:32:27.756Z</time></trkpt><trkpt lat="45.335495" lon="7.5886667"><ele>529.8</ele><time>2026-04-04T13:32:29.756Z</time></trkpt><trkpt lat="45.335435" lon="7.5886333"><ele>525.5999999999999</ele><time>2026-04-04T13:32:30.756Z</time></trkpt><trkpt lat="45.3353367" lon="7.5885683"><ele>521.4</ele><time>2026-04-04T13:32:32.756Z</time></trkpt><trkpt lat="45.3352533" lon="7.5884817"><ele>517.1999999999999</ele><time>2026-04-04T13:32:34.756Z</time></trkpt><trkpt lat="45.3352233" lon="7.5883483"><ele>513.0</ele><time>2026-04-04T13:32:36.756Z</time></trkpt><trkpt lat="45.33521" lon="7.5882283"><ele>513.0</ele><time>2026-04-04T13:32:38.756Z</time></trkpt><trkpt lat="45.33518" lon="7.5881433"><ele>513.0</ele><time>2026-04-04T13:32:40.756Z</time></trkpt><trkpt lat="45.335115" lon="7.5880483"><ele>513.0</ele><time>2026-04-04T13:32:43.756Z</time></trkpt><trkpt lat="45.3351033" lon="7.5879567"><ele>513.0</ele><time>2026-04-04T13:32:45.756Z</time></trkpt><trkpt lat="45.33514" lon="7.587865"><ele>513.0</ele><time>2026-04-04T13:32:47.756Z</time></trkpt><trkpt lat="45.3352" lon="7.5877783"><ele>513.0</ele><time>2026-04-04T13:32:49.756Z</time></trkpt><trkpt lat="45.335235" lon="7.58768"><ele>513.0</ele><time>2026-04-04T13:32:51.756Z</time></trkpt><trkpt lat="45.3352033" lon="7.5876"><ele>513.0</ele><time>2026-04-04T13:32:54.756Z</time></trkpt><trkpt lat="45.3351233" lon="7.58763"><ele>513.0</ele><time>2026-04-04T13:32:56.756Z</time></trkpt><trkpt lat="45.3350467" lon="7.58769"><ele>513.0</ele><time>2026-04-04T13:32:58.756Z</time></trkpt><trkpt lat="45.3349867" lon="7.5877517"><ele>513.0</ele><time>2026-04-04T13:33:00.757Z</time></trkpt><trkpt lat="45.3349217" lon="7.587825"><ele>513.0</ele><time>2026-04-04T13:33:02.756Z</time></trkpt><trkpt lat="45.3348633" lon="7.5879117"><ele>513.0</ele><time>2026-04-04T13:33:04.756Z</time></trkpt><trkpt lat="45.33477" lon="7.5879367"><ele>513.0</ele><time>2026-04-04T13:33:06.757Z</time></trkpt><trkpt lat="45.334675" lon="7.5878567"><ele>513.0</ele><time>2026-04-04T13:33:08.756Z</time></trkpt><trkpt lat="45.3346233" lon="7.5877167"><ele>513.0</ele><time>2026-04-04T13:33:10.756Z</time></trkpt><trkpt lat="45.3345667" lon="7.587615"><ele>513.0</ele><time>2026-04-04T13:33:12.756Z</time></trkpt><trkpt lat="45.33447" lon="7.5875283"><ele>514.5</ele><time>2026-04-04T13:33:14.756Z</time></trkpt><trkpt lat="45.334355" lon="7.5874867"><ele>516.0</ele><time>2026-04-04T13:33:16.756Z</time></trkpt><trkpt lat="45.3342933" lon="7.5874417"><ele>517.5</ele><time>2026-04-04T13:33:17.756Z</time></trkpt><trkpt lat="45.3342283" lon="7.587395"><ele>519.0</ele><time>2026-04-04T13:33:18.757Z</time></trkpt><trkpt lat="45.3341667" lon="7.5873283"><ele>520.5</ele><time>2026-04-04T13:33:19.757Z</time></trkpt><trkpt lat="45.334115" lon="7.5872483"><ele>522.0</ele><time>2026-04-04T13:33:20.756Z</time></trkpt><trkpt lat="45.3340617" lon="7.587165"><ele>522.0</ele><time>2026-04-04T13:33:21.756Z</time></trkpt><trkpt lat="45.33401" lon="7.58707"><ele>522.0</ele><time>2026-04-04T13:33:22.756Z</time></trkpt><trkpt lat="45.3339683" lon="7.5869667"><ele>522.0</ele><time>2026-04-04T13:33:23.756Z</time></trkpt><trkpt lat="45.3339483" lon="7.5868667"><ele>522.0</ele><time>2026-04-04T13:33:24.757Z</time></trkpt><trkpt lat="45.333935" lon="7.58677"><ele>522.0</ele><time>2026-04-04T13:33:25.756Z</time></trkpt><trkpt lat="45.3339033" lon="7.5866333"><ele>522.0</ele><time>2026-04-04T13:33:27.756Z</time></trkpt><trkpt lat="45.33388" lon="7.5867383"><ele>524.2</ele><time>2026-04-04T13:33:34.756Z</time></trkpt><trkpt lat="45.3338667" lon="7.5868833"><ele>526.4000000000001</ele><time>2026-04-04T13:33:36.756Z</time></trkpt><trkpt lat="45.3338217" lon="7.58705"><ele>528.5999999999999</ele><time>2026-04-04T13:33:38.757Z</time></trkpt><trkpt lat="45.3337833" lon="7.5872267"><ele>530.8</ele><time>2026-04-04T13:33:40.756Z</time></trkpt><trkpt lat="45.3337367" lon="7.5873367"><ele>533.0</ele><time>2026-04-04T13:33:41.756Z</time></trkpt><trkpt lat="45.33369" lon="7.5874367"><ele>533.0</ele><time>2026-04-04T13:33:42.756Z</time></trkpt><trkpt lat="45.3336483" lon="7.5875233"><ele>533.0</ele><time>2026-04-04T13:33:43.757Z</time></trkpt><trkpt lat="45.3336" lon="7.5875933"><ele>533.0</ele><time>2026-04-04T13:33:44.756Z</time></trkpt><trkpt lat="45.33353" lon="7.5876483"><ele>533.0</ele><time>2026-04-04T13:33:45.756Z</time></trkpt><trkpt lat="45.3334583" lon="7.5876867"><ele>533.0</ele><time>2026-04-04T13:33:46.757Z</time></trkpt><trkpt lat="45.3333767" lon="7.5877167"><ele>533.0</ele><time>2026-04-04T13:33:47.756Z</time></trkpt><trkpt lat="45.3332883" lon="7.58775"><ele>533.0</ele><time>2026-04-04T13:33:48.757Z</time></trkpt><trkpt lat="45.333205" lon="7.5877867"><ele>533.0</ele><time>2026-04-04T13:33:49.756Z</time></trkpt><trkpt lat="45.3331333" lon="7.587825"><ele>533.0</ele><time>2026-04-04T13:33:50.756Z</time></trkpt><trkpt lat="45.3330483" lon="7.5879"><ele>533.0</ele><time>2026-04-04T13:33:52.756Z</time></trkpt><trkpt lat="45.3329267" lon="7.5879033"><ele>533.0</ele><time>2026-04-04T13:34:01.756Z</time></trkpt><trkpt lat="45.332835" lon="7.5878483"><ele>534.3333333333333</ele><time>2026-04-04T13:34:03.757Z</time></trkpt><trkpt lat="45.33275" lon="7.5877417"><ele>535.6666666666666</ele><time>2026-04-04T13:34:05.756Z</time></trkpt><trkpt lat="45.33273" lon="7.5876567"><ele>537.0</ele><time>2026-04-04T13:34:06.756Z</time></trkpt><trkpt lat="45.33271" lon="7.58757"><ele>538.3333333333334</ele><time>2026-04-04T13:34:07.756Z</time></trkpt><trkpt lat="45.3326733" lon="7.58742"><ele>539.6666666666667</ele><time>2026-04-04T13:34:09.756Z</time></trkpt><trkpt lat="45.3326317" lon="7.5873367"><ele>541.0</ele><time>2026-04-04T13:34:11.757Z</time></trkpt><trkpt lat="45.3325617" lon="7.58741"><ele>541.0</ele><time>2026-04-04T13:34:14.756Z</time></trkpt><trkpt lat="45.3324983" lon="7.58751"><ele>541.0</ele><time>2026-04-04T13:34:16.757Z</time></trkpt><trkpt lat="45.3324" lon="7.5876067"><ele>541.0</ele><time>2026-04-04T13:34:18.756Z</time></trkpt><trkpt lat="45.3323383" lon="7.5876317"><ele>541.0</ele><time>2026-04-04T13:34:19.756Z</time></trkpt><trkpt lat="45.3322617" lon="7.5876483"><ele>541.0</ele><time>2026-04-04T13:34:20.757Z</time></trkpt><trkpt lat="45.332195" lon="7.5876533"><ele>541.0</ele><time>2026-04-04T13:34:21.757Z</time></trkpt><trkpt lat="45.3321317" lon="7.5876433"><ele>541.1666666666667</ele><time>2026-04-04T13:34:22.757Z</time></trkpt><trkpt lat="45.332065" lon="7.5876167"><ele>541.3333333333334</ele><time>2026-04-04T13:34:23.756Z</time></trkpt><trkpt lat="45.332" lon="7.5875717"><ele>541.5</ele><time>2026-04-04T13:34:24.756Z</time></trkpt><trkpt lat="45.331905" lon="7.5875067"><ele>541.6666666666666</ele><time>2026-04-04T13:34:26.756Z</time></trkpt><trkpt lat="45.3318267" lon="7.5874783"><ele>541.8333333333333</ele><time>2026-04-04T13:34:28.756Z</time></trkpt><trkpt lat="45.3317383" lon="7.5874833"><ele>542.0</ele><time>2026-04-04T13:34:30.757Z</time></trkpt><trkpt lat="45.33166" lon="7.5874917"><ele>542.0</ele><time>2026-04-04T13:34:32.756Z</time></trkpt><trkpt lat="45.3315933" lon="7.5875033"><ele>542.0</ele><time>2026-04-04T13:34:34.757Z</time></trkpt><trkpt lat="45.3315117" lon="7.5875267"><ele>542.0</ele><time>2026-04-04T13:34:37.757Z</time></trkpt><trkpt lat="45.331445" lon="7.58753"><ele>542.0</ele><time>2026-04-04T13:34:39.756Z</time></trkpt><trkpt lat="45.3313733" lon="7.5875333"><ele>542.0</ele><time>2026-04-04T13:34:41.756Z</time></trkpt><trkpt lat="45.3313083" lon="7.5874967"><ele>542.0</ele><time>2026-04-04T13:34:43.756Z</time></trkpt><trkpt lat="45.331235" lon="7.5874467"><ele>542.0</ele><time>2026-04-04T13:34:45.756Z</time></trkpt><trkpt lat="45.3311533" lon="7.5873683"><ele>541.0</ele><time>2026-04-04T13:34:47.757Z</time></trkpt><trkpt lat="45.3310917" lon="7.5872617"><ele>540.0</ele><time>2026-04-04T13:34:49.756Z</time></trkpt><trkpt lat="45.3310283" lon="7.5871217"><ele>539.0</ele><time>2026-04-04T13:34:51.757Z</time></trkpt><trkpt lat="45.3309783" lon="7.58695"><ele>538.0</ele><time>2026-04-04T13:34:53.756Z</time></trkpt><trkpt lat="45.3309517" lon="7.5868667"><ele>537.0</ele><time>2026-04-04T13:34:54.756Z</time></trkpt><trkpt lat="45.3309267" lon="7.5867733"><ele>539.1666666666666</ele><time>2026-04-04T13:34:55.757Z</time></trkpt><trkpt lat="45.3309017" lon="7.5866783"><ele>541.3333333333334</ele><time>2026-04-04T13:34:56.757Z</time></trkpt><trkpt lat="45.330875" lon="7.5865783"><ele>543.5</ele><time>2026-04-04T13:34:57.756Z</time></trkpt><trkpt lat="45.3308567" lon="7.5864717"><ele>545.6666666666667</ele><time>2026-04-04T13:34:58.756Z</time></trkpt><trkpt lat="45.3308417" lon="7.5863583"><ele>547.8333333333334</ele><time>2026-04-04T13:34:59.757Z</time></trkpt><trkpt lat="45.3308283" lon="7.5862383"><ele>550.0</ele><time>2026-04-04T13:35:00.756Z</time></trkpt><trkpt lat="45.3308183" lon="7.5861117"><ele>551.0</ele><time>2026-04-04T13:35:01.756Z</time></trkpt><trkpt lat="45.33081" lon="7.5859867"><ele>552.0</ele><time>2026-04-04T13:35:02.756Z</time></trkpt><trkpt lat="45.3308" lon="7.5858833"><ele>553.0</ele><time>2026-04-04T13:35:03.756Z</time></trkpt><trkpt lat="45.33077" lon="7.585745"><ele>554.0</ele><time>2026-04-04T13:35:05.757Z</time></trkpt><trkpt lat="45.3307667" lon="7.585865"><ele>555.0</ele><time>2026-04-04T13:35:12.757Z</time></trkpt><trkpt lat="45.3307417" lon="7.5860233"><ele>555.0</ele><time>2026-04-04T13:35:14.756Z</time></trkpt><trkpt lat="45.3307267" lon="7.5861133"><ele>555.0</ele><time>2026-04-04T13:35:15.756Z</time></trkpt><trkpt lat="45.3307017" lon="7.5862133"><ele>555.0</ele><time>2026-04-04T13:35:16.756Z</time></trkpt><trkpt lat="45.3306817" lon="7.5863133"><ele>555.0</ele><time>2026-04-04T13:35:17.757Z</time></trkpt><trkpt lat="45.330665" lon="7.5864067"><ele>555.0</ele><time>2026-04-04T13:35:18.757Z</time></trkpt><trkpt lat="45.33064" lon="7.5865817"><ele>555.0</ele><time>2026-04-04T13:35:20.756Z</time></trkpt><trkpt lat="45.33063" lon="7.5866767"><ele>554.0</ele><time>2026-04-04T13:35:21.757Z</time></trkpt><trkpt lat="45.3305917" lon="7.5868383"><ele>553.0</ele><time>2026-04-04T13:35:23.756Z</time></trkpt><trkpt lat="45.33056" lon="7.5869183"><ele>552.0</ele><time>2026-04-04T13:35:24.756Z</time></trkpt><trkpt lat="45.3305183" lon="7.5870533"><ele>551.0</ele><time>2026-04-04T13:35:26.756Z</time></trkpt><trkpt lat="45.3304967" lon="7.5871667"><ele>550.0</ele><time>2026-04-04T13:35:28.756Z</time></trkpt><trkpt lat="45.33044" lon="7.5872483"><ele>546.6666666666667</ele><time>2026-04-04T13:35:30.756Z</time></trkpt><trkpt lat="45.3303733" lon="7.5873033"><ele>543.3333333333334</ele><time>2026-04-04T13:35:32.757Z</time></trkpt><trkpt lat="45.3303367" lon="7.587385"><ele>540.0</ele><time>2026-04-04T13:35:34.756Z</time></trkpt><trkpt lat="45.3303717" lon="7.5875067"><ele>536.6666666666666</ele><time>2026-04-04T13:35:37.756Z</time></trkpt><trkpt lat="45.33042" lon="7.5875967"><ele>533.3333333333333</ele><time>2026-04-04T13:35:39.756Z</time></trkpt><trkpt lat="45.3304633" lon="7.5876933"><ele>530.0</ele><time>2026-04-04T13:35:41.757Z</time></trkpt><trkpt lat="45.3305017" lon="7.58781"><ele>527.5</ele><time>2026-04-04T13:35:43.756Z</time></trkpt><trkpt lat="45.33052" lon="7.587975"><ele>525.0</ele><time>2026-04-04T13:35:45.756Z</time></trkpt><trkpt lat="45.3305367" lon="7.5881517"><ele>522.5</ele><time>2026-04-04T13:35:47.756Z</time></trkpt><trkpt lat="45.3305267" lon="7.588315"><ele>520.0</ele><time>2026-04-04T13:35:49.757Z</time></trkpt><trkpt lat="45.3305233" lon="7.5884533"><ele>520.0</ele><time>2026-04-04T13:35:51.757Z</time></trkpt><trkpt lat="45.3305283" lon="7.5885983"><ele>520.0</ele><time>2026-04-04T13:35:53.756Z</time></trkpt><trkpt lat="45.3305317" lon="7.5887317"><ele>520.0</ele><time>2026-04-04T13:35:55.756Z</time></trkpt><trkpt lat="45.3305417" lon="7.5888667"><ele>520.0</ele><time>2026-04-04T13:35:57.756Z</time></trkpt><trkpt lat="45.3305333" lon="7.5889917"><ele>520.0</ele><time>2026-04-04T13:35:59.756Z</time></trkpt><trkpt lat="45.3305117" lon="7.5891133"><ele>517.2</ele><time>2026-04-04T13:36:01.756Z</time></trkpt><trkpt lat="45.3304933" lon="7.5892333"><ele>514.4</ele><time>2026-04-04T13:36:03.756Z</time></trkpt><trkpt lat="45.330465" lon="7.589365"><ele>511.6</ele><time>2026-04-04T13:36:05.756Z</time></trkpt><trkpt lat="45.33043" lon="7.5894917"><ele>508.8</ele><time>2026-04-04T13:36:07.756Z</time></trkpt><trkpt lat="45.330405" lon="7.5896183"><ele>506.0</ele><time>2026-04-04T13:36:09.756Z</time></trkpt><trkpt lat="45.3303867" lon="7.589745"><ele>505.16666666666663</ele><time>2026-04-04T13:36:11.756Z</time></trkpt><trkpt lat="45.3303633" lon="7.589845"><ele>504.3333333333333</ele><time>2026-04-04T13:36:13.756Z</time></trkpt><trkpt lat="45.3302983" lon="7.5898833"><ele>503.5</ele><time>2026-04-04T13:36:15.756Z</time></trkpt><trkpt lat="45.3302" lon="7.58987"><ele>502.66666666666663</ele><time>2026-04-04T13:36:39.755Z</time></trkpt><trkpt lat="45.33016" lon="7.5897883"><ele>501.8333333333333</ele><time>2026-04-04T13:36:41.755Z</time></trkpt><trkpt lat="45.3301183" lon="7.5896983"><ele>501.0</ele><time>2026-04-04T13:36:43.756Z</time></trkpt><trkpt lat="45.3300633" lon="7.5896167"><ele>501.0</ele><time>2026-04-04T13:36:45.756Z</time></trkpt><trkpt lat="45.3300067" lon="7.58951"><ele>501.0</ele><time>2026-04-04T13:36:47.755Z</time></trkpt><trkpt lat="45.32996" lon="7.5893867"><ele>501.0</ele><time>2026-04-04T13:36:49.755Z</time></trkpt><trkpt lat="45.3299033" lon="7.5892533"><ele>501.0</ele><time>2026-04-04T13:36:51.755Z</time></trkpt><trkpt lat="45.3298633" lon="7.589105"><ele>501.0</ele><time>2026-04-04T13:36:53.756Z</time></trkpt><trkpt lat="45.329855" lon="7.5889533"><ele>501.8333333333333</ele><time>2026-04-04T13:36:55.755Z</time></trkpt><trkpt lat="45.32985" lon="7.588825"><ele>502.66666666666663</ele><time>2026-04-04T13:36:57.756Z</time></trkpt><trkpt lat="45.3298083" lon="7.5889083"><ele>503.5</ele><time>2026-04-04T13:37:07.755Z</time></trkpt><trkpt lat="45.3297617" lon="7.5889933"><ele>504.3333333333333</ele><time>2026-04-04T13:37:11.756Z</time></trkpt><trkpt lat="45.3296983" lon="7.589085"><ele>505.16666666666663</ele><time>2026-04-04T13:37:14.756Z</time></trkpt><trkpt lat="45.329625" lon="7.5891333"><ele>506.0</ele><time>2026-04-04T13:37:16.755Z</time></trkpt><trkpt lat="45.32952" lon="7.5892017"><ele>507.4</ele><time>2026-04-04T13:37:18.755Z</time></trkpt><trkpt lat="45.3293933" lon="7.5892367"><ele>508.8</ele><time>2026-04-04T13:37:20.756Z</time></trkpt><trkpt lat="45.3293133" lon="7.5892333"><ele>510.19999999999993</ele><time>2026-04-04T13:37:22.755Z</time></trkpt><trkpt lat="45.32923" lon="7.5892317"><ele>511.59999999999997</ele><time>2026-04-04T13:37:25.756Z</time></trkpt><trkpt lat="45.32913" lon="7.5892517"><ele>513.0</ele><time>2026-04-04T13:37:36.755Z</time></trkpt><trkpt lat="45.3292167" lon="7.5892883"><ele>513.0</ele><time>2026-04-04T13:38:05.755Z</time></trkpt><trkpt lat="45.3292517" lon="7.5894267"><ele>513.0</ele><time>2026-04-04T13:38:08.756Z</time></trkpt><trkpt lat="45.32925" lon="7.5895717"><ele>513.0</ele><time>2026-04-04T13:38:10.756Z</time></trkpt><trkpt lat="45.3292367" lon="7.5896783"><ele>513.0</ele><time>2026-04-04T13:38:11.755Z</time></trkpt><trkpt lat="45.329235" lon="7.5898717"><ele>513.0</ele><time>2026-04-04T13:38:13.756Z</time></trkpt><trkpt lat="45.3292183" lon="7.5899583"><ele>511.8333333333333</ele><time>2026-04-04T13:38:14.755Z</time></trkpt><trkpt lat="45.3291567" lon="7.5900983"><ele>510.66666666666663</ele><time>2026-04-04T13:38:16.755Z</time></trkpt><trkpt lat="45.3290883" lon="7.5901733"><ele>509.5</ele><time>2026-04-04T13:38:17.756Z</time></trkpt><trkpt lat="45.3290233" lon="7.5902183"><ele>508.3333333333333</ele><time>2026-04-04T13:38:18.755Z</time></trkpt><trkpt lat="45.32895" lon="7.5902583"><ele>507.16666666666663</ele><time>2026-04-04T13:38:19.755Z</time></trkpt><trkpt lat="45.3288733" lon="7.5902917"><ele>506.0</ele><time>2026-04-04T13:38:20.755Z</time></trkpt><trkpt lat="45.3288083" lon="7.590315"><ele>509.0</ele><time>2026-04-04T13:38:21.756Z</time></trkpt><trkpt lat="45.3287067" lon="7.59038"><ele>512.0</ele><time>2026-04-04T13:38:23.755Z</time></trkpt><trkpt lat="45.3286417" lon="7.5904733"><ele>515.0</ele><time>2026-04-04T13:38:25.755Z</time></trkpt><trkpt lat="45.3285617" lon="7.590545"><ele>518.0</ele><time>2026-04-04T13:38:27.755Z</time></trkpt><trkpt lat="45.328475" lon="7.5905967"><ele>521.0</ele><time>2026-04-04T13:38:29.756Z</time></trkpt><trkpt lat="45.3284017" lon="7.5906417"><ele>521.0</ele><time>2026-04-04T13:38:31.755Z</time></trkpt><trkpt lat="45.3283267" lon="7.5906817"><ele>521.0</ele><time>2026-04-04T13:39:42.755Z</time></trkpt><trkpt lat="45.3283483" lon="7.590775"><ele>521.0</ele><time>2026-04-04T13:39:45.755Z</time></trkpt><trkpt lat="45.328305" lon="7.5909667"><ele>521.0</ele><time>2026-04-04T13:40:22.755Z</time></trkpt><trkpt lat="45.3283483" lon="7.5910933"><ele>521.0</ele><time>2026-04-04T13:41:11.754Z</time></trkpt><trkpt lat="45.3283617" lon="7.5911983"><ele>521.6</ele><time>2026-04-04T13:41:48.754Z</time></trkpt><trkpt lat="45.32839" lon="7.5913367"><ele>522.2</ele><time>2026-04-04T13:41:51.754Z</time></trkpt><trkpt lat="45.3284267" lon="7.5914433"><ele>522.8</ele><time>2026-04-04T13:41:53.754Z</time></trkpt><trkpt lat="45.32845" lon="7.5916"><ele>523.4</ele><time>2026-04-04T13:41:55.754Z</time></trkpt><trkpt lat="45.3284533" lon="7.5917283"><ele>524.0</ele><time>2026-04-04T13:41:57.754Z</time></trkpt><trkpt lat="45.3284483" lon="7.59182"><ele>524.0</ele><time>2026-04-04T13:41:58.755Z</time></trkpt><trkpt lat="45.32839" lon="7.5919867"><ele>524.0</ele><time>2026-04-04T13:42:00.754Z</time></trkpt><trkpt lat="45.3283033" lon="7.59211"><ele>524.0</ele><time>2026-04-04T13:42:02.754Z</time></trkpt><trkpt lat="45.3282617" lon="7.5921833"><ele>524.0</ele><time>2026-04-04T13:42:03.755Z</time></trkpt><trkpt lat="45.3282017" lon="7.592305"><ele>524.0</ele><time>2026-04-04T13:42:05.754Z</time></trkpt><trkpt lat="45.32819" lon="7.59243"><ele>522.8</ele><time>2026-04-04T13:42:07.754Z</time></trkpt><trkpt lat="45.32823" lon="7.5925283"><ele>521.5999999999999</ele><time>2026-04-04T13:42:09.754Z</time></trkpt><trkpt lat="45.3282733" lon="7.5926333"><ele>520.4</ele><time>2026-04-04T13:42:11.754Z</time></trkpt><trkpt lat="45.328285" lon="7.5927917"><ele>519.1999999999999</ele><time>2026-04-04T13:42:13.755Z</time></trkpt><trkpt lat="45.3282367" lon="7.592935"><ele>518.0</ele><time>2026-04-04T13:42:15.754Z</time></trkpt><trkpt lat="45.3282333" lon="7.5930617"><ele>516.4</ele><time>2026-04-04T13:42:17.754Z</time></trkpt><trkpt lat="45.32823" lon="7.59321"><ele>514.8</ele><time>2026-04-04T13:42:19.755Z</time></trkpt><trkpt lat="45.32817" lon="7.5933633"><ele>513.2</ele><time>2026-04-04T13:42:21.755Z</time></trkpt><trkpt lat="45.328115" lon="7.59345"><ele>511.6</ele><time>2026-04-04T13:42:22.754Z</time></trkpt><trkpt lat="45.3280617" lon="7.5935083"><ele>510.0</ele><time>2026-04-04T13:42:23.754Z</time></trkpt><trkpt lat="45.3279867" lon="7.5936133"><ele>507.2</ele><time>2026-04-04T13:42:25.754Z</time></trkpt><trkpt lat="45.3279367" lon="7.5937317"><ele>504.4</ele><time>2026-04-04T13:42:27.754Z</time></trkpt><trkpt lat="45.3278817" lon="7.5938417"><ele>501.6</ele><time>2026-04-04T13:42:29.754Z</time></trkpt><trkpt lat="45.3278167" lon="7.593955"><ele>498.8</ele><time>2026-04-04T13:42:31.755Z</time></trkpt><trkpt lat="45.3277017" lon="7.5940383"><ele>496.0</ele><time>2026-04-04T13:42:33.755Z</time></trkpt><trkpt lat="45.3276367" lon="7.5940717"><ele>496.0</ele><time>2026-04-04T13:42:34.754Z</time></trkpt><trkpt lat="45.32753" lon="7.5941267"><ele>496.0</ele><time>2026-04-04T13:42:36.755Z</time></trkpt><trkpt lat="45.3274317" lon="7.5941567"><ele>496.0</ele><time>2026-04-04T13:42:38.755Z</time></trkpt><trkpt lat="45.327335" lon="7.5941417"><ele>496.0</ele><time>2026-04-04T13:42:40.754Z</time></trkpt><trkpt lat="45.32726" lon="7.594095"><ele>496.0</ele><time>2026-04-04T13:42:42.754Z</time></trkpt><trkpt lat="45.327205" lon="7.594005"><ele>495.8571428571429</ele><time>2026-04-04T13:42:44.755Z</time></trkpt><trkpt lat="45.3271517" lon="7.5939133"><ele>495.7142857142858</ele><time>2026-04-04T13:42:46.754Z</time></trkpt><trkpt lat="45.3271233" lon="7.5938217"><ele>495.57142857142856</ele><time>2026-04-04T13:42:48.754Z</time></trkpt><trkpt lat="45.3271117" lon="7.5937167"><ele>495.42857142857144</ele><time>2026-04-04T13:42:51.754Z</time></trkpt><trkpt lat="45.3271017" lon="7.5936233"><ele>495.2857142857143</ele><time>2026-04-04T13:42:54.754Z</time></trkpt><trkpt lat="45.3270683" lon="7.5935417"><ele>495.1428571428571</ele><time>2026-04-04T13:42:57.754Z</time></trkpt><trkpt lat="45.327025" lon="7.5934583"><ele>494.99999999999994</ele><time>2026-04-04T13:43:01.755Z</time></trkpt><trkpt lat="45.3269867" lon="7.5935333"><ele>494.99999999999994</ele><time>2026-04-04T13:43:12.754Z</time></trkpt><trkpt lat="45.3269717" lon="7.5936217"><ele>495.0</ele><time>2026-04-04T13:43:14.755Z</time></trkpt><trkpt lat="45.326925" lon="7.5937517"><ele>494.99999999999994</ele><time>2026-04-04T13:43:16.754Z</time></trkpt><trkpt lat="45.32689" lon="7.5938333"><ele>494.99999999999994</ele><time>2026-04-04T13:43:17.754Z</time></trkpt><trkpt lat="45.3268517" lon="7.5939133"><ele>495.0</ele><time>2026-04-04T13:43:18.754Z</time></trkpt><trkpt lat="45.32681" lon="7.5939867"><ele>494.99999999999994</ele><time>2026-04-04T13:43:19.754Z</time></trkpt><trkpt lat="45.3267617" lon="7.5940483"><ele>494.99999999999994</ele><time>2026-04-04T13:43:20.754Z</time></trkpt><trkpt lat="45.326665" lon="7.594125"><ele>495.0</ele><time>2026-04-04T13:43:22.754Z</time></trkpt><trkpt lat="45.3266" lon="7.594165"><ele>495.0</ele><time>2026-04-04T13:43:24.754Z</time></trkpt><trkpt lat="45.326525" lon="7.5942167"><ele>495.0</ele><time>2026-04-04T13:43:45.755Z</time></trkpt><trkpt lat="45.326495" lon="7.5943017"><ele>495.0</ele><time>2026-04-04T13:43:50.754Z</time></trkpt><trkpt lat="45.32644" lon="7.5943867"><ele>495.0</ele><time>2026-04-04T13:43:52.754Z</time></trkpt><trkpt lat="45.3263683" lon="7.5944733"><ele>495.0</ele><time>2026-04-04T13:43:54.754Z</time></trkpt><trkpt lat="45.3262983" lon="7.5945167"><ele>494.8</ele><time>2026-04-04T13:43:56.754Z</time></trkpt><trkpt lat="45.32624" lon="7.59456"><ele>494.6</ele><time>2026-04-04T13:43:58.755Z</time></trkpt><trkpt lat="45.3261467" lon="7.5946317"><ele>494.4</ele><time>2026-04-04T13:44:00.755Z</time></trkpt><trkpt lat="45.32603" lon="7.5947083"><ele>494.2</ele><time>2026-04-04T13:44:02.754Z</time></trkpt><trkpt lat="45.32597" lon="7.5947367"><ele>494.0</ele><time>2026-04-04T13:44:03.754Z</time></trkpt><trkpt lat="45.32588" lon="7.594765"><ele>494.0</ele><time>2026-04-04T13:44:05.754Z</time></trkpt><trkpt lat="45.3257683" lon="7.5948033"><ele>494.0</ele><time>2026-04-04T13:44:38.753Z</time></trkpt><trkpt lat="45.3256483" lon="7.594765"><ele>494.0</ele><time>2026-04-04T13:44:40.753Z</time></trkpt><trkpt lat="45.3255817" lon="7.594745"><ele>494.0</ele><time>2026-04-04T13:44:41.753Z</time></trkpt><trkpt lat="45.3254817" lon="7.5946867"><ele>494.0</ele><time>2026-04-04T13:44:43.753Z</time></trkpt><trkpt lat="45.32538" lon="7.5946033"><ele>493.8333333333333</ele><time>2026-04-04T13:44:45.753Z</time></trkpt><trkpt lat="45.3253333" lon="7.5945383"><ele>493.66666666666663</ele><time>2026-04-04T13:44:46.753Z</time></trkpt><trkpt lat="45.3252867" lon="7.59447"><ele>493.5</ele><time>2026-04-04T13:44:47.753Z</time></trkpt><trkpt lat="45.32521" lon="7.5943483"><ele>493.33333333333337</ele><time>2026-04-04T13:44:49.754Z</time></trkpt><trkpt lat="45.3251483" lon="7.5943067"><ele>493.1666666666667</ele><time>2026-04-04T13:44:51.753Z</time></trkpt><trkpt lat="45.3251067" lon="7.59439"><ele>493.0</ele><time>2026-04-04T13:44:56.753Z</time></trkpt><trkpt lat="45.3251167" lon="7.5944817"><ele>493.0</ele><time>2026-04-04T13:44:58.754Z</time></trkpt><trkpt lat="45.3251383" lon="7.5945717"><ele>493.0</ele><time>2026-04-04T13:45:00.753Z</time></trkpt><trkpt lat="45.3251567" lon="7.5946683"><ele>493.0</ele><time>2026-04-04T13:45:02.753Z</time></trkpt><trkpt lat="45.32517" lon="7.594775"><ele>493.0</ele><time>2026-04-04T13:45:04.753Z</time></trkpt><trkpt lat="45.325175" lon="7.5948883"><ele>493.0</ele><time>2026-04-04T13:45:06.753Z</time></trkpt><trkpt lat="45.3251717" lon="7.5949833"><ele>493.0</ele><time>2026-04-04T13:45:08.754Z</time></trkpt><trkpt lat="45.3251633" lon="7.5950783"><ele>493.0</ele><time>2026-04-04T13:45:10.754Z</time></trkpt><trkpt lat="45.325165" lon="7.5952033"><ele>490.79999999999995</ele><time>2026-04-04T13:45:12.753Z</time></trkpt><trkpt lat="45.3251667" lon="7.59535"><ele>488.59999999999997</ele><time>2026-04-04T13:45:14.753Z</time></trkpt><trkpt lat="45.3251733" lon="7.5954633"><ele>486.40000000000003</ele><time>2026-04-04T13:45:16.753Z</time></trkpt><trkpt lat="45.32516" lon="7.5955767"><ele>484.20000000000005</ele><time>2026-04-04T13:45:18.753Z</time></trkpt><trkpt lat="45.3251333" lon="7.5957317"><ele>482.0</ele><time>2026-04-04T13:45:20.753Z</time></trkpt><trkpt lat="45.3250767" lon="7.59581"><ele>482.0</ele><time>2026-04-04T13:45:21.753Z</time></trkpt><trkpt lat="45.3250317" lon="7.59593"><ele>482.00000000000006</ele><time>2026-04-04T13:45:23.754Z</time></trkpt><trkpt lat="45.32496" lon="7.5960217"><ele>482.00000000000006</ele><time>2026-04-04T13:45:25.753Z</time></trkpt><trkpt lat="45.324865" lon="7.596095"><ele>482.0</ele><time>2026-04-04T13:45:27.753Z</time></trkpt><trkpt lat="45.3247617" lon="7.596115"><ele>482.0</ele><time>2026-04-04T13:45:29.754Z</time></trkpt><trkpt lat="45.3246783" lon="7.596105"><ele>482.16666666666663</ele><time>2026-04-04T13:45:31.753Z</time></trkpt><trkpt lat="45.3245917" lon="7.5960633"><ele>482.3333333333333</ele><time>2026-04-04T13:45:33.753Z</time></trkpt><trkpt lat="45.3245017" lon="7.59606"><ele>482.5</ele><time>2026-04-04T13:45:35.753Z</time></trkpt><trkpt lat="45.3244383" lon="7.5961367"><ele>482.66666666666663</ele><time>2026-04-04T13:45:37.753Z</time></trkpt><trkpt lat="45.324405" lon="7.5962533"><ele>482.8333333333333</ele><time>2026-04-04T13:45:39.754Z</time></trkpt><trkpt lat="45.3243567" lon="7.5963433"><ele>483.0</ele><time>2026-04-04T13:45:41.753Z</time></trkpt><trkpt lat="45.3242967" lon="7.5964017"><ele>481.4</ele><time>2026-04-04T13:45:43.754Z</time></trkpt><trkpt lat="45.32423" lon="7.59644"><ele>479.79999999999995</ele><time>2026-04-04T13:45:45.753Z</time></trkpt><trkpt lat="45.3241633" lon="7.5964833"><ele>478.2</ele><time>2026-04-04T13:45:47.753Z</time></trkpt><trkpt lat="45.32407" lon="7.5965467"><ele>476.6</ele><time>2026-04-04T13:45:49.754Z</time></trkpt><trkpt lat="45.3239767" lon="7.5965783"><ele>475.0</ele><time>2026-04-04T13:45:51.753Z</time></trkpt><trkpt lat="45.3238733" lon="7.5965483"><ele>475.5</ele><time>2026-04-04T13:45:53.753Z</time></trkpt><trkpt lat="45.323775" lon="7.5964467"><ele>476.0</ele><time>2026-04-04T13:45:55.753Z</time></trkpt><trkpt lat="45.3236967" lon="7.5963383"><ele>476.5</ele><time>2026-04-04T13:45:57.754Z</time></trkpt><trkpt lat="45.3236183" lon="7.5962167"><ele>477.0</ele><time>2026-04-04T13:45:59.753Z</time></trkpt><trkpt lat="45.32355" lon="7.5960883"><ele>477.0</ele><time>2026-04-04T13:46:01.753Z</time></trkpt><trkpt lat="45.3234817" lon="7.5959767"><ele>477.00000000000006</ele><time>2026-04-04T13:46:03.754Z</time></trkpt><trkpt lat="45.3234117" lon="7.595855"><ele>477.00000000000006</ele><time>2026-04-04T13:46:05.753Z</time></trkpt><trkpt lat="45.3233283" lon="7.595755"><ele>477.0</ele><time>2026-04-04T13:46:07.753Z</time></trkpt><trkpt lat="45.3232633" lon="7.59566"><ele>477.0</ele><time>2026-04-04T13:46:09.753Z</time></trkpt><trkpt lat="45.3232467" lon="7.5955167"><ele>477.0</ele><time>2026-04-04T13:46:11.753Z</time></trkpt><trkpt lat="45.3232533" lon="7.5953967"><ele>477.0</ele><time>2026-04-04T13:46:13.753Z</time></trkpt><trkpt lat="45.323245" lon="7.5953033"><ele>477.0</ele><time>2026-04-04T13:46:16.753Z</time></trkpt><trkpt lat="45.32325" lon="7.5954117"><ele>477.0</ele><time>2026-04-04T13:46:24.753Z</time></trkpt><trkpt lat="45.323265" lon="7.595545"><ele>477.0</ele><time>2026-04-04T13:46:26.753Z</time></trkpt><trkpt lat="45.3232567" lon="7.5956933"><ele>477.0</ele><time>2026-04-04T13:46:28.754Z</time></trkpt><trkpt lat="45.3232533" lon="7.595855"><ele>477.0</ele><time>2026-04-04T13:46:30.753Z</time></trkpt><trkpt lat="45.3232867" lon="7.596"><ele>477.00000000000006</ele><time>2026-04-04T13:46:32.754Z</time></trkpt><trkpt lat="45.3232883" lon="7.5961683"><ele>477.00000000000006</ele><time>2026-04-04T13:46:34.753Z</time></trkpt><trkpt lat="45.3232433" lon="7.596295"><ele>477.0</ele><time>2026-04-04T13:46:35.754Z</time></trkpt><trkpt lat="45.3232167" lon="7.5963867"><ele>477.0</ele><time>2026-04-04T13:46:36.753Z</time></trkpt><trkpt lat="45.32318" lon="7.5964717"><ele>475.6</ele><time>2026-04-04T13:46:37.753Z</time></trkpt><trkpt lat="45.3231217" lon="7.596555"><ele>474.20000000000005</ele><time>2026-04-04T13:46:38.753Z</time></trkpt><trkpt lat="45.32307" lon="7.59662"><ele>472.8</ele><time>2026-04-04T13:46:39.753Z</time></trkpt><trkpt lat="45.3229733" lon="7.5967267"><ele>471.4</ele><time>2026-04-04T13:46:41.754Z</time></trkpt><trkpt lat="45.3229267" lon="7.5968817"><ele>470.0</ele><time>2026-04-04T13:46:43.753Z</time></trkpt><trkpt lat="45.3229233" lon="7.596975"><ele>469.6</ele><time>2026-04-04T13:46:44.754Z</time></trkpt><trkpt lat="45.3229267" lon="7.5970683"><ele>469.2</ele><time>2026-04-04T13:46:45.753Z</time></trkpt><trkpt lat="45.3229817" lon="7.59722"><ele>468.79999999999995</ele><time>2026-04-04T13:46:47.753Z</time></trkpt><trkpt lat="45.3230567" lon="7.5973283"><ele>468.4</ele><time>2026-04-04T13:46:49.753Z</time></trkpt><trkpt lat="45.32313" lon="7.59746"><ele>468.0</ele><time>2026-04-04T13:46:51.754Z</time></trkpt><trkpt lat="45.3231683" lon="7.59759"><ele>468.0</ele><time>2026-04-04T13:46:53.754Z</time></trkpt><trkpt lat="45.3231583" lon="7.5977383"><ele>468.0</ele><time>2026-04-04T13:46:55.753Z</time></trkpt><trkpt lat="45.3231117" lon="7.5978183"><ele>468.0</ele><time>2026-04-04T13:46:58.753Z</time></trkpt><trkpt lat="45.3230333" lon="7.5977883"><ele>468.0</ele><time>2026-04-04T13:47:00.753Z</time></trkpt><trkpt lat="45.322955" lon="7.59773"><ele>468.0</ele><time>2026-04-04T13:47:02.753Z</time></trkpt><trkpt lat="45.3228867" lon="7.5976533"><ele>468.0</ele><time>2026-04-04T13:47:04.754Z</time></trkpt><trkpt lat="45.3228217" lon="7.5975783"><ele>472.4</ele><time>2026-04-04T13:47:06.753Z</time></trkpt><trkpt lat="45.3227767" lon="7.5974817"><ele>476.79999999999995</ele><time>2026-04-04T13:47:08.753Z</time></trkpt><trkpt lat="45.3227367" lon="7.59735"><ele>481.2</ele><time>2026-04-04T13:47:10.754Z</time></trkpt><trkpt lat="45.3226817" lon="7.5971933"><ele>485.6</ele><time>2026-04-04T13:47:12.753Z</time></trkpt><trkpt lat="45.3226467" lon="7.59703"><ele>490.0</ele><time>2026-04-04T13:47:14.753Z</time></trkpt><trkpt lat="45.3226333" lon="7.59694"><ele>491.0</ele><time>2026-04-04T13:47:15.753Z</time></trkpt><trkpt lat="45.32262" lon="7.596775"><ele>492.0</ele><time>2026-04-04T13:47:17.753Z</time></trkpt><trkpt lat="45.3225967" lon="7.5966383"><ele>493.0</ele><time>2026-04-04T13:47:19.753Z</time></trkpt><trkpt lat="45.3225417" lon="7.5965217"><ele>494.0</ele><time>2026-04-04T13:47:21.754Z</time></trkpt><trkpt lat="45.32248" lon="7.5964183"><ele>495.0</ele><time>2026-04-04T13:47:23.753Z</time></trkpt><trkpt lat="45.3224233" lon="7.5963533"><ele>495.0</ele><time>2026-04-04T13:47:25.753Z</time></trkpt><trkpt lat="45.32236" lon="7.5963167"><ele>495.0</ele><time>2026-04-04T13:47:59.753Z</time></trkpt><trkpt lat="45.3223017" lon="7.596215"><ele>495.0</ele><time>2026-04-04T13:48:00.753Z</time></trkpt><trkpt lat="45.3222933" lon="7.5960783"><ele>495.0</ele><time>2026-04-04T13:50:22.752Z</time></trkpt><trkpt lat="45.3223267" lon="7.5961867"><ele>495.0</ele><time>2026-04-04T13:54:48.752Z</time></trkpt><trkpt lat="45.32227" lon="7.5961233"><ele>495.0</ele><time>2026-04-04T13:55:16.752Z</time></trkpt><trkpt lat="45.3222183" lon="7.5960483"><ele>494.3333333333333</ele><time>2026-04-04T13:55:18.751Z</time></trkpt><trkpt lat="45.3221467" lon="7.5959983"><ele>493.66666666666663</ele><time>2026-04-04T13:55:20.751Z</time></trkpt><trkpt lat="45.3220783" lon="7.5959417"><ele>493.0</ele><time>2026-04-04T13:55:22.752Z</time></trkpt><trkpt lat="45.3220033" lon="7.5959317"><ele>492.3333333333333</ele><time>2026-04-04T13:55:24.751Z</time></trkpt><trkpt lat="45.3219017" lon="7.5959367"><ele>491.66666666666663</ele><time>2026-04-04T13:55:26.752Z</time></trkpt><trkpt lat="45.321805" lon="7.59593"><ele>491.0</ele><time>2026-04-04T13:55:28.752Z</time></trkpt><trkpt lat="45.3217117" lon="7.5959483"><ele>491.0</ele><time>2026-04-04T13:55:30.751Z</time></trkpt><trkpt lat="45.3215983" lon="7.5959783"><ele>491.0</ele><time>2026-04-04T13:55:32.751Z</time></trkpt><trkpt lat="45.321495" lon="7.5960217"><ele>491.0</ele><time>2026-04-04T13:55:34.752Z</time></trkpt><trkpt lat="45.3213967" lon="7.5961083"><ele>491.0</ele><time>2026-04-04T13:55:36.751Z</time></trkpt><trkpt lat="45.321345" lon="7.596165"><ele>491.0</ele><time>2026-04-04T13:55:37.751Z</time></trkpt><trkpt lat="45.32129" lon="7.5962383"><ele>489.66666666666663</ele><time>2026-04-04T13:55:38.752Z</time></trkpt><trkpt lat="45.3212333" lon="7.596325"><ele>488.3333333333333</ele><time>2026-04-04T13:55:39.751Z</time></trkpt><trkpt lat="45.321185" lon="7.5964267"><ele>487.0</ele><time>2026-04-04T13:55:40.751Z</time></trkpt><trkpt lat="45.3211483" lon="7.5965267"><ele>485.66666666666663</ele><time>2026-04-04T13:55:41.751Z</time></trkpt><trkpt lat="45.321115" lon="7.5966217"><ele>484.3333333333333</ele><time>2026-04-04T13:55:42.751Z</time></trkpt><trkpt lat="45.3210833" lon="7.5967267"><ele>483.0</ele><time>2026-04-04T13:55:43.751Z</time></trkpt><trkpt lat="45.3210417" lon="7.59681"><ele>483.0</ele><time>2026-04-04T13:55:44.751Z</time></trkpt><trkpt lat="45.3209967" lon="7.5968833"><ele>483.0</ele><time>2026-04-04T13:55:45.751Z</time></trkpt><trkpt lat="45.3209433" lon="7.5969467"><ele>483.0</ele><time>2026-04-04T13:55:46.751Z</time></trkpt><trkpt lat="45.3208733" lon="7.5969983"><ele>483.0</ele><time>2026-04-04T13:55:47.752Z</time></trkpt><trkpt lat="45.32079" lon="7.597045"><ele>483.0</ele><time>2026-04-04T13:55:48.752Z</time></trkpt><trkpt lat="45.3207067" lon="7.5971083"><ele>483.0</ele><time>2026-04-04T13:55:49.751Z</time></trkpt><trkpt lat="45.3206217" lon="7.59718"><ele>484.2</ele><time>2026-04-04T13:55:50.751Z</time></trkpt><trkpt lat="45.3205417" lon="7.59728"><ele>485.4</ele><time>2026-04-04T13:55:51.751Z</time></trkpt><trkpt lat="45.3204567" lon="7.5973683"><ele>486.59999999999997</ele><time>2026-04-04T13:55:52.751Z</time></trkpt><trkpt lat="45.3203783" lon="7.5974517"><ele>487.79999999999995</ele><time>2026-04-04T13:55:53.751Z</time></trkpt><trkpt lat="45.3203117" lon="7.5975383"><ele>489.0</ele><time>2026-04-04T13:55:54.751Z</time></trkpt><trkpt lat="45.3202433" lon="7.5976233"><ele>489.0</ele><time>2026-04-04T13:55:55.751Z</time></trkpt><trkpt lat="45.32019" lon="7.5977117"><ele>489.0</ele><time>2026-04-04T13:55:56.751Z</time></trkpt><trkpt lat="45.3201383" lon="7.597795"><ele>489.0</ele><time>2026-04-04T13:55:57.752Z</time></trkpt><trkpt lat="45.3200883" lon="7.59787"><ele>489.0</ele><time>2026-04-04T13:55:58.751Z</time></trkpt><trkpt lat="45.3200367" lon="7.597935"><ele>489.0</ele><time>2026-04-04T13:55:59.75Z</time></trkpt><trkpt lat="45.3199817" lon="7.59799"><ele>489.0</ele><time>2026-04-04T13:56:00.75Z</time></trkpt><trkpt lat="45.3198883" lon="7.5980667"><ele>486.0</ele><time>2026-04-04T13:56:02.75Z</time></trkpt><trkpt lat="45.3198133" lon="7.5981017"><ele>483.0</ele><time>2026-04-04T13:56:04.75Z</time></trkpt><trkpt lat="45.31991" lon="7.5980633"><ele>480.0</ele><time>2026-04-04T13:56:14.751Z</time></trkpt><trkpt lat="45.3199917" lon="7.5979917"><ele>477.0</ele><time>2026-04-04T13:56:16.751Z</time></trkpt><trkpt lat="45.3200717" lon="7.5979417"><ele>474.0</ele><time>2026-04-04T13:56:18.75Z</time></trkpt><trkpt lat="45.3201417" lon="7.59789"><ele>471.0</ele><time>2026-04-04T13:56:20.75Z</time></trkpt><trkpt lat="45.3202133" lon="7.5978383"><ele>471.0</ele><time>2026-04-04T13:56:23.75Z</time></trkpt><trkpt lat="45.32027" lon="7.5978833"><ele>471.0</ele><time>2026-04-04T13:56:26.751Z</time></trkpt><trkpt lat="45.3202983" lon="7.5979917"><ele>471.0</ele><time>2026-04-04T13:56:28.75Z</time></trkpt><trkpt lat="45.3202917" lon="7.598115"><ele>471.0</ele><time>2026-04-04T13:56:30.75Z</time></trkpt><trkpt lat="45.32024" lon="7.5982717"><ele>471.0</ele><time>2026-04-04T13:56:32.751Z</time></trkpt><trkpt lat="45.3201767" lon="7.598415"><ele>471.0</ele><time>2026-04-04T13:56:34.751Z</time></trkpt><trkpt lat="45.3201367" lon="7.5985667"><ele>471.0</ele><time>2026-04-04T13:56:36.751Z</time></trkpt><trkpt lat="45.3201317" lon="7.5986983"><ele>471.0</ele><time>2026-04-04T13:56:38.751Z</time></trkpt><trkpt lat="45.3201767" lon="7.5988167"><ele>471.0</ele><time>2026-04-04T13:56:40.75Z</time></trkpt><trkpt lat="45.32024" lon="7.5989217"><ele>471.0</ele><time>2026-04-04T13:56:42.75Z</time></trkpt><trkpt lat="45.32029" lon="7.599025"><ele>471.0</ele><time>2026-04-04T13:56:44.75Z</time></trkpt><trkpt lat="45.32028" lon="7.5991317"><ele>471.0</ele><time>2026-04-04T13:56:48.75Z</time></trkpt><trkpt lat="45.3202167" lon="7.59908"><ele>471.0</ele><time>2026-04-04T13:56:51.751Z</time></trkpt><trkpt lat="45.3201983" lon="7.5989817"><ele>471.0</ele><time>2026-04-04T13:56:53.75Z</time></trkpt><trkpt lat="45.320205" lon="7.5988517"><ele>471.0</ele><time>2026-04-04T13:56:55.75Z</time></trkpt><trkpt lat="45.3202367" lon="7.598725"><ele>471.0</ele><time>2026-04-04T13:56:57.75Z</time></trkpt><trkpt lat="45.3203" lon="7.5986183"><ele>471.0</ele><time>2026-04-04T13:56:59.75Z</time></trkpt><trkpt lat="45.3203733" lon="7.5985317"><ele>471.0</ele><time>2026-04-04T13:57:01.75Z</time></trkpt><trkpt lat="45.3204367" lon="7.598495"><ele>471.0</ele><time>2026-04-04T13:57:03.75Z</time></trkpt><trkpt lat="45.320525" lon="7.59846"><ele>471.0</ele><time>2026-04-04T13:57:05.75Z</time></trkpt><trkpt lat="45.3206067" lon="7.5983933"><ele>471.0</ele><time>2026-04-04T13:57:07.751Z</time></trkpt><trkpt lat="45.3206917" lon="7.5982983"><ele>466.8333333333333</ele><time>2026-04-04T13:57:09.75Z</time></trkpt><trkpt lat="45.3207633" lon="7.5981767"><ele>462.66666666666663</ele><time>2026-04-04T13:57:11.75Z</time></trkpt><trkpt lat="45.320805" lon="7.598055"><ele>458.5</ele><time>2026-04-04T13:57:13.75Z</time></trkpt><trkpt lat="45.3208417" lon="7.597955"><ele>454.3333333333333</ele><time>2026-04-04T13:57:15.75Z</time></trkpt><trkpt lat="45.320885" lon="7.597885"><ele>450.16666666666663</ele><time>2026-04-04T13:57:17.75Z</time></trkpt><trkpt lat="45.3209683" lon="7.597945"><ele>446.0</ele><time>2026-04-04T13:57:21.75Z</time></trkpt><trkpt lat="45.321025" lon="7.5981133"><ele>445.99999999999994</ele><time>2026-04-04T13:57:23.75Z</time></trkpt><trkpt lat="45.32106" lon="7.598215"><ele>446.0</ele><time>2026-04-04T13:57:24.75Z</time></trkpt><trkpt lat="45.3210817" lon="7.5983233"><ele>446.0</ele><time>2026-04-04T13:57:25.751Z</time></trkpt><trkpt lat="45.321085" lon="7.598415"><ele>446.0</ele><time>2026-04-04T13:57:26.75Z</time></trkpt><trkpt lat="45.3210783" lon="7.59851"><ele>445.99999999999994</ele><time>2026-04-04T13:57:27.75Z</time></trkpt><trkpt lat="45.3210683" lon="7.5986017"><ele>446.0</ele><time>2026-04-04T13:57:28.75Z</time></trkpt><trkpt lat="45.3210033" lon="7.59875"><ele>443.99999999999994</ele><time>2026-04-04T13:57:30.75Z</time></trkpt><trkpt lat="45.32095" lon="7.598805"><ele>442.0</ele><time>2026-04-04T13:57:31.75Z</time></trkpt><trkpt lat="45.3209017" lon="7.598865"><ele>440.0</ele><time>2026-04-04T13:57:32.751Z</time></trkpt><trkpt lat="45.3208533" lon="7.5989533"><ele>438.0</ele><time>2026-04-04T13:57:34.75Z</time></trkpt><trkpt lat="45.3208983" lon="7.5990167"><ele>435.99999999999994</ele><time>2026-04-04T13:57:37.75Z</time></trkpt><trkpt lat="45.3209383" lon="7.5990967"><ele>434.0</ele><time>2026-04-04T13:57:39.75Z</time></trkpt><trkpt lat="45.3209617" lon="7.599265"><ele>434.0</ele><time>2026-04-04T13:57:41.75Z</time></trkpt><trkpt lat="45.3209817" lon="7.599425"><ele>434.0</ele><time>2026-04-04T13:57:43.751Z</time></trkpt><trkpt lat="45.3210067" lon="7.5995917"><ele>434.0</ele><time>2026-04-04T13:57:45.75Z</time></trkpt><trkpt lat="45.32102" lon="7.59969"><ele>434.0</ele><time>2026-04-04T13:57:46.75Z</time></trkpt><trkpt lat="45.321025" lon="7.59985"><ele>434.0</ele><time>2026-04-04T13:57:48.751Z</time></trkpt><trkpt lat="45.3210433" lon="7.5999833"><ele>432.0</ele><time>2026-04-04T13:57:50.75Z</time></trkpt><trkpt lat="45.3210667" lon="7.6001117"><ele>430.0</ele><time>2026-04-04T13:57:52.75Z</time></trkpt><trkpt lat="45.32109" lon="7.600245"><ele>428.0</ele><time>2026-04-04T13:57:54.75Z</time></trkpt><trkpt lat="45.32106" lon="7.6004217"><ele>426.0</ele><time>2026-04-04T13:57:56.751Z</time></trkpt><trkpt lat="45.3210333" lon="7.6005117"><ele>424.0</ele><time>2026-04-04T13:57:57.75Z</time></trkpt><trkpt lat="45.3209667" lon="7.6006667"><ele>422.1666666666667</ele><time>2026-04-04T13:57:59.75Z</time></trkpt><trkpt lat="45.3209167" lon="7.6007417"><ele>420.33333333333337</ele><time>2026-04-04T13:58:00.75Z</time></trkpt><trkpt lat="45.320825" lon="7.6008533"><ele>418.5</ele><time>2026-04-04T13:58:02.75Z</time></trkpt><trkpt lat="45.3207583" lon="7.6009"><ele>416.66666666666663</ele><time>2026-04-04T13:58:03.75Z</time></trkpt><trkpt lat="45.320655" lon="7.6009417"><ele>414.8333333333333</ele><time>2026-04-04T13:58:04.751Z</time></trkpt><trkpt lat="45.3205867" lon="7.60096"><ele>413.0</ele><time>2026-04-04T13:58:05.751Z</time></trkpt><trkpt lat="45.3205133" lon="7.600985"><ele>412.99999999999994</ele><time>2026-04-04T13:58:06.75Z</time></trkpt><trkpt lat="45.3204483" lon="7.6009867"><ele>413.0</ele><time>2026-04-04T13:58:07.75Z</time></trkpt><trkpt lat="45.320335" lon="7.6009733"><ele>413.0</ele><time>2026-04-04T13:58:09.751Z</time></trkpt><trkpt lat="45.3202683" lon="7.60102"><ele>413.0</ele><time>2026-04-04T13:58:11.75Z</time></trkpt><trkpt lat="45.3203517" lon="7.6010383"><ele>412.99999999999994</ele><time>2026-04-04T13:58:16.75Z</time></trkpt><trkpt lat="45.3204283" lon="7.601025"><ele>413.0</ele><time>2026-04-04T13:58:19.75Z</time></trkpt><trkpt lat="45.3204133" lon="7.60117"><ele>408.79999999999995</ele><time>2026-04-04T13:58:22.75Z</time></trkpt><trkpt lat="45.3203033" lon="7.601255"><ele>404.6</ele><time>2026-04-04T13:58:24.75Z</time></trkpt><trkpt lat="45.32024" lon="7.6012983"><ele>400.4</ele><time>2026-04-04T13:58:25.75Z</time></trkpt><trkpt lat="45.3201367" lon="7.6012833"><ele>396.20000000000005</ele><time>2026-04-04T13:58:27.75Z</time></trkpt><trkpt lat="45.32006" lon="7.6012483"><ele>392.0</ele><time>2026-04-04T13:58:29.751Z</time></trkpt><trkpt lat="45.32001" lon="7.6013367"><ele>391.99999999999994</ele><time>2026-04-04T13:58:31.75Z</time></trkpt><trkpt lat="45.3199167" lon="7.60145"><ele>392.0</ele><time>2026-04-04T13:58:33.75Z</time></trkpt><trkpt lat="45.3198583" lon="7.6014967"><ele>392.0</ele><time>2026-04-04T13:58:34.75Z</time></trkpt><trkpt lat="45.3197883" lon="7.6015317"><ele>392.0</ele><time>2026-04-04T13:58:35.75Z</time></trkpt><trkpt lat="45.3197083" lon="7.601535"><ele>391.99999999999994</ele><time>2026-04-04T13:58:36.75Z</time></trkpt><trkpt lat="45.31964" lon="7.6015383"><ele>392.0</ele><time>2026-04-04T13:58:37.75Z</time></trkpt><trkpt lat="45.31953" lon="7.6015567"><ele>392.0</ele><time>2026-04-04T13:58:39.751Z</time></trkpt><trkpt lat="45.319605" lon="7.6016017"><ele>392.0</ele><time>2026-04-04T13:58:45.751Z</time></trkpt><trkpt lat="45.3197017" lon="7.6015833"><ele>392.0</ele><time>2026-04-04T13:58:47.75Z</time></trkpt><trkpt lat="45.3197767" lon="7.6016183"><ele>392.0</ele><time>2026-04-04T13:58:49.751Z</time></trkpt><trkpt lat="45.3198817" lon="7.6017433"><ele>392.0</ele><time>2026-04-04T13:58:51.75Z</time></trkpt><trkpt lat="45.31994" lon="7.6018283"><ele>392.0</ele><time>2026-04-04T13:58:52.75Z</time></trkpt><trkpt lat="45.32002" lon="7.60193"><ele>392.0</ele><time>2026-04-04T13:58:53.751Z</time></trkpt><trkpt lat="45.3200967" lon="7.6020367"><ele>392.0</ele><time>2026-04-04T13:58:54.75Z</time></trkpt><trkpt lat="45.3201733" lon="7.6021567"><ele>392.0</ele><time>2026-04-04T13:58:55.75Z</time></trkpt><trkpt lat="45.3202717" lon="7.6022767"><ele>389.49999999999994</ele><time>2026-04-04T13:58:56.751Z</time></trkpt><trkpt lat="45.320335" lon="7.6023717"><ele>387.0</ele><time>2026-04-04T13:58:57.75Z</time></trkpt><trkpt lat="45.320385" lon="7.602465"><ele>384.5</ele><time>2026-04-04T13:58:58.75Z</time></trkpt><trkpt lat="45.3204467" lon="7.6025433"><ele>382.0</ele><time>2026-04-04T13:58:59.75Z</time></trkpt><trkpt lat="45.320495" lon="7.602635"><ele>379.5</ele><time>2026-04-04T13:59:00.75Z</time></trkpt><trkpt lat="45.320535" lon="7.6027217"><ele>377.0</ele><time>2026-04-04T13:59:01.751Z</time></trkpt><trkpt lat="45.32054" lon="7.6028217"><ele>375.83333333333337</ele><time>2026-04-04T13:59:02.751Z</time></trkpt><trkpt lat="45.3205183" lon="7.6029367"><ele>374.6666666666667</ele><time>2026-04-04T13:59:03.75Z</time></trkpt><trkpt lat="45.3204967" lon="7.6030333"><ele>373.5</ele><time>2026-04-04T13:59:04.75Z</time></trkpt><trkpt lat="45.3204717" lon="7.6031167"><ele>372.3333333333333</ele><time>2026-04-04T13:59:05.75Z</time></trkpt><trkpt lat="45.3204317" lon="7.603255"><ele>371.16666666666663</ele><time>2026-04-04T13:59:07.75Z</time></trkpt><trkpt lat="45.3204183" lon="7.6033583"><ele>370.0</ele><time>2026-04-04T13:59:09.751Z</time></trkpt><trkpt lat="45.32046" lon="7.6034483"><ele>370.0</ele><time>2026-04-04T13:59:19.75Z</time></trkpt><trkpt lat="45.320525" lon="7.6034867"><ele>370.0</ele><time>2026-04-04T13:59:22.75Z</time></trkpt><trkpt lat="45.3206217" lon="7.603565"><ele>370.0</ele><time>2026-04-04T13:59:25.751Z</time></trkpt><trkpt lat="45.3207" lon="7.6036617"><ele>370.0</ele><time>2026-04-04T13:59:27.75Z</time></trkpt><trkpt lat="45.3207583" lon="7.6037417"><ele>370.0</ele><time>2026-04-04T13:59:29.75Z</time></trkpt><trkpt lat="45.3207567" lon="7.6038683"><ele>369.2</ele><time>2026-04-04T13:59:33.75Z</time></trkpt><trkpt lat="45.3206967" lon="7.60397"><ele>368.4</ele><time>2026-04-04T13:59:34.75Z</time></trkpt><trkpt lat="45.32064" lon="7.6040883"><ele>367.6</ele><time>2026-04-04T13:59:35.75Z</time></trkpt><trkpt lat="45.3205733" lon="7.6042167"><ele>366.8</ele><time>2026-04-04T13:59:36.75Z</time></trkpt><trkpt lat="45.3205167" lon="7.60434"><ele>366.0</ele><time>2026-04-04T13:59:37.75Z</time></trkpt><trkpt lat="45.3204633" lon="7.6044517"><ele>365.0</ele><time>2026-04-04T13:59:38.751Z</time></trkpt><trkpt lat="45.3204033" lon="7.60456"><ele>364.0</ele><time>2026-04-04T13:59:39.75Z</time></trkpt><trkpt lat="45.3203517" lon="7.60466"><ele>363.0</ele><time>2026-04-04T13:59:40.751Z</time></trkpt><trkpt lat="45.32031" lon="7.6047783"><ele>362.0</ele><time>2026-04-04T13:59:41.75Z</time></trkpt><trkpt lat="45.3202583" lon="7.604885"><ele>361.0</ele><time>2026-04-04T13:59:42.751Z</time></trkpt><trkpt lat="45.320195" lon="7.604995"><ele>361.0</ele><time>2026-04-04T13:59:43.751Z</time></trkpt><trkpt lat="45.3201233" lon="7.6050767"><ele>361.0</ele><time>2026-04-04T13:59:44.751Z</time></trkpt><trkpt lat="45.3200567" lon="7.60517"><ele>361.0</ele><time>2026-04-04T13:59:45.75Z</time></trkpt><trkpt lat="45.3200033" lon="7.6052633"><ele>361.0</ele><time>2026-04-04T13:59:46.75Z</time></trkpt><trkpt lat="45.3199467" lon="7.605355"><ele>361.0</ele><time>2026-04-04T13:59:47.749Z</time></trkpt><trkpt lat="45.3198883" lon="7.6054383"><ele>361.0</ele><time>2026-04-04T13:59:48.75Z</time></trkpt><trkpt lat="45.319825" lon="7.60553"><ele>360.66666666666663</ele><time>2026-04-04T13:59:49.749Z</time></trkpt><trkpt lat="45.3197667" lon="7.605605"><ele>360.3333333333333</ele><time>2026-04-04T13:59:50.75Z</time></trkpt><trkpt lat="45.3197167" lon="7.605665"><ele>360.0</ele><time>2026-04-04T13:59:51.749Z</time></trkpt><trkpt lat="45.31965" lon="7.60577"><ele>359.6666666666667</ele><time>2026-04-04T13:59:53.749Z</time></trkpt><trkpt lat="45.3196" lon="7.6058567"><ele>359.33333333333337</ele><time>2026-04-04T13:59:55.749Z</time></trkpt><trkpt lat="45.3195933" lon="7.6059617"><ele>359.0</ele><time>2026-04-04T13:59:58.749Z</time></trkpt><trkpt lat="45.3197283" lon="7.60601"><ele>359.0</ele><time>2026-04-04T14:00:02.749Z</time></trkpt><trkpt lat="45.3197917" lon="7.60603"><ele>359.0</ele><time>2026-04-04T14:00:03.749Z</time></trkpt><trkpt lat="45.3198617" lon="7.6060583"><ele>359.0</ele><time>2026-04-04T14:00:04.749Z</time></trkpt><trkpt lat="45.3199217" lon="7.6060867"><ele>359.0</ele><time>2026-04-04T14:00:05.749Z</time></trkpt><trkpt lat="45.3199833" lon="7.6061133"><ele>359.0</ele><time>2026-04-04T14:00:06.749Z</time></trkpt><trkpt lat="45.320085" lon="7.6062033"><ele>359.0</ele><time>2026-04-04T14:00:08.75Z</time></trkpt><trkpt lat="45.320145" lon="7.606285"><ele>359.0</ele><time>2026-04-04T14:00:11.749Z</time></trkpt><trkpt lat="45.320215" lon="7.6062233"><ele>359.0</ele><time>2026-04-04T14:00:13.749Z</time></trkpt><trkpt lat="45.32028" lon="7.60614"><ele>359.0</ele><time>2026-04-04T14:00:14.749Z</time></trkpt><trkpt lat="45.3203483" lon="7.60604"><ele>359.0</ele><time>2026-04-04T14:00:15.749Z</time></trkpt><trkpt lat="45.3204133" lon="7.6059483"><ele>359.0</ele><time>2026-04-04T14:00:16.749Z</time></trkpt><trkpt lat="45.32048" lon="7.6058683"><ele>359.0</ele><time>2026-04-04T14:00:17.749Z</time></trkpt><trkpt lat="45.3205483" lon="7.6058183"><ele>359.0</ele><time>2026-04-04T14:00:18.749Z</time></trkpt><trkpt lat="45.320615" lon="7.605765"><ele>359.0</ele><time>2026-04-04T14:00:19.749Z</time></trkpt><trkpt lat="45.3206833" lon="7.6057333"><ele>359.0</ele><time>2026-04-04T14:00:20.749Z</time></trkpt><trkpt lat="45.3207533" lon="7.6057133"><ele>359.0</ele><time>2026-04-04T14:00:21.75Z</time></trkpt><trkpt lat="45.32082" lon="7.60571"><ele>359.0</ele><time>2026-04-04T14:00:22.749Z</time></trkpt><trkpt lat="45.320885" lon="7.605705"><ele>359.0</ele><time>2026-04-04T14:00:23.749Z</time></trkpt><trkpt lat="45.3209533" lon="7.605695"><ele>359.0</ele><time>2026-04-04T14:00:24.75Z</time></trkpt><trkpt lat="45.32102" lon="7.60568"><ele>359.0</ele><time>2026-04-04T14:00:25.749Z</time></trkpt><trkpt lat="45.32109" lon="7.605655"><ele>359.0</ele><time>2026-04-04T14:00:26.749Z</time></trkpt><trkpt lat="45.3211517" lon="7.6056317"><ele>359.0</ele><time>2026-04-04T14:00:27.75Z</time></trkpt><trkpt lat="45.3212167" lon="7.6056133"><ele>359.0</ele><time>2026-04-04T14:00:28.749Z</time></trkpt><trkpt lat="45.3212817" lon="7.6055967"><ele>359.0</ele><time>2026-04-04T14:00:29.75Z</time></trkpt><trkpt lat="45.3213517" lon="7.60557"><ele>359.0</ele><time>2026-04-04T14:00:30.749Z</time></trkpt><trkpt lat="45.3214383" lon="7.605535"><ele>359.0</ele><time>2026-04-04T14:00:31.75Z</time></trkpt><trkpt lat="45.3215167" lon="7.6054917"><ele>360.4</ele><time>2026-04-04T14:00:32.749Z</time></trkpt><trkpt lat="45.3215933" lon="7.6054617"><ele>361.79999999999995</ele><time>2026-04-04T14:00:33.749Z</time></trkpt><trkpt lat="45.321665" lon="7.60545"><ele>363.20000000000005</ele><time>2026-04-04T14:00:34.749Z</time></trkpt><trkpt lat="45.3217483" lon="7.60546"><ele>364.6</ele><time>2026-04-04T14:00:35.749Z</time></trkpt><trkpt lat="45.3218433" lon="7.6054833"><ele>366.0</ele><time>2026-04-04T14:00:36.749Z</time></trkpt><trkpt lat="45.3219633" lon="7.6055133"><ele>366.0</ele><time>2026-04-04T14:00:37.749Z</time></trkpt><trkpt lat="45.3220883" lon="7.6055483"><ele>366.0</ele><time>2026-04-04T14:00:38.749Z</time></trkpt><trkpt lat="45.3222067" lon="7.6055933"><ele>366.0</ele><time>2026-04-04T14:00:39.749Z</time></trkpt><trkpt lat="45.322325" lon="7.60563"><ele>366.0</ele><time>2026-04-04T14:00:40.749Z</time></trkpt><trkpt lat="45.3224433" lon="7.6056617"><ele>367.5</ele><time>2026-04-04T14:00:41.749Z</time></trkpt><trkpt lat="45.32256" lon="7.6056817"><ele>369.0</ele><time>2026-04-04T14:00:42.749Z</time></trkpt><trkpt lat="45.322675" lon="7.605695"><ele>370.5</ele><time>2026-04-04T14:00:43.749Z</time></trkpt><trkpt lat="45.3227917" lon="7.6057"><ele>372.0</ele><time>2026-04-04T14:00:44.75Z</time></trkpt><trkpt lat="45.322915" lon="7.60572"><ele>372.0</ele><time>2026-04-04T14:00:45.75Z</time></trkpt><trkpt lat="45.3230383" lon="7.60576"><ele>372.0</ele><time>2026-04-04T14:00:46.75Z</time></trkpt><trkpt lat="45.323155" lon="7.6058067"><ele>372.0</ele><time>2026-04-04T14:00:47.749Z</time></trkpt><trkpt lat="45.3232683" lon="7.60586"><ele>372.0</ele><time>2026-04-04T14:00:48.75Z</time></trkpt><trkpt lat="45.3233767" lon="7.6059283"><ele>372.20000000000005</ele><time>2026-04-04T14:00:49.749Z</time></trkpt><trkpt lat="45.3234817" lon="7.6060133"><ele>372.4</ele><time>2026-04-04T14:00:50.75Z</time></trkpt><trkpt lat="45.3235717" lon="7.6061083"><ele>372.6</ele><time>2026-04-04T14:00:51.749Z</time></trkpt><trkpt lat="45.3236533" lon="7.6062083"><ele>372.79999999999995</ele><time>2026-04-04T14:00:52.749Z</time></trkpt><trkpt lat="45.3237167" lon="7.6063083"><ele>373.0</ele><time>2026-04-04T14:00:53.749Z</time></trkpt><trkpt lat="45.323805" lon="7.6064867"><ele>373.0</ele><time>2026-04-04T14:00:54.75Z</time></trkpt><trkpt lat="45.32388" lon="7.6066833"><ele>373.0</ele><time>2026-04-04T14:00:55.749Z</time></trkpt><trkpt lat="45.3239167" lon="7.6068467"><ele>373.0</ele><time>2026-04-04T14:00:56.75Z</time></trkpt><trkpt lat="45.3239283" lon="7.6069767"><ele>373.0</ele><time>2026-04-04T14:00:57.749Z</time></trkpt><trkpt lat="45.3239283" lon="7.607095"><ele>373.0</ele><time>2026-04-04T14:00:58.749Z</time></trkpt><trkpt lat="45.323925" lon="7.6071917"><ele>373.0</ele><time>2026-04-04T14:00:59.749Z</time></trkpt><trkpt lat="45.3239" lon="7.6073333"><ele>373.0</ele><time>2026-04-04T14:01:01.749Z</time></trkpt><trkpt lat="45.323855" lon="7.607405"><ele>373.0</ele><time>2026-04-04T14:01:02.749Z</time></trkpt><trkpt lat="45.3237567" lon="7.6074917"><ele>373.0</ele><time>2026-04-04T14:01:04.749Z</time></trkpt><trkpt lat="45.323695" lon="7.60753"><ele>373.0</ele><time>2026-04-04T14:01:05.749Z</time></trkpt><trkpt lat="45.323625" lon="7.6075633"><ele>372.66666666666663</ele><time>2026-04-04T14:01:06.749Z</time></trkpt><trkpt lat="45.32356" lon="7.6076"><ele>372.3333333333333</ele><time>2026-04-04T14:01:07.749Z</time></trkpt><trkpt lat="45.3234883" lon="7.607645"><ele>372.0</ele><time>2026-04-04T14:01:08.749Z</time></trkpt><trkpt lat="45.3234167" lon="7.6076967"><ele>371.6666666666667</ele><time>2026-04-04T14:01:09.749Z</time></trkpt><trkpt lat="45.32335" lon="7.6077633"><ele>371.33333333333337</ele><time>2026-04-04T14:01:10.749Z</time></trkpt><trkpt lat="45.323295" lon="7.607845"><ele>371.0</ele><time>2026-04-04T14:01:11.749Z</time></trkpt><trkpt lat="45.3232517" lon="7.607935"><ele>370.33333333333337</ele><time>2026-04-04T14:01:12.75Z</time></trkpt><trkpt lat="45.32322" lon="7.6080317"><ele>369.6666666666667</ele><time>2026-04-04T14:01:13.75Z</time></trkpt><trkpt lat="45.3231983" lon="7.6081333"><ele>369.0</ele><time>2026-04-04T14:01:14.75Z</time></trkpt><trkpt lat="45.323195" lon="7.6082483"><ele>368.3333333333333</ele><time>2026-04-04T14:01:15.75Z</time></trkpt><trkpt lat="45.3231967" lon="7.6083767"><ele>367.66666666666663</ele><time>2026-04-04T14:01:16.749Z</time></trkpt><trkpt lat="45.3232017" lon="7.608505"><ele>367.0</ele><time>2026-04-04T14:01:17.749Z</time></trkpt><trkpt lat="45.323235" lon="7.6086467"><ele>366.5</ele><time>2026-04-04T14:01:18.749Z</time></trkpt><trkpt lat="45.323275" lon="7.6087883"><ele>366.0</ele><time>2026-04-04T14:01:19.749Z</time></trkpt><trkpt lat="45.3233183" lon="7.6089367"><ele>365.5</ele><time>2026-04-04T14:01:20.749Z</time></trkpt><trkpt lat="45.3233583" lon="7.6090867"><ele>365.0</ele><time>2026-04-04T14:01:21.749Z</time></trkpt><trkpt lat="45.3234167" lon="7.60924"><ele>365.0</ele><time>2026-04-04T14:01:22.749Z</time></trkpt><trkpt lat="45.3234733" lon="7.6094033"><ele>365.0</ele><time>2026-04-04T14:01:23.749Z</time></trkpt><trkpt lat="45.3235233" lon="7.6095817"><ele>365.0</ele><time>2026-04-04T14:01:24.749Z</time></trkpt><trkpt lat="45.3235683" lon="7.60977"><ele>365.0</ele><time>2026-04-04T14:01:25.749Z</time></trkpt><trkpt lat="45.323615" lon="7.6099467"><ele>364.5</ele><time>2026-04-04T14:01:26.749Z</time></trkpt><trkpt lat="45.3236517" lon="7.610115"><ele>364.0</ele><time>2026-04-04T14:01:27.749Z</time></trkpt><trkpt lat="45.32368" lon="7.6102733"><ele>363.5</ele><time>2026-04-04T14:01:28.749Z</time></trkpt><trkpt lat="45.3237033" lon="7.6104333"><ele>363.0</ele><time>2026-04-04T14:01:29.749Z</time></trkpt><trkpt lat="45.3237083" lon="7.6106"><ele>362.0</ele><time>2026-04-04T14:01:30.749Z</time></trkpt><trkpt lat="45.3237217" lon="7.61077"><ele>361.0</ele><time>2026-04-04T14:01:31.749Z</time></trkpt><trkpt lat="45.32373" lon="7.610935"><ele>360.0</ele><time>2026-04-04T14:01:32.749Z</time></trkpt><trkpt lat="45.3237533" lon="7.6111067"><ele>359.0</ele><time>2026-04-04T14:01:33.749Z</time></trkpt><trkpt lat="45.3237783" lon="7.6112683"><ele>358.4</ele><time>2026-04-04T14:01:34.749Z</time></trkpt><trkpt lat="45.3238067" lon="7.61142"><ele>357.79999999999995</ele><time>2026-04-04T14:01:35.75Z</time></trkpt><trkpt lat="45.3238283" lon="7.6115617"><ele>357.20000000000005</ele><time>2026-04-04T14:01:36.75Z</time></trkpt><trkpt lat="45.3238533" lon="7.6116817"><ele>356.6</ele><time>2026-04-04T14:01:37.749Z</time></trkpt><trkpt lat="45.3238667" lon="7.6117967"><ele>356.0</ele><time>2026-04-04T14:01:38.749Z</time></trkpt><trkpt lat="45.32388" lon="7.6119433"><ele>355.6</ele><time>2026-04-04T14:01:39.75Z</time></trkpt><trkpt lat="45.32386" lon="7.6120733"><ele>355.20000000000005</ele><time>2026-04-04T14:01:40.75Z</time></trkpt><trkpt lat="45.3238417" lon="7.6121933"><ele>354.79999999999995</ele><time>2026-04-04T14:01:41.75Z</time></trkpt><trkpt lat="45.3238333" lon="7.61232"><ele>354.4</ele><time>2026-04-04T14:01:42.749Z</time></trkpt><trkpt lat="45.323825" lon="7.612455"><ele>354.0</ele><time>2026-04-04T14:01:43.749Z</time></trkpt><trkpt lat="45.3238183" lon="7.6125933"><ele>354.0</ele><time>2026-04-04T14:01:44.749Z</time></trkpt><trkpt lat="45.3238133" lon="7.6127333"><ele>354.0</ele><time>2026-04-04T14:01:45.749Z</time></trkpt><trkpt lat="45.32382" lon="7.6128667"><ele>354.0</ele><time>2026-04-04T14:01:46.749Z</time></trkpt><trkpt lat="45.3238267" lon="7.6129917"><ele>354.0</ele><time>2026-04-04T14:01:47.749Z</time></trkpt><trkpt lat="45.3238333" lon="7.6131033"><ele>354.0</ele><time>2026-04-04T14:01:48.749Z</time></trkpt><trkpt lat="45.3238417" lon="7.61321"><ele>354.0</ele><time>2026-04-04T14:01:49.749Z</time></trkpt><trkpt lat="45.3238433" lon="7.61332"><ele>353.5</ele><time>2026-04-04T14:01:50.75Z</time></trkpt><trkpt lat="45.3238367" lon="7.6134217"><ele>353.0</ele><time>2026-04-04T14:01:51.75Z</time></trkpt><trkpt lat="45.3238233" lon="7.613525"><ele>352.5</ele><time>2026-04-04T14:01:52.749Z</time></trkpt><trkpt lat="45.323795" lon="7.61365"><ele>352.0</ele><time>2026-04-04T14:01:53.75Z</time></trkpt><trkpt lat="45.3237767" lon="7.613785"><ele>351.5</ele><time>2026-04-04T14:01:54.75Z</time></trkpt><trkpt lat="45.3237717" lon="7.6139217"><ele>351.0</ele><time>2026-04-04T14:01:55.749Z</time></trkpt><trkpt lat="45.32378" lon="7.6140667"><ele>350.8</ele><time>2026-04-04T14:01:56.749Z</time></trkpt><trkpt lat="45.3238017" lon="7.614225"><ele>350.6</ele><time>2026-04-04T14:01:57.749Z</time></trkpt><trkpt lat="45.3238333" lon="7.6143783"><ele>350.4</ele><time>2026-04-04T14:01:58.749Z</time></trkpt><trkpt lat="45.32387" lon="7.6145217"><ele>350.2</ele><time>2026-04-04T14:01:59.749Z</time></trkpt><trkpt lat="45.3239033" lon="7.61467"><ele>350.0</ele><time>2026-04-04T14:02:00.749Z</time></trkpt><trkpt lat="45.323935" lon="7.6148217"><ele>350.8</ele><time>2026-04-04T14:02:01.749Z</time></trkpt><trkpt lat="45.3239683" lon="7.6149583"><ele>351.6</ele><time>2026-04-04T14:02:02.749Z</time></trkpt><trkpt lat="45.3240083" lon="7.6150917"><ele>352.4</ele><time>2026-04-04T14:02:03.749Z</time></trkpt><trkpt lat="45.3240567" lon="7.61523"><ele>353.2</ele><time>2026-04-04T14:02:04.749Z</time></trkpt><trkpt lat="45.324095" lon="7.6153633"><ele>354.0</ele><time>2026-04-04T14:02:05.75Z</time></trkpt><trkpt lat="45.32414" lon="7.6155183"><ele>354.0</ele><time>2026-04-04T14:02:06.749Z</time></trkpt><trkpt lat="45.3241783" lon="7.615665"><ele>354.0</ele><time>2026-04-04T14:02:07.749Z</time></trkpt><trkpt lat="45.3241933" lon="7.6157967"><ele>354.0</ele><time>2026-04-04T14:02:08.749Z</time></trkpt><trkpt lat="45.3241933" lon="7.6159267"><ele>354.0</ele><time>2026-04-04T14:02:09.75Z</time></trkpt><trkpt lat="45.3242" lon="7.6160517"><ele>354.0</ele><time>2026-04-04T14:02:10.75Z</time></trkpt><trkpt lat="45.324205" lon="7.6161617"><ele>353.4</ele><time>2026-04-04T14:02:11.749Z</time></trkpt><trkpt lat="45.3242067" lon="7.6162617"><ele>352.79999999999995</ele><time>2026-04-04T14:02:12.75Z</time></trkpt><trkpt lat="45.3241767" lon="7.6164283"><ele>352.20000000000005</ele><time>2026-04-04T14:02:14.749Z</time></trkpt><trkpt lat="45.3241333" lon="7.6166"><ele>351.6</ele><time>2026-04-04T14:02:16.749Z</time></trkpt><trkpt lat="45.3241083" lon="7.6166933"><ele>351.0</ele><time>2026-04-04T14:02:17.749Z</time></trkpt><trkpt lat="45.3240917" lon="7.6168067"><ele>351.0</ele><time>2026-04-04T14:02:18.749Z</time></trkpt><trkpt lat="45.3240717" lon="7.616925"><ele>351.0</ele><time>2026-04-04T14:02:19.749Z</time></trkpt><trkpt lat="45.3240467" lon="7.6170467"><ele>351.0</ele><time>2026-04-04T14:02:20.75Z</time></trkpt><trkpt lat="45.3240083" lon="7.61717"><ele>351.0</ele><time>2026-04-04T14:02:21.749Z</time></trkpt><trkpt lat="45.3239583" lon="7.6172967"><ele>351.0</ele><time>2026-04-04T14:02:22.75Z</time></trkpt><trkpt lat="45.3239017" lon="7.6174067"><ele>350.1666666666667</ele><time>2026-04-04T14:02:23.749Z</time></trkpt><trkpt lat="45.323855" lon="7.6175117"><ele>349.3333333333333</ele><time>2026-04-04T14:02:24.749Z</time></trkpt><trkpt lat="45.323825" lon="7.61763"><ele>348.5</ele><time>2026-04-04T14:02:25.749Z</time></trkpt><trkpt lat="45.3238033" lon="7.617755"><ele>347.66666666666663</ele><time>2026-04-04T14:02:26.749Z</time></trkpt><trkpt lat="45.3237867" lon="7.6178783"><ele>346.8333333333333</ele><time>2026-04-04T14:02:27.749Z</time></trkpt><trkpt lat="45.3237767" lon="7.6179967"><ele>346.0</ele><time>2026-04-04T14:02:28.749Z</time></trkpt><trkpt lat="45.323775" lon="7.6181067"><ele>344.6</ele><time>2026-04-04T14:02:29.749Z</time></trkpt><trkpt lat="45.323775" lon="7.6182233"><ele>343.20000000000005</ele><time>2026-04-04T14:02:30.749Z</time></trkpt><trkpt lat="45.3237783" lon="7.6183633"><ele>341.79999999999995</ele><time>2026-04-04T14:02:31.75Z</time></trkpt><trkpt lat="45.3237733" lon="7.618545"><ele>340.4</ele><time>2026-04-04T14:02:32.75Z</time></trkpt><trkpt lat="45.3237767" lon="7.6187383"><ele>339.0</ele><time>2026-04-04T14:02:33.75Z</time></trkpt><trkpt lat="45.3237883" lon="7.6189317"><ele>338.79999999999995</ele><time>2026-04-04T14:02:34.749Z</time></trkpt><trkpt lat="45.323805" lon="7.61911"><ele>338.59999999999997</ele><time>2026-04-04T14:02:35.749Z</time></trkpt><trkpt lat="45.3238167" lon="7.6192617"><ele>338.4</ele><time>2026-04-04T14:02:36.749Z</time></trkpt><trkpt lat="45.3238417" lon="7.619395"><ele>338.2</ele><time>2026-04-04T14:02:37.749Z</time></trkpt><trkpt lat="45.3238683" lon="7.619515"><ele>338.0</ele><time>2026-04-04T14:02:38.749Z</time></trkpt><trkpt lat="45.3239" lon="7.6196167"><ele>338.33333333333337</ele><time>2026-04-04T14:02:39.749Z</time></trkpt><trkpt lat="45.3239167" lon="7.6197167"><ele>338.6666666666667</ele><time>2026-04-04T14:02:40.749Z</time></trkpt><trkpt lat="45.3239033" lon="7.6198167"><ele>339.0</ele><time>2026-04-04T14:02:41.749Z</time></trkpt><trkpt lat="45.3238667" lon="7.6199033"><ele>339.3333333333333</ele><time>2026-04-04T14:02:42.749Z</time></trkpt><trkpt lat="45.3238033" lon="7.6199867"><ele>339.66666666666663</ele><time>2026-04-04T14:02:43.749Z</time></trkpt><trkpt lat="45.3237133" lon="7.6200533"><ele>340.0</ele><time>2026-04-04T14:02:44.75Z</time></trkpt><trkpt lat="45.3236233" lon="7.620135"><ele>340.0</ele><time>2026-04-04T14:02:45.749Z</time></trkpt><trkpt lat="45.3235383" lon="7.6202467"><ele>340.0</ele><time>2026-04-04T14:02:46.749Z</time></trkpt><trkpt lat="45.32345" lon="7.6203883"><ele>340.0</ele><time>2026-04-04T14:02:47.749Z</time></trkpt><trkpt lat="45.3233667" lon="7.6205183"><ele>340.0</ele><time>2026-04-04T14:02:48.749Z</time></trkpt><trkpt lat="45.32329" lon="7.6206283"><ele>339.6</ele><time>2026-04-04T14:02:49.75Z</time></trkpt><trkpt lat="45.32322" lon="7.6207317"><ele>339.2</ele><time>2026-04-04T14:02:50.75Z</time></trkpt><trkpt lat="45.32316" lon="7.62086"><ele>338.79999999999995</ele><time>2026-04-04T14:02:51.749Z</time></trkpt><trkpt lat="45.32311" lon="7.6209967"><ele>338.4</ele><time>2026-04-04T14:02:52.749Z</time></trkpt><trkpt lat="45.3230717" lon="7.6211267"><ele>338.0</ele><time>2026-04-04T14:02:53.749Z</time></trkpt><trkpt lat="45.3230433" lon="7.6212383"><ele>337.5</ele><time>2026-04-04T14:02:54.749Z</time></trkpt><trkpt lat="45.3230267" lon="7.621335"><ele>337.0</ele><time>2026-04-04T14:02:55.749Z</time></trkpt><trkpt lat="45.3230083" lon="7.6214867"><ele>336.5</ele><time>2026-04-04T14:02:57.749Z</time></trkpt><trkpt lat="45.3229933" lon="7.62159"><ele>336.0</ele><time>2026-04-04T14:02:59.75Z</time></trkpt><trkpt lat="45.3230817" lon="7.6216067"><ele>335.5</ele><time>2026-04-04T14:03:11.749Z</time></trkpt><trkpt lat="45.3231483" lon="7.6215517"><ele>335.0</ele><time>2026-04-04T14:03:12.75Z</time></trkpt><trkpt lat="45.3232383" lon="7.6214783"><ele>336.4</ele><time>2026-04-04T14:03:13.749Z</time></trkpt><trkpt lat="45.3233483" lon="7.6213967"><ele>337.8</ele><time>2026-04-04T14:03:14.75Z</time></trkpt><trkpt lat="45.3234517" lon="7.621325"><ele>339.20000000000005</ele><time>2026-04-04T14:03:15.749Z</time></trkpt><trkpt lat="45.32355" lon="7.621285"><ele>340.6</ele><time>2026-04-04T14:03:16.749Z</time></trkpt><trkpt lat="45.3236533" lon="7.6212817"><ele>342.0</ele><time>2026-04-04T14:03:17.749Z</time></trkpt><trkpt lat="45.3237617" lon="7.6213333"><ele>342.0</ele><time>2026-04-04T14:03:18.75Z</time></trkpt><trkpt lat="45.3238667" lon="7.6214017"><ele>342.0</ele><time>2026-04-04T14:03:19.749Z</time></trkpt><trkpt lat="45.323975" lon="7.6214567"><ele>342.0</ele><time>2026-04-04T14:03:20.749Z</time></trkpt><trkpt lat="45.324085" lon="7.6214817"><ele>342.0</ele><time>2026-04-04T14:03:21.749Z</time></trkpt><trkpt lat="45.324195" lon="7.621445"><ele>343.5</ele><time>2026-04-04T14:03:22.749Z</time></trkpt><trkpt lat="45.3243083" lon="7.6213767"><ele>345.0</ele><time>2026-04-04T14:03:23.749Z</time></trkpt><trkpt lat="45.3244267" lon="7.6212933"><ele>346.5</ele><time>2026-04-04T14:03:24.749Z</time></trkpt><trkpt lat="45.3245417" lon="7.6212083"><ele>348.0</ele><time>2026-04-04T14:03:25.749Z</time></trkpt><trkpt lat="45.3246383" lon="7.6211317"><ele>348.0</ele><time>2026-04-04T14:03:26.749Z</time></trkpt><trkpt lat="45.324725" lon="7.621065"><ele>348.0</ele><time>2026-04-04T14:03:27.749Z</time></trkpt><trkpt lat="45.3247983" lon="7.6210067"><ele>348.0</ele><time>2026-04-04T14:03:28.749Z</time></trkpt><trkpt lat="45.3248583" lon="7.6209383"><ele>348.0</ele><time>2026-04-04T14:03:29.75Z</time></trkpt><trkpt lat="45.3249367" lon="7.6208733"><ele>348.0</ele><time>2026-04-04T14:03:30.749Z</time></trkpt><trkpt lat="45.3250267" lon="7.62079"><ele>350.1666666666667</ele><time>2026-04-04T14:03:31.749Z</time></trkpt><trkpt lat="45.3251267" lon="7.620715"><ele>352.3333333333333</ele><time>2026-04-04T14:03:32.75Z</time></trkpt><trkpt lat="45.3252167" lon="7.6206633"><ele>354.5</ele><time>2026-04-04T14:03:33.749Z</time></trkpt><trkpt lat="45.3253" lon="7.6206367"><ele>356.66666666666663</ele><time>2026-04-04T14:03:34.749Z</time></trkpt><trkpt lat="45.3253667" lon="7.620635"><ele>358.8333333333333</ele><time>2026-04-04T14:03:35.75Z</time></trkpt><trkpt lat="45.3254367" lon="7.6206783"><ele>361.0</ele><time>2026-04-04T14:03:36.749Z</time></trkpt><trkpt lat="45.32553" lon="7.6207567"><ele>363.0</ele><time>2026-04-04T14:03:38.75Z</time></trkpt><trkpt lat="45.3256517" lon="7.6207283"><ele>365.0</ele><time>2026-04-04T14:03:40.749Z</time></trkpt><trkpt lat="45.3257433" lon="7.6206867"><ele>367.0</ele><time>2026-04-04T14:03:41.749Z</time></trkpt><trkpt lat="45.32584" lon="7.620675"><ele>369.0</ele><time>2026-04-04T14:03:42.75Z</time></trkpt><trkpt lat="45.3259583" lon="7.6206883"><ele>371.0</ele><time>2026-04-04T14:03:43.749Z</time></trkpt><trkpt lat="45.32607" lon="7.6207317"><ele>371.0</ele><time>2026-04-04T14:03:44.748Z</time></trkpt><trkpt lat="45.3261717" lon="7.6208083"><ele>371.0</ele><time>2026-04-04T14:03:45.748Z</time></trkpt><trkpt lat="45.32627" lon="7.6208983"><ele>371.0</ele><time>2026-04-04T14:03:46.748Z</time></trkpt><trkpt lat="45.3263517" lon="7.62101"><ele>371.0</ele><time>2026-04-04T14:03:47.748Z</time></trkpt><trkpt lat="45.32643" lon="7.6210917"><ele>371.0</ele><time>2026-04-04T14:03:48.749Z</time></trkpt><trkpt lat="45.3265083" lon="7.6211567"><ele>372.6</ele><time>2026-04-04T14:03:49.749Z</time></trkpt><trkpt lat="45.326615" lon="7.6211333"><ele>374.20000000000005</ele><time>2026-04-04T14:03:50.748Z</time></trkpt><trkpt lat="45.3267367" lon="7.6211"><ele>375.79999999999995</ele><time>2026-04-04T14:03:51.748Z</time></trkpt><trkpt lat="45.3268517" lon="7.6210633"><ele>377.4</ele><time>2026-04-04T14:03:52.748Z</time></trkpt><trkpt lat="45.3269467" lon="7.62103"><ele>379.0</ele><time>2026-04-04T14:03:53.748Z</time></trkpt><trkpt lat="45.3270183" lon="7.6209933"><ele>379.0</ele><time>2026-04-04T14:03:54.749Z</time></trkpt><trkpt lat="45.3270917" lon="7.6208683"><ele>379.0</ele><time>2026-04-04T14:03:56.749Z</time></trkpt><trkpt lat="45.3270433" lon="7.620795"><ele>379.0</ele><time>2026-04-04T14:03:57.749Z</time></trkpt><trkpt lat="45.3269983" lon="7.6207067"><ele>379.0</ele><time>2026-04-04T14:03:58.748Z</time></trkpt><trkpt lat="45.3269567" lon="7.6206067"><ele>379.0</ele><time>2026-04-04T14:03:59.748Z</time></trkpt><trkpt lat="45.3269283" lon="7.6204917"><ele>379.0</ele><time>2026-04-04T14:04:00.748Z</time></trkpt><trkpt lat="45.3269283" lon="7.6203617"><ele>379.6</ele><time>2026-04-04T14:04:01.748Z</time></trkpt><trkpt lat="45.3269367" lon="7.62021"><ele>380.2</ele><time>2026-04-04T14:04:02.749Z</time></trkpt><trkpt lat="45.326955" lon="7.6200483"><ele>380.8</ele><time>2026-04-04T14:04:03.749Z</time></trkpt><trkpt lat="45.326975" lon="7.6199"><ele>381.40000000000003</ele><time>2026-04-04T14:04:04.748Z</time></trkpt><trkpt lat="45.3270033" lon="7.6197683"><ele>382.0</ele><time>2026-04-04T14:04:05.748Z</time></trkpt><trkpt lat="45.32705" lon="7.6196517"><ele>382.0</ele><time>2026-04-04T14:04:06.749Z</time></trkpt><trkpt lat="45.3271067" lon="7.61956"><ele>382.0</ele><time>2026-04-04T14:04:07.749Z</time></trkpt><trkpt lat="45.327235" lon="7.6196333"><ele>382.0</ele><time>2026-04-04T14:04:09.748Z</time></trkpt><trkpt lat="45.32728" lon="7.6197717"><ele>382.0</ele><time>2026-04-04T14:04:10.748Z</time></trkpt><trkpt lat="45.3273317" lon="7.6199267"><ele>386.25</ele><time>2026-04-04T14:04:11.748Z</time></trkpt><trkpt lat="45.32739" lon="7.6201"><ele>390.5</ele><time>2026-04-04T14:04:12.749Z</time></trkpt><trkpt lat="45.32747" lon="7.6203017"><ele>394.75</ele><time>2026-04-04T14:04:13.748Z</time></trkpt><trkpt lat="45.3275283" lon="7.62048"><ele>399.0</ele><time>2026-04-04T14:04:14.748Z</time></trkpt><trkpt lat="45.3275833" lon="7.62065"><ele>399.0</ele><time>2026-04-04T14:04:15.748Z</time></trkpt><trkpt lat="45.3276517" lon="7.620805"><ele>399.0</ele><time>2026-04-04T14:04:16.748Z</time></trkpt><trkpt lat="45.327705" lon="7.6209483"><ele>399.0</ele><time>2026-04-04T14:04:17.748Z</time></trkpt><trkpt lat="45.3277667" lon="7.6210667"><ele>399.0</ele><time>2026-04-04T14:04:18.749Z</time></trkpt><trkpt lat="45.3278517" lon="7.6211617"><ele>399.0</ele><time>2026-04-04T14:04:19.748Z</time></trkpt><trkpt lat="45.327955" lon="7.6212283"><ele>399.0</ele><time>2026-04-04T14:04:20.748Z</time></trkpt><trkpt lat="45.3280483" lon="7.6212917"><ele>399.0</ele><time>2026-04-04T14:04:21.749Z</time></trkpt><trkpt lat="45.3281333" lon="7.6213583"><ele>399.0</ele><time>2026-04-04T14:04:22.748Z</time></trkpt><trkpt lat="45.3282067" lon="7.6214383"><ele>399.0</ele><time>2026-04-04T14:04:23.749Z</time></trkpt><trkpt lat="45.3282817" lon="7.6215333"><ele>400.1666666666667</ele><time>2026-04-04T14:04:24.748Z</time></trkpt><trkpt lat="45.3283367" lon="7.6216217"><ele>401.33333333333337</ele><time>2026-04-04T14:04:25.748Z</time></trkpt><trkpt lat="45.328385" lon="7.6217167"><ele>402.5</ele><time>2026-04-04T14:04:26.749Z</time></trkpt><trkpt lat="45.3284333" lon="7.6218183"><ele>403.6666666666667</ele><time>2026-04-04T14:04:27.748Z</time></trkpt><trkpt lat="45.3284667" lon="7.621925"><ele>404.83333333333337</ele><time>2026-04-04T14:04:28.748Z</time></trkpt><trkpt lat="45.3284783" lon="7.62203"><ele>406.0</ele><time>2026-04-04T14:04:29.748Z</time></trkpt><trkpt lat="45.3284683" lon="7.6221417"><ele>406.00000000000006</ele><time>2026-04-04T14:04:30.748Z</time></trkpt><trkpt lat="45.3284317" lon="7.622255"><ele>406.0</ele><time>2026-04-04T14:04:31.748Z</time></trkpt><trkpt lat="45.3283867" lon="7.622365"><ele>406.0</ele><time>2026-04-04T14:04:32.748Z</time></trkpt><trkpt lat="45.3283383" lon="7.6224767"><ele>406.0</ele><time>2026-04-04T14:04:33.749Z</time></trkpt><trkpt lat="45.3282833" lon="7.622595"><ele>406.00000000000006</ele><time>2026-04-04T14:04:34.748Z</time></trkpt><trkpt lat="45.3282467" lon="7.6226967"><ele>406.0</ele><time>2026-04-04T14:04:35.749Z</time></trkpt><trkpt lat="45.328195" lon="7.6228067"><ele>406.50000000000006</ele><time>2026-04-04T14:04:36.748Z</time></trkpt><trkpt lat="45.328145" lon="7.622905"><ele>407.0</ele><time>2026-04-04T14:04:37.748Z</time></trkpt><trkpt lat="45.3280883" lon="7.62301"><ele>407.5</ele><time>2026-04-04T14:04:38.749Z</time></trkpt><trkpt lat="45.328035" lon="7.62311"><ele>408.0</ele><time>2026-04-04T14:04:39.749Z</time></trkpt><trkpt lat="45.32799" lon="7.6232117"><ele>408.50000000000006</ele><time>2026-04-04T14:04:40.749Z</time></trkpt><trkpt lat="45.3279467" lon="7.6233167"><ele>409.0</ele><time>2026-04-04T14:04:41.748Z</time></trkpt><trkpt lat="45.327895" lon="7.62343"><ele>409.00000000000006</ele><time>2026-04-04T14:04:42.748Z</time></trkpt><trkpt lat="45.3278483" lon="7.6235283"><ele>409.0</ele><time>2026-04-04T14:04:43.748Z</time></trkpt><trkpt lat="45.3278" lon="7.623615"><ele>409.0</ele><time>2026-04-04T14:04:44.748Z</time></trkpt><trkpt lat="45.3277467" lon="7.6236967"><ele>409.0</ele><time>2026-04-04T14:04:45.749Z</time></trkpt><trkpt lat="45.3276667" lon="7.6237633"><ele>409.00000000000006</ele><time>2026-04-04T14:04:46.748Z</time></trkpt><trkpt lat="45.3275783" lon="7.623825"><ele>409.0</ele><time>2026-04-04T14:04:47.748Z</time></trkpt><trkpt lat="45.3274783" lon="7.623885"><ele>408.6</ele><time>2026-04-04T14:04:48.748Z</time></trkpt><trkpt lat="45.327395" lon="7.62395"><ele>408.2</ele><time>2026-04-04T14:04:49.749Z</time></trkpt><trkpt lat="45.327325" lon="7.6240317"><ele>407.8</ele><time>2026-04-04T14:04:50.749Z</time></trkpt><trkpt lat="45.327265" lon="7.6241333"><ele>407.40000000000003</ele><time>2026-04-04T14:04:51.748Z</time></trkpt><trkpt lat="45.3272033" lon="7.62424"><ele>407.0</ele><time>2026-04-04T14:04:52.749Z</time></trkpt><trkpt lat="45.327145" lon="7.6243533"><ele>407.0</ele><time>2026-04-04T14:04:53.748Z</time></trkpt><trkpt lat="45.3270917" lon="7.6244683"><ele>407.0</ele><time>2026-04-04T14:04:54.749Z</time></trkpt><trkpt lat="45.3270383" lon="7.6245867"><ele>407.0</ele><time>2026-04-04T14:04:55.748Z</time></trkpt><trkpt lat="45.326975" lon="7.6246933"><ele>407.0</ele><time>2026-04-04T14:04:56.749Z</time></trkpt><trkpt lat="45.326915" lon="7.6247967"><ele>407.0</ele><time>2026-04-04T14:04:57.749Z</time></trkpt><trkpt lat="45.3268567" lon="7.6248917"><ele>406.3333333333333</ele><time>2026-04-04T14:04:58.748Z</time></trkpt><trkpt lat="45.3268067" lon="7.62499"><ele>405.66666666666663</ele><time>2026-04-04T14:04:59.748Z</time></trkpt><trkpt lat="45.3267633" lon="7.6250817"><ele>405.0</ele><time>2026-04-04T14:05:00.748Z</time></trkpt><trkpt lat="45.3267167" lon="7.6251617"><ele>404.33333333333337</ele><time>2026-04-04T14:05:01.748Z</time></trkpt><trkpt lat="45.326655" lon="7.625225"><ele>403.6666666666667</ele><time>2026-04-04T14:05:02.748Z</time></trkpt><trkpt lat="45.326575" lon="7.625265"><ele>403.0</ele><time>2026-04-04T14:05:03.749Z</time></trkpt><trkpt lat="45.3264917" lon="7.6252867"><ele>403.00000000000006</ele><time>2026-04-04T14:05:04.748Z</time></trkpt><trkpt lat="45.3264" lon="7.625305"><ele>403.0</ele><time>2026-04-04T14:05:05.749Z</time></trkpt><trkpt lat="45.3263183" lon="7.625335"><ele>403.0</ele><time>2026-04-04T14:05:06.749Z</time></trkpt><trkpt lat="45.32624" lon="7.625385"><ele>403.0</ele><time>2026-04-04T14:05:07.748Z</time></trkpt><trkpt lat="45.3261683" lon="7.6254533"><ele>403.00000000000006</ele><time>2026-04-04T14:05:08.748Z</time></trkpt><trkpt lat="45.3261067" lon="7.6255317"><ele>403.0</ele><time>2026-04-04T14:05:09.748Z</time></trkpt><trkpt lat="45.32606" lon="7.625605"><ele>402.50000000000006</ele><time>2026-04-04T14:05:10.748Z</time></trkpt><trkpt lat="45.3260133" lon="7.6256883"><ele>402.0</ele><time>2026-04-04T14:05:11.748Z</time></trkpt><trkpt lat="45.325965" lon="7.625775"><ele>401.5</ele><time>2026-04-04T14:05:12.748Z</time></trkpt><trkpt lat="45.32592" lon="7.62586"><ele>401.0</ele><time>2026-04-04T14:05:13.749Z</time></trkpt><trkpt lat="45.3258783" lon="7.625955"><ele>400.50000000000006</ele><time>2026-04-04T14:05:14.749Z</time></trkpt><trkpt lat="45.32583" lon="7.6260517"><ele>400.0</ele><time>2026-04-04T14:05:15.748Z</time></trkpt><trkpt lat="45.3257833" lon="7.62615"><ele>400.00000000000006</ele><time>2026-04-04T14:05:16.749Z</time></trkpt><trkpt lat="45.3257383" lon="7.6262467"><ele>400.0</ele><time>2026-04-04T14:05:17.748Z</time></trkpt><trkpt lat="45.3257083" lon="7.6263583"><ele>400.0</ele><time>2026-04-04T14:05:18.748Z</time></trkpt><trkpt lat="45.3256667" lon="7.6264667"><ele>400.0</ele><time>2026-04-04T14:05:19.749Z</time></trkpt><trkpt lat="45.325625" lon="7.626575"><ele>400.00000000000006</ele><time>2026-04-04T14:05:20.748Z</time></trkpt><trkpt lat="45.3255817" lon="7.6266767"><ele>400.0</ele><time>2026-04-04T14:05:21.748Z</time></trkpt><trkpt lat="45.3255383" lon="7.6267683"><ele>400.0</ele><time>2026-04-04T14:05:22.748Z</time></trkpt><trkpt lat="45.3254933" lon="7.626855"><ele>400.0</ele><time>2026-04-04T14:05:23.748Z</time></trkpt><trkpt lat="45.325445" lon="7.626925"><ele>400.0</ele><time>2026-04-04T14:05:24.748Z</time></trkpt><trkpt lat="45.32534" lon="7.6270167"><ele>400.0</ele><time>2026-04-04T14:05:26.748Z</time></trkpt><trkpt lat="45.3252217" lon="7.62702"><ele>400.0</ele><time>2026-04-04T14:05:28.749Z</time></trkpt><trkpt lat="45.3251517" lon="7.6270067"><ele>399.75</ele><time>2026-04-04T14:05:29.748Z</time></trkpt><trkpt lat="45.3250267" lon="7.6269983"><ele>399.5</ele><time>2026-04-04T14:05:31.748Z</time></trkpt><trkpt lat="45.3249233" lon="7.6270217"><ele>399.25</ele><time>2026-04-04T14:05:33.748Z</time></trkpt><trkpt lat="45.3248133" lon="7.6271567"><ele>399.0</ele><time>2026-04-04T14:05:35.749Z</time></trkpt><trkpt lat="45.324755" lon="7.6272717"><ele>398.2</ele><time>2026-04-04T14:05:36.749Z</time></trkpt><trkpt lat="45.3246867" lon="7.6273917"><ele>397.4</ele><time>2026-04-04T14:05:37.749Z</time></trkpt><trkpt lat="45.3246283" lon="7.6275017"><ele>396.6</ele><time>2026-04-04T14:05:38.748Z</time></trkpt><trkpt lat="45.324575" lon="7.627605"><ele>395.8</ele><time>2026-04-04T14:05:39.748Z</time></trkpt><trkpt lat="45.3245233" lon="7.6277233"><ele>395.0</ele><time>2026-04-04T14:05:40.749Z</time></trkpt><trkpt lat="45.3244883" lon="7.6278517"><ele>394.99999999999994</ele><time>2026-04-04T14:05:41.749Z</time></trkpt><trkpt lat="45.3244667" lon="7.6279817"><ele>395.0</ele><time>2026-04-04T14:05:42.748Z</time></trkpt><trkpt lat="45.324445" lon="7.628115"><ele>395.0</ele><time>2026-04-04T14:05:43.749Z</time></trkpt><trkpt lat="45.3244233" lon="7.6282367"><ele>395.0</ele><time>2026-04-04T14:05:44.748Z</time></trkpt><trkpt lat="45.324395" lon="7.6283483"><ele>394.99999999999994</ele><time>2026-04-04T14:05:45.748Z</time></trkpt><trkpt lat="45.324365" lon="7.62844"><ele>395.0</ele><time>2026-04-04T14:05:46.748Z</time></trkpt><trkpt lat="45.324315" lon="7.6285733"><ele>394.66666666666663</ele><time>2026-04-04T14:05:48.748Z</time></trkpt><trkpt lat="45.32426" lon="7.6286467"><ele>394.3333333333333</ele><time>2026-04-04T14:05:50.748Z</time></trkpt><trkpt lat="45.32421" lon="7.6287067"><ele>394.0</ele><time>2026-04-04T14:05:52.748Z</time></trkpt><trkpt lat="45.32415" lon="7.6287883"><ele>393.66666666666663</ele><time>2026-04-04T14:05:55.748Z</time></trkpt><trkpt lat="45.32411" lon="7.6288617"><ele>393.3333333333333</ele><time>2026-04-04T14:05:57.748Z</time></trkpt><trkpt lat="45.3240533" lon="7.6289733"><ele>393.0</ele><time>2026-04-04T14:05:59.749Z</time></trkpt><trkpt lat="45.32401" lon="7.6290433"><ele>393.0</ele><time>2026-04-04T14:06:00.748Z</time></trkpt><trkpt lat="45.323965" lon="7.6291233"><ele>393.0</ele><time>2026-04-04T14:06:01.748Z</time></trkpt><trkpt lat="45.32392" lon="7.6292133"><ele>393.0</ele><time>2026-04-04T14:06:02.749Z</time></trkpt><trkpt lat="45.3238733" lon="7.6293117"><ele>393.0</ele><time>2026-04-04T14:06:03.748Z</time></trkpt><trkpt lat="45.3238267" lon="7.6294"><ele>393.0</ele><time>2026-04-04T14:06:04.749Z</time></trkpt><trkpt lat="45.32378" lon="7.6294783"><ele>393.0</ele><time>2026-04-04T14:06:05.748Z</time></trkpt><trkpt lat="45.3237317" lon="7.6295617"><ele>391.4</ele><time>2026-04-04T14:06:06.748Z</time></trkpt><trkpt lat="45.3236817" lon="7.6296567"><ele>389.79999999999995</ele><time>2026-04-04T14:06:07.749Z</time></trkpt><trkpt lat="45.32363" lon="7.6297733"><ele>388.2</ele><time>2026-04-04T14:06:08.749Z</time></trkpt><trkpt lat="45.32358" lon="7.6298967"><ele>386.6</ele><time>2026-04-04T14:06:09.749Z</time></trkpt><trkpt lat="45.323535" lon="7.63001"><ele>385.0</ele><time>2026-04-04T14:06:10.748Z</time></trkpt><trkpt lat="45.3234917" lon="7.6301183"><ele>385.00000000000006</ele><time>2026-04-04T14:06:11.749Z</time></trkpt><trkpt lat="45.3234533" lon="7.6302267"><ele>385.0</ele><time>2026-04-04T14:06:12.749Z</time></trkpt><trkpt lat="45.323415" lon="7.6303267"><ele>385.0</ele><time>2026-04-04T14:06:13.749Z</time></trkpt><trkpt lat="45.3233767" lon="7.6304217"><ele>385.0</ele><time>2026-04-04T14:06:14.748Z</time></trkpt><trkpt lat="45.32334" lon="7.6305067"><ele>385.00000000000006</ele><time>2026-04-04T14:06:15.748Z</time></trkpt><trkpt lat="45.3233033" lon="7.6305833"><ele>385.0</ele><time>2026-04-04T14:06:16.748Z</time></trkpt><trkpt lat="45.3232283" lon="7.6307083"><ele>385.6666666666667</ele><time>2026-04-04T14:06:18.749Z</time></trkpt><trkpt lat="45.3231733" lon="7.6308"><ele>386.33333333333337</ele><time>2026-04-04T14:06:20.749Z</time></trkpt><trkpt lat="45.3231333" lon="7.6308783"><ele>387.0</ele><time>2026-04-04T14:06:22.748Z</time></trkpt><trkpt lat="45.3230817" lon="7.63098"><ele>387.66666666666663</ele><time>2026-04-04T14:06:25.748Z</time></trkpt><trkpt lat="45.3230367" lon="7.6310767"><ele>388.3333333333333</ele><time>2026-04-04T14:06:27.749Z</time></trkpt><trkpt lat="45.3229767" lon="7.6311883"><ele>389.0</ele><time>2026-04-04T14:06:29.749Z</time></trkpt><trkpt lat="45.3228983" lon="7.6313133"><ele>387.49999999999994</ele><time>2026-04-04T14:06:31.748Z</time></trkpt><trkpt lat="45.3228517" lon="7.6313767"><ele>386.0</ele><time>2026-04-04T14:06:32.748Z</time></trkpt><trkpt lat="45.3227733" lon="7.6314933"><ele>384.5</ele><time>2026-04-04T14:06:34.749Z</time></trkpt><trkpt lat="45.3226767" lon="7.631615"><ele>383.0</ele><time>2026-04-04T14:06:36.748Z</time></trkpt><trkpt lat="45.3226283" lon="7.6316733"><ele>381.5</ele><time>2026-04-04T14:06:37.749Z</time></trkpt><trkpt lat="45.322575" lon="7.631735"><ele>380.0</ele><time>2026-04-04T14:06:38.749Z</time></trkpt><trkpt lat="45.322525" lon="7.631795"><ele>380.0</ele><time>2026-04-04T14:06:39.748Z</time></trkpt><trkpt lat="45.3224717" lon="7.63186"><ele>380.0</ele><time>2026-04-04T14:06:40.748Z</time></trkpt><trkpt lat="45.3224183" lon="7.6319283"><ele>380.0</ele><time>2026-04-04T14:06:41.748Z</time></trkpt><trkpt lat="45.3223683" lon="7.63199"><ele>380.0</ele><time>2026-04-04T14:06:42.748Z</time></trkpt><trkpt lat="45.3223183" lon="7.63205"><ele>380.0</ele><time>2026-04-04T14:06:43.748Z</time></trkpt><trkpt lat="45.32223" lon="7.6321733"><ele>380.0</ele><time>2026-04-04T14:06:45.748Z</time></trkpt><trkpt lat="45.32219" lon="7.6322433"><ele>380.2857142857143</ele><time>2026-04-04T14:06:46.748Z</time></trkpt><trkpt lat="45.3221433" lon="7.6323217"><ele>380.57142857142856</ele><time>2026-04-04T14:06:47.748Z</time></trkpt><trkpt lat="45.3221017" lon="7.6324067"><ele>380.8571428571429</ele><time>2026-04-04T14:06:48.749Z</time></trkpt><trkpt lat="45.32206" lon="7.6324883"><ele>381.1428571428571</ele><time>2026-04-04T14:06:49.748Z</time></trkpt><trkpt lat="45.3220117" lon="7.6325783"><ele>381.4285714285714</ele><time>2026-04-04T14:06:50.748Z</time></trkpt><trkpt lat="45.3219667" lon="7.6326717"><ele>381.7142857142857</ele><time>2026-04-04T14:06:51.748Z</time></trkpt><trkpt lat="45.32192" lon="7.6327517"><ele>382.0</ele><time>2026-04-04T14:06:52.748Z</time></trkpt><trkpt lat="45.3218717" lon="7.632845"><ele>382.0</ele><time>2026-04-04T14:06:53.748Z</time></trkpt><trkpt lat="45.3218183" lon="7.632945"><ele>382.0</ele><time>2026-04-04T14:06:54.748Z</time></trkpt><trkpt lat="45.3217683" lon="7.63305"><ele>382.0</ele><time>2026-04-04T14:06:55.749Z</time></trkpt><trkpt lat="45.32172" lon="7.6331533"><ele>382.0</ele><time>2026-04-04T14:06:56.748Z</time></trkpt><trkpt lat="45.3216717" lon="7.6332433"><ele>382.0</ele><time>2026-04-04T14:06:57.748Z</time></trkpt><trkpt lat="45.3216233" lon="7.6333233"><ele>382.0</ele><time>2026-04-04T14:06:58.748Z</time></trkpt><trkpt lat="45.32158" lon="7.633395"><ele>382.0</ele><time>2026-04-04T14:06:59.748Z</time></trkpt><trkpt lat="45.32154" lon="7.6334683"><ele>382.0</ele><time>2026-04-04T14:07:00.749Z</time></trkpt><trkpt lat="45.3214983" lon="7.6335967"><ele>382.0</ele><time>2026-04-04T14:07:02.748Z</time></trkpt><trkpt lat="45.3215167" lon="7.6337017"><ele>382.0</ele><time>2026-04-04T14:07:04.748Z</time></trkpt><trkpt lat="45.3216133" lon="7.6337717"><ele>382.0</ele><time>2026-04-04T14:07:06.749Z</time></trkpt><trkpt lat="45.32169" lon="7.6338267"><ele>382.0</ele><time>2026-04-04T14:07:07.749Z</time></trkpt><trkpt lat="45.3217833" lon="7.6339117"><ele>381.75</ele><time>2026-04-04T14:07:08.748Z</time></trkpt><trkpt lat="45.321885" lon="7.6340217"><ele>381.5</ele><time>2026-04-04T14:07:09.749Z</time></trkpt><trkpt lat="45.3219767" lon="7.6341233"><ele>381.25</ele><time>2026-04-04T14:07:10.749Z</time></trkpt><trkpt lat="45.3220667" lon="7.6342217"><ele>381.0</ele><time>2026-04-04T14:07:11.748Z</time></trkpt><trkpt lat="45.3221583" lon="7.6343217"><ele>381.0</ele><time>2026-04-04T14:07:12.748Z</time></trkpt><trkpt lat="45.3222483" lon="7.6344133"><ele>381.0</ele><time>2026-04-04T14:07:13.748Z</time></trkpt><trkpt lat="45.32233" lon="7.6344967"><ele>381.0</ele><time>2026-04-04T14:07:14.749Z</time></trkpt><trkpt lat="45.3224033" lon="7.6345717"><ele>381.0</ele><time>2026-04-04T14:07:15.749Z</time></trkpt><trkpt lat="45.3224683" lon="7.6346383"><ele>381.0</ele><time>2026-04-04T14:07:16.749Z</time></trkpt><trkpt lat="45.3225283" lon="7.6346967"><ele>380.6</ele><time>2026-04-04T14:07:17.748Z</time></trkpt><trkpt lat="45.322585" lon="7.6347533"><ele>380.20000000000005</ele><time>2026-04-04T14:07:18.748Z</time></trkpt><trkpt lat="45.32264" lon="7.6348117"><ele>379.79999999999995</ele><time>2026-04-04T14:07:19.748Z</time></trkpt><trkpt lat="45.32273" lon="7.6349167"><ele>379.4</ele><time>2026-04-04T14:07:21.749Z</time></trkpt><trkpt lat="45.3227917" lon="7.6350333"><ele>379.0</ele><time>2026-04-04T14:07:23.749Z</time></trkpt><trkpt lat="45.3228083" lon="7.6352067"><ele>378.66666666666663</ele><time>2026-04-04T14:07:25.748Z</time></trkpt><trkpt lat="45.322795" lon="7.6353067"><ele>378.3333333333333</ele><time>2026-04-04T14:07:26.749Z</time></trkpt><trkpt lat="45.32278" lon="7.63542"><ele>378.0</ele><time>2026-04-04T14:07:27.749Z</time></trkpt><trkpt lat="45.3227633" lon="7.6355367"><ele>377.6666666666667</ele><time>2026-04-04T14:07:28.748Z</time></trkpt><trkpt lat="45.32274" lon="7.6356533"><ele>377.33333333333337</ele><time>2026-04-04T14:07:29.748Z</time></trkpt><trkpt lat="45.3227167" lon="7.6357667"><ele>377.0</ele><time>2026-04-04T14:07:30.748Z</time></trkpt><trkpt lat="45.3226883" lon="7.635885"><ele>377.0</ele><time>2026-04-04T14:07:31.748Z</time></trkpt><trkpt lat="45.3226533" lon="7.6359967"><ele>377.0</ele><time>2026-04-04T14:07:32.748Z</time></trkpt><trkpt lat="45.3226233" lon="7.6360967"><ele>377.0</ele><time>2026-04-04T14:07:33.748Z</time></trkpt><trkpt lat="45.3225933" lon="7.6361817"><ele>377.0</ele><time>2026-04-04T14:07:34.748Z</time></trkpt><trkpt lat="45.32256" lon="7.6362583"><ele>377.0</ele><time>2026-04-04T14:07:35.748Z</time></trkpt><trkpt lat="45.3225267" lon="7.6363733"><ele>377.0</ele><time>2026-04-04T14:07:37.749Z</time></trkpt><trkpt lat="45.3225067" lon="7.636275"><ele>377.0</ele><time>2026-04-04T14:07:42.748Z</time></trkpt><trkpt lat="45.32255" lon="7.636175"><ele>377.0</ele><time>2026-04-04T14:07:43.748Z</time></trkpt><trkpt lat="45.3226067" lon="7.6360733"><ele>377.0</ele><time>2026-04-04T14:07:44.749Z</time></trkpt><trkpt lat="45.32267" lon="7.6359717"><ele>377.0</ele><time>2026-04-04T14:07:45.748Z</time></trkpt><trkpt lat="45.3227483" lon="7.6358733"><ele>377.0</ele><time>2026-04-04T14:07:46.748Z</time></trkpt><trkpt lat="45.3228333" lon="7.6357683"><ele>377.0</ele><time>2026-04-04T14:07:47.749Z</time></trkpt><trkpt lat="45.3229267" lon="7.635665"><ele>377.0</ele><time>2026-04-04T14:07:48.748Z</time></trkpt><trkpt lat="45.323015" lon="7.63557"><ele>377.0</ele><time>2026-04-04T14:07:49.748Z</time></trkpt><trkpt lat="45.3230983" lon="7.63548"><ele>377.0</ele><time>2026-04-04T14:07:50.748Z</time></trkpt><trkpt lat="45.3231767" lon="7.6353933"><ele>377.0</ele><time>2026-04-04T14:07:51.748Z</time></trkpt><trkpt lat="45.3232433" lon="7.6353067"><ele>375.1666666666667</ele><time>2026-04-04T14:07:52.747Z</time></trkpt><trkpt lat="45.3233067" lon="7.635215"><ele>373.33333333333337</ele><time>2026-04-04T14:07:53.747Z</time></trkpt><trkpt lat="45.3233633" lon="7.6351233"><ele>371.5</ele><time>2026-04-04T14:07:54.748Z</time></trkpt><trkpt lat="45.3234183" lon="7.6350417"><ele>369.6666666666667</ele><time>2026-04-04T14:07:55.747Z</time></trkpt><trkpt lat="45.3234717" lon="7.63498"><ele>367.8333333333333</ele><time>2026-04-04T14:07:56.748Z</time></trkpt><trkpt lat="45.3235483" lon="7.63491"><ele>366.0</ele><time>2026-04-04T14:07:58.747Z</time></trkpt><trkpt lat="45.3236017" lon="7.6348433"><ele>366.0</ele><time>2026-04-04T14:08:01.748Z</time></trkpt><trkpt lat="45.323665" lon="7.634905"><ele>366.0</ele><time>2026-04-04T14:08:05.747Z</time></trkpt><trkpt lat="45.3236567" lon="7.6350567"><ele>366.0</ele><time>2026-04-04T14:08:07.747Z</time></trkpt><trkpt lat="45.3236567" lon="7.635165"><ele>366.0</ele><time>2026-04-04T14:08:08.748Z</time></trkpt><trkpt lat="45.3236083" lon="7.6353317"><ele>366.0</ele><time>2026-04-04T14:08:10.747Z</time></trkpt><trkpt lat="45.3235783" lon="7.6354233"><ele>364.5</ele><time>2026-04-04T14:08:11.747Z</time></trkpt><trkpt lat="45.323535" lon="7.6355283"><ele>363.0</ele><time>2026-04-04T14:08:12.747Z</time></trkpt><trkpt lat="45.323495" lon="7.635625"><ele>361.5</ele><time>2026-04-04T14:08:13.747Z</time></trkpt><trkpt lat="45.323435" lon="7.6357217"><ele>360.0</ele><time>2026-04-04T14:08:14.747Z</time></trkpt><trkpt lat="45.3233917" lon="7.6358"><ele>358.5</ele><time>2026-04-04T14:08:15.748Z</time></trkpt><trkpt lat="45.3233433" lon="7.6358833"><ele>357.0</ele><time>2026-04-04T14:08:16.747Z</time></trkpt><trkpt lat="45.3233117" lon="7.6359667"><ele>357.0</ele><time>2026-04-04T14:08:17.747Z</time></trkpt><trkpt lat="45.3232667" lon="7.6360467"><ele>357.0</ele><time>2026-04-04T14:08:18.747Z</time></trkpt><trkpt lat="45.3232217" lon="7.636125"><ele>357.0</ele><time>2026-04-04T14:08:19.747Z</time></trkpt><trkpt lat="45.3231767" lon="7.6362"><ele>357.0</ele><time>2026-04-04T14:08:20.747Z</time></trkpt><trkpt lat="45.3231083" lon="7.6363417"><ele>357.0</ele><time>2026-04-04T14:08:22.747Z</time></trkpt><trkpt lat="45.32308" lon="7.6364317"><ele>357.0</ele><time>2026-04-04T14:08:23.747Z</time></trkpt><trkpt lat="45.32305" lon="7.6365383"><ele>357.0</ele><time>2026-04-04T14:08:24.748Z</time></trkpt><trkpt lat="45.32301" lon="7.6366383"><ele>357.0</ele><time>2026-04-04T14:08:25.747Z</time></trkpt><trkpt lat="45.3229683" lon="7.6367383"><ele>357.0</ele><time>2026-04-04T14:08:26.747Z</time></trkpt><trkpt lat="45.322915" lon="7.6368317"><ele>357.0</ele><time>2026-04-04T14:08:27.748Z</time></trkpt><trkpt lat="45.32285" lon="7.63691"><ele>357.0</ele><time>2026-04-04T14:08:28.747Z</time></trkpt><trkpt lat="45.3227833" lon="7.6369833"><ele>357.0</ele><time>2026-04-04T14:08:29.747Z</time></trkpt><trkpt lat="45.322715" lon="7.637055"><ele>357.0</ele><time>2026-04-04T14:08:30.747Z</time></trkpt><trkpt lat="45.3226383" lon="7.637125"><ele>357.0</ele><time>2026-04-04T14:08:31.747Z</time></trkpt><trkpt lat="45.32256" lon="7.637195"><ele>357.0</ele><time>2026-04-04T14:08:32.747Z</time></trkpt><trkpt lat="45.3224767" lon="7.6372683"><ele>357.0</ele><time>2026-04-04T14:08:33.748Z</time></trkpt><trkpt lat="45.3223967" lon="7.6373367"><ele>357.0</ele><time>2026-04-04T14:08:34.747Z</time></trkpt><trkpt lat="45.3223217" lon="7.637415"><ele>357.0</ele><time>2026-04-04T14:08:35.747Z</time></trkpt><trkpt lat="45.3222433" lon="7.6374967"><ele>357.0</ele><time>2026-04-04T14:08:36.747Z</time></trkpt><trkpt lat="45.3221783" lon="7.6375733"><ele>357.0</ele><time>2026-04-04T14:08:37.748Z</time></trkpt><trkpt lat="45.322115" lon="7.6376417"><ele>357.0</ele><time>2026-04-04T14:08:38.747Z</time></trkpt><trkpt lat="45.3220567" lon="7.63771"><ele>357.0</ele><time>2026-04-04T14:08:39.747Z</time></trkpt><trkpt lat="45.3219967" lon="7.6377883"><ele>357.0</ele><time>2026-04-04T14:08:40.748Z</time></trkpt><trkpt lat="45.3219233" lon="7.6378683"><ele>357.0</ele><time>2026-04-04T14:08:41.747Z</time></trkpt><trkpt lat="45.321855" lon="7.63794"><ele>357.0</ele><time>2026-04-04T14:08:42.748Z</time></trkpt><trkpt lat="45.3217833" lon="7.6380017"><ele>357.0</ele><time>2026-04-04T14:08:43.748Z</time></trkpt><trkpt lat="45.32172" lon="7.6380617"><ele>357.0</ele><time>2026-04-04T14:08:44.747Z</time></trkpt><trkpt lat="45.3216283" lon="7.63814"><ele>357.0</ele><time>2026-04-04T14:08:46.747Z</time></trkpt><trkpt lat="45.3215733" lon="7.6382133"><ele>357.0</ele><time>2026-04-04T14:08:49.748Z</time></trkpt><trkpt lat="45.3215667" lon="7.6383183"><ele>357.0</ele><time>2026-04-04T14:13:00.746Z</time></trkpt><trkpt lat="45.3215283" lon="7.6384017"><ele>357.0</ele><time>2026-04-04T14:13:06.746Z</time></trkpt><trkpt lat="45.3214733" lon="7.6384833"><ele>357.0</ele><time>2026-04-04T14:13:09.746Z</time></trkpt><trkpt lat="45.3214467" lon="7.63859"><ele>357.0</ele><time>2026-04-04T14:13:11.747Z</time></trkpt><trkpt lat="45.3214017" lon="7.6387033"><ele>357.0</ele><time>2026-04-04T14:13:13.746Z</time></trkpt><trkpt lat="45.3213533" lon="7.6387783"><ele>357.0</ele><time>2026-04-04T14:13:15.746Z</time></trkpt><trkpt lat="45.3213133" lon="7.6388583"><ele>357.0</ele><time>2026-04-04T14:13:18.746Z</time></trkpt><trkpt lat="45.3213383" lon="7.6389633"><ele>357.0</ele><time>2026-04-04T14:13:24.746Z</time></trkpt><trkpt lat="45.32134" lon="7.63907"><ele>357.0</ele><time>2026-04-04T14:13:26.746Z</time></trkpt><trkpt lat="45.32129" lon="7.6392117"><ele>357.0</ele><time>2026-04-04T14:13:28.747Z</time></trkpt><trkpt lat="45.3212417" lon="7.639285"><ele>357.0</ele><time>2026-04-04T14:13:29.747Z</time></trkpt><trkpt lat="45.321185" lon="7.6393567"><ele>357.0</ele><time>2026-04-04T14:13:30.746Z</time></trkpt><trkpt lat="45.3211183" lon="7.639415"><ele>355.5</ele><time>2026-04-04T14:13:31.747Z</time></trkpt><trkpt lat="45.3210333" lon="7.63951"><ele>354.0</ele><time>2026-04-04T14:13:33.746Z</time></trkpt><trkpt lat="45.320985" lon="7.63958"><ele>352.5</ele><time>2026-04-04T14:13:35.747Z</time></trkpt><trkpt lat="45.3209767" lon="7.6397133"><ele>351.0</ele><time>2026-04-04T14:13:38.746Z</time></trkpt><trkpt lat="45.32099" lon="7.6398167"><ele>349.5</ele><time>2026-04-04T14:13:40.747Z</time></trkpt><trkpt lat="45.3210067" lon="7.63992"><ele>348.0</ele><time>2026-04-04T14:13:43.746Z</time></trkpt><trkpt lat="45.3210283" lon="7.6400067"><ele>348.0</ele><time>2026-04-04T14:13:45.746Z</time></trkpt><trkpt lat="45.3210017" lon="7.640115"><ele>348.0</ele><time>2026-04-04T14:13:47.746Z</time></trkpt><trkpt lat="45.3209583" lon="7.6402133"><ele>348.0</ele><time>2026-04-04T14:13:49.747Z</time></trkpt><trkpt lat="45.3209183" lon="7.6403017"><ele>348.0</ele><time>2026-04-04T14:13:51.746Z</time></trkpt><trkpt lat="45.3208783" lon="7.64039"><ele>348.0</ele><time>2026-04-04T14:13:53.747Z</time></trkpt><trkpt lat="45.3208367" lon="7.6405017"><ele>348.0</ele><time>2026-04-04T14:13:56.746Z</time></trkpt><trkpt lat="45.3207683" lon="7.6405683"><ele>348.0</ele><time>2026-04-04T14:13:58.747Z</time></trkpt><trkpt lat="45.32071" lon="7.64062"><ele>348.0</ele><time>2026-04-04T14:14:00.746Z</time></trkpt><trkpt lat="45.3206583" lon="7.6406867"><ele>348.0</ele><time>2026-04-04T14:14:02.746Z</time></trkpt><trkpt lat="45.3205983" lon="7.6407533"><ele>348.0</ele><time>2026-04-04T14:14:04.746Z</time></trkpt><trkpt lat="45.3205367" lon="7.6408267"><ele>348.0</ele><time>2026-04-04T14:14:06.747Z</time></trkpt><trkpt lat="45.3204733" lon="7.6408733"><ele>348.0</ele><time>2026-04-04T14:14:08.746Z</time></trkpt><trkpt lat="45.3204067" lon="7.640895"><ele>348.0</ele><time>2026-04-04T14:14:10.746Z</time></trkpt><trkpt lat="45.3203383" lon="7.64096"><ele>348.0</ele><time>2026-04-04T14:14:30.747Z</time></trkpt><trkpt lat="45.320305" lon="7.641055"><ele>348.0</ele><time>2026-04-04T14:14:32.746Z</time></trkpt><trkpt lat="45.3202533" lon="7.6412"><ele>348.0</ele><time>2026-04-04T14:14:34.747Z</time></trkpt><trkpt lat="45.3201733" lon="7.6413467"><ele>348.0</ele><time>2026-04-04T14:14:36.746Z</time></trkpt><trkpt lat="45.3201283" lon="7.64142"><ele>348.0</ele><time>2026-04-04T14:14:37.746Z</time></trkpt><trkpt lat="45.32009" lon="7.641495"><ele>345.79999999999995</ele><time>2026-04-04T14:14:38.746Z</time></trkpt><trkpt lat="45.3200467" lon="7.641565"><ele>343.6</ele><time>2026-04-04T14:14:39.747Z</time></trkpt><trkpt lat="45.31998" lon="7.6416967"><ele>341.4</ele><time>2026-04-04T14:14:41.746Z</time></trkpt><trkpt lat="45.31992" lon="7.641805"><ele>339.20000000000005</ele><time>2026-04-04T14:14:43.746Z</time></trkpt><trkpt lat="45.3198517" lon="7.641935"><ele>337.0</ele><time>2026-04-04T14:14:45.746Z</time></trkpt><trkpt lat="45.3197567" lon="7.64204"><ele>334.40000000000003</ele><time>2026-04-04T14:14:47.747Z</time></trkpt><trkpt lat="45.31968" lon="7.642135"><ele>331.8</ele><time>2026-04-04T14:14:49.747Z</time></trkpt><trkpt lat="45.3196033" lon="7.6422333"><ele>329.2</ele><time>2026-04-04T14:14:51.746Z</time></trkpt><trkpt lat="45.3195383" lon="7.6423283"><ele>326.6</ele><time>2026-04-04T14:14:53.747Z</time></trkpt><trkpt lat="45.319485" lon="7.6424317"><ele>324.0</ele><time>2026-04-04T14:14:55.746Z</time></trkpt><trkpt lat="45.31944" lon="7.64253"><ele>324.0</ele><time>2026-04-04T14:14:57.747Z</time></trkpt><trkpt lat="45.3193817" lon="7.6426117"><ele>324.0</ele><time>2026-04-04T14:15:00.747Z</time></trkpt><trkpt lat="45.31934" lon="7.6426967"><ele>324.0</ele><time>2026-04-04T14:15:08.747Z</time></trkpt><trkpt lat="45.3192667" lon="7.6427117"><ele>324.0</ele><time>2026-04-04T14:15:10.746Z</time></trkpt><trkpt lat="45.3191417" lon="7.642695"><ele>324.0</ele><time>2026-04-04T14:15:12.746Z</time></trkpt><trkpt lat="45.3190733" lon="7.642695"><ele>324.0</ele><time>2026-04-04T14:15:13.747Z</time></trkpt><trkpt lat="45.3189967" lon="7.6427033"><ele>324.0</ele><time>2026-04-04T14:15:14.746Z</time></trkpt><trkpt lat="45.3189217" lon="7.6427083"><ele>324.0</ele><time>2026-04-04T14:15:15.746Z</time></trkpt><trkpt lat="45.3188433" lon="7.6427133"><ele>324.0</ele><time>2026-04-04T14:15:16.746Z</time></trkpt><trkpt lat="45.318765" lon="7.6427117"><ele>324.0</ele><time>2026-04-04T14:15:17.746Z</time></trkpt><trkpt lat="45.318685" lon="7.6427067"><ele>324.0</ele><time>2026-04-04T14:15:18.747Z</time></trkpt><trkpt lat="45.3186083" lon="7.6426883"><ele>324.0</ele><time>2026-04-04T14:15:19.746Z</time></trkpt><trkpt lat="45.3185267" lon="7.6426567"><ele>322.8</ele><time>2026-04-04T14:15:20.746Z</time></trkpt><trkpt lat="45.3184433" lon="7.6426"><ele>321.59999999999997</ele><time>2026-04-04T14:15:21.747Z</time></trkpt><trkpt lat="45.318365" lon="7.642535"><ele>320.4</ele><time>2026-04-04T14:15:22.746Z</time></trkpt><trkpt lat="45.318295" lon="7.64245"><ele>319.2</ele><time>2026-04-04T14:15:23.747Z</time></trkpt><trkpt lat="45.3182317" lon="7.6423533"><ele>318.0</ele><time>2026-04-04T14:15:24.746Z</time></trkpt><trkpt lat="45.31817" lon="7.642255"><ele>318.0</ele><time>2026-04-04T14:15:25.747Z</time></trkpt><trkpt lat="45.318115" lon="7.6421483"><ele>318.0</ele><time>2026-04-04T14:15:26.747Z</time></trkpt><trkpt lat="45.31807" lon="7.6420367"><ele>318.0</ele><time>2026-04-04T14:15:27.746Z</time></trkpt><trkpt lat="45.3180317" lon="7.6419317"><ele>318.0</ele><time>2026-04-04T14:15:28.747Z</time></trkpt><trkpt lat="45.31799" lon="7.6418283"><ele>318.0</ele><time>2026-04-04T14:15:29.746Z</time></trkpt><trkpt lat="45.3179517" lon="7.6417333"><ele>318.0</ele><time>2026-04-04T14:15:30.747Z</time></trkpt><trkpt lat="45.3179183" lon="7.64164"><ele>317.8333333333333</ele><time>2026-04-04T14:15:31.746Z</time></trkpt><trkpt lat="45.3178833" lon="7.641545"><ele>317.6666666666667</ele><time>2026-04-04T14:15:32.746Z</time></trkpt><trkpt lat="45.3178517" lon="7.64145"><ele>317.5</ele><time>2026-04-04T14:15:33.747Z</time></trkpt><trkpt lat="45.3178217" lon="7.6413433"><ele>317.33333333333337</ele><time>2026-04-04T14:15:34.747Z</time></trkpt><trkpt lat="45.3177883" lon="7.6412367"><ele>317.1666666666667</ele><time>2026-04-04T14:15:35.746Z</time></trkpt><trkpt lat="45.3177533" lon="7.6411367"><ele>317.0</ele><time>2026-04-04T14:15:36.747Z</time></trkpt><trkpt lat="45.31772" lon="7.64104"><ele>317.0</ele><time>2026-04-04T14:15:37.746Z</time></trkpt><trkpt lat="45.3176833" lon="7.6409317"><ele>317.0</ele><time>2026-04-04T14:15:38.746Z</time></trkpt><trkpt lat="45.3176417" lon="7.6408033"><ele>317.0</ele><time>2026-04-04T14:15:39.747Z</time></trkpt><trkpt lat="45.3175933" lon="7.6406833"><ele>317.0</ele><time>2026-04-04T14:15:40.746Z</time></trkpt><trkpt lat="45.3175417" lon="7.6405683"><ele>317.0</ele><time>2026-04-04T14:15:41.746Z</time></trkpt><trkpt lat="45.3174983" lon="7.64047"><ele>317.0</ele><time>2026-04-04T14:15:42.746Z</time></trkpt><trkpt lat="45.3174333" lon="7.6403733"><ele>317.0</ele><time>2026-04-04T14:15:43.746Z</time></trkpt><trkpt lat="45.31737" lon="7.6402867"><ele>317.0</ele><time>2026-04-04T14:15:44.746Z</time></trkpt><trkpt lat="45.3173067" lon="7.6402067"><ele>317.0</ele><time>2026-04-04T14:15:45.745Z</time></trkpt><trkpt lat="45.3172133" lon="7.640145"><ele>317.0</ele><time>2026-04-04T14:15:46.746Z</time></trkpt><trkpt lat="45.317125" lon="7.6400917"><ele>316.6</ele><time>2026-04-04T14:15:47.746Z</time></trkpt><trkpt lat="45.3170167" lon="7.6400417"><ele>316.2</ele><time>2026-04-04T14:15:48.745Z</time></trkpt><trkpt lat="45.31691" lon="7.6399983"><ele>315.8</ele><time>2026-04-04T14:15:49.746Z</time></trkpt><trkpt lat="45.3168117" lon="7.63993"><ele>315.4</ele><time>2026-04-04T14:15:50.746Z</time></trkpt><trkpt lat="45.3167117" lon="7.6398533"><ele>315.0</ele><time>2026-04-04T14:15:51.746Z</time></trkpt><trkpt lat="45.3166083" lon="7.6397817"><ele>315.0</ele><time>2026-04-04T14:15:52.745Z</time></trkpt><trkpt lat="45.3165033" lon="7.6397117"><ele>315.0</ele><time>2026-04-04T14:15:53.746Z</time></trkpt><trkpt lat="45.3164033" lon="7.6396433"><ele>315.0</ele><time>2026-04-04T14:15:54.745Z</time></trkpt><trkpt lat="45.3163117" lon="7.6395817"><ele>315.0</ele><time>2026-04-04T14:15:55.745Z</time></trkpt><trkpt lat="45.3162267" lon="7.6395283"><ele>315.0</ele><time>2026-04-04T14:15:56.745Z</time></trkpt><trkpt lat="45.31615" lon="7.6394733"><ele>315.0</ele><time>2026-04-04T14:15:57.745Z</time></trkpt><trkpt lat="45.3160733" lon="7.6394233"><ele>315.0</ele><time>2026-04-04T14:15:58.746Z</time></trkpt><trkpt lat="45.316005" lon="7.6393817"><ele>315.0</ele><time>2026-04-04T14:15:59.745Z</time></trkpt><trkpt lat="45.3159317" lon="7.6393667"><ele>315.0</ele><time>2026-04-04T14:16:00.745Z</time></trkpt><trkpt lat="45.315855" lon="7.6394017"><ele>315.0</ele><time>2026-04-04T14:16:01.745Z</time></trkpt><trkpt lat="45.3157767" lon="7.63947"><ele>315.0</ele><time>2026-04-04T14:16:02.745Z</time></trkpt><trkpt lat="45.3157017" lon="7.6395667"><ele>314.0</ele><time>2026-04-04T14:16:03.745Z</time></trkpt><trkpt lat="45.3156133" lon="7.639685"><ele>313.0</ele><time>2026-04-04T14:16:04.745Z</time></trkpt><trkpt lat="45.3155067" lon="7.63982"><ele>312.0</ele><time>2026-04-04T14:16:05.745Z</time></trkpt><trkpt lat="45.3153883" lon="7.6399533"><ele>311.0</ele><time>2026-04-04T14:16:06.745Z</time></trkpt><trkpt lat="45.315275" lon="7.64008"><ele>311.0</ele><time>2026-04-04T14:16:07.746Z</time></trkpt><trkpt lat="45.3151733" lon="7.640195"><ele>311.0</ele><time>2026-04-04T14:16:08.745Z</time></trkpt><trkpt lat="45.31507" lon="7.6403067"><ele>311.0</ele><time>2026-04-04T14:16:09.745Z</time></trkpt><trkpt lat="45.3149683" lon="7.6404083"><ele>311.0</ele><time>2026-04-04T14:16:10.745Z</time></trkpt><trkpt lat="45.3148817" lon="7.6405167"><ele>311.0</ele><time>2026-04-04T14:16:11.746Z</time></trkpt><trkpt lat="45.314785" lon="7.64063"><ele>311.0</ele><time>2026-04-04T14:16:12.746Z</time></trkpt><trkpt lat="45.3146833" lon="7.64075"><ele>311.0</ele><time>2026-04-04T14:16:13.745Z</time></trkpt><trkpt lat="45.31457" lon="7.6408667"><ele>311.0</ele><time>2026-04-04T14:16:14.745Z</time></trkpt><trkpt lat="45.3144533" lon="7.6409767"><ele>311.0</ele><time>2026-04-04T14:16:15.745Z</time></trkpt><trkpt lat="45.3143433" lon="7.64107"><ele>311.0</ele><time>2026-04-04T14:16:16.745Z</time></trkpt><trkpt lat="45.3142367" lon="7.64115"><ele>311.0</ele><time>2026-04-04T14:16:17.745Z</time></trkpt><trkpt lat="45.314135" lon="7.6412117"><ele>311.0</ele><time>2026-04-04T14:16:18.745Z</time></trkpt><trkpt lat="45.3140183" lon="7.64124"><ele>310.0</ele><time>2026-04-04T14:16:19.745Z</time></trkpt><trkpt lat="45.3139017" lon="7.6412383"><ele>309.0</ele><time>2026-04-04T14:16:20.745Z</time></trkpt><trkpt lat="45.3137817" lon="7.64122"><ele>308.0</ele><time>2026-04-04T14:16:21.745Z</time></trkpt><trkpt lat="45.3136633" lon="7.6412017"><ele>307.0</ele><time>2026-04-04T14:16:22.745Z</time></trkpt><trkpt lat="45.3135417" lon="7.6411833"><ele>307.0</ele><time>2026-04-04T14:16:23.746Z</time></trkpt><trkpt lat="45.3134167" lon="7.641165"><ele>307.0</ele><time>2026-04-04T14:16:24.745Z</time></trkpt><trkpt lat="45.3132833" lon="7.6411533"><ele>307.0</ele><time>2026-04-04T14:16:25.745Z</time></trkpt><trkpt lat="45.3131517" lon="7.6411483"><ele>307.0</ele><time>2026-04-04T14:16:26.745Z</time></trkpt><trkpt lat="45.3130283" lon="7.6411433"><ele>306.25</ele><time>2026-04-04T14:16:27.746Z</time></trkpt><trkpt lat="45.3129067" lon="7.64114"><ele>305.5</ele><time>2026-04-04T14:16:28.746Z</time></trkpt><trkpt lat="45.3127883" lon="7.6411367"><ele>304.75</ele><time>2026-04-04T14:16:29.745Z</time></trkpt><trkpt lat="45.31267" lon="7.64117"><ele>304.0</ele><time>2026-04-04T14:16:30.746Z</time></trkpt><trkpt lat="45.3125533" lon="7.64121"><ele>304.0</ele><time>2026-04-04T14:16:31.745Z</time></trkpt><trkpt lat="45.3124283" lon="7.6412717"><ele>304.0</ele><time>2026-04-04T14:16:32.745Z</time></trkpt><trkpt lat="45.3123067" lon="7.6413417"><ele>304.0</ele><time>2026-04-04T14:16:33.745Z</time></trkpt><trkpt lat="45.3122" lon="7.6414017"><ele>304.0</ele><time>2026-04-04T14:16:34.745Z</time></trkpt><trkpt lat="45.3120867" lon="7.6414367"><ele>305.0</ele><time>2026-04-04T14:16:35.746Z</time></trkpt><trkpt lat="45.311965" lon="7.6414317"><ele>306.0</ele><time>2026-04-04T14:16:36.745Z</time></trkpt><trkpt lat="45.3118467" lon="7.6414"><ele>307.0</ele><time>2026-04-04T14:16:37.746Z</time></trkpt><trkpt lat="45.3117333" lon="7.6413717"><ele>308.0</ele><time>2026-04-04T14:16:38.745Z</time></trkpt><trkpt lat="45.311625" lon="7.6413417"><ele>308.0</ele><time>2026-04-04T14:16:39.745Z</time></trkpt><trkpt lat="45.3115183" lon="7.6413117"><ele>308.0</ele><time>2026-04-04T14:16:40.746Z</time></trkpt><trkpt lat="45.3114167" lon="7.6412867"><ele>308.0</ele><time>2026-04-04T14:16:41.745Z</time></trkpt><trkpt lat="45.3113167" lon="7.6412717"><ele>308.0</ele><time>2026-04-04T14:16:42.745Z</time></trkpt><trkpt lat="45.3112233" lon="7.641255"><ele>308.0</ele><time>2026-04-04T14:16:43.746Z</time></trkpt><trkpt lat="45.3111283" lon="7.6412467"><ele>308.4</ele><time>2026-04-04T14:16:44.746Z</time></trkpt><trkpt lat="45.31103" lon="7.6412367"><ele>308.8</ele><time>2026-04-04T14:16:45.745Z</time></trkpt><trkpt lat="45.3109183" lon="7.6412167"><ele>309.2</ele><time>2026-04-04T14:16:46.746Z</time></trkpt><trkpt lat="45.3108117" lon="7.6412083"><ele>309.6</ele><time>2026-04-04T14:16:47.745Z</time></trkpt><trkpt lat="45.3107017" lon="7.6412067"><ele>310.0</ele><time>2026-04-04T14:16:48.746Z</time></trkpt><trkpt lat="45.31058" lon="7.6412233"><ele>309.75</ele><time>2026-04-04T14:16:49.745Z</time></trkpt><trkpt lat="45.3104617" lon="7.6412283"><ele>309.5</ele><time>2026-04-04T14:16:50.745Z</time></trkpt><trkpt lat="45.3103417" lon="7.64122"><ele>309.25</ele><time>2026-04-04T14:16:51.745Z</time></trkpt><trkpt lat="45.310225" lon="7.6412217"><ele>309.0</ele><time>2026-04-04T14:16:52.745Z</time></trkpt><trkpt lat="45.3101117" lon="7.6412133"><ele>309.0</ele><time>2026-04-04T14:16:53.745Z</time></trkpt><trkpt lat="45.3100033" lon="7.6412083"><ele>309.0</ele><time>2026-04-04T14:16:54.746Z</time></trkpt><trkpt lat="45.3099083" lon="7.6412117"><ele>309.0</ele><time>2026-04-04T14:16:55.746Z</time></trkpt><trkpt lat="45.3098267" lon="7.64122"><ele>309.0</ele><time>2026-04-04T14:16:56.745Z</time></trkpt><trkpt lat="45.3097367" lon="7.6412133"><ele>309.0</ele><time>2026-04-04T14:16:57.745Z</time></trkpt><trkpt lat="45.30965" lon="7.6412083"><ele>308.5</ele><time>2026-04-04T14:16:58.745Z</time></trkpt><trkpt lat="45.3095817" lon="7.641205"><ele>308.0</ele><time>2026-04-04T14:16:59.745Z</time></trkpt><trkpt lat="45.3094567" lon="7.641245"><ele>307.5</ele><time>2026-04-04T14:17:01.746Z</time></trkpt><trkpt lat="45.3093983" lon="7.6412933"><ele>307.0</ele><time>2026-04-04T14:17:02.745Z</time></trkpt><trkpt lat="45.3093467" lon="7.6413733"><ele>306.5</ele><time>2026-04-04T14:17:03.746Z</time></trkpt><trkpt lat="45.309295" lon="7.641485"><ele>306.0</ele><time>2026-04-04T14:17:04.745Z</time></trkpt><trkpt lat="45.3092217" lon="7.6416117"><ele>306.0</ele><time>2026-04-04T14:17:05.745Z</time></trkpt><trkpt lat="45.30915" lon="7.64176"><ele>306.0</ele><time>2026-04-04T14:17:06.746Z</time></trkpt><trkpt lat="45.3090717" lon="7.6419067"><ele>306.0</ele><time>2026-04-04T14:17:07.745Z</time></trkpt><trkpt lat="45.30899" lon="7.6420483"><ele>306.0</ele><time>2026-04-04T14:17:08.745Z</time></trkpt><trkpt lat="45.3089083" lon="7.642185"><ele>305.5</ele><time>2026-04-04T14:17:09.746Z</time></trkpt><trkpt lat="45.30884" lon="7.6423183"><ele>305.0</ele><time>2026-04-04T14:17:10.746Z</time></trkpt><trkpt lat="45.3087717" lon="7.6424467"><ele>304.5</ele><time>2026-04-04T14:17:11.745Z</time></trkpt><trkpt lat="45.3087033" lon="7.6425733"><ele>304.0</ele><time>2026-04-04T14:17:12.745Z</time></trkpt><trkpt lat="45.30863" lon="7.6427017"><ele>303.75</ele><time>2026-04-04T14:17:13.745Z</time></trkpt><trkpt lat="45.30854" lon="7.6428283"><ele>303.5</ele><time>2026-04-04T14:17:14.745Z</time></trkpt><trkpt lat="45.3084283" lon="7.6429467"><ele>303.25</ele><time>2026-04-04T14:17:15.745Z</time></trkpt><trkpt lat="45.308295" lon="7.6430417"><ele>303.0</ele><time>2026-04-04T14:17:16.745Z</time></trkpt><trkpt lat="45.308145" lon="7.6431267"><ele>303.0</ele><time>2026-04-04T14:17:17.745Z</time></trkpt><trkpt lat="45.3080017" lon="7.6432083"><ele>303.0</ele><time>2026-04-04T14:17:18.745Z</time></trkpt><trkpt lat="45.307875" lon="7.6433067"><ele>303.0</ele><time>2026-04-04T14:17:19.745Z</time></trkpt><trkpt lat="45.3077717" lon="7.6434183"><ele>303.0</ele><time>2026-04-04T14:17:20.745Z</time></trkpt><trkpt lat="45.30767" lon="7.6435383"><ele>302.4</ele><time>2026-04-04T14:17:21.745Z</time></trkpt><trkpt lat="45.3075783" lon="7.643655"><ele>301.8</ele><time>2026-04-04T14:17:22.746Z</time></trkpt><trkpt lat="45.3074917" lon="7.64376"><ele>301.2</ele><time>2026-04-04T14:17:23.746Z</time></trkpt><trkpt lat="45.307415" lon="7.6438483"><ele>300.6</ele><time>2026-04-04T14:17:24.746Z</time></trkpt><trkpt lat="45.3073433" lon="7.6438983"><ele>300.0</ele><time>2026-04-04T14:17:25.745Z</time></trkpt><trkpt lat="45.3072667" lon="7.6438983"><ele>300.25</ele><time>2026-04-04T14:17:26.745Z</time></trkpt><trkpt lat="45.3071867" lon="7.643845"><ele>300.5</ele><time>2026-04-04T14:17:27.745Z</time></trkpt><trkpt lat="45.30709" lon="7.6437633"><ele>300.75</ele><time>2026-04-04T14:17:28.746Z</time></trkpt><trkpt lat="45.306975" lon="7.6436717"><ele>301.0</ele><time>2026-04-04T14:17:29.745Z</time></trkpt><trkpt lat="45.3068467" lon="7.64357"><ele>301.25</ele><time>2026-04-04T14:17:30.746Z</time></trkpt><trkpt lat="45.3067233" lon="7.6434717"><ele>301.5</ele><time>2026-04-04T14:17:31.746Z</time></trkpt><trkpt lat="45.306595" lon="7.6433667"><ele>301.75</ele><time>2026-04-04T14:17:32.745Z</time></trkpt><trkpt lat="45.3064683" lon="7.64328"><ele>302.0</ele><time>2026-04-04T14:17:33.745Z</time></trkpt><trkpt lat="45.3063467" lon="7.6432017"><ele>302.33333333333337</ele><time>2026-04-04T14:17:34.745Z</time></trkpt><trkpt lat="45.30622" lon="7.6431317"><ele>302.6666666666667</ele><time>2026-04-04T14:17:35.745Z</time></trkpt><trkpt lat="45.3060733" lon="7.6430617"><ele>303.0</ele><time>2026-04-04T14:17:36.745Z</time></trkpt><trkpt lat="45.3059083" lon="7.642995"><ele>303.0</ele><time>2026-04-04T14:17:37.746Z</time></trkpt><trkpt lat="45.3057433" lon="7.642885"><ele>303.0</ele><time>2026-04-04T14:17:38.745Z</time></trkpt><trkpt lat="45.30558" lon="7.6427617"><ele>303.0</ele><time>2026-04-04T14:17:39.745Z</time></trkpt><trkpt lat="45.3054117" lon="7.6426183"><ele>302.0</ele><time>2026-04-04T14:17:40.745Z</time></trkpt><trkpt lat="45.30525" lon="7.64247"><ele>301.0</ele><time>2026-04-04T14:17:41.746Z</time></trkpt><trkpt lat="45.3050917" lon="7.6423117"><ele>300.0</ele><time>2026-04-04T14:17:42.745Z</time></trkpt><trkpt lat="45.304935" lon="7.6421533"><ele>300.0</ele><time>2026-04-04T14:17:43.745Z</time></trkpt><trkpt lat="45.3047883" lon="7.6420083"><ele>300.0</ele><time>2026-04-04T14:17:44.745Z</time></trkpt><trkpt lat="45.30465" lon="7.6418733"><ele>300.0</ele><time>2026-04-04T14:17:45.746Z</time></trkpt><trkpt lat="45.30452" lon="7.6417417"><ele>300.6666666666667</ele><time>2026-04-04T14:17:46.746Z</time></trkpt><trkpt lat="45.3043867" lon="7.6416083"><ele>301.33333333333337</ele><time>2026-04-04T14:17:47.746Z</time></trkpt><trkpt lat="45.3042633" lon="7.6414867"><ele>302.0</ele><time>2026-04-04T14:17:48.745Z</time></trkpt><trkpt lat="45.3041467" lon="7.64137"><ele>302.0</ele><time>2026-04-04T14:17:49.745Z</time></trkpt><trkpt lat="45.3040267" lon="7.6412567"><ele>302.0</ele><time>2026-04-04T14:17:50.745Z</time></trkpt><trkpt lat="45.3039" lon="7.6411317"><ele>302.0</ele><time>2026-04-04T14:17:51.746Z</time></trkpt><trkpt lat="45.3037617" lon="7.64101"><ele>302.6666666666667</ele><time>2026-04-04T14:17:52.745Z</time></trkpt><trkpt lat="45.30361" lon="7.640875"><ele>303.3333333333333</ele><time>2026-04-04T14:17:53.746Z</time></trkpt><trkpt lat="45.3034617" lon="7.6407367"><ele>304.0</ele><time>2026-04-04T14:17:54.746Z</time></trkpt><trkpt lat="45.3033067" lon="7.6405967"><ele>304.0</ele><time>2026-04-04T14:17:55.745Z</time></trkpt><trkpt lat="45.303175" lon="7.64046"><ele>304.0</ele><time>2026-04-04T14:17:56.746Z</time></trkpt><trkpt lat="45.30305" lon="7.6403333"><ele>304.0</ele><time>2026-04-04T14:17:57.746Z</time></trkpt><trkpt lat="45.3029367" lon="7.64022"><ele>305.0</ele><time>2026-04-04T14:17:58.745Z</time></trkpt><trkpt lat="45.302825" lon="7.64011"><ele>306.0</ele><time>2026-04-04T14:17:59.746Z</time></trkpt><trkpt lat="45.3027217" lon="7.64001"><ele>307.0</ele><time>2026-04-04T14:18:00.745Z</time></trkpt><trkpt lat="45.3026283" lon="7.639925"><ele>308.0</ele><time>2026-04-04T14:18:01.746Z</time></trkpt><trkpt lat="45.3025533" lon="7.6398433"><ele>308.0</ele><time>2026-04-04T14:18:02.745Z</time></trkpt><trkpt lat="45.3024933" lon="7.6397783"><ele>308.0</ele><time>2026-04-04T14:18:03.745Z</time></trkpt><trkpt lat="45.30242" lon="7.6397067"><ele>308.0</ele><time>2026-04-04T14:18:05.745Z</time></trkpt><trkpt lat="45.302415" lon="7.6398017"><ele>308.0</ele><time>2026-04-04T14:18:10.745Z</time></trkpt><trkpt lat="45.3024867" lon="7.6398583"><ele>308.0</ele><time>2026-04-04T14:18:12.745Z</time></trkpt><trkpt lat="45.3025767" lon="7.6399467"><ele>308.0</ele><time>2026-04-04T14:18:14.746Z</time></trkpt><trkpt lat="45.30264" lon="7.6400833"><ele>308.0</ele><time>2026-04-04T14:18:16.746Z</time></trkpt><trkpt lat="45.30265" lon="7.6401717"><ele>308.0</ele><time>2026-04-04T14:18:17.746Z</time></trkpt><trkpt lat="45.3026467" lon="7.6402733"><ele>308.0</ele><time>2026-04-04T14:18:18.746Z</time></trkpt><trkpt lat="45.30262" lon="7.6403767"><ele>308.0</ele><time>2026-04-04T14:18:19.746Z</time></trkpt><trkpt lat="45.302585" lon="7.640485"><ele>308.0</ele><time>2026-04-04T14:18:20.745Z</time></trkpt><trkpt lat="45.3025483" lon="7.64059"><ele>308.0</ele><time>2026-04-04T14:18:21.745Z</time></trkpt><trkpt lat="45.302505" lon="7.64069"><ele>307.33333333333337</ele><time>2026-04-04T14:18:22.745Z</time></trkpt><trkpt lat="45.30246" lon="7.6408017"><ele>306.6666666666667</ele><time>2026-04-04T14:18:23.745Z</time></trkpt><trkpt lat="45.3024217" lon="7.6409083"><ele>306.0</ele><time>2026-04-04T14:18:24.745Z</time></trkpt><trkpt lat="45.3023817" lon="7.64101"><ele>305.3333333333333</ele><time>2026-04-04T14:18:25.746Z</time></trkpt><trkpt lat="45.302355" lon="7.641095"><ele>304.66666666666663</ele><time>2026-04-04T14:18:26.746Z</time></trkpt><trkpt lat="45.30231" lon="7.641235"><ele>304.0</ele><time>2026-04-04T14:18:28.745Z</time></trkpt><trkpt lat="45.3022617" lon="7.6413767"><ele>304.16666666666663</ele><time>2026-04-04T14:18:30.745Z</time></trkpt><trkpt lat="45.302235" lon="7.64147"><ele>304.3333333333333</ele><time>2026-04-04T14:18:31.746Z</time></trkpt><trkpt lat="45.3022017" lon="7.6415633"><ele>304.5</ele><time>2026-04-04T14:18:32.745Z</time></trkpt><trkpt lat="45.3021533" lon="7.6416667"><ele>304.6666666666667</ele><time>2026-04-04T14:18:33.746Z</time></trkpt><trkpt lat="45.3021033" lon="7.641775"><ele>304.83333333333337</ele><time>2026-04-04T14:18:34.745Z</time></trkpt><trkpt lat="45.30205" lon="7.6418883"><ele>305.0</ele><time>2026-04-04T14:18:35.745Z</time></trkpt><trkpt lat="45.3019917" lon="7.6420033"><ele>304.6</ele><time>2026-04-04T14:18:36.746Z</time></trkpt><trkpt lat="45.3019317" lon="7.6421083"><ele>304.2</ele><time>2026-04-04T14:18:37.746Z</time></trkpt><trkpt lat="45.3018667" lon="7.6422133"><ele>303.8</ele><time>2026-04-04T14:18:38.745Z</time></trkpt><trkpt lat="45.301805" lon="7.64232"><ele>303.4</ele><time>2026-04-04T14:18:39.746Z</time></trkpt><trkpt lat="45.3017483" lon="7.6424283"><ele>303.0</ele><time>2026-04-04T14:18:40.745Z</time></trkpt><trkpt lat="45.301685" lon="7.64253"><ele>303.0</ele><time>2026-04-04T14:18:41.746Z</time></trkpt><trkpt lat="45.301615" lon="7.6426317"><ele>303.0</ele><time>2026-04-04T14:18:42.745Z</time></trkpt><trkpt lat="45.3015383" lon="7.64273"><ele>303.0</ele><time>2026-04-04T14:18:43.745Z</time></trkpt><trkpt lat="45.301435" lon="7.6428333"><ele>303.0</ele><time>2026-04-04T14:18:44.745Z</time></trkpt><trkpt lat="45.3013583" lon="7.64294"><ele>303.0</ele><time>2026-04-04T14:18:45.745Z</time></trkpt><trkpt lat="45.301285" lon="7.6430417"><ele>302.4</ele><time>2026-04-04T14:18:46.746Z</time></trkpt><trkpt lat="45.3012133" lon="7.6431367"><ele>301.8</ele><time>2026-04-04T14:18:47.746Z</time></trkpt><trkpt lat="45.30114" lon="7.6432267"><ele>301.2</ele><time>2026-04-04T14:18:48.745Z</time></trkpt><trkpt lat="45.3010667" lon="7.6433317"><ele>300.6</ele><time>2026-04-04T14:18:49.746Z</time></trkpt><trkpt lat="45.3009967" lon="7.64345"><ele>300.0</ele><time>2026-04-04T14:18:50.745Z</time></trkpt><trkpt lat="45.3009233" lon="7.643585"><ele>300.0</ele><time>2026-04-04T14:18:51.745Z</time></trkpt><trkpt lat="45.300855" lon="7.64372"><ele>300.0</ele><time>2026-04-04T14:18:52.745Z</time></trkpt><trkpt lat="45.3007867" lon="7.6438483"><ele>300.0</ele><time>2026-04-04T14:18:53.746Z</time></trkpt><trkpt lat="45.30071" lon="7.6439617"><ele>300.0</ele><time>2026-04-04T14:18:54.746Z</time></trkpt><trkpt lat="45.3006367" lon="7.644075"><ele>300.0</ele><time>2026-04-04T14:18:55.745Z</time></trkpt><trkpt lat="45.30057" lon="7.6441967"><ele>300.0</ele><time>2026-04-04T14:18:56.745Z</time></trkpt><trkpt lat="45.3005133" lon="7.6443367"><ele>300.0</ele><time>2026-04-04T14:18:57.745Z</time></trkpt><trkpt lat="45.3004533" lon="7.6444833"><ele>300.0</ele><time>2026-04-04T14:18:58.746Z</time></trkpt><trkpt lat="45.3004" lon="7.644625"><ele>300.0</ele><time>2026-04-04T14:18:59.745Z</time></trkpt><trkpt lat="45.3003467" lon="7.644765"><ele>299.6</ele><time>2026-04-04T14:19:00.745Z</time></trkpt><trkpt lat="45.3002933" lon="7.6448917"><ele>299.2</ele><time>2026-04-04T14:19:01.746Z</time></trkpt><trkpt lat="45.3002467" lon="7.64501"><ele>298.8</ele><time>2026-04-04T14:19:02.745Z</time></trkpt><trkpt lat="45.3001983" lon="7.64512"><ele>298.4</ele><time>2026-04-04T14:19:03.745Z</time></trkpt><trkpt lat="45.300155" lon="7.6452333"><ele>298.0</ele><time>2026-04-04T14:19:04.746Z</time></trkpt><trkpt lat="45.3001233" lon="7.6453567"><ele>297.8</ele><time>2026-04-04T14:19:05.745Z</time></trkpt><trkpt lat="45.3001" lon="7.6454833"><ele>297.6</ele><time>2026-04-04T14:19:06.745Z</time></trkpt><trkpt lat="45.3000883" lon="7.6456183"><ele>297.4</ele><time>2026-04-04T14:19:07.746Z</time></trkpt><trkpt lat="45.30007" lon="7.64576"><ele>297.2</ele><time>2026-04-04T14:19:08.745Z</time></trkpt><trkpt lat="45.3000433" lon="7.6458983"><ele>297.0</ele><time>2026-04-04T14:19:09.746Z</time></trkpt><trkpt lat="45.30003" lon="7.64604"><ele>297.2</ele><time>2026-04-04T14:19:10.746Z</time></trkpt><trkpt lat="45.3" lon="7.64617"><ele>297.4</ele><time>2026-04-04T14:19:11.745Z</time></trkpt><trkpt lat="45.29997" lon="7.646295"><ele>297.6</ele><time>2026-04-04T14:19:12.745Z</time></trkpt><trkpt lat="45.299935" lon="7.6464317"><ele>297.8</ele><time>2026-04-04T14:19:13.745Z</time></trkpt><trkpt lat="45.2999" lon="7.6465867"><ele>298.0</ele><time>2026-04-04T14:19:14.745Z</time></trkpt><trkpt lat="45.2998633" lon="7.646735"><ele>298.0</ele><time>2026-04-04T14:19:15.746Z</time></trkpt><trkpt lat="45.2998283" lon="7.6468683"><ele>298.0</ele><time>2026-04-04T14:19:16.745Z</time></trkpt><trkpt lat="45.2997983" lon="7.647005"><ele>298.0</ele><time>2026-04-04T14:19:17.745Z</time></trkpt><trkpt lat="45.2997633" lon="7.6471433"><ele>298.0</ele><time>2026-04-04T14:19:18.745Z</time></trkpt><trkpt lat="45.2997167" lon="7.6472833"><ele>298.0</ele><time>2026-04-04T14:19:19.746Z</time></trkpt><trkpt lat="45.2996733" lon="7.6474183"><ele>297.4</ele><time>2026-04-04T14:19:20.745Z</time></trkpt><trkpt lat="45.299625" lon="7.6475433"><ele>296.8</ele><time>2026-04-04T14:19:21.745Z</time></trkpt><trkpt lat="45.2995717" lon="7.647655"><ele>296.2</ele><time>2026-04-04T14:19:22.745Z</time></trkpt><trkpt lat="45.2995067" lon="7.6477717"><ele>295.6</ele><time>2026-04-04T14:19:23.745Z</time></trkpt><trkpt lat="45.2994383" lon="7.6478883"><ele>295.0</ele><time>2026-04-04T14:19:24.745Z</time></trkpt><trkpt lat="45.2993767" lon="7.6480067"><ele>295.0</ele><time>2026-04-04T14:19:25.745Z</time></trkpt><trkpt lat="45.299315" lon="7.6481167"><ele>295.0</ele><time>2026-04-04T14:19:26.745Z</time></trkpt><trkpt lat="45.29926" lon="7.6482217"><ele>295.0</ele><time>2026-04-04T14:19:27.745Z</time></trkpt><trkpt lat="45.2992017" lon="7.64833"><ele>295.0</ele><time>2026-04-04T14:19:28.746Z</time></trkpt><trkpt lat="45.2991333" lon="7.6484283"><ele>295.0</ele><time>2026-04-04T14:19:29.746Z</time></trkpt><trkpt lat="45.2990667" lon="7.6485283"><ele>295.0</ele><time>2026-04-04T14:19:30.745Z</time></trkpt><trkpt lat="45.299" lon="7.6486333"><ele>295.0</ele><time>2026-04-04T14:19:31.746Z</time></trkpt><trkpt lat="45.2989383" lon="7.648745"><ele>295.0</ele><time>2026-04-04T14:19:32.746Z</time></trkpt><trkpt lat="45.2988767" lon="7.6488717"><ele>295.0</ele><time>2026-04-04T14:19:33.746Z</time></trkpt><trkpt lat="45.2988083" lon="7.648995"><ele>295.0</ele><time>2026-04-04T14:19:34.745Z</time></trkpt><trkpt lat="45.298745" lon="7.6491183"><ele>295.0</ele><time>2026-04-04T14:19:35.745Z</time></trkpt><trkpt lat="45.2986867" lon="7.649235"><ele>295.0</ele><time>2026-04-04T14:19:36.745Z</time></trkpt><trkpt lat="45.2986317" lon="7.649345"><ele>295.0</ele><time>2026-04-04T14:19:37.746Z</time></trkpt><trkpt lat="45.2985767" lon="7.649465"><ele>295.0</ele><time>2026-04-04T14:19:38.745Z</time></trkpt><trkpt lat="45.2985267" lon="7.6495933"><ele>295.0</ele><time>2026-04-04T14:19:39.745Z</time></trkpt><trkpt lat="45.2984717" lon="7.6497233"><ele>294.4</ele><time>2026-04-04T14:19:40.746Z</time></trkpt><trkpt lat="45.2984267" lon="7.6498567"><ele>293.8</ele><time>2026-04-04T14:19:41.745Z</time></trkpt><trkpt lat="45.2983767" lon="7.64999"><ele>293.2</ele><time>2026-04-04T14:19:42.746Z</time></trkpt><trkpt lat="45.29833" lon="7.6501317"><ele>292.6</ele><time>2026-04-04T14:19:43.746Z</time></trkpt><trkpt lat="45.2982783" lon="7.6502733"><ele>292.0</ele><time>2026-04-04T14:19:44.745Z</time></trkpt><trkpt lat="45.2982383" lon="7.6504183"><ele>292.0</ele><time>2026-04-04T14:19:45.745Z</time></trkpt><trkpt lat="45.2981983" lon="7.650565"><ele>292.0</ele><time>2026-04-04T14:19:46.745Z</time></trkpt><trkpt lat="45.29816" lon="7.65072"><ele>292.0</ele><time>2026-04-04T14:19:47.744Z</time></trkpt><trkpt lat="45.2981317" lon="7.6508683"><ele>292.0</ele><time>2026-04-04T14:19:48.744Z</time></trkpt><trkpt lat="45.2981033" lon="7.65102"><ele>292.0</ele><time>2026-04-04T14:19:49.745Z</time></trkpt><trkpt lat="45.29807" lon="7.65117"><ele>292.2</ele><time>2026-04-04T14:19:50.744Z</time></trkpt><trkpt lat="45.29804" lon="7.651325"><ele>292.4</ele><time>2026-04-04T14:19:51.744Z</time></trkpt><trkpt lat="45.2980217" lon="7.651485"><ele>292.6</ele><time>2026-04-04T14:19:52.745Z</time></trkpt><trkpt lat="45.2979983" lon="7.6516267"><ele>292.8</ele><time>2026-04-04T14:19:53.745Z</time></trkpt><trkpt lat="45.2979733" lon="7.651755"><ele>293.0</ele><time>2026-04-04T14:19:54.745Z</time></trkpt><trkpt lat="45.2979317" lon="7.6518817"><ele>292.83333333333337</ele><time>2026-04-04T14:19:55.744Z</time></trkpt><trkpt lat="45.297875" lon="7.6519983"><ele>292.6666666666667</ele><time>2026-04-04T14:19:56.745Z</time></trkpt><trkpt lat="45.2978133" lon="7.6521033"><ele>292.5</ele><time>2026-04-04T14:19:57.744Z</time></trkpt><trkpt lat="45.297755" lon="7.6522"><ele>292.3333333333333</ele><time>2026-04-04T14:19:58.745Z</time></trkpt><trkpt lat="45.29771" lon="7.6522967"><ele>292.16666666666663</ele><time>2026-04-04T14:19:59.744Z</time></trkpt><trkpt lat="45.2976767" lon="7.652395"><ele>292.0</ele><time>2026-04-04T14:20:00.744Z</time></trkpt><trkpt lat="45.2976383" lon="7.65248"><ele>292.0</ele><time>2026-04-04T14:20:01.745Z</time></trkpt><trkpt lat="45.29758" lon="7.6525783"><ele>292.0</ele><time>2026-04-04T14:20:03.745Z</time></trkpt><trkpt lat="45.297505" lon="7.6526067"><ele>292.0</ele><time>2026-04-04T14:20:05.745Z</time></trkpt><trkpt lat="45.2973583" lon="7.6525667"><ele>292.0</ele><time>2026-04-04T14:20:07.744Z</time></trkpt><trkpt lat="45.297255" lon="7.652535"><ele>292.0</ele><time>2026-04-04T14:20:08.745Z</time></trkpt><trkpt lat="45.2971417" lon="7.6524983"><ele>291.8</ele><time>2026-04-04T14:20:09.744Z</time></trkpt><trkpt lat="45.2970267" lon="7.6524483"><ele>291.6</ele><time>2026-04-04T14:20:10.744Z</time></trkpt><trkpt lat="45.2969183" lon="7.6524017"><ele>291.40000000000003</ele><time>2026-04-04T14:20:11.744Z</time></trkpt><trkpt lat="45.296815" lon="7.6523533"><ele>291.2</ele><time>2026-04-04T14:20:12.744Z</time></trkpt><trkpt lat="45.2967133" lon="7.6523117"><ele>291.0</ele><time>2026-04-04T14:20:13.744Z</time></trkpt><trkpt lat="45.2966133" lon="7.6522717"><ele>291.0</ele><time>2026-04-04T14:20:14.745Z</time></trkpt><trkpt lat="45.2965117" lon="7.6522417"><ele>291.0</ele><time>2026-04-04T14:20:15.744Z</time></trkpt><trkpt lat="45.2963967" lon="7.6522117"><ele>291.0</ele><time>2026-04-04T14:20:16.744Z</time></trkpt><trkpt lat="45.296275" lon="7.6521717"><ele>291.0</ele><time>2026-04-04T14:20:17.745Z</time></trkpt><trkpt lat="45.2961633" lon="7.6521317"><ele>291.0</ele><time>2026-04-04T14:20:18.744Z</time></trkpt><trkpt lat="45.2960517" lon="7.6520933"><ele>291.0</ele><time>2026-04-04T14:20:19.744Z</time></trkpt><trkpt lat="45.2959417" lon="7.6520617"><ele>291.0</ele><time>2026-04-04T14:20:20.745Z</time></trkpt><trkpt lat="45.2958317" lon="7.6520267"><ele>291.0</ele><time>2026-04-04T14:20:21.744Z</time></trkpt><trkpt lat="45.2957233" lon="7.6520017"><ele>291.0</ele><time>2026-04-04T14:20:22.744Z</time></trkpt><trkpt lat="45.29562" lon="7.6519883"><ele>291.0</ele><time>2026-04-04T14:20:23.744Z</time></trkpt><trkpt lat="45.295525" lon="7.651995"><ele>291.0</ele><time>2026-04-04T14:20:24.744Z</time></trkpt><trkpt lat="45.29542" lon="7.6520267"><ele>291.0</ele><time>2026-04-04T14:20:25.744Z</time></trkpt><trkpt lat="45.2953067" lon="7.6520733"><ele>291.0</ele><time>2026-04-04T14:20:26.744Z</time></trkpt><trkpt lat="45.2951917" lon="7.6521133"><ele>290.25</ele><time>2026-04-04T14:20:27.744Z</time></trkpt><trkpt lat="45.2950783" lon="7.652165"><ele>289.5</ele><time>2026-04-04T14:20:28.745Z</time></trkpt><trkpt lat="45.294955" lon="7.6522233"><ele>288.75</ele><time>2026-04-04T14:20:29.744Z</time></trkpt><trkpt lat="45.294845" lon="7.65229"><ele>288.0</ele><time>2026-04-04T14:20:30.744Z</time></trkpt><trkpt lat="45.294735" lon="7.6523517"><ele>288.0</ele><time>2026-04-04T14:20:31.744Z</time></trkpt><trkpt lat="45.294625" lon="7.6524183"><ele>288.0</ele><time>2026-04-04T14:20:32.744Z</time></trkpt><trkpt lat="45.2945133" lon="7.6524883"><ele>288.0</ele><time>2026-04-04T14:20:33.744Z</time></trkpt><trkpt lat="45.294405" lon="7.6525567"><ele>288.0</ele><time>2026-04-04T14:20:34.745Z</time></trkpt><trkpt lat="45.2942983" lon="7.6526217"><ele>288.0</ele><time>2026-04-04T14:20:35.745Z</time></trkpt><trkpt lat="45.29419" lon="7.65269"><ele>288.0</ele><time>2026-04-04T14:20:36.744Z</time></trkpt><trkpt lat="45.29409" lon="7.652755"><ele>288.0</ele><time>2026-04-04T14:20:37.744Z</time></trkpt><trkpt lat="45.2939933" lon="7.6528183"><ele>288.0</ele><time>2026-04-04T14:20:38.744Z</time></trkpt><trkpt lat="45.2938967" lon="7.6528833"><ele>288.0</ele><time>2026-04-04T14:20:39.745Z</time></trkpt><trkpt lat="45.2938017" lon="7.6529483"><ele>287.8</ele><time>2026-04-04T14:20:40.745Z</time></trkpt><trkpt lat="45.29371" lon="7.6530083"><ele>287.6</ele><time>2026-04-04T14:20:41.744Z</time></trkpt><trkpt lat="45.2936067" lon="7.6530683"><ele>287.4</ele><time>2026-04-04T14:20:42.745Z</time></trkpt><trkpt lat="45.2935033" lon="7.65313"><ele>287.2</ele><time>2026-04-04T14:20:43.745Z</time></trkpt><trkpt lat="45.2934033" lon="7.6531867"><ele>287.0</ele><time>2026-04-04T14:20:44.744Z</time></trkpt><trkpt lat="45.2933033" lon="7.6532383"><ele>287.0</ele><time>2026-04-04T14:20:45.745Z</time></trkpt><trkpt lat="45.2932033" lon="7.6532833"><ele>287.0</ele><time>2026-04-04T14:20:46.744Z</time></trkpt><trkpt lat="45.293105" lon="7.6533367"><ele>287.0</ele><time>2026-04-04T14:20:47.744Z</time></trkpt><trkpt lat="45.2930083" lon="7.6533967"><ele>287.0</ele><time>2026-04-04T14:20:48.744Z</time></trkpt><trkpt lat="45.29291" lon="7.6534617"><ele>287.0</ele><time>2026-04-04T14:20:49.745Z</time></trkpt><trkpt lat="45.2928017" lon="7.6535133"><ele>287.0</ele><time>2026-04-04T14:20:50.744Z</time></trkpt><trkpt lat="45.2926983" lon="7.6535583"><ele>287.0</ele><time>2026-04-04T14:20:51.744Z</time></trkpt><trkpt lat="45.2925867" lon="7.6536133"><ele>287.0</ele><time>2026-04-04T14:20:52.745Z</time></trkpt><trkpt lat="45.2924767" lon="7.6536683"><ele>287.0</ele><time>2026-04-04T14:20:53.744Z</time></trkpt><trkpt lat="45.2923667" lon="7.65373"><ele>287.75</ele><time>2026-04-04T14:20:54.744Z</time></trkpt><trkpt lat="45.292255" lon="7.653785"><ele>288.5</ele><time>2026-04-04T14:20:55.745Z</time></trkpt><trkpt lat="45.2921383" lon="7.6538317"><ele>289.25</ele><time>2026-04-04T14:20:56.744Z</time></trkpt><trkpt lat="45.292025" lon="7.6538833"><ele>290.0</ele><time>2026-04-04T14:20:57.745Z</time></trkpt><trkpt lat="45.2919117" lon="7.6539267"><ele>290.0</ele><time>2026-04-04T14:20:58.744Z</time></trkpt><trkpt lat="45.2918017" lon="7.6539633"><ele>290.0</ele><time>2026-04-04T14:20:59.745Z</time></trkpt><trkpt lat="45.2917017" lon="7.654"><ele>290.0</ele><time>2026-04-04T14:21:00.744Z</time></trkpt><trkpt lat="45.29159" lon="7.6540383"><ele>290.0</ele><time>2026-04-04T14:21:01.745Z</time></trkpt><trkpt lat="45.2914733" lon="7.6540883"><ele>289.2</ele><time>2026-04-04T14:21:02.745Z</time></trkpt><trkpt lat="45.2913633" lon="7.6541283"><ele>288.4</ele><time>2026-04-04T14:21:03.745Z</time></trkpt><trkpt lat="45.2912533" lon="7.6541583"><ele>287.6</ele><time>2026-04-04T14:21:04.744Z</time></trkpt><trkpt lat="45.2911483" lon="7.6541867"><ele>286.8</ele><time>2026-04-04T14:21:05.745Z</time></trkpt><trkpt lat="45.2910633" lon="7.6541983"><ele>286.0</ele><time>2026-04-04T14:21:06.744Z</time></trkpt><trkpt lat="45.290985" lon="7.6541983"><ele>286.0</ele><time>2026-04-04T14:21:07.744Z</time></trkpt><trkpt lat="45.2909183" lon="7.6541967"><ele>286.0</ele><time>2026-04-04T14:21:08.744Z</time></trkpt><trkpt lat="45.2908283" lon="7.6541933"><ele>286.0</ele><time>2026-04-04T14:21:10.744Z</time></trkpt><trkpt lat="45.2907467" lon="7.654205"><ele>286.0</ele><time>2026-04-04T14:21:27.745Z</time></trkpt><trkpt lat="45.2906817" lon="7.6541883"><ele>286.0</ele><time>2026-04-04T14:21:29.744Z</time></trkpt><trkpt lat="45.2906283" lon="7.6541083"><ele>286.0</ele><time>2026-04-04T14:21:31.744Z</time></trkpt><trkpt lat="45.2905933" lon="7.6539683"><ele>286.40000000000003</ele><time>2026-04-04T14:21:33.744Z</time></trkpt><trkpt lat="45.2905717" lon="7.653815"><ele>286.8</ele><time>2026-04-04T14:21:35.744Z</time></trkpt><trkpt lat="45.2905483" lon="7.653655"><ele>287.20000000000005</ele><time>2026-04-04T14:21:37.744Z</time></trkpt><trkpt lat="45.290525" lon="7.6535217"><ele>287.6</ele><time>2026-04-04T14:21:39.745Z</time></trkpt><trkpt lat="45.2904817" lon="7.6534067"><ele>288.0</ele><time>2026-04-04T14:21:41.744Z</time></trkpt><trkpt lat="45.2904633" lon="7.653295"><ele>288.1666666666667</ele><time>2026-04-04T14:21:43.744Z</time></trkpt><trkpt lat="45.2904267" lon="7.6532017"><ele>288.3333333333333</ele><time>2026-04-04T14:21:45.744Z</time></trkpt><trkpt lat="45.290385" lon="7.65309"><ele>288.5</ele><time>2026-04-04T14:21:47.744Z</time></trkpt><trkpt lat="45.2903467" lon="7.6530033"><ele>288.66666666666663</ele><time>2026-04-04T14:21:49.744Z</time></trkpt><trkpt lat="45.290305" lon="7.6529033"><ele>288.8333333333333</ele><time>2026-04-04T14:21:51.745Z</time></trkpt><trkpt lat="45.290245" lon="7.6527783"><ele>289.0</ele><time>2026-04-04T14:21:53.744Z</time></trkpt><trkpt lat="45.2902083" lon="7.6527017"><ele>289.3333333333333</ele><time>2026-04-04T14:21:54.745Z</time></trkpt><trkpt lat="45.2901717" lon="7.6526133"><ele>289.66666666666663</ele><time>2026-04-04T14:21:55.744Z</time></trkpt><trkpt lat="45.29013" lon="7.6525233"><ele>290.0</ele><time>2026-04-04T14:21:56.744Z</time></trkpt><trkpt lat="45.2900933" lon="7.652425"><ele>290.3333333333333</ele><time>2026-04-04T14:21:57.744Z</time></trkpt><trkpt lat="45.2900667" lon="7.65232"><ele>290.6666666666667</ele><time>2026-04-04T14:21:58.744Z</time></trkpt><trkpt lat="45.29005" lon="7.652205"><ele>291.0</ele><time>2026-04-04T14:21:59.745Z</time></trkpt><trkpt lat="45.2900483" lon="7.652075"><ele>291.6</ele><time>2026-04-04T14:22:00.744Z</time></trkpt><trkpt lat="45.2900567" lon="7.651935"><ele>292.20000000000005</ele><time>2026-04-04T14:22:01.745Z</time></trkpt><trkpt lat="45.2900683" lon="7.65178"><ele>292.79999999999995</ele><time>2026-04-04T14:22:02.744Z</time></trkpt><trkpt lat="45.2900783" lon="7.6516133"><ele>293.4</ele><time>2026-04-04T14:22:03.745Z</time></trkpt><trkpt lat="45.290075" lon="7.6514417"><ele>294.0</ele><time>2026-04-04T14:22:04.744Z</time></trkpt><trkpt lat="45.2900433" lon="7.6513017"><ele>294.0</ele><time>2026-04-04T14:22:05.744Z</time></trkpt><trkpt lat="45.2899883" lon="7.65116"><ele>294.0</ele><time>2026-04-04T14:22:06.744Z</time></trkpt><trkpt lat="45.28993" lon="7.6510183"><ele>294.0</ele><time>2026-04-04T14:22:07.744Z</time></trkpt><trkpt lat="45.28988" lon="7.6508767"><ele>294.0</ele><time>2026-04-04T14:22:08.745Z</time></trkpt><trkpt lat="45.2898517" lon="7.6507333"><ele>294.0</ele><time>2026-04-04T14:22:09.744Z</time></trkpt><trkpt lat="45.2898333" lon="7.6505767"><ele>293.5</ele><time>2026-04-04T14:22:10.744Z</time></trkpt><trkpt lat="45.2898383" lon="7.6504283"><ele>293.0</ele><time>2026-04-04T14:22:11.744Z</time></trkpt><trkpt lat="45.2898433" lon="7.6502783"><ele>292.5</ele><time>2026-04-04T14:22:12.744Z</time></trkpt><trkpt lat="45.2898483" lon="7.6501133"><ele>292.0</ele><time>2026-04-04T14:22:13.744Z</time></trkpt><trkpt lat="45.2898567" lon="7.6499183"><ele>292.0</ele><time>2026-04-04T14:22:14.744Z</time></trkpt><trkpt lat="45.28987" lon="7.6497133"><ele>292.0</ele><time>2026-04-04T14:22:15.744Z</time></trkpt><trkpt lat="45.289885" lon="7.6495"><ele>292.0</ele><time>2026-04-04T14:22:16.744Z</time></trkpt><trkpt lat="45.2899017" lon="7.6492917"><ele>292.0</ele><time>2026-04-04T14:22:17.745Z</time></trkpt><trkpt lat="45.289915" lon="7.6490983"><ele>292.25</ele><time>2026-04-04T14:22:18.744Z</time></trkpt><trkpt lat="45.2899217" lon="7.6489033"><ele>292.5</ele><time>2026-04-04T14:22:19.744Z</time></trkpt><trkpt lat="45.2899333" lon="7.6487017"><ele>292.75</ele><time>2026-04-04T14:22:20.745Z</time></trkpt><trkpt lat="45.2899267" lon="7.6485067"><ele>293.0</ele><time>2026-04-04T14:22:21.745Z</time></trkpt><trkpt lat="45.2899133" lon="7.6483217"><ele>293.25</ele><time>2026-04-04T14:22:22.744Z</time></trkpt><trkpt lat="45.289885" lon="7.6481483"><ele>293.5</ele><time>2026-04-04T14:22:23.744Z</time></trkpt><trkpt lat="45.289845" lon="7.64798"><ele>293.75</ele><time>2026-04-04T14:22:24.744Z</time></trkpt><trkpt lat="45.289795" lon="7.6478067"><ele>294.0</ele><time>2026-04-04T14:22:25.745Z</time></trkpt><trkpt lat="45.2897433" lon="7.64764"><ele>293.4</ele><time>2026-04-04T14:22:26.744Z</time></trkpt><trkpt lat="45.2896983" lon="7.6474967"><ele>292.79999999999995</ele><time>2026-04-04T14:22:27.744Z</time></trkpt><trkpt lat="45.28965" lon="7.6473633"><ele>292.20000000000005</ele><time>2026-04-04T14:22:28.744Z</time></trkpt><trkpt lat="45.289595" lon="7.6472483"><ele>291.6</ele><time>2026-04-04T14:22:29.744Z</time></trkpt><trkpt lat="45.2895267" lon="7.647155"><ele>291.0</ele><time>2026-04-04T14:22:30.744Z</time></trkpt><trkpt lat="45.2894483" lon="7.6470633"><ele>291.25</ele><time>2026-04-04T14:22:31.745Z</time></trkpt><trkpt lat="45.2893633" lon="7.6469417"><ele>291.5</ele><time>2026-04-04T14:22:32.744Z</time></trkpt><trkpt lat="45.2892783" lon="7.64681"><ele>291.75</ele><time>2026-04-04T14:22:33.744Z</time></trkpt><trkpt lat="45.2892117" lon="7.646665"><ele>292.0</ele><time>2026-04-04T14:22:34.745Z</time></trkpt><trkpt lat="45.2891383" lon="7.64651"><ele>292.0</ele><time>2026-04-04T14:22:35.744Z</time></trkpt><trkpt lat="45.28909" lon="7.6463367"><ele>292.0</ele><time>2026-04-04T14:22:36.744Z</time></trkpt><trkpt lat="45.2890583" lon="7.6461667"><ele>292.0</ele><time>2026-04-04T14:22:37.744Z</time></trkpt><trkpt lat="45.2890267" lon="7.6460117"><ele>292.0</ele><time>2026-04-04T14:22:38.745Z</time></trkpt><trkpt lat="45.2889967" lon="7.6458633"><ele>292.25</ele><time>2026-04-04T14:22:39.744Z</time></trkpt><trkpt lat="45.2889733" lon="7.6456933"><ele>292.5</ele><time>2026-04-04T14:22:40.744Z</time></trkpt><trkpt lat="45.2889467" lon="7.645505"><ele>292.75</ele><time>2026-04-04T14:22:41.745Z</time></trkpt><trkpt lat="45.2889183" lon="7.6453083"><ele>293.0</ele><time>2026-04-04T14:22:42.744Z</time></trkpt><trkpt lat="45.2888933" lon="7.645105"><ele>292.75</ele><time>2026-04-04T14:22:43.744Z</time></trkpt><trkpt lat="45.2888733" lon="7.6449167"><ele>292.5</ele><time>2026-04-04T14:22:44.744Z</time></trkpt><trkpt lat="45.28886" lon="7.64473"><ele>292.25</ele><time>2026-04-04T14:22:45.745Z</time></trkpt><trkpt lat="45.2888483" lon="7.6445583"><ele>292.0</ele><time>2026-04-04T14:22:46.745Z</time></trkpt><trkpt lat="45.28883" lon="7.6443783"><ele>292.0</ele><time>2026-04-04T14:22:47.744Z</time></trkpt><trkpt lat="45.2888217" lon="7.6441917"><ele>292.0</ele><time>2026-04-04T14:22:48.744Z</time></trkpt><trkpt lat="45.2888067" lon="7.643995"><ele>292.0</ele><time>2026-04-04T14:22:49.744Z</time></trkpt><trkpt lat="45.2887933" lon="7.6438083"><ele>292.0</ele><time>2026-04-04T14:22:50.744Z</time></trkpt><trkpt lat="45.2887883" lon="7.64364"><ele>292.3333333333333</ele><time>2026-04-04T14:22:51.744Z</time></trkpt><trkpt lat="45.2887767" lon="7.6434833"><ele>292.66666666666663</ele><time>2026-04-04T14:22:52.744Z</time></trkpt><trkpt lat="45.2887683" lon="7.64336"><ele>293.0</ele><time>2026-04-04T14:22:53.745Z</time></trkpt><trkpt lat="45.2887517" lon="7.6432517"><ele>293.3333333333333</ele><time>2026-04-04T14:22:54.744Z</time></trkpt><trkpt lat="45.288715" lon="7.6431517"><ele>293.6666666666667</ele><time>2026-04-04T14:22:55.744Z</time></trkpt><trkpt lat="45.2886583" lon="7.64307"><ele>294.0</ele><time>2026-04-04T14:22:56.744Z</time></trkpt><trkpt lat="45.2885817" lon="7.643005"><ele>294.0</ele><time>2026-04-04T14:22:57.744Z</time></trkpt><trkpt lat="45.28849" lon="7.6429367"><ele>294.0</ele><time>2026-04-04T14:22:58.745Z</time></trkpt><trkpt lat="45.2883967" lon="7.6428717"><ele>294.0</ele><time>2026-04-04T14:22:59.744Z</time></trkpt><trkpt lat="45.28832" lon="7.6428017"><ele>294.0</ele><time>2026-04-04T14:23:00.745Z</time></trkpt><trkpt lat="45.28826" lon="7.6427167"><ele>294.0</ele><time>2026-04-04T14:23:01.744Z</time></trkpt><trkpt lat="45.2882233" lon="7.642605"><ele>294.5</ele><time>2026-04-04T14:23:02.744Z</time></trkpt><trkpt lat="45.288205" lon="7.6424633"><ele>295.0</ele><time>2026-04-04T14:23:03.744Z</time></trkpt><trkpt lat="45.2882017" lon="7.6423033"><ele>295.5</ele><time>2026-04-04T14:23:04.744Z</time></trkpt><trkpt lat="45.2882183" lon="7.6421017"><ele>296.0</ele><time>2026-04-04T14:23:05.744Z</time></trkpt><trkpt lat="45.2882483" lon="7.64189"><ele>296.0</ele><time>2026-04-04T14:23:06.744Z</time></trkpt><trkpt lat="45.2882583" lon="7.6416683"><ele>296.0</ele><time>2026-04-04T14:23:07.744Z</time></trkpt><trkpt lat="45.28826" lon="7.641455"><ele>296.0</ele><time>2026-04-04T14:23:08.744Z</time></trkpt><trkpt lat="45.2882617" lon="7.6412383"><ele>296.25</ele><time>2026-04-04T14:23:09.745Z</time></trkpt><trkpt lat="45.2882533" lon="7.6410283"><ele>296.5</ele><time>2026-04-04T14:23:10.744Z</time></trkpt><trkpt lat="45.288235" lon="7.6408367"><ele>296.75</ele><time>2026-04-04T14:23:11.744Z</time></trkpt><trkpt lat="45.2882117" lon="7.64065"><ele>297.0</ele><time>2026-04-04T14:23:12.744Z</time></trkpt><trkpt lat="45.2881933" lon="7.6404833"><ele>297.0</ele><time>2026-04-04T14:23:13.744Z</time></trkpt><trkpt lat="45.2881967" lon="7.64032"><ele>297.0</ele><time>2026-04-04T14:23:14.744Z</time></trkpt><trkpt lat="45.2882233" lon="7.6401433"><ele>297.0</ele><time>2026-04-04T14:23:15.745Z</time></trkpt><trkpt lat="45.2882717" lon="7.6399533"><ele>297.0</ele><time>2026-04-04T14:23:16.744Z</time></trkpt><trkpt lat="45.288315" lon="7.6397467"><ele>296.75</ele><time>2026-04-04T14:23:17.745Z</time></trkpt><trkpt lat="45.2883667" lon="7.6395267"><ele>296.5</ele><time>2026-04-04T14:23:18.744Z</time></trkpt><trkpt lat="45.2884117" lon="7.6393333"><ele>296.25</ele><time>2026-04-04T14:23:19.744Z</time></trkpt><trkpt lat="45.2884583" lon="7.639155"><ele>296.0</ele><time>2026-04-04T14:23:20.745Z</time></trkpt><trkpt lat="45.2885067" lon="7.6389767"><ele>296.5</ele><time>2026-04-04T14:23:21.744Z</time></trkpt><trkpt lat="45.288565" lon="7.638805"><ele>297.0</ele><time>2026-04-04T14:23:22.745Z</time></trkpt><trkpt lat="45.2886283" lon="7.638635"><ele>297.5</ele><time>2026-04-04T14:23:23.744Z</time></trkpt><trkpt lat="45.2886733" lon="7.6384583"><ele>298.0</ele><time>2026-04-04T14:23:24.745Z</time></trkpt><trkpt lat="45.2887033" lon="7.638265"><ele>298.0</ele><time>2026-04-04T14:23:25.744Z</time></trkpt><trkpt lat="45.2887433" lon="7.6380567"><ele>298.0</ele><time>2026-04-04T14:23:26.744Z</time></trkpt><trkpt lat="45.2887767" lon="7.63785"><ele>298.0</ele><time>2026-04-04T14:23:27.744Z</time></trkpt><trkpt lat="45.2888167" lon="7.63766"><ele>298.0</ele><time>2026-04-04T14:23:28.744Z</time></trkpt><trkpt lat="45.2888567" lon="7.637485"><ele>298.0</ele><time>2026-04-04T14:23:29.744Z</time></trkpt><trkpt lat="45.288895" lon="7.637315"><ele>298.0</ele><time>2026-04-04T14:23:30.744Z</time></trkpt><trkpt lat="45.2889167" lon="7.63716"><ele>298.0</ele><time>2026-04-04T14:23:31.745Z</time></trkpt><trkpt lat="45.2889333" lon="7.6370167"><ele>298.0</ele><time>2026-04-04T14:23:32.744Z</time></trkpt><trkpt lat="45.2889283" lon="7.6368783"><ele>298.0</ele><time>2026-04-04T14:23:33.744Z</time></trkpt><trkpt lat="45.2889083" lon="7.6367517"><ele>298.6</ele><time>2026-04-04T14:23:34.744Z</time></trkpt><trkpt lat="45.2888817" lon="7.6366133"><ele>299.20000000000005</ele><time>2026-04-04T14:23:35.744Z</time></trkpt><trkpt lat="45.2888467" lon="7.6364717"><ele>299.8</ele><time>2026-04-04T14:23:36.744Z</time></trkpt><trkpt lat="45.2888233" lon="7.6363317"><ele>300.40000000000003</ele><time>2026-04-04T14:23:37.744Z</time></trkpt><trkpt lat="45.2888117" lon="7.636195"><ele>301.0</ele><time>2026-04-04T14:23:38.744Z</time></trkpt><trkpt lat="45.2888117" lon="7.6360733"><ele>301.0</ele><time>2026-04-04T14:23:39.744Z</time></trkpt><trkpt lat="45.2888317" lon="7.6359533"><ele>301.0</ele><time>2026-04-04T14:23:40.744Z</time></trkpt><trkpt lat="45.288855" lon="7.6358433"><ele>301.0</ele><time>2026-04-04T14:23:41.744Z</time></trkpt><trkpt lat="45.2888767" lon="7.635735"><ele>301.0</ele><time>2026-04-04T14:23:42.744Z</time></trkpt><trkpt lat="45.2888967" lon="7.6356483"><ele>301.0</ele><time>2026-04-04T14:23:43.744Z</time></trkpt><trkpt lat="45.2889267" lon="7.6355283"><ele>301.0</ele><time>2026-04-04T14:23:45.744Z</time></trkpt><trkpt lat="45.2889517" lon="7.6354067"><ele>303.16666666666663</ele><time>2026-04-04T14:23:47.744Z</time></trkpt><trkpt lat="45.2889767" lon="7.6352883"><ele>305.3333333333333</ele><time>2026-04-04T14:23:49.744Z</time></trkpt><trkpt lat="45.289" lon="7.6351317"><ele>307.5</ele><time>2026-04-04T14:23:51.744Z</time></trkpt><trkpt lat="45.28901" lon="7.6350267"><ele>309.6666666666667</ele><time>2026-04-04T14:23:52.744Z</time></trkpt><trkpt lat="45.2890267" lon="7.6349117"><ele>311.83333333333337</ele><time>2026-04-04T14:23:53.744Z</time></trkpt><trkpt lat="45.289045" lon="7.6348"><ele>314.0</ele><time>2026-04-04T14:23:54.744Z</time></trkpt><trkpt lat="45.2890667" lon="7.6346817"><ele>314.0</ele><time>2026-04-04T14:23:55.744Z</time></trkpt><trkpt lat="45.28909" lon="7.6345683"><ele>314.0</ele><time>2026-04-04T14:23:56.744Z</time></trkpt><trkpt lat="45.2891117" lon="7.634455"><ele>314.0</ele><time>2026-04-04T14:23:57.743Z</time></trkpt><trkpt lat="45.28913" lon="7.634345"><ele>314.0</ele><time>2026-04-04T14:23:58.743Z</time></trkpt><trkpt lat="45.2891483" lon="7.6342333"><ele>314.0</ele><time>2026-04-04T14:23:59.743Z</time></trkpt><trkpt lat="45.2891683" lon="7.63413"><ele>314.0</ele><time>2026-04-04T14:24:00.743Z</time></trkpt><trkpt lat="45.2891867" lon="7.6340317"><ele>313.59999999999997</ele><time>2026-04-04T14:24:01.743Z</time></trkpt><trkpt lat="45.2892033" lon="7.6339417"><ele>313.2</ele><time>2026-04-04T14:24:02.743Z</time></trkpt><trkpt lat="45.289235" lon="7.6337783"><ele>312.79999999999995</ele><time>2026-04-04T14:24:04.743Z</time></trkpt><trkpt lat="45.28926" lon="7.6336317"><ele>312.4</ele><time>2026-04-04T14:24:06.744Z</time></trkpt><trkpt lat="45.28928" lon="7.6334867"><ele>312.0</ele><time>2026-04-04T14:24:08.744Z</time></trkpt><trkpt lat="45.2892633" lon="7.6333333"><ele>311.4</ele><time>2026-04-04T14:24:10.743Z</time></trkpt><trkpt lat="45.2892483" lon="7.6331983"><ele>310.79999999999995</ele><time>2026-04-04T14:24:12.743Z</time></trkpt><trkpt lat="45.2892167" lon="7.6330667"><ele>310.2</ele><time>2026-04-04T14:24:14.743Z</time></trkpt><trkpt lat="45.2891717" lon="7.6329483"><ele>309.59999999999997</ele><time>2026-04-04T14:24:16.743Z</time></trkpt><trkpt lat="45.2890933" lon="7.6328583"><ele>309.0</ele><time>2026-04-04T14:24:18.743Z</time></trkpt><trkpt lat="45.28896" lon="7.6328217"><ele>307.75</ele><time>2026-04-04T14:24:20.743Z</time></trkpt><trkpt lat="45.28884" lon="7.63281"><ele>306.5</ele><time>2026-04-04T14:24:21.743Z</time></trkpt><trkpt lat="45.2887267" lon="7.6327617"><ele>305.25</ele><time>2026-04-04T14:24:22.743Z</time></trkpt><trkpt lat="45.2886233" lon="7.6326733"><ele>304.0</ele><time>2026-04-04T14:24:23.743Z</time></trkpt><trkpt lat="45.2885467" lon="7.632555"><ele>304.0</ele><time>2026-04-04T14:24:24.744Z</time></trkpt><trkpt lat="45.288475" lon="7.6324217"><ele>304.0</ele><time>2026-04-04T14:24:25.744Z</time></trkpt><trkpt lat="45.2884117" lon="7.6322667"><ele>304.0</ele><time>2026-04-04T14:24:26.743Z</time></trkpt><trkpt lat="45.2883517" lon="7.632115"><ele>304.0</ele><time>2026-04-04T14:24:27.743Z</time></trkpt><trkpt lat="45.2883033" lon="7.631965"><ele>304.4</ele><time>2026-04-04T14:24:28.743Z</time></trkpt><trkpt lat="45.288255" lon="7.631825"><ele>304.79999999999995</ele><time>2026-04-04T14:24:29.743Z</time></trkpt><trkpt lat="45.288215" lon="7.6316983"><ele>305.20000000000005</ele><time>2026-04-04T14:24:30.743Z</time></trkpt><trkpt lat="45.2881683" lon="7.631575"><ele>305.6</ele><time>2026-04-04T14:24:31.743Z</time></trkpt><trkpt lat="45.2881233" lon="7.631465"><ele>306.0</ele><time>2026-04-04T14:24:32.744Z</time></trkpt><trkpt lat="45.2880817" lon="7.6313783"><ele>306.1666666666667</ele><time>2026-04-04T14:24:33.743Z</time></trkpt><trkpt lat="45.2880383" lon="7.6313083"><ele>306.3333333333333</ele><time>2026-04-04T14:24:34.743Z</time></trkpt><trkpt lat="45.2879783" lon="7.6311683"><ele>306.5</ele><time>2026-04-04T14:24:36.743Z</time></trkpt><trkpt lat="45.2879633" lon="7.631075"><ele>306.66666666666663</ele><time>2026-04-04T14:24:37.744Z</time></trkpt><trkpt lat="45.28795" lon="7.6309833"><ele>306.8333333333333</ele><time>2026-04-04T14:24:38.744Z</time></trkpt><trkpt lat="45.28795" lon="7.63088"><ele>307.0</ele><time>2026-04-04T14:24:39.743Z</time></trkpt><trkpt lat="45.2879683" lon="7.6307667"><ele>307.0</ele><time>2026-04-04T14:24:40.743Z</time></trkpt><trkpt lat="45.2880017" lon="7.6306533"><ele>307.0</ele><time>2026-04-04T14:24:41.743Z</time></trkpt><trkpt lat="45.2880433" lon="7.6305333"><ele>307.0</ele><time>2026-04-04T14:24:42.743Z</time></trkpt><trkpt lat="45.288055" lon="7.63041"><ele>307.0</ele><time>2026-04-04T14:24:43.743Z</time></trkpt><trkpt lat="45.288055" lon="7.63029"><ele>307.0</ele><time>2026-04-04T14:24:44.743Z</time></trkpt><trkpt lat="45.288045" lon="7.6301783"><ele>307.0</ele><time>2026-04-04T14:24:45.743Z</time></trkpt><trkpt lat="45.288015" lon="7.6300683"><ele>307.0</ele><time>2026-04-04T14:24:46.743Z</time></trkpt><trkpt lat="45.2879717" lon="7.6299583"><ele>307.0</ele><time>2026-04-04T14:24:47.744Z</time></trkpt><trkpt lat="45.2879133" lon="7.629855"><ele>307.0</ele><time>2026-04-04T14:24:48.744Z</time></trkpt><trkpt lat="45.2878567" lon="7.6297567"><ele>307.0</ele><time>2026-04-04T14:24:49.743Z</time></trkpt><trkpt lat="45.2877933" lon="7.62966"><ele>307.0</ele><time>2026-04-04T14:24:50.743Z</time></trkpt><trkpt lat="45.28774" lon="7.62956"><ele>307.3333333333333</ele><time>2026-04-04T14:24:51.743Z</time></trkpt><trkpt lat="45.28769" lon="7.6294567"><ele>307.66666666666663</ele><time>2026-04-04T14:24:52.744Z</time></trkpt><trkpt lat="45.2876267" lon="7.6293683"><ele>308.0</ele><time>2026-04-04T14:24:53.743Z</time></trkpt><trkpt lat="45.2875633" lon="7.6292867"><ele>308.3333333333333</ele><time>2026-04-04T14:24:54.743Z</time></trkpt><trkpt lat="45.2875067" lon="7.6291983"><ele>308.6666666666667</ele><time>2026-04-04T14:24:55.743Z</time></trkpt><trkpt lat="45.2874567" lon="7.6291033"><ele>309.0</ele><time>2026-04-04T14:24:56.743Z</time></trkpt><trkpt lat="45.287415" lon="7.6289917"><ele>309.0</ele><time>2026-04-04T14:24:57.744Z</time></trkpt><trkpt lat="45.287375" lon="7.6288933"><ele>309.0</ele><time>2026-04-04T14:24:58.743Z</time></trkpt><trkpt lat="45.28733" lon="7.6288067"><ele>309.0</ele><time>2026-04-04T14:24:59.743Z</time></trkpt><trkpt lat="45.287295" lon="7.62871"><ele>309.0</ele><time>2026-04-04T14:25:00.743Z</time></trkpt><trkpt lat="45.287275" lon="7.6285983"><ele>309.0</ele><time>2026-04-04T14:25:01.743Z</time></trkpt><trkpt lat="45.28727" lon="7.6284683"><ele>309.0</ele><time>2026-04-04T14:25:02.744Z</time></trkpt><trkpt lat="45.287285" lon="7.62834"><ele>309.1666666666667</ele><time>2026-04-04T14:25:03.743Z</time></trkpt><trkpt lat="45.287305" lon="7.62821"><ele>309.3333333333333</ele><time>2026-04-04T14:25:04.744Z</time></trkpt><trkpt lat="45.2873267" lon="7.6280817"><ele>309.5</ele><time>2026-04-04T14:25:05.743Z</time></trkpt><trkpt lat="45.2873433" lon="7.62797"><ele>309.66666666666663</ele><time>2026-04-04T14:25:06.743Z</time></trkpt><trkpt lat="45.2873567" lon="7.6278667"><ele>309.8333333333333</ele><time>2026-04-04T14:25:07.743Z</time></trkpt><trkpt lat="45.2873633" lon="7.6277567"><ele>310.0</ele><time>2026-04-04T14:25:08.744Z</time></trkpt><trkpt lat="45.2873633" lon="7.6276667"><ele>310.16666666666663</ele><time>2026-04-04T14:25:09.743Z</time></trkpt><trkpt lat="45.2873033" lon="7.6275367"><ele>310.3333333333333</ele><time>2026-04-04T14:25:11.744Z</time></trkpt><trkpt lat="45.2872633" lon="7.6274633"><ele>310.5</ele><time>2026-04-04T14:25:12.744Z</time></trkpt><trkpt lat="45.2872267" lon="7.6273833"><ele>310.6666666666667</ele><time>2026-04-04T14:25:13.744Z</time></trkpt><trkpt lat="45.287185" lon="7.6272917"><ele>310.83333333333337</ele><time>2026-04-04T14:25:14.743Z</time></trkpt><trkpt lat="45.2871283" lon="7.6272033"><ele>311.0</ele><time>2026-04-04T14:25:15.743Z</time></trkpt><trkpt lat="45.2870617" lon="7.627125"><ele>311.0</ele><time>2026-04-04T14:25:16.743Z</time></trkpt><trkpt lat="45.2869883" lon="7.6270467"><ele>311.0</ele><time>2026-04-04T14:25:17.743Z</time></trkpt><trkpt lat="45.2869233" lon="7.62696"><ele>311.0</ele><time>2026-04-04T14:25:18.743Z</time></trkpt><trkpt lat="45.2868683" lon="7.6268717"><ele>311.0</ele><time>2026-04-04T14:25:19.744Z</time></trkpt><trkpt lat="45.2868183" lon="7.6267867"><ele>311.0</ele><time>2026-04-04T14:25:20.743Z</time></trkpt><trkpt lat="45.286765" lon="7.6266917"><ele>311.0</ele><time>2026-04-04T14:25:21.743Z</time></trkpt><trkpt lat="45.286705" lon="7.6266067"><ele>311.0</ele><time>2026-04-04T14:25:22.743Z</time></trkpt><trkpt lat="45.2866433" lon="7.6265283"><ele>311.0</ele><time>2026-04-04T14:25:23.743Z</time></trkpt><trkpt lat="45.2865883" lon="7.6264567"><ele>311.0</ele><time>2026-04-04T14:25:24.744Z</time></trkpt><trkpt lat="45.2865417" lon="7.626385"><ele>311.0</ele><time>2026-04-04T14:25:25.743Z</time></trkpt><trkpt lat="45.2864967" lon="7.6263083"><ele>311.0</ele><time>2026-04-04T14:25:26.743Z</time></trkpt><trkpt lat="45.286395" lon="7.62621"><ele>311.0</ele><time>2026-04-04T14:25:28.744Z</time></trkpt><trkpt lat="45.286345" lon="7.626155"><ele>311.1666666666667</ele><time>2026-04-04T14:25:29.743Z</time></trkpt><trkpt lat="45.2863" lon="7.626075"><ele>311.33333333333337</ele><time>2026-04-04T14:25:30.744Z</time></trkpt><trkpt lat="45.28626" lon="7.6259783"><ele>311.5</ele><time>2026-04-04T14:25:31.744Z</time></trkpt><trkpt lat="45.2862233" lon="7.625895"><ele>311.6666666666667</ele><time>2026-04-04T14:25:32.743Z</time></trkpt><trkpt lat="45.2861733" lon="7.6258117"><ele>311.8333333333333</ele><time>2026-04-04T14:25:33.743Z</time></trkpt><trkpt lat="45.286125" lon="7.6257217"><ele>312.0</ele><time>2026-04-04T14:25:34.743Z</time></trkpt><trkpt lat="45.2860733" lon="7.6256433"><ele>312.0</ele><time>2026-04-04T14:25:35.744Z</time></trkpt><trkpt lat="45.28603" lon="7.6255683"><ele>312.0</ele><time>2026-04-04T14:25:36.743Z</time></trkpt><trkpt lat="45.2859817" lon="7.6254933"><ele>312.0</ele><time>2026-04-04T14:25:37.743Z</time></trkpt><trkpt lat="45.2859517" lon="7.6254033"><ele>312.0</ele><time>2026-04-04T14:25:38.743Z</time></trkpt><trkpt lat="45.2859333" lon="7.6253033"><ele>312.0</ele><time>2026-04-04T14:25:39.743Z</time></trkpt><trkpt lat="45.28592" lon="7.6251783"><ele>312.0</ele><time>2026-04-04T14:25:40.743Z</time></trkpt><trkpt lat="45.2859167" lon="7.6250583"><ele>312.4</ele><time>2026-04-04T14:25:41.743Z</time></trkpt><trkpt lat="45.2859217" lon="7.6249417"><ele>312.79999999999995</ele><time>2026-04-04T14:25:42.743Z</time></trkpt><trkpt lat="45.2859383" lon="7.6247833"><ele>313.2</ele><time>2026-04-04T14:25:43.743Z</time></trkpt><trkpt lat="45.2859567" lon="7.624655"><ele>313.59999999999997</ele><time>2026-04-04T14:25:44.743Z</time></trkpt><trkpt lat="45.28597" lon="7.6245183"><ele>314.0</ele><time>2026-04-04T14:25:45.743Z</time></trkpt><trkpt lat="45.2859733" lon="7.6243867"><ele>314.0</ele><time>2026-04-04T14:25:46.744Z</time></trkpt><trkpt lat="45.28596" lon="7.6242683"><ele>314.0</ele><time>2026-04-04T14:25:47.743Z</time></trkpt><trkpt lat="45.285945" lon="7.6241467"><ele>314.0</ele><time>2026-04-04T14:25:48.743Z</time></trkpt><trkpt lat="45.28593" lon="7.62403"><ele>314.0</ele><time>2026-04-04T14:25:49.743Z</time></trkpt><trkpt lat="45.2859183" lon="7.6239133"><ele>314.0</ele><time>2026-04-04T14:25:50.743Z</time></trkpt><trkpt lat="45.28592" lon="7.623805"><ele>314.0</ele><time>2026-04-04T14:25:51.744Z</time></trkpt><trkpt lat="45.2859267" lon="7.6236883"><ele>314.4</ele><time>2026-04-04T14:25:52.744Z</time></trkpt><trkpt lat="45.2859233" lon="7.6235567"><ele>314.79999999999995</ele><time>2026-04-04T14:25:53.743Z</time></trkpt><trkpt lat="45.285915" lon="7.6233867"><ele>315.20000000000005</ele><time>2026-04-04T14:25:54.744Z</time></trkpt><trkpt lat="45.2859033" lon="7.623225"><ele>315.6</ele><time>2026-04-04T14:25:55.743Z</time></trkpt><trkpt lat="45.2858933" lon="7.623075"><ele>316.0</ele><time>2026-04-04T14:25:56.743Z</time></trkpt><trkpt lat="45.2858883" lon="7.6229283"><ele>316.2</ele><time>2026-04-04T14:25:57.743Z</time></trkpt><trkpt lat="45.285895" lon="7.6227783"><ele>316.40000000000003</ele><time>2026-04-04T14:25:58.743Z</time></trkpt><trkpt lat="45.285895" lon="7.622635"><ele>316.6</ele><time>2026-04-04T14:25:59.744Z</time></trkpt><trkpt lat="45.2858917" lon="7.6224933"><ele>316.8</ele><time>2026-04-04T14:26:00.743Z</time></trkpt><trkpt lat="45.2858833" lon="7.6223583"><ele>317.0</ele><time>2026-04-04T14:26:01.744Z</time></trkpt><trkpt lat="45.28587" lon="7.622225"><ele>317.0</ele><time>2026-04-04T14:26:02.743Z</time></trkpt><trkpt lat="45.2858533" lon="7.6220933"><ele>317.0</ele><time>2026-04-04T14:26:03.743Z</time></trkpt><trkpt lat="45.2858333" lon="7.6219517"><ele>317.0</ele><time>2026-04-04T14:26:04.743Z</time></trkpt><trkpt lat="45.28583" lon="7.6218083"><ele>317.0</ele><time>2026-04-04T14:26:05.743Z</time></trkpt><trkpt lat="45.2858333" lon="7.6216683"><ele>317.0</ele><time>2026-04-04T14:26:06.743Z</time></trkpt><trkpt lat="45.28585" lon="7.6215217"><ele>317.2</ele><time>2026-04-04T14:26:07.744Z</time></trkpt><trkpt lat="45.285865" lon="7.621385"><ele>317.4</ele><time>2026-04-04T14:26:08.744Z</time></trkpt><trkpt lat="45.285875" lon="7.6212467"><ele>317.6</ele><time>2026-04-04T14:26:09.743Z</time></trkpt><trkpt lat="45.2858883" lon="7.6211033"><ele>317.8</ele><time>2026-04-04T14:26:10.743Z</time></trkpt><trkpt lat="45.28591" lon="7.620955"><ele>318.0</ele><time>2026-04-04T14:26:11.743Z</time></trkpt><trkpt lat="45.28593" lon="7.6208117"><ele>318.0</ele><time>2026-04-04T14:26:12.744Z</time></trkpt><trkpt lat="45.2859483" lon="7.6206817"><ele>318.0</ele><time>2026-04-04T14:26:13.743Z</time></trkpt><trkpt lat="45.2859667" lon="7.6205517"><ele>318.0</ele><time>2026-04-04T14:26:14.743Z</time></trkpt><trkpt lat="45.2859767" lon="7.6204217"><ele>318.0</ele><time>2026-04-04T14:26:15.743Z</time></trkpt><trkpt lat="45.2859917" lon="7.6203"><ele>318.0</ele><time>2026-04-04T14:26:16.744Z</time></trkpt><trkpt lat="45.2859983" lon="7.62018"><ele>319.0</ele><time>2026-04-04T14:26:17.743Z</time></trkpt><trkpt lat="45.2860067" lon="7.62006"><ele>320.0</ele><time>2026-04-04T14:26:18.744Z</time></trkpt><trkpt lat="45.2860167" lon="7.619945"><ele>321.0</ele><time>2026-04-04T14:26:19.743Z</time></trkpt><trkpt lat="45.28603" lon="7.6198317"><ele>322.0</ele><time>2026-04-04T14:26:20.743Z</time></trkpt><trkpt lat="45.2860467" lon="7.6197267"><ele>323.0</ele><time>2026-04-04T14:26:21.744Z</time></trkpt><trkpt lat="45.2860567" lon="7.6196133"><ele>324.0</ele><time>2026-04-04T14:26:22.743Z</time></trkpt><trkpt lat="45.2860667" lon="7.6194967"><ele>324.42857142857144</ele><time>2026-04-04T14:26:23.743Z</time></trkpt><trkpt lat="45.2860717" lon="7.619385"><ele>324.85714285714283</ele><time>2026-04-04T14:26:24.743Z</time></trkpt><trkpt lat="45.286075" lon="7.61928"><ele>325.2857142857143</ele><time>2026-04-04T14:26:25.744Z</time></trkpt><trkpt lat="45.2860767" lon="7.6191667"><ele>325.7142857142857</ele><time>2026-04-04T14:26:26.743Z</time></trkpt><trkpt lat="45.2860783" lon="7.6190567"><ele>326.14285714285717</ele><time>2026-04-04T14:26:27.744Z</time></trkpt><trkpt lat="45.2860817" lon="7.6189533"><ele>326.57142857142856</ele><time>2026-04-04T14:26:28.744Z</time></trkpt><trkpt lat="45.2860817" lon="7.61886"><ele>327.0</ele><time>2026-04-04T14:26:29.744Z</time></trkpt><trkpt lat="45.28609" lon="7.618765"><ele>327.0</ele><time>2026-04-04T14:26:30.744Z</time></trkpt><trkpt lat="45.286105" lon="7.6186667"><ele>327.0</ele><time>2026-04-04T14:26:31.744Z</time></trkpt><trkpt lat="45.2861283" lon="7.6185783"><ele>327.0</ele><time>2026-04-04T14:26:32.743Z</time></trkpt><trkpt lat="45.2861617" lon="7.6184917"><ele>327.0</ele><time>2026-04-04T14:26:33.743Z</time></trkpt><trkpt lat="45.286195" lon="7.6184083"><ele>327.0</ele><time>2026-04-04T14:26:34.744Z</time></trkpt><trkpt lat="45.2862283" lon="7.6183183"><ele>327.0</ele><time>2026-04-04T14:26:35.744Z</time></trkpt><trkpt lat="45.2862633" lon="7.6182167"><ele>327.0</ele><time>2026-04-04T14:26:36.743Z</time></trkpt><trkpt lat="45.2863" lon="7.6181283"><ele>327.3333333333333</ele><time>2026-04-04T14:26:37.743Z</time></trkpt><trkpt lat="45.286335" lon="7.618035"><ele>327.6666666666667</ele><time>2026-04-04T14:26:38.743Z</time></trkpt><trkpt lat="45.2863633" lon="7.6179467"><ele>328.0</ele><time>2026-04-04T14:26:39.744Z</time></trkpt><trkpt lat="45.286385" lon="7.61786"><ele>328.33333333333337</ele><time>2026-04-04T14:26:40.744Z</time></trkpt><trkpt lat="45.2864317" lon="7.6176967"><ele>328.6666666666667</ele><time>2026-04-04T14:26:42.743Z</time></trkpt><trkpt lat="45.2864633" lon="7.617615"><ele>329.0</ele><time>2026-04-04T14:26:43.743Z</time></trkpt><trkpt lat="45.2865083" lon="7.6175433"><ele>330.33333333333337</ele><time>2026-04-04T14:26:44.743Z</time></trkpt><trkpt lat="45.2865617" lon="7.61749"><ele>331.6666666666667</ele><time>2026-04-04T14:26:45.743Z</time></trkpt><trkpt lat="45.2866417" lon="7.6174167"><ele>333.0</ele><time>2026-04-04T14:26:47.743Z</time></trkpt><trkpt lat="45.2866933" lon="7.6173467"><ele>334.3333333333333</ele><time>2026-04-04T14:26:50.743Z</time></trkpt><trkpt lat="45.2867633" lon="7.6173517"><ele>335.66666666666663</ele><time>2026-04-04T14:26:55.743Z</time></trkpt><trkpt lat="45.2868583" lon="7.617365"><ele>337.0</ele><time>2026-04-04T14:27:23.743Z</time></trkpt><trkpt lat="45.2869467" lon="7.6173967"><ele>337.0</ele><time>2026-04-04T14:27:25.744Z</time></trkpt><trkpt lat="45.28701" lon="7.6173917"><ele>337.0</ele><time>2026-04-04T14:27:27.744Z</time></trkpt><trkpt lat="45.2870867" lon="7.6173483"><ele>337.0</ele><time>2026-04-04T14:27:29.743Z</time></trkpt><trkpt lat="45.2871717" lon="7.617285"><ele>337.0</ele><time>2026-04-04T14:27:31.743Z</time></trkpt><trkpt lat="45.2872633" lon="7.6171967"><ele>337.0</ele><time>2026-04-04T14:27:33.744Z</time></trkpt><trkpt lat="45.2873433" lon="7.6171217"><ele>337.0</ele><time>2026-04-04T14:27:35.743Z</time></trkpt><trkpt lat="45.2873967" lon="7.6170317"><ele>337.0</ele><time>2026-04-04T14:27:37.743Z</time></trkpt><trkpt lat="45.2873433" lon="7.617095"><ele>337.0</ele><time>2026-04-04T14:27:42.743Z</time></trkpt><trkpt lat="45.2872633" lon="7.6171333"><ele>337.0</ele><time>2026-04-04T14:27:44.743Z</time></trkpt><trkpt lat="45.287185" lon="7.61707"><ele>337.0</ele><time>2026-04-04T14:27:46.743Z</time></trkpt><trkpt lat="45.2871417" lon="7.616925"><ele>337.0</ele><time>2026-04-04T14:27:48.743Z</time></trkpt><trkpt lat="45.2872" lon="7.6167767"><ele>339.3333333333333</ele><time>2026-04-04T14:27:50.743Z</time></trkpt><trkpt lat="45.2872867" lon="7.61665"><ele>341.66666666666663</ele><time>2026-04-04T14:27:52.743Z</time></trkpt><trkpt lat="45.287335" lon="7.6165767"><ele>344.0</ele><time>2026-04-04T14:27:53.743Z</time></trkpt><trkpt lat="45.2873817" lon="7.6165"><ele>346.3333333333333</ele><time>2026-04-04T14:27:54.744Z</time></trkpt><trkpt lat="45.2874167" lon="7.6164167"><ele>348.6666666666667</ele><time>2026-04-04T14:27:55.743Z</time></trkpt><trkpt lat="45.287455" lon="7.6163333"><ele>351.0</ele><time>2026-04-04T14:27:56.743Z</time></trkpt><trkpt lat="45.287525" lon="7.61618"><ele>351.5</ele><time>2026-04-04T14:27:58.743Z</time></trkpt><trkpt lat="45.287565" lon="7.6160967"><ele>352.0</ele><time>2026-04-04T14:27:59.743Z</time></trkpt><trkpt lat="45.2876383" lon="7.6159483"><ele>352.5</ele><time>2026-04-04T14:28:01.744Z</time></trkpt><trkpt lat="45.2876867" lon="7.6158717"><ele>353.0</ele><time>2026-04-04T14:28:02.744Z</time></trkpt><trkpt lat="45.2877417" lon="7.6157967"><ele>353.5</ele><time>2026-04-04T14:28:03.743Z</time></trkpt><trkpt lat="45.2878033" lon="7.615725"><ele>354.0</ele><time>2026-04-04T14:28:04.743Z</time></trkpt><trkpt lat="45.28786" lon="7.6156617"><ele>354.0</ele><time>2026-04-04T14:28:05.743Z</time></trkpt><trkpt lat="45.2879183" lon="7.6156"><ele>354.0</ele><time>2026-04-04T14:28:06.743Z</time></trkpt><trkpt lat="45.2879767" lon="7.6155333"><ele>354.0</ele><time>2026-04-04T14:28:07.743Z</time></trkpt><trkpt lat="45.28803" lon="7.61547"><ele>354.0</ele><time>2026-04-04T14:28:08.743Z</time></trkpt><trkpt lat="45.2881217" lon="7.61537"><ele>354.0</ele><time>2026-04-04T14:28:10.743Z</time></trkpt><trkpt lat="45.2882067" lon="7.6152683"><ele>354.0</ele><time>2026-04-04T14:28:12.743Z</time></trkpt><trkpt lat="45.2882983" lon="7.61516"><ele>356.79999999999995</ele><time>2026-04-04T14:28:14.743Z</time></trkpt><trkpt lat="45.2883867" lon="7.61507"><ele>359.59999999999997</ele><time>2026-04-04T14:28:16.742Z</time></trkpt><trkpt lat="45.2885083" lon="7.61501"><ele>362.4</ele><time>2026-04-04T14:28:18.743Z</time></trkpt><trkpt lat="45.2885817" lon="7.6149867"><ele>365.2</ele><time>2026-04-04T14:28:19.742Z</time></trkpt><trkpt lat="45.288655" lon="7.6149733"><ele>368.0</ele><time>2026-04-04T14:28:20.743Z</time></trkpt><trkpt lat="45.2887317" lon="7.614965"><ele>368.0</ele><time>2026-04-04T14:28:21.742Z</time></trkpt><trkpt lat="45.288805" lon="7.614955"><ele>368.0</ele><time>2026-04-04T14:28:22.743Z</time></trkpt><trkpt lat="45.28887" lon="7.61495"><ele>368.0</ele><time>2026-04-04T14:28:23.742Z</time></trkpt><trkpt lat="45.289" lon="7.6149333"><ele>368.0</ele><time>2026-04-04T14:28:25.742Z</time></trkpt><trkpt lat="45.2891133" lon="7.61493"><ele>368.0</ele><time>2026-04-04T14:28:27.743Z</time></trkpt><trkpt lat="45.28919" lon="7.6148983"><ele>369.79999999999995</ele><time>2026-04-04T14:28:29.743Z</time></trkpt><trkpt lat="45.2892733" lon="7.6148317"><ele>371.6</ele><time>2026-04-04T14:28:31.742Z</time></trkpt><trkpt lat="45.28938" lon="7.6147417"><ele>373.4</ele><time>2026-04-04T14:28:33.742Z</time></trkpt><trkpt lat="45.2894767" lon="7.6146583"><ele>375.20000000000005</ele><time>2026-04-04T14:28:35.742Z</time></trkpt><trkpt lat="45.2895567" lon="7.6145483"><ele>377.0</ele><time>2026-04-04T14:28:37.742Z</time></trkpt><trkpt lat="45.2896333" lon="7.6144083"><ele>377.6666666666667</ele><time>2026-04-04T14:28:39.743Z</time></trkpt><trkpt lat="45.2896833" lon="7.6143283"><ele>378.33333333333337</ele><time>2026-04-04T14:28:40.742Z</time></trkpt><trkpt lat="45.2897333" lon="7.6142383"><ele>379.0</ele><time>2026-04-04T14:28:41.742Z</time></trkpt><trkpt lat="45.2897833" lon="7.6141483"><ele>379.6666666666667</ele><time>2026-04-04T14:28:42.743Z</time></trkpt><trkpt lat="45.2898267" lon="7.614065"><ele>380.3333333333333</ele><time>2026-04-04T14:28:43.742Z</time></trkpt><trkpt lat="45.2898733" lon="7.613985"><ele>381.0</ele><time>2026-04-04T14:28:44.742Z</time></trkpt><trkpt lat="45.2899217" lon="7.6139033"><ele>381.4</ele><time>2026-04-04T14:28:45.742Z</time></trkpt><trkpt lat="45.2899633" lon="7.61382"><ele>381.8</ele><time>2026-04-04T14:28:46.742Z</time></trkpt><trkpt lat="45.2899933" lon="7.6137383"><ele>382.2</ele><time>2026-04-04T14:28:47.742Z</time></trkpt><trkpt lat="45.2900417" lon="7.6135783"><ele>382.59999999999997</ele><time>2026-04-04T14:28:49.742Z</time></trkpt><trkpt lat="45.2900867" lon="7.613425"><ele>383.0</ele><time>2026-04-04T14:28:51.742Z</time></trkpt><trkpt lat="45.2901333" lon="7.6132617"><ele>383.42857142857144</ele><time>2026-04-04T14:28:53.743Z</time></trkpt><trkpt lat="45.2901533" lon="7.61317"><ele>383.85714285714283</ele><time>2026-04-04T14:28:54.742Z</time></trkpt><trkpt lat="45.290175" lon="7.61308"><ele>384.28571428571433</ele><time>2026-04-04T14:28:55.742Z</time></trkpt><trkpt lat="45.2901933" lon="7.612985"><ele>384.7142857142857</ele><time>2026-04-04T14:28:56.742Z</time></trkpt><trkpt lat="45.290215" lon="7.6128917"><ele>385.14285714285717</ele><time>2026-04-04T14:28:57.742Z</time></trkpt><trkpt lat="45.290235" lon="7.6127967"><ele>385.5714285714286</ele><time>2026-04-04T14:28:58.742Z</time></trkpt><trkpt lat="45.2902483" lon="7.6127067"><ele>386.0</ele><time>2026-04-04T14:28:59.743Z</time></trkpt><trkpt lat="45.2902683" lon="7.6125583"><ele>386.4</ele><time>2026-04-04T14:29:01.742Z</time></trkpt><trkpt lat="45.29021" lon="7.6125033"><ele>386.8</ele><time>2026-04-04T14:29:04.743Z</time></trkpt><trkpt lat="45.2901217" lon="7.6124833"><ele>387.2</ele><time>2026-04-04T14:29:06.742Z</time></trkpt><trkpt lat="45.2900867" lon="7.612395"><ele>387.59999999999997</ele><time>2026-04-04T14:29:08.743Z</time></trkpt><trkpt lat="45.2901417" lon="7.612205"><ele>388.0</ele><time>2026-04-04T14:29:10.742Z</time></trkpt><trkpt lat="45.29018" lon="7.6120717"><ele>388.33333333333337</ele><time>2026-04-04T14:29:11.742Z</time></trkpt><trkpt lat="45.29022" lon="7.611935"><ele>388.6666666666667</ele><time>2026-04-04T14:29:12.743Z</time></trkpt><trkpt lat="45.29025" lon="7.6118083"><ele>389.0</ele><time>2026-04-04T14:29:13.742Z</time></trkpt><trkpt lat="45.2902783" lon="7.6117067"><ele>389.33333333333337</ele><time>2026-04-04T14:29:14.742Z</time></trkpt><trkpt lat="45.2903" lon="7.6116167"><ele>389.6666666666667</ele><time>2026-04-04T14:29:15.743Z</time></trkpt><trkpt lat="45.29032" lon="7.611525"><ele>390.0</ele><time>2026-04-04T14:29:16.743Z</time></trkpt><trkpt lat="45.2903433" lon="7.6114217"><ele>390.0</ele><time>2026-04-04T14:29:17.742Z</time></trkpt><trkpt lat="45.2903667" lon="7.6113283"><ele>390.0</ele><time>2026-04-04T14:29:18.742Z</time></trkpt><trkpt lat="45.2904133" lon="7.6112067"><ele>390.0</ele><time>2026-04-04T14:29:20.742Z</time></trkpt><trkpt lat="45.2905033" lon="7.6112017"><ele>390.0</ele><time>2026-04-04T14:29:22.742Z</time></trkpt><trkpt lat="45.2906133" lon="7.6111867"><ele>390.0</ele><time>2026-04-04T14:29:24.742Z</time></trkpt><trkpt lat="45.2906867" lon="7.6110967"><ele>390.6666666666667</ele><time>2026-04-04T14:29:26.742Z</time></trkpt><trkpt lat="45.2907733" lon="7.6110517"><ele>391.33333333333337</ele><time>2026-04-04T14:29:28.743Z</time></trkpt><trkpt lat="45.2908417" lon="7.6110683"><ele>392.0</ele><time>2026-04-04T14:29:29.742Z</time></trkpt><trkpt lat="45.2909117" lon="7.61109"><ele>392.6666666666667</ele><time>2026-04-04T14:29:30.742Z</time></trkpt><trkpt lat="45.2909917" lon="7.6110883"><ele>393.33333333333337</ele><time>2026-04-04T14:29:31.742Z</time></trkpt><trkpt lat="45.2910817" lon="7.611085"><ele>394.0</ele><time>2026-04-04T14:29:32.742Z</time></trkpt><trkpt lat="45.2911583" lon="7.6110833"><ele>394.00000000000006</ele><time>2026-04-04T14:29:33.743Z</time></trkpt><trkpt lat="45.2912367" lon="7.6111"><ele>394.0</ele><time>2026-04-04T14:29:34.742Z</time></trkpt><trkpt lat="45.29132" lon="7.611115"><ele>394.0</ele><time>2026-04-04T14:29:35.742Z</time></trkpt><trkpt lat="45.2914083" lon="7.611145"><ele>394.0</ele><time>2026-04-04T14:29:36.742Z</time></trkpt><trkpt lat="45.2914933" lon="7.6111817"><ele>394.00000000000006</ele><time>2026-04-04T14:29:37.742Z</time></trkpt><trkpt lat="45.291555" lon="7.6112083"><ele>394.0</ele><time>2026-04-04T14:29:38.742Z</time></trkpt><trkpt lat="45.2916483" lon="7.6112317"><ele>393.83333333333337</ele><time>2026-04-04T14:29:40.742Z</time></trkpt><trkpt lat="45.2917167" lon="7.6112367"><ele>393.6666666666667</ele><time>2026-04-04T14:29:43.742Z</time></trkpt><trkpt lat="45.2917583" lon="7.6111567"><ele>393.5</ele><time>2026-04-04T14:29:45.743Z</time></trkpt><trkpt lat="45.2918067" lon="7.610985"><ele>393.33333333333337</ele><time>2026-04-04T14:29:47.742Z</time></trkpt><trkpt lat="45.291835" lon="7.6108767"><ele>393.1666666666667</ele><time>2026-04-04T14:29:48.743Z</time></trkpt><trkpt lat="45.291855" lon="7.610775"><ele>393.0</ele><time>2026-04-04T14:29:49.742Z</time></trkpt><trkpt lat="45.2918783" lon="7.61068"><ele>393.4</ele><time>2026-04-04T14:29:50.742Z</time></trkpt><trkpt lat="45.291915" lon="7.61052"><ele>393.79999999999995</ele><time>2026-04-04T14:29:52.742Z</time></trkpt><trkpt lat="45.29196" lon="7.6103817"><ele>394.2</ele><time>2026-04-04T14:29:54.742Z</time></trkpt><trkpt lat="45.2920183" lon="7.610255"><ele>394.6</ele><time>2026-04-04T14:29:56.742Z</time></trkpt><trkpt lat="45.2920483" lon="7.610165"><ele>395.0</ele><time>2026-04-04T14:29:57.742Z</time></trkpt><trkpt lat="45.292075" lon="7.6100567"><ele>394.99999999999994</ele><time>2026-04-04T14:29:58.742Z</time></trkpt><trkpt lat="45.29212" lon="7.6099433"><ele>395.0</ele><time>2026-04-04T14:29:59.742Z</time></trkpt><trkpt lat="45.2921617" lon="7.6098283"><ele>395.0</ele><time>2026-04-04T14:30:00.742Z</time></trkpt><trkpt lat="45.2921983" lon="7.60972"><ele>395.0</ele><time>2026-04-04T14:30:01.742Z</time></trkpt><trkpt lat="45.292235" lon="7.609615"><ele>394.99999999999994</ele><time>2026-04-04T14:30:02.742Z</time></trkpt><trkpt lat="45.2922683" lon="7.6095233"><ele>395.0</ele><time>2026-04-04T14:30:03.742Z</time></trkpt><trkpt lat="45.292295" lon="7.6094383"><ele>395.4</ele><time>2026-04-04T14:30:04.742Z</time></trkpt><trkpt lat="45.2923483" lon="7.6092817"><ele>395.8</ele><time>2026-04-04T14:30:06.742Z</time></trkpt><trkpt lat="45.2923983" lon="7.609135"><ele>396.20000000000005</ele><time>2026-04-04T14:30:08.742Z</time></trkpt><trkpt lat="45.2924367" lon="7.6090433"><ele>396.6</ele><time>2026-04-04T14:30:10.743Z</time></trkpt><trkpt lat="45.292465" lon="7.6089317"><ele>397.0</ele><time>2026-04-04T14:30:24.742Z</time></trkpt><trkpt lat="45.2925117" lon="7.608755"><ele>397.6</ele><time>2026-04-04T14:30:26.742Z</time></trkpt><trkpt lat="45.29254" lon="7.608645"><ele>398.20000000000005</ele><time>2026-04-04T14:30:27.743Z</time></trkpt><trkpt lat="45.292575" lon="7.6085167"><ele>398.8</ele><time>2026-04-04T14:30:28.742Z</time></trkpt><trkpt lat="45.2926083" lon="7.608375"><ele>399.4</ele><time>2026-04-04T14:30:29.742Z</time></trkpt><trkpt lat="45.2926383" lon="7.6082217"><ele>400.0</ele><time>2026-04-04T14:30:30.743Z</time></trkpt><trkpt lat="45.2926667" lon="7.6080617"><ele>400.0</ele><time>2026-04-04T14:30:31.742Z</time></trkpt><trkpt lat="45.2926933" lon="7.6079"><ele>400.0</ele><time>2026-04-04T14:30:32.742Z</time></trkpt><trkpt lat="45.2927183" lon="7.607735"><ele>400.0</ele><time>2026-04-04T14:30:33.743Z</time></trkpt><trkpt lat="45.2927417" lon="7.6075733"><ele>400.0</ele><time>2026-04-04T14:30:34.743Z</time></trkpt><trkpt lat="45.2927567" lon="7.60741"><ele>399.8</ele><time>2026-04-04T14:30:35.742Z</time></trkpt><trkpt lat="45.2927583" lon="7.6072433"><ele>399.6</ele><time>2026-04-04T14:30:36.742Z</time></trkpt><trkpt lat="45.2927567" lon="7.6070833"><ele>399.4</ele><time>2026-04-04T14:30:37.742Z</time></trkpt><trkpt lat="45.2927533" lon="7.6069267"><ele>399.2</ele><time>2026-04-04T14:30:38.742Z</time></trkpt><trkpt lat="45.2927567" lon="7.6067733"><ele>399.0</ele><time>2026-04-04T14:30:39.742Z</time></trkpt><trkpt lat="45.2927733" lon="7.6066117"><ele>399.5</ele><time>2026-04-04T14:30:40.743Z</time></trkpt><trkpt lat="45.292795" lon="7.6064333"><ele>400.0</ele><time>2026-04-04T14:30:41.743Z</time></trkpt><trkpt lat="45.2928267" lon="7.60624"><ele>400.5</ele><time>2026-04-04T14:30:42.742Z</time></trkpt><trkpt lat="45.2928633" lon="7.6060517"><ele>401.0</ele><time>2026-04-04T14:30:43.742Z</time></trkpt><trkpt lat="45.2929017" lon="7.605865"><ele>401.25</ele><time>2026-04-04T14:30:44.742Z</time></trkpt><trkpt lat="45.292935" lon="7.6056883"><ele>401.5</ele><time>2026-04-04T14:30:45.742Z</time></trkpt><trkpt lat="45.2929667" lon="7.6054983"><ele>401.75</ele><time>2026-04-04T14:30:46.742Z</time></trkpt><trkpt lat="45.2930033" lon="7.60531"><ele>402.0</ele><time>2026-04-04T14:30:47.742Z</time></trkpt><trkpt lat="45.2930483" lon="7.6051283"><ele>401.75</ele><time>2026-04-04T14:30:48.742Z</time></trkpt><trkpt lat="45.2930783" lon="7.604935"><ele>401.5</ele><time>2026-04-04T14:30:49.742Z</time></trkpt><trkpt lat="45.293095" lon="7.60473"><ele>401.25</ele><time>2026-04-04T14:30:50.742Z</time></trkpt><trkpt lat="45.2931017" lon="7.60454"><ele>401.0</ele><time>2026-04-04T14:30:51.742Z</time></trkpt><trkpt lat="45.2931" lon="7.6043467"><ele>401.75</ele><time>2026-04-04T14:30:52.742Z</time></trkpt><trkpt lat="45.2930967" lon="7.6041517"><ele>402.5</ele><time>2026-04-04T14:30:53.742Z</time></trkpt><trkpt lat="45.2930917" lon="7.6039533"><ele>403.25</ele><time>2026-04-04T14:30:54.742Z</time></trkpt><trkpt lat="45.29308" lon="7.60376"><ele>404.0</ele><time>2026-04-04T14:30:55.742Z</time></trkpt><trkpt lat="45.29307" lon="7.6035783"><ele>404.75</ele><time>2026-04-04T14:30:56.742Z</time></trkpt><trkpt lat="45.2930633" lon="7.6033983"><ele>405.5</ele><time>2026-04-04T14:30:57.742Z</time></trkpt><trkpt lat="45.293055" lon="7.60323"><ele>406.25</ele><time>2026-04-04T14:30:58.742Z</time></trkpt><trkpt lat="45.2930483" lon="7.6030683"><ele>407.0</ele><time>2026-04-04T14:30:59.743Z</time></trkpt><trkpt lat="45.2930467" lon="7.6029217"><ele>406.99999999999994</ele><time>2026-04-04T14:31:00.742Z</time></trkpt><trkpt lat="45.2930617" lon="7.6028"><ele>407.0</ele><time>2026-04-04T14:31:01.742Z</time></trkpt><trkpt lat="45.2930883" lon="7.6026983"><ele>407.0</ele><time>2026-04-04T14:31:02.742Z</time></trkpt><trkpt lat="45.2931333" lon="7.6026233"><ele>407.0</ele><time>2026-04-04T14:31:03.742Z</time></trkpt><trkpt lat="45.2931983" lon="7.60256"><ele>406.99999999999994</ele><time>2026-04-04T14:31:04.743Z</time></trkpt><trkpt lat="45.2932533" lon="7.60248"><ele>407.0</ele><time>2026-04-04T14:31:05.742Z</time></trkpt><trkpt lat="45.2933083" lon="7.60238"><ele>407.16666666666663</ele><time>2026-04-04T14:31:06.742Z</time></trkpt><trkpt lat="45.29335" lon="7.6022567"><ele>407.3333333333333</ele><time>2026-04-04T14:31:07.743Z</time></trkpt><trkpt lat="45.2933783" lon="7.6021233"><ele>407.5</ele><time>2026-04-04T14:31:08.742Z</time></trkpt><trkpt lat="45.2934067" lon="7.6020033"><ele>407.66666666666663</ele><time>2026-04-04T14:31:09.742Z</time></trkpt><trkpt lat="45.293435" lon="7.6018917"><ele>407.8333333333333</ele><time>2026-04-04T14:31:10.742Z</time></trkpt><trkpt lat="45.29346" lon="7.6017917"><ele>408.0</ele><time>2026-04-04T14:31:11.742Z</time></trkpt><trkpt lat="45.2934833" lon="7.6016883"><ele>408.6666666666667</ele><time>2026-04-04T14:31:12.742Z</time></trkpt><trkpt lat="45.293505" lon="7.6015833"><ele>409.33333333333337</ele><time>2026-04-04T14:31:13.742Z</time></trkpt><trkpt lat="45.293535" lon="7.6014817"><ele>410.0</ele><time>2026-04-04T14:31:14.742Z</time></trkpt><trkpt lat="45.29356" lon="7.60138"><ele>410.6666666666667</ele><time>2026-04-04T14:31:15.743Z</time></trkpt><trkpt lat="45.2935767" lon="7.6012883"><ele>411.33333333333337</ele><time>2026-04-04T14:31:16.742Z</time></trkpt><trkpt lat="45.2935967" lon="7.6011533"><ele>412.0</ele><time>2026-04-04T14:31:18.742Z</time></trkpt><trkpt lat="45.29361" lon="7.601025"><ele>412.40000000000003</ele><time>2026-04-04T14:31:25.742Z</time></trkpt><trkpt lat="45.2936367" lon="7.6008867"><ele>412.8</ele><time>2026-04-04T14:31:28.743Z</time></trkpt><trkpt lat="45.2936617" lon="7.600775"><ele>413.2</ele><time>2026-04-04T14:31:30.743Z</time></trkpt><trkpt lat="45.29368" lon="7.60067"><ele>413.6</ele><time>2026-04-04T14:31:32.742Z</time></trkpt><trkpt lat="45.2936967" lon="7.6005317"><ele>414.0</ele><time>2026-04-04T14:31:34.743Z</time></trkpt><trkpt lat="45.2937367" lon="7.6003533"><ele>414.0</ele><time>2026-04-04T14:31:36.742Z</time></trkpt><trkpt lat="45.2937667" lon="7.6002467"><ele>414.0</ele><time>2026-04-04T14:31:37.743Z</time></trkpt><trkpt lat="45.29381" lon="7.600115"><ele>414.0</ele><time>2026-04-04T14:31:38.743Z</time></trkpt><trkpt lat="45.2938467" lon="7.5999867"><ele>414.0</ele><time>2026-04-04T14:31:39.742Z</time></trkpt><trkpt lat="45.2938783" lon="7.5998617"><ele>414.0</ele><time>2026-04-04T14:31:40.743Z</time></trkpt><trkpt lat="45.2939067" lon="7.59974"><ele>414.0</ele><time>2026-04-04T14:31:41.742Z</time></trkpt><trkpt lat="45.2939217" lon="7.59961"><ele>414.0</ele><time>2026-04-04T14:31:42.742Z</time></trkpt><trkpt lat="45.293935" lon="7.5994717"><ele>414.0</ele><time>2026-04-04T14:31:43.742Z</time></trkpt><trkpt lat="45.2939467" lon="7.599335"><ele>414.0</ele><time>2026-04-04T14:31:44.742Z</time></trkpt><trkpt lat="45.29396" lon="7.5992"><ele>414.0</ele><time>2026-04-04T14:31:45.742Z</time></trkpt><trkpt lat="45.29397" lon="7.599065"><ele>414.4</ele><time>2026-04-04T14:31:46.743Z</time></trkpt><trkpt lat="45.2939767" lon="7.59893"><ele>414.79999999999995</ele><time>2026-04-04T14:31:47.743Z</time></trkpt><trkpt lat="45.2939833" lon="7.59878"><ele>415.20000000000005</ele><time>2026-04-04T14:31:48.743Z</time></trkpt><trkpt lat="45.2939917" lon="7.5986383"><ele>415.6</ele><time>2026-04-04T14:31:49.743Z</time></trkpt><trkpt lat="45.294005" lon="7.5985017"><ele>416.0</ele><time>2026-04-04T14:31:50.742Z</time></trkpt><trkpt lat="45.2940217" lon="7.5983617"><ele>416.0</ele><time>2026-04-04T14:31:51.743Z</time></trkpt><trkpt lat="45.2940433" lon="7.5982267"><ele>416.0</ele><time>2026-04-04T14:31:52.742Z</time></trkpt><trkpt lat="45.2940617" lon="7.5980967"><ele>416.0</ele><time>2026-04-04T14:31:53.742Z</time></trkpt><trkpt lat="45.2940867" lon="7.5979633"><ele>416.0</ele><time>2026-04-04T14:31:54.742Z</time></trkpt><trkpt lat="45.2941133" lon="7.5978367"><ele>416.0</ele><time>2026-04-04T14:31:55.742Z</time></trkpt><trkpt lat="45.2941517" lon="7.5977083"><ele>416.8</ele><time>2026-04-04T14:31:56.742Z</time></trkpt><trkpt lat="45.2941883" lon="7.597575"><ele>417.6</ele><time>2026-04-04T14:31:57.742Z</time></trkpt><trkpt lat="45.29422" lon="7.59744"><ele>418.4</ele><time>2026-04-04T14:31:58.743Z</time></trkpt><trkpt lat="45.2942517" lon="7.59732"><ele>419.2</ele><time>2026-04-04T14:31:59.742Z</time></trkpt><trkpt lat="45.294285" lon="7.59719"><ele>420.0</ele><time>2026-04-04T14:32:00.742Z</time></trkpt><trkpt lat="45.2943283" lon="7.597055"><ele>420.1666666666667</ele><time>2026-04-04T14:32:01.743Z</time></trkpt><trkpt lat="45.2943633" lon="7.5969317"><ele>420.33333333333337</ele><time>2026-04-04T14:32:02.743Z</time></trkpt><trkpt lat="45.2944033" lon="7.5968233"><ele>420.5</ele><time>2026-04-04T14:32:03.742Z</time></trkpt><trkpt lat="45.2944367" lon="7.596715"><ele>420.6666666666667</ele><time>2026-04-04T14:32:04.742Z</time></trkpt><trkpt lat="45.2944667" lon="7.5966083"><ele>420.83333333333337</ele><time>2026-04-04T14:32:05.742Z</time></trkpt><trkpt lat="45.2945" lon="7.5964983"><ele>421.0</ele><time>2026-04-04T14:32:06.742Z</time></trkpt><trkpt lat="45.2945267" lon="7.5963783"><ele>421.0</ele><time>2026-04-04T14:32:07.742Z</time></trkpt><trkpt lat="45.2945633" lon="7.5962567"><ele>421.0</ele><time>2026-04-04T14:32:08.743Z</time></trkpt><trkpt lat="45.294605" lon="7.596145"><ele>421.0</ele><time>2026-04-04T14:32:09.742Z</time></trkpt><trkpt lat="45.29465" lon="7.5960317"><ele>421.0</ele><time>2026-04-04T14:32:10.742Z</time></trkpt><trkpt lat="45.2946883" lon="7.595915"><ele>421.0</ele><time>2026-04-04T14:32:11.742Z</time></trkpt><trkpt lat="45.2947417" lon="7.5958"><ele>421.20000000000005</ele><time>2026-04-04T14:32:12.742Z</time></trkpt><trkpt lat="45.2947917" lon="7.5956867"><ele>421.40000000000003</ele><time>2026-04-04T14:32:13.743Z</time></trkpt><trkpt lat="45.2948433" lon="7.5955733"><ele>421.6</ele><time>2026-04-04T14:32:14.742Z</time></trkpt><trkpt lat="45.2948933" lon="7.5954567"><ele>421.8</ele><time>2026-04-04T14:32:15.742Z</time></trkpt><trkpt lat="45.2949383" lon="7.595355"><ele>422.0</ele><time>2026-04-04T14:32:16.743Z</time></trkpt><trkpt lat="45.2949817" lon="7.595245"><ele>422.0</ele><time>2026-04-04T14:32:17.742Z</time></trkpt><trkpt lat="45.2950217" lon="7.5951367"><ele>422.0</ele><time>2026-04-04T14:32:18.743Z</time></trkpt><trkpt lat="45.2950683" lon="7.5950217"><ele>422.0</ele><time>2026-04-04T14:32:19.742Z</time></trkpt><trkpt lat="45.29511" lon="7.5949083"><ele>422.0</ele><time>2026-04-04T14:32:20.743Z</time></trkpt><trkpt lat="45.2951533" lon="7.5947933"><ele>422.0</ele><time>2026-04-04T14:32:21.742Z</time></trkpt><trkpt lat="45.2951983" lon="7.5946717"><ele>422.0</ele><time>2026-04-04T14:32:22.743Z</time></trkpt><trkpt lat="45.2952367" lon="7.59455"><ele>422.0</ele><time>2026-04-04T14:32:23.742Z</time></trkpt><trkpt lat="45.29529" lon="7.59443"><ele>422.0</ele><time>2026-04-04T14:32:24.743Z</time></trkpt><trkpt lat="45.2953433" lon="7.5943167"><ele>422.0</ele><time>2026-04-04T14:32:25.742Z</time></trkpt><trkpt lat="45.29539" lon="7.5942167"><ele>422.0</ele><time>2026-04-04T14:32:26.743Z</time></trkpt><trkpt lat="45.295435" lon="7.5941083"><ele>422.20000000000005</ele><time>2026-04-04T14:32:27.741Z</time></trkpt><trkpt lat="45.2954867" lon="7.5939933"><ele>422.4</ele><time>2026-04-04T14:32:28.741Z</time></trkpt><trkpt lat="45.2955367" lon="7.5938783"><ele>422.6</ele><time>2026-04-04T14:32:29.742Z</time></trkpt><trkpt lat="45.295585" lon="7.5937583"><ele>422.79999999999995</ele><time>2026-04-04T14:32:30.741Z</time></trkpt><trkpt lat="45.2956267" lon="7.5936383"><ele>423.0</ele><time>2026-04-04T14:32:31.742Z</time></trkpt><trkpt lat="45.295665" lon="7.593535"><ele>423.6666666666667</ele><time>2026-04-04T14:32:32.742Z</time></trkpt><trkpt lat="45.2956983" lon="7.5934433"><ele>424.33333333333337</ele><time>2026-04-04T14:32:33.741Z</time></trkpt><trkpt lat="45.2957333" lon="7.5933633"><ele>425.0</ele><time>2026-04-04T14:32:34.741Z</time></trkpt><trkpt lat="45.295805" lon="7.59326"><ele>425.6666666666667</ele><time>2026-04-04T14:32:36.742Z</time></trkpt><trkpt lat="45.2959133" lon="7.5932767"><ele>426.33333333333337</ele><time>2026-04-04T14:32:38.741Z</time></trkpt><trkpt lat="45.2959817" lon="7.593325"><ele>427.0</ele><time>2026-04-04T14:32:39.741Z</time></trkpt><trkpt lat="45.2960533" lon="7.5933717"><ele>427.00000000000006</ele><time>2026-04-04T14:32:40.742Z</time></trkpt><trkpt lat="45.296125" lon="7.5933867"><ele>427.0</ele><time>2026-04-04T14:32:41.741Z</time></trkpt><trkpt lat="45.296215" lon="7.59329"><ele>427.0</ele><time>2026-04-04T14:32:43.741Z</time></trkpt><trkpt lat="45.29625" lon="7.59318"><ele>427.0</ele><time>2026-04-04T14:32:44.741Z</time></trkpt><trkpt lat="45.296275" lon="7.5930783"><ele>427.00000000000006</ele><time>2026-04-04T14:32:45.741Z</time></trkpt><trkpt lat="45.296305" lon="7.59298"><ele>427.0</ele><time>2026-04-04T14:32:46.742Z</time></trkpt><trkpt lat="45.2963467" lon="7.5928783"><ele>427.20000000000005</ele><time>2026-04-04T14:32:47.741Z</time></trkpt><trkpt lat="45.2964" lon="7.5927767"><ele>427.40000000000003</ele><time>2026-04-04T14:32:48.741Z</time></trkpt><trkpt lat="45.29646" lon="7.5926667"><ele>427.59999999999997</ele><time>2026-04-04T14:32:49.741Z</time></trkpt><trkpt lat="45.296525" lon="7.59255"><ele>427.79999999999995</ele><time>2026-04-04T14:32:50.741Z</time></trkpt><trkpt lat="45.29659" lon="7.5924233"><ele>428.0</ele><time>2026-04-04T14:32:51.742Z</time></trkpt><trkpt lat="45.2966467" lon="7.5922817"><ele>428.75</ele><time>2026-04-04T14:32:52.742Z</time></trkpt><trkpt lat="45.2967" lon="7.5921283"><ele>429.5</ele><time>2026-04-04T14:32:53.741Z</time></trkpt><trkpt lat="45.2967433" lon="7.59198"><ele>430.25</ele><time>2026-04-04T14:32:54.741Z</time></trkpt><trkpt lat="45.2967883" lon="7.5918433"><ele>431.0</ele><time>2026-04-04T14:32:55.742Z</time></trkpt><trkpt lat="45.2968417" lon="7.5917"><ele>431.0</ele><time>2026-04-04T14:32:56.741Z</time></trkpt><trkpt lat="45.2968917" lon="7.5915617"><ele>431.0</ele><time>2026-04-04T14:32:57.741Z</time></trkpt><trkpt lat="45.2969433" lon="7.5914233"><ele>431.0</ele><time>2026-04-04T14:32:58.741Z</time></trkpt><trkpt lat="45.2969983" lon="7.591285"><ele>431.0</ele><time>2026-04-04T14:32:59.741Z</time></trkpt><trkpt lat="45.2970667" lon="7.59114"><ele>431.4</ele><time>2026-04-04T14:33:00.741Z</time></trkpt><trkpt lat="45.2971317" lon="7.591"><ele>431.8</ele><time>2026-04-04T14:33:01.741Z</time></trkpt><trkpt lat="45.2971933" lon="7.5908867"><ele>432.19999999999993</ele><time>2026-04-04T14:33:02.742Z</time></trkpt><trkpt lat="45.29726" lon="7.590775"><ele>432.59999999999997</ele><time>2026-04-04T14:33:03.741Z</time></trkpt><trkpt lat="45.2973217" lon="7.5906633"><ele>433.0</ele><time>2026-04-04T14:33:04.741Z</time></trkpt><trkpt lat="45.2973983" lon="7.5905533"><ele>433.00000000000006</ele><time>2026-04-04T14:33:05.741Z</time></trkpt><trkpt lat="45.297455" lon="7.5904617"><ele>433.0</ele><time>2026-04-04T14:33:06.742Z</time></trkpt><trkpt lat="45.2975" lon="7.5903683"><ele>433.0</ele><time>2026-04-04T14:33:07.741Z</time></trkpt><trkpt lat="45.2975483" lon="7.5902783"><ele>433.0</ele><time>2026-04-04T14:33:08.742Z</time></trkpt><trkpt lat="45.2976017" lon="7.5901867"><ele>433.00000000000006</ele><time>2026-04-04T14:33:09.742Z</time></trkpt><trkpt lat="45.2976533" lon="7.5900883"><ele>433.0</ele><time>2026-04-04T14:33:10.742Z</time></trkpt><trkpt lat="45.29771" lon="7.5899867"><ele>433.00000000000006</ele><time>2026-04-04T14:33:11.741Z</time></trkpt><trkpt lat="45.2977617" lon="7.5898817"><ele>433.0</ele><time>2026-04-04T14:33:12.741Z</time></trkpt><trkpt lat="45.2978217" lon="7.58978"><ele>433.0</ele><time>2026-04-04T14:33:13.741Z</time></trkpt><trkpt lat="45.2978733" lon="7.589685"><ele>433.0</ele><time>2026-04-04T14:33:14.741Z</time></trkpt><trkpt lat="45.2979217" lon="7.5895967"><ele>433.00000000000006</ele><time>2026-04-04T14:33:15.742Z</time></trkpt><trkpt lat="45.29796" lon="7.5895133"><ele>433.0</ele><time>2026-04-04T14:33:16.742Z</time></trkpt><trkpt lat="45.2980133" lon="7.5893933"><ele>432.79999999999995</ele><time>2026-04-04T14:33:18.741Z</time></trkpt><trkpt lat="45.2980783" lon="7.5893083"><ele>432.59999999999997</ele><time>2026-04-04T14:33:20.741Z</time></trkpt><trkpt lat="45.2981567" lon="7.5892367"><ele>432.40000000000003</ele><time>2026-04-04T14:33:22.741Z</time></trkpt><trkpt lat="45.298245" lon="7.5891367"><ele>432.20000000000005</ele><time>2026-04-04T14:33:24.741Z</time></trkpt><trkpt lat="45.2983333" lon="7.5890133"><ele>432.0</ele><time>2026-04-04T14:33:26.741Z</time></trkpt><trkpt lat="45.2983833" lon="7.5889333"><ele>432.0</ele><time>2026-04-04T14:33:27.741Z</time></trkpt><trkpt lat="45.2984317" lon="7.5888517"><ele>432.0</ele><time>2026-04-04T14:33:28.741Z</time></trkpt><trkpt lat="45.2984867" lon="7.5887767"><ele>432.0</ele><time>2026-04-04T14:33:29.742Z</time></trkpt><trkpt lat="45.2985467" lon="7.5887"><ele>432.0</ele><time>2026-04-04T14:33:30.741Z</time></trkpt><trkpt lat="45.2986067" lon="7.58863"><ele>432.0</ele><time>2026-04-04T14:33:31.741Z</time></trkpt><trkpt lat="45.29867" lon="7.5885683"><ele>432.0</ele><time>2026-04-04T14:33:32.741Z</time></trkpt><trkpt lat="45.298735" lon="7.5885233"><ele>431.5</ele><time>2026-04-04T14:33:33.742Z</time></trkpt><trkpt lat="45.298815" lon="7.58849"><ele>431.0</ele><time>2026-04-04T14:33:34.741Z</time></trkpt><trkpt lat="45.2989083" lon="7.5884333"><ele>430.5</ele><time>2026-04-04T14:33:35.742Z</time></trkpt><trkpt lat="45.2989917" lon="7.588375"><ele>430.0</ele><time>2026-04-04T14:33:36.741Z</time></trkpt><trkpt lat="45.2990717" lon="7.5883183"><ele>429.5</ele><time>2026-04-04T14:33:37.741Z</time></trkpt><trkpt lat="45.29914" lon="7.5882617"><ele>429.0</ele><time>2026-04-04T14:33:38.741Z</time></trkpt><trkpt lat="45.2991967" lon="7.58821"><ele>429.0</ele><time>2026-04-04T14:33:39.741Z</time></trkpt><trkpt lat="45.2992467" lon="7.588155"><ele>429.0</ele><time>2026-04-04T14:33:40.741Z</time></trkpt><trkpt lat="45.2993283" lon="7.5880617"><ele>429.0</ele><time>2026-04-04T14:33:42.741Z</time></trkpt><trkpt lat="45.2994" lon="7.5879817"><ele>429.0</ele><time>2026-04-04T14:33:44.741Z</time></trkpt><trkpt lat="45.2994583" lon="7.5879183"><ele>429.0</ele><time>2026-04-04T14:33:46.741Z</time></trkpt><trkpt lat="45.299535" lon="7.5878467"><ele>429.0</ele><time>2026-04-04T14:33:49.742Z</time></trkpt><trkpt lat="45.2996083" lon="7.5877733"><ele>428.6666666666667</ele><time>2026-04-04T14:33:51.741Z</time></trkpt><trkpt lat="45.2997117" lon="7.587665"><ele>428.33333333333337</ele><time>2026-04-04T14:33:53.742Z</time></trkpt><trkpt lat="45.2997767" lon="7.58761"><ele>428.0</ele><time>2026-04-04T14:33:54.741Z</time></trkpt><trkpt lat="45.2998317" lon="7.5875483"><ele>427.6666666666667</ele><time>2026-04-04T14:33:55.741Z</time></trkpt><trkpt lat="45.2998967" lon="7.5874983"><ele>427.33333333333337</ele><time>2026-04-04T14:33:56.742Z</time></trkpt><trkpt lat="45.299965" lon="7.587445"><ele>427.0</ele><time>2026-04-04T14:33:57.741Z</time></trkpt><trkpt lat="45.3000417" lon="7.5873917"><ele>427.0</ele><time>2026-04-04T14:33:58.741Z</time></trkpt><trkpt lat="45.3001317" lon="7.5873217"><ele>427.00000000000006</ele><time>2026-04-04T14:33:59.742Z</time></trkpt><trkpt lat="45.30022" lon="7.5872683"><ele>427.00000000000006</ele><time>2026-04-04T14:34:00.742Z</time></trkpt><trkpt lat="45.300305" lon="7.587205"><ele>427.0</ele><time>2026-04-04T14:34:01.741Z</time></trkpt><trkpt lat="45.3003817" lon="7.58713"><ele>427.0</ele><time>2026-04-04T14:34:02.741Z</time></trkpt><trkpt lat="45.3004617" lon="7.5870617"><ele>426.00000000000006</ele><time>2026-04-04T14:34:03.741Z</time></trkpt><trkpt lat="45.30054" lon="7.5869983"><ele>425.0</ele><time>2026-04-04T14:34:04.741Z</time></trkpt><trkpt lat="45.3006067" lon="7.5869333"><ele>424.0</ele><time>2026-04-04T14:34:05.741Z</time></trkpt><trkpt lat="45.30067" lon="7.5868633"><ele>423.0</ele><time>2026-04-04T14:34:06.741Z</time></trkpt><trkpt lat="45.3007217" lon="7.58679"><ele>422.00000000000006</ele><time>2026-04-04T14:34:07.741Z</time></trkpt><trkpt lat="45.3007933" lon="7.58668"><ele>421.0</ele><time>2026-04-04T14:34:09.741Z</time></trkpt><trkpt lat="45.30085" lon="7.5865867"><ele>421.00000000000006</ele><time>2026-04-04T14:34:11.741Z</time></trkpt><trkpt lat="45.3009133" lon="7.58651"><ele>421.0</ele><time>2026-04-04T14:34:13.741Z</time></trkpt><trkpt lat="45.3009633" lon="7.5864517"><ele>421.0</ele><time>2026-04-04T14:34:14.742Z</time></trkpt><trkpt lat="45.3010167" lon="7.5863917"><ele>421.0</ele><time>2026-04-04T14:34:15.741Z</time></trkpt><trkpt lat="45.3010733" lon="7.5863383"><ele>421.0</ele><time>2026-04-04T14:34:16.742Z</time></trkpt><trkpt lat="45.3011317" lon="7.58628"><ele>421.00000000000006</ele><time>2026-04-04T14:34:17.742Z</time></trkpt><trkpt lat="45.3011983" lon="7.5862267"><ele>421.0</ele><time>2026-04-04T14:34:18.741Z</time></trkpt><trkpt lat="45.301265" lon="7.58616"><ele>420.50000000000006</ele><time>2026-04-04T14:34:19.742Z</time></trkpt><trkpt lat="45.3013383" lon="7.5861"><ele>420.0</ele><time>2026-04-04T14:34:20.742Z</time></trkpt><trkpt lat="45.3014083" lon="7.5860333"><ele>419.5</ele><time>2026-04-04T14:34:21.741Z</time></trkpt><trkpt lat="45.3014733" lon="7.58596"><ele>419.0</ele><time>2026-04-04T14:34:22.742Z</time></trkpt><trkpt lat="45.3015333" lon="7.5858867"><ele>418.50000000000006</ele><time>2026-04-04T14:34:23.742Z</time></trkpt><trkpt lat="45.3015867" lon="7.5858217"><ele>418.0</ele><time>2026-04-04T14:34:24.742Z</time></trkpt><trkpt lat="45.3016767" lon="7.5857183"><ele>418.00000000000006</ele><time>2026-04-04T14:34:26.741Z</time></trkpt><trkpt lat="45.3017417" lon="7.58564"><ele>418.0</ele><time>2026-04-04T14:34:28.742Z</time></trkpt><trkpt lat="45.30181" lon="7.5855683"><ele>418.0</ele><time>2026-04-04T14:34:31.742Z</time></trkpt><trkpt lat="45.3018933" lon="7.5855"><ele>418.0</ele><time>2026-04-04T14:34:33.741Z</time></trkpt><trkpt lat="45.301955" lon="7.5854567"><ele>418.00000000000006</ele><time>2026-04-04T14:34:34.741Z</time></trkpt><trkpt lat="45.3020283" lon="7.5854033"><ele>418.0</ele><time>2026-04-04T14:34:35.741Z</time></trkpt><trkpt lat="45.302095" lon="7.585355"><ele>418.83333333333337</ele><time>2026-04-04T14:34:36.741Z</time></trkpt><trkpt lat="45.3021683" lon="7.5853233"><ele>419.6666666666667</ele><time>2026-04-04T14:34:37.741Z</time></trkpt><trkpt lat="45.3022467" lon="7.5852933"><ele>420.5</ele><time>2026-04-04T14:34:38.741Z</time></trkpt><trkpt lat="45.3023267" lon="7.5852467"><ele>421.33333333333337</ele><time>2026-04-04T14:34:39.742Z</time></trkpt><trkpt lat="45.3024067" lon="7.5851933"><ele>422.1666666666667</ele><time>2026-04-04T14:34:40.742Z</time></trkpt><trkpt lat="45.3024767" lon="7.585135"><ele>423.0</ele><time>2026-04-04T14:34:41.742Z</time></trkpt><trkpt lat="45.30255" lon="7.58509"><ele>423.0</ele><time>2026-04-04T14:34:42.741Z</time></trkpt><trkpt lat="45.30262" lon="7.5850433"><ele>423.0</ele><time>2026-04-04T14:34:43.741Z</time></trkpt><trkpt lat="45.3026817" lon="7.5849917"><ele>423.0</ele><time>2026-04-04T14:34:44.742Z</time></trkpt><trkpt lat="45.30274" lon="7.584935"><ele>423.0</ele><time>2026-04-04T14:34:45.742Z</time></trkpt><trkpt lat="45.3027917" lon="7.58487"><ele>423.0</ele><time>2026-04-04T14:34:46.741Z</time></trkpt><trkpt lat="45.3028733" lon="7.5847417"><ele>423.0</ele><time>2026-04-04T14:34:48.742Z</time></trkpt><trkpt lat="45.3029433" lon="7.5846"><ele>424.5</ele><time>2026-04-04T14:34:50.741Z</time></trkpt><trkpt lat="45.3029767" lon="7.5844433"><ele>426.0</ele><time>2026-04-04T14:34:52.741Z</time></trkpt><trkpt lat="45.302975" lon="7.5843033"><ele>427.5</ele><time>2026-04-04T14:34:54.741Z</time></trkpt><trkpt lat="45.302975" lon="7.5841817"><ele>429.0</ele><time>2026-04-04T14:34:56.741Z</time></trkpt><trkpt lat="45.3029883" lon="7.5840767"><ele>430.5</ele><time>2026-04-04T14:34:58.741Z</time></trkpt><trkpt lat="45.3030117" lon="7.583985"><ele>432.0</ele><time>2026-04-04T14:35:00.742Z</time></trkpt><trkpt lat="45.3030467" lon="7.5839067"><ele>430.3333333333333</ele><time>2026-04-04T14:35:02.741Z</time></trkpt><trkpt lat="45.3030833" lon="7.583825"><ele>428.66666666666663</ele><time>2026-04-04T14:35:04.741Z</time></trkpt><trkpt lat="45.3031133" lon="7.5837283"><ele>427.0</ele><time>2026-04-04T14:35:06.741Z</time></trkpt><trkpt lat="45.3031517" lon="7.5836117"><ele>425.3333333333333</ele><time>2026-04-04T14:35:09.741Z</time></trkpt><trkpt lat="45.303195" lon="7.5835167"><ele>423.66666666666663</ele><time>2026-04-04T14:35:11.742Z</time></trkpt><trkpt lat="45.3032333" lon="7.5834217"><ele>422.0</ele><time>2026-04-04T14:35:13.741Z</time></trkpt><trkpt lat="45.30327" lon="7.5832967"><ele>421.99999999999994</ele><time>2026-04-04T14:35:15.741Z</time></trkpt><trkpt lat="45.3033" lon="7.5832033"><ele>422.0</ele><time>2026-04-04T14:35:17.741Z</time></trkpt><trkpt lat="45.30332" lon="7.5831117"><ele>422.0</ele><time>2026-04-04T14:35:20.741Z</time></trkpt><trkpt lat="45.3033467" lon="7.582995"><ele>422.0</ele><time>2026-04-04T14:35:23.742Z</time></trkpt><trkpt lat="45.3033817" lon="7.58287"><ele>421.99999999999994</ele><time>2026-04-04T14:35:25.741Z</time></trkpt><trkpt lat="45.3034233" lon="7.582715"><ele>422.0</ele><time>2026-04-04T14:35:27.741Z</time></trkpt><trkpt lat="45.30345" lon="7.5826217"><ele>423.14285714285717</ele><time>2026-04-04T14:35:28.741Z</time></trkpt><trkpt lat="45.3034833" lon="7.5825083"><ele>424.28571428571433</ele><time>2026-04-04T14:35:29.741Z</time></trkpt><trkpt lat="45.3035167" lon="7.58241"><ele>425.42857142857144</ele><time>2026-04-04T14:35:30.741Z</time></trkpt><trkpt lat="45.3035467" lon="7.582315"><ele>426.57142857142856</ele><time>2026-04-04T14:35:31.741Z</time></trkpt><trkpt lat="45.3035767" lon="7.582225"><ele>427.7142857142857</ele><time>2026-04-04T14:35:32.741Z</time></trkpt><trkpt lat="45.3036117" lon="7.582145"><ele>428.85714285714283</ele><time>2026-04-04T14:35:33.742Z</time></trkpt><trkpt lat="45.3036517" lon="7.5820683"><ele>430.0</ele><time>2026-04-04T14:35:34.741Z</time></trkpt><trkpt lat="45.3036917" lon="7.5819783"><ele>431.0</ele><time>2026-04-04T14:35:35.741Z</time></trkpt><trkpt lat="45.3037317" lon="7.581895"><ele>432.0</ele><time>2026-04-04T14:35:36.742Z</time></trkpt><trkpt lat="45.3037783" lon="7.5818083"><ele>433.0</ele><time>2026-04-04T14:35:37.742Z</time></trkpt><trkpt lat="45.3038183" lon="7.58171"><ele>434.0</ele><time>2026-04-04T14:35:38.742Z</time></trkpt><trkpt lat="45.3038517" lon="7.581625"><ele>435.0</ele><time>2026-04-04T14:35:39.741Z</time></trkpt><trkpt lat="45.303885" lon="7.5815283"><ele>436.0</ele><time>2026-04-04T14:35:40.741Z</time></trkpt><trkpt lat="45.3039133" lon="7.5814333"><ele>437.0</ele><time>2026-04-04T14:35:41.741Z</time></trkpt><trkpt lat="45.3039467" lon="7.5813383"><ele>434.99999999999994</ele><time>2026-04-04T14:35:42.741Z</time></trkpt><trkpt lat="45.3039767" lon="7.5812317"><ele>433.0</ele><time>2026-04-04T14:35:43.741Z</time></trkpt><trkpt lat="45.30401" lon="7.5811283"><ele>431.0</ele><time>2026-04-04T14:35:44.741Z</time></trkpt><trkpt lat="45.3040433" lon="7.5810317"><ele>429.0</ele><time>2026-04-04T14:35:45.742Z</time></trkpt><trkpt lat="45.3040833" lon="7.5809283"><ele>426.99999999999994</ele><time>2026-04-04T14:35:46.742Z</time></trkpt><trkpt lat="45.30412" lon="7.580825"><ele>425.0</ele><time>2026-04-04T14:35:47.742Z</time></trkpt><trkpt lat="45.3041567" lon="7.58071"><ele>425.0</ele><time>2026-04-04T14:35:48.741Z</time></trkpt><trkpt lat="45.3042" lon="7.58058"><ele>425.0</ele><time>2026-04-04T14:35:49.742Z</time></trkpt><trkpt lat="45.3042467" lon="7.5804583"><ele>425.0</ele><time>2026-04-04T14:35:50.741Z</time></trkpt><trkpt lat="45.3042967" lon="7.58033"><ele>425.0</ele><time>2026-04-04T14:35:51.741Z</time></trkpt><trkpt lat="45.304345" lon="7.58021"><ele>425.0</ele><time>2026-04-04T14:35:52.741Z</time></trkpt><trkpt lat="45.3043933" lon="7.5801033"><ele>426.16666666666663</ele><time>2026-04-04T14:35:53.741Z</time></trkpt><trkpt lat="45.3044417" lon="7.5800083"><ele>427.3333333333333</ele><time>2026-04-04T14:35:54.741Z</time></trkpt><trkpt lat="45.3044883" lon="7.57991"><ele>428.5</ele><time>2026-04-04T14:35:55.741Z</time></trkpt><trkpt lat="45.3045283" lon="7.5798033"><ele>429.66666666666663</ele><time>2026-04-04T14:35:56.741Z</time></trkpt><trkpt lat="45.3045517" lon="7.5796867"><ele>430.8333333333333</ele><time>2026-04-04T14:35:57.741Z</time></trkpt><trkpt lat="45.3045817" lon="7.57957"><ele>432.0</ele><time>2026-04-04T14:35:58.741Z</time></trkpt><trkpt lat="45.30461" lon="7.5794533"><ele>433.0</ele><time>2026-04-04T14:35:59.741Z</time></trkpt><trkpt lat="45.30463" lon="7.5793433"><ele>434.0</ele><time>2026-04-04T14:36:00.742Z</time></trkpt><trkpt lat="45.3046567" lon="7.5792517"><ele>435.0</ele><time>2026-04-04T14:36:01.741Z</time></trkpt><trkpt lat="45.3046783" lon="7.5791167"><ele>436.0</ele><time>2026-04-04T14:36:03.741Z</time></trkpt><trkpt lat="45.3046783" lon="7.5789867"><ele>437.0</ele><time>2026-04-04T14:36:06.741Z</time></trkpt><trkpt lat="45.304725" lon="7.57887"><ele>438.0</ele><time>2026-04-04T14:36:08.741Z</time></trkpt><trkpt lat="45.304775" lon="7.578795"><ele>436.59999999999997</ele><time>2026-04-04T14:36:09.741Z</time></trkpt><trkpt lat="45.3048417" lon="7.5787083"><ele>435.19999999999993</ele><time>2026-04-04T14:36:10.741Z</time></trkpt><trkpt lat="45.3049167" lon="7.5786183"><ele>433.8</ele><time>2026-04-04T14:36:11.742Z</time></trkpt><trkpt lat="45.30499" lon="7.5785217"><ele>432.4</ele><time>2026-04-04T14:36:12.741Z</time></trkpt><trkpt lat="45.3050583" lon="7.5784367"><ele>431.0</ele><time>2026-04-04T14:36:13.741Z</time></trkpt><trkpt lat="45.3051233" lon="7.5783583"><ele>430.99999999999994</ele><time>2026-04-04T14:36:14.741Z</time></trkpt><trkpt lat="45.3051833" lon="7.578285"><ele>431.0</ele><time>2026-04-04T14:36:15.741Z</time></trkpt><trkpt lat="45.3052417" lon="7.578225"><ele>431.0</ele><time>2026-04-04T14:36:16.741Z</time></trkpt><trkpt lat="45.3053083" lon="7.578175"><ele>431.0</ele><time>2026-04-04T14:36:17.741Z</time></trkpt><trkpt lat="45.305385" lon="7.5781467"><ele>430.99999999999994</ele><time>2026-04-04T14:36:18.741Z</time></trkpt><trkpt lat="45.3054667" lon="7.5781533"><ele>431.0</ele><time>2026-04-04T14:36:19.741Z</time></trkpt><trkpt lat="45.3055583" lon="7.578165"><ele>429.3333333333333</ele><time>2026-04-04T14:36:20.741Z</time></trkpt><trkpt lat="45.3056483" lon="7.57818"><ele>427.66666666666663</ele><time>2026-04-04T14:36:21.741Z</time></trkpt><trkpt lat="45.3057317" lon="7.57818"><ele>426.0</ele><time>2026-04-04T14:36:22.741Z</time></trkpt><trkpt lat="45.3058167" lon="7.5781733"><ele>424.33333333333337</ele><time>2026-04-04T14:36:23.742Z</time></trkpt><trkpt lat="45.3059033" lon="7.5781533"><ele>422.6666666666667</ele><time>2026-04-04T14:36:24.741Z</time></trkpt><trkpt lat="45.3059917" lon="7.5781333"><ele>421.0</ele><time>2026-04-04T14:36:25.741Z</time></trkpt><trkpt lat="45.30608" lon="7.5781267"><ele>421.0</ele><time>2026-04-04T14:36:26.741Z</time></trkpt><trkpt lat="45.3061567" lon="7.5781267"><ele>421.0</ele><time>2026-04-04T14:36:27.742Z</time></trkpt><trkpt lat="45.3062267" lon="7.5781317"><ele>421.0</ele><time>2026-04-04T14:36:28.741Z</time></trkpt><trkpt lat="45.3063217" lon="7.578145"><ele>421.0</ele><time>2026-04-04T14:36:30.741Z</time></trkpt><trkpt lat="45.3064217" lon="7.578295"><ele>421.0</ele><time>2026-04-04T14:37:10.74Z</time></trkpt><trkpt lat="45.3064817" lon="7.578225"><ele>420.0</ele><time>2026-04-04T14:37:15.74Z</time></trkpt><trkpt lat="45.30654" lon="7.5780533"><ele>419.0</ele><time>2026-04-04T14:37:17.741Z</time></trkpt><trkpt lat="45.3065733" lon="7.57793"><ele>418.0</ele><time>2026-04-04T14:37:18.74Z</time></trkpt><trkpt lat="45.3066083" lon="7.5777967"><ele>417.0</ele><time>2026-04-04T14:37:19.74Z</time></trkpt><trkpt lat="45.306645" lon="7.577665"><ele>416.0</ele><time>2026-04-04T14:37:20.74Z</time></trkpt><trkpt lat="45.3066833" lon="7.5775383"><ele>416.0</ele><time>2026-04-04T14:37:21.741Z</time></trkpt><trkpt lat="45.3067267" lon="7.5774183"><ele>416.0</ele><time>2026-04-04T14:37:22.74Z</time></trkpt><trkpt lat="45.30677" lon="7.577305"><ele>416.0</ele><time>2026-04-04T14:37:23.74Z</time></trkpt><trkpt lat="45.3068183" lon="7.5771883"><ele>416.0</ele><time>2026-04-04T14:37:24.74Z</time></trkpt><trkpt lat="45.3068667" lon="7.5770667"><ele>416.0</ele><time>2026-04-04T14:37:25.74Z</time></trkpt><trkpt lat="45.306905" lon="7.5769567"><ele>417.0</ele><time>2026-04-04T14:37:26.74Z</time></trkpt><trkpt lat="45.3069367" lon="7.5768517"><ele>418.0</ele><time>2026-04-04T14:37:27.74Z</time></trkpt><trkpt lat="45.3069617" lon="7.57675"><ele>419.0</ele><time>2026-04-04T14:37:28.741Z</time></trkpt><trkpt lat="45.306995" lon="7.57667"><ele>420.0</ele><time>2026-04-04T14:37:29.741Z</time></trkpt><trkpt lat="45.3070667" lon="7.5765617"><ele>421.0</ele><time>2026-04-04T14:37:31.74Z</time></trkpt><trkpt lat="45.3072067" lon="7.5765333"><ele>419.5</ele><time>2026-04-04T14:37:33.741Z</time></trkpt><trkpt lat="45.3073117" lon="7.5765167"><ele>418.0</ele><time>2026-04-04T14:37:34.74Z</time></trkpt><trkpt lat="45.30744" lon="7.5765017"><ele>416.5</ele><time>2026-04-04T14:37:35.74Z</time></trkpt><trkpt lat="45.3075683" lon="7.576485"><ele>415.0</ele><time>2026-04-04T14:37:36.741Z</time></trkpt><trkpt lat="45.3076867" lon="7.5764633"><ele>415.0</ele><time>2026-04-04T14:37:37.74Z</time></trkpt><trkpt lat="45.3078017" lon="7.5764367"><ele>415.0</ele><time>2026-04-04T14:37:38.741Z</time></trkpt><trkpt lat="45.3079267" lon="7.5764067"><ele>415.0</ele><time>2026-04-04T14:37:39.74Z</time></trkpt><trkpt lat="45.30805" lon="7.5763667"><ele>415.0</ele><time>2026-04-04T14:37:40.74Z</time></trkpt><trkpt lat="45.3081383" lon="7.57633"><ele>415.6666666666667</ele><time>2026-04-04T14:37:41.74Z</time></trkpt><trkpt lat="45.3082167" lon="7.5762917"><ele>416.33333333333337</ele><time>2026-04-04T14:37:42.74Z</time></trkpt><trkpt lat="45.3082917" lon="7.5762633"><ele>417.0</ele><time>2026-04-04T14:37:43.74Z</time></trkpt><trkpt lat="45.3083867" lon="7.5762033"><ele>417.66666666666663</ele><time>2026-04-04T14:37:45.74Z</time></trkpt><trkpt lat="45.30847" lon="7.576205"><ele>418.3333333333333</ele><time>2026-04-04T14:37:47.74Z</time></trkpt><trkpt lat="45.3085333" lon="7.5762967"><ele>419.0</ele><time>2026-04-04T14:37:49.74Z</time></trkpt><trkpt lat="45.308595" lon="7.5764733"><ele>419.0</ele><time>2026-04-04T14:37:50.74Z</time></trkpt><trkpt lat="45.30867" lon="7.5766867"><ele>419.0</ele><time>2026-04-04T14:37:51.74Z</time></trkpt><trkpt lat="45.308715" lon="7.576855"><ele>419.0</ele><time>2026-04-04T14:37:52.741Z</time></trkpt><trkpt lat="45.3087633" lon="7.5770083"><ele>419.0</ele><time>2026-04-04T14:37:53.74Z</time></trkpt><trkpt lat="45.3088217" lon="7.5771717"><ele>419.2</ele><time>2026-04-04T14:37:54.74Z</time></trkpt><trkpt lat="45.3088617" lon="7.5773133"><ele>419.4</ele><time>2026-04-04T14:37:55.741Z</time></trkpt><trkpt lat="45.3089117" lon="7.5774617"><ele>419.6</ele><time>2026-04-04T14:37:56.74Z</time></trkpt><trkpt lat="45.3089533" lon="7.5776"><ele>419.8</ele><time>2026-04-04T14:37:57.74Z</time></trkpt><trkpt lat="45.308985" lon="7.577735"><ele>420.0</ele><time>2026-04-04T14:37:58.741Z</time></trkpt><trkpt lat="45.30902" lon="7.577865"><ele>419.6</ele><time>2026-04-04T14:37:59.74Z</time></trkpt><trkpt lat="45.309055" lon="7.5779917"><ele>419.2</ele><time>2026-04-04T14:38:00.74Z</time></trkpt><trkpt lat="45.309095" lon="7.5781133"><ele>418.79999999999995</ele><time>2026-04-04T14:38:01.74Z</time></trkpt><trkpt lat="45.3091333" lon="7.5782333"><ele>418.4</ele><time>2026-04-04T14:38:02.74Z</time></trkpt><trkpt lat="45.3091733" lon="7.5783533"><ele>418.0</ele><time>2026-04-04T14:38:03.74Z</time></trkpt><trkpt lat="45.30921" lon="7.5784733"><ele>418.0</ele><time>2026-04-04T14:38:04.74Z</time></trkpt><trkpt lat="45.3092517" lon="7.57859"><ele>418.0</ele><time>2026-04-04T14:38:05.74Z</time></trkpt><trkpt lat="45.3092917" lon="7.5787083"><ele>418.0</ele><time>2026-04-04T14:38:06.74Z</time></trkpt><trkpt lat="45.30933" lon="7.5788333"><ele>418.0</ele><time>2026-04-04T14:38:07.74Z</time></trkpt><trkpt lat="45.3093667" lon="7.57896"><ele>418.0</ele><time>2026-04-04T14:38:08.741Z</time></trkpt><trkpt lat="45.309405" lon="7.579085"><ele>417.4</ele><time>2026-04-04T14:38:09.741Z</time></trkpt><trkpt lat="45.3094467" lon="7.5792133"><ele>416.79999999999995</ele><time>2026-04-04T14:38:10.74Z</time></trkpt><trkpt lat="45.3094867" lon="7.579345"><ele>416.2</ele><time>2026-04-04T14:38:11.74Z</time></trkpt><trkpt lat="45.3095233" lon="7.5794783"><ele>415.6</ele><time>2026-04-04T14:38:12.741Z</time></trkpt><trkpt lat="45.3095583" lon="7.5796117"><ele>415.0</ele><time>2026-04-04T14:38:13.741Z</time></trkpt><trkpt lat="45.3095967" lon="7.579745"><ele>414.6</ele><time>2026-04-04T14:38:14.74Z</time></trkpt><trkpt lat="45.3096333" lon="7.57988"><ele>414.2</ele><time>2026-04-04T14:38:15.741Z</time></trkpt><trkpt lat="45.3096633" lon="7.58002"><ele>413.79999999999995</ele><time>2026-04-04T14:38:16.74Z</time></trkpt><trkpt lat="45.309685" lon="7.58017"><ele>413.4</ele><time>2026-04-04T14:38:17.74Z</time></trkpt><trkpt lat="45.3096933" lon="7.580325"><ele>413.0</ele><time>2026-04-04T14:38:18.74Z</time></trkpt><trkpt lat="45.3097" lon="7.5805"><ele>412.59999999999997</ele><time>2026-04-04T14:38:19.741Z</time></trkpt><trkpt lat="45.3097133" lon="7.5806567"><ele>412.2</ele><time>2026-04-04T14:38:20.74Z</time></trkpt><trkpt lat="45.3097333" lon="7.58081"><ele>411.8</ele><time>2026-04-04T14:38:21.74Z</time></trkpt><trkpt lat="45.3097567" lon="7.5809617"><ele>411.4</ele><time>2026-04-04T14:38:22.74Z</time></trkpt><trkpt lat="45.3097883" lon="7.5811117"><ele>411.0</ele><time>2026-04-04T14:38:23.74Z</time></trkpt><trkpt lat="45.3098317" lon="7.5812467"><ele>410.6</ele><time>2026-04-04T14:38:24.74Z</time></trkpt><trkpt lat="45.30987" lon="7.5813917"><ele>410.20000000000005</ele><time>2026-04-04T14:38:25.74Z</time></trkpt><trkpt lat="45.3099017" lon="7.5815417"><ele>409.79999999999995</ele><time>2026-04-04T14:38:26.741Z</time></trkpt><trkpt lat="45.3099333" lon="7.5816933"><ele>409.4</ele><time>2026-04-04T14:38:27.74Z</time></trkpt><trkpt lat="45.3099767" lon="7.581835"><ele>409.0</ele><time>2026-04-04T14:38:28.74Z</time></trkpt><trkpt lat="45.31003" lon="7.581975"><ele>408.6</ele><time>2026-04-04T14:38:29.74Z</time></trkpt><trkpt lat="45.3100733" lon="7.5821383"><ele>408.2</ele><time>2026-04-04T14:38:30.74Z</time></trkpt><trkpt lat="45.3101067" lon="7.582295"><ele>407.8</ele><time>2026-04-04T14:38:31.74Z</time></trkpt><trkpt lat="45.3101217" lon="7.5824483"><ele>407.40000000000003</ele><time>2026-04-04T14:38:32.74Z</time></trkpt><trkpt lat="45.3101167" lon="7.5825933"><ele>407.0</ele><time>2026-04-04T14:38:33.74Z</time></trkpt><trkpt lat="45.3101033" lon="7.58272"><ele>406.99999999999994</ele><time>2026-04-04T14:38:34.74Z</time></trkpt><trkpt lat="45.3101033" lon="7.58283"><ele>407.0</ele><time>2026-04-04T14:38:35.74Z</time></trkpt><trkpt lat="45.3101" lon="7.5829267"><ele>407.0</ele><time>2026-04-04T14:38:36.74Z</time></trkpt><trkpt lat="45.3101083" lon="7.5830717"><ele>407.0</ele><time>2026-04-04T14:38:38.741Z</time></trkpt><trkpt lat="45.310195" lon="7.5830783"><ele>406.99999999999994</ele><time>2026-04-04T14:38:41.74Z</time></trkpt><trkpt lat="45.3102583" lon="7.5830467"><ele>407.0</ele><time>2026-04-04T14:38:42.74Z</time></trkpt><trkpt lat="45.3103533" lon="7.5830133"><ele>406.6</ele><time>2026-04-04T14:38:43.74Z</time></trkpt><trkpt lat="45.3104633" lon="7.5829817"><ele>406.20000000000005</ele><time>2026-04-04T14:38:44.74Z</time></trkpt><trkpt lat="45.3105833" lon="7.582955"><ele>405.8</ele><time>2026-04-04T14:38:45.74Z</time></trkpt><trkpt lat="45.3106917" lon="7.58292"><ele>405.4</ele><time>2026-04-04T14:38:46.741Z</time></trkpt><trkpt lat="45.3107867" lon="7.5828967"><ele>405.0</ele><time>2026-04-04T14:38:47.74Z</time></trkpt><trkpt lat="45.3108767" lon="7.5828717"><ele>406.0</ele><time>2026-04-04T14:38:48.74Z</time></trkpt><trkpt lat="45.310965" lon="7.5828533"><ele>407.0</ele><time>2026-04-04T14:38:49.741Z</time></trkpt><trkpt lat="45.3110517" lon="7.5828283"><ele>408.0</ele><time>2026-04-04T14:38:50.74Z</time></trkpt><trkpt lat="45.31114" lon="7.5828067"><ele>409.0</ele><time>2026-04-04T14:38:51.74Z</time></trkpt><trkpt lat="45.3112333" lon="7.5827817"><ele>410.0</ele><time>2026-04-04T14:38:52.74Z</time></trkpt><trkpt lat="45.3113183" lon="7.58276"><ele>411.0</ele><time>2026-04-04T14:38:53.741Z</time></trkpt><trkpt lat="45.3114" lon="7.582735"><ele>411.6</ele><time>2026-04-04T14:38:54.74Z</time></trkpt><trkpt lat="45.3114633" lon="7.5827433"><ele>412.20000000000005</ele><time>2026-04-04T14:38:55.74Z</time></trkpt><trkpt lat="45.3115517" lon="7.5828433"><ele>412.79999999999995</ele><time>2026-04-04T14:38:57.74Z</time></trkpt><trkpt lat="45.3115833" lon="7.582945"><ele>413.4</ele><time>2026-04-04T14:38:58.741Z</time></trkpt><trkpt lat="45.3116133" lon="7.5830767"><ele>414.0</ele><time>2026-04-04T14:38:59.74Z</time></trkpt><trkpt lat="45.3116533" lon="7.5832183"><ele>414.0</ele><time>2026-04-04T14:39:00.74Z</time></trkpt><trkpt lat="45.3116883" lon="7.583365"><ele>414.0</ele><time>2026-04-04T14:39:01.74Z</time></trkpt><trkpt lat="45.3117033" lon="7.5835"><ele>414.0</ele><time>2026-04-04T14:39:02.741Z</time></trkpt><trkpt lat="45.3117117" lon="7.58363"><ele>414.0</ele><time>2026-04-04T14:39:03.74Z</time></trkpt><trkpt lat="45.3117117" lon="7.5837533"><ele>414.0</ele><time>2026-04-04T14:39:04.741Z</time></trkpt><trkpt lat="45.31171" lon="7.5838633"><ele>413.8333333333333</ele><time>2026-04-04T14:39:05.74Z</time></trkpt><trkpt lat="45.311705" lon="7.58398"><ele>413.66666666666663</ele><time>2026-04-04T14:39:06.74Z</time></trkpt><trkpt lat="45.3116917" lon="7.5840967"><ele>413.5</ele><time>2026-04-04T14:39:07.74Z</time></trkpt><trkpt lat="45.3116767" lon="7.5842167"><ele>413.3333333333333</ele><time>2026-04-04T14:39:08.741Z</time></trkpt><trkpt lat="45.3116617" lon="7.5843317"><ele>413.16666666666663</ele><time>2026-04-04T14:39:09.741Z</time></trkpt><trkpt lat="45.31164" lon="7.5844383"><ele>413.0</ele><time>2026-04-04T14:39:10.74Z</time></trkpt><trkpt lat="45.3116183" lon="7.5845333"><ele>412.99999999999994</ele><time>2026-04-04T14:39:11.74Z</time></trkpt><trkpt lat="45.3115883" lon="7.5846283"><ele>413.0</ele><time>2026-04-04T14:39:12.74Z</time></trkpt><trkpt lat="45.3115683" lon="7.5847267"><ele>413.0</ele><time>2026-04-04T14:39:13.741Z</time></trkpt><trkpt lat="45.3115433" lon="7.5848283"><ele>413.0</ele><time>2026-04-04T14:39:14.74Z</time></trkpt><trkpt lat="45.3115183" lon="7.58493"><ele>412.99999999999994</ele><time>2026-04-04T14:39:15.74Z</time></trkpt><trkpt lat="45.3115017" lon="7.5850383"><ele>413.0</ele><time>2026-04-04T14:39:16.74Z</time></trkpt><trkpt lat="45.3114967" lon="7.585145"><ele>412.99999999999994</ele><time>2026-04-04T14:39:17.741Z</time></trkpt><trkpt lat="45.3115067" lon="7.585265"><ele>413.0</ele><time>2026-04-04T14:39:18.741Z</time></trkpt><trkpt lat="45.3115217" lon="7.5853883"><ele>413.0</ele><time>2026-04-04T14:39:19.741Z</time></trkpt><trkpt lat="45.311535" lon="7.585515"><ele>413.0</ele><time>2026-04-04T14:39:20.74Z</time></trkpt><trkpt lat="45.31155" lon="7.58564"><ele>412.99999999999994</ele><time>2026-04-04T14:39:21.74Z</time></trkpt><trkpt lat="45.3115717" lon="7.5857483"><ele>413.0</ele><time>2026-04-04T14:39:22.741Z</time></trkpt><trkpt lat="45.311595" lon="7.5858733"><ele>412.8333333333333</ele><time>2026-04-04T14:39:23.74Z</time></trkpt><trkpt lat="45.3116083" lon="7.5859933"><ele>412.66666666666663</ele><time>2026-04-04T14:39:24.741Z</time></trkpt><trkpt lat="45.3116167" lon="7.5861183"><ele>412.5</ele><time>2026-04-04T14:39:25.74Z</time></trkpt><trkpt lat="45.3116267" lon="7.5862467"><ele>412.33333333333337</ele><time>2026-04-04T14:39:26.74Z</time></trkpt><trkpt lat="45.3116317" lon="7.5863783"><ele>412.1666666666667</ele><time>2026-04-04T14:39:27.74Z</time></trkpt><trkpt lat="45.3116317" lon="7.5865033"><ele>412.0</ele><time>2026-04-04T14:39:28.74Z</time></trkpt><trkpt lat="45.3116233" lon="7.5866217"><ele>411.83333333333337</ele><time>2026-04-04T14:39:29.74Z</time></trkpt><trkpt lat="45.3116133" lon="7.5867333"><ele>411.6666666666667</ele><time>2026-04-04T14:39:30.74Z</time></trkpt><trkpt lat="45.3115967" lon="7.5868383"><ele>411.5</ele><time>2026-04-04T14:39:31.74Z</time></trkpt><trkpt lat="45.31158" lon="7.5869283"><ele>411.33333333333337</ele><time>2026-04-04T14:39:32.74Z</time></trkpt><trkpt lat="45.3115667" lon="7.58706"><ele>411.1666666666667</ele><time>2026-04-04T14:39:34.74Z</time></trkpt><trkpt lat="45.3116333" lon="7.5871183"><ele>411.0</ele><time>2026-04-04T14:39:36.741Z</time></trkpt><trkpt lat="45.3116967" lon="7.5871483"><ele>410.5</ele><time>2026-04-04T14:39:37.74Z</time></trkpt><trkpt lat="45.3117617" lon="7.5871917"><ele>410.0</ele><time>2026-04-04T14:39:38.74Z</time></trkpt><trkpt lat="45.3118183" lon="7.587245"><ele>409.5</ele><time>2026-04-04T14:39:39.741Z</time></trkpt><trkpt lat="45.3118717" lon="7.5873017"><ele>409.0</ele><time>2026-04-04T14:39:40.741Z</time></trkpt><trkpt lat="45.3119183" lon="7.5873883"><ele>408.5</ele><time>2026-04-04T14:39:41.741Z</time></trkpt><trkpt lat="45.3119633" lon="7.5874883"><ele>408.0</ele><time>2026-04-04T14:39:42.74Z</time></trkpt><trkpt lat="45.3120133" lon="7.5876383"><ele>408.0</ele><time>2026-04-04T14:39:44.74Z</time></trkpt><trkpt lat="45.3120633" lon="7.58776"><ele>408.0</ele><time>2026-04-04T14:39:46.741Z</time></trkpt><trkpt lat="45.3121017" lon="7.58785"><ele>408.0</ele><time>2026-04-04T14:39:49.74Z</time></trkpt><trkpt lat="45.31211" lon="7.5879533"><ele>408.0</ele><time>2026-04-04T14:39:52.74Z</time></trkpt><trkpt lat="45.312105" lon="7.5880667"><ele>408.0</ele><time>2026-04-04T14:39:54.74Z</time></trkpt><trkpt lat="45.3120633" lon="7.588195"><ele>408.0</ele><time>2026-04-04T14:39:56.74Z</time></trkpt><trkpt lat="45.31203" lon="7.5883233"><ele>407.2</ele><time>2026-04-04T14:39:58.74Z</time></trkpt><trkpt lat="45.312005" lon="7.588465"><ele>406.4</ele><time>2026-04-04T14:40:00.74Z</time></trkpt><trkpt lat="45.3120117" lon="7.5885833"><ele>405.59999999999997</ele><time>2026-04-04T14:40:02.74Z</time></trkpt><trkpt lat="45.3120517" lon="7.588715"><ele>404.79999999999995</ele><time>2026-04-04T14:40:04.741Z</time></trkpt><trkpt lat="45.31209" lon="7.58885"><ele>404.0</ele><time>2026-04-04T14:40:06.741Z</time></trkpt><trkpt lat="45.3121233" lon="7.589"><ele>403.79999999999995</ele><time>2026-04-04T14:40:08.74Z</time></trkpt><trkpt lat="45.3121467" lon="7.589155"><ele>403.59999999999997</ele><time>2026-04-04T14:40:10.74Z</time></trkpt><trkpt lat="45.3121517" lon="7.5893"><ele>403.4</ele><time>2026-04-04T14:40:12.74Z</time></trkpt><trkpt lat="45.31217" lon="7.5894383"><ele>403.2</ele><time>2026-04-04T14:40:14.741Z</time></trkpt><trkpt lat="45.312175" lon="7.58962"><ele>403.0</ele><time>2026-04-04T14:40:16.741Z</time></trkpt><trkpt lat="45.3121983" lon="7.5897367"><ele>402.83333333333337</ele><time>2026-04-04T14:40:17.741Z</time></trkpt><trkpt lat="45.312225" lon="7.589855"><ele>402.6666666666667</ele><time>2026-04-04T14:40:18.741Z</time></trkpt><trkpt lat="45.31225" lon="7.5899767"><ele>402.5</ele><time>2026-04-04T14:40:19.74Z</time></trkpt><trkpt lat="45.31227" lon="7.5900883"><ele>402.33333333333337</ele><time>2026-04-04T14:40:20.74Z</time></trkpt><trkpt lat="45.3122767" lon="7.5901967"><ele>402.1666666666667</ele><time>2026-04-04T14:40:21.74Z</time></trkpt><trkpt lat="45.31227" lon="7.59031"><ele>402.0</ele><time>2026-04-04T14:40:22.74Z</time></trkpt><trkpt lat="45.31225" lon="7.590435"><ele>402.0</ele><time>2026-04-04T14:40:23.74Z</time></trkpt><trkpt lat="45.3122417" lon="7.5905667"><ele>402.0</ele><time>2026-04-04T14:40:24.741Z</time></trkpt><trkpt lat="45.31224" lon="7.5906967"><ele>402.0</ele><time>2026-04-04T14:40:25.741Z</time></trkpt><trkpt lat="45.3122317" lon="7.5908117"><ele>402.0</ele><time>2026-04-04T14:40:26.74Z</time></trkpt><trkpt lat="45.3122217" lon="7.5909183"><ele>402.0</ele><time>2026-04-04T14:40:27.74Z</time></trkpt><trkpt lat="45.3122167" lon="7.59101"><ele>402.0</ele><time>2026-04-04T14:40:28.74Z</time></trkpt><trkpt lat="45.312205" lon="7.5911733"><ele>401.3333333333333</ele><time>2026-04-04T14:40:30.74Z</time></trkpt><trkpt lat="45.3122033" lon="7.5913233"><ele>400.66666666666663</ele><time>2026-04-04T14:40:32.74Z</time></trkpt><trkpt lat="45.312215" lon="7.59145"><ele>400.0</ele><time>2026-04-04T14:40:34.74Z</time></trkpt><trkpt lat="45.3122383" lon="7.5915617"><ele>399.3333333333333</ele><time>2026-04-04T14:40:36.74Z</time></trkpt><trkpt lat="45.3122433" lon="7.591685"><ele>398.66666666666663</ele><time>2026-04-04T14:40:38.74Z</time></trkpt><trkpt lat="45.31223" lon="7.59179"><ele>398.0</ele><time>2026-04-04T14:40:40.74Z</time></trkpt><trkpt lat="45.3122333" lon="7.5919117"><ele>397.99999999999994</ele><time>2026-04-04T14:40:43.74Z</time></trkpt><trkpt lat="45.31223" lon="7.5920317"><ele>398.0</ele><time>2026-04-04T14:40:45.74Z</time></trkpt><trkpt lat="45.31225" lon="7.5921367"><ele>398.0</ele><time>2026-04-04T14:40:47.74Z</time></trkpt><trkpt lat="45.31226" lon="7.59226"><ele>398.0</ele><time>2026-04-04T14:41:17.739Z</time></trkpt><trkpt lat="45.312305" lon="7.5921833"><ele>397.99999999999994</ele><time>2026-04-04T14:41:20.74Z</time></trkpt><trkpt lat="45.3123717" lon="7.592065"><ele>398.0</ele><time>2026-04-04T14:41:22.74Z</time></trkpt><trkpt lat="45.312435" lon="7.5919233"><ele>398.0</ele><time>2026-04-04T14:41:24.739Z</time></trkpt><trkpt lat="45.3124767" lon="7.5917733"><ele>398.0</ele><time>2026-04-04T14:41:26.74Z</time></trkpt><trkpt lat="45.3125233" lon="7.5916683"><ele>398.0</ele><time>2026-04-04T14:41:28.74Z</time></trkpt><trkpt lat="45.31259" lon="7.5915833"><ele>398.0</ele><time>2026-04-04T14:41:30.739Z</time></trkpt><trkpt lat="45.31268" lon="7.59149"><ele>398.0</ele><time>2026-04-04T14:41:32.739Z</time></trkpt><trkpt lat="45.3127667" lon="7.5913967"><ele>398.0</ele><time>2026-04-04T14:41:34.739Z</time></trkpt><trkpt lat="45.3128183" lon="7.5913333"><ele>398.0</ele><time>2026-04-04T14:41:35.739Z</time></trkpt><trkpt lat="45.31294" lon="7.5912483"><ele>398.0</ele><time>2026-04-04T14:41:37.74Z</time></trkpt><trkpt lat="45.31301" lon="7.5912283"><ele>398.0</ele><time>2026-04-04T14:41:38.739Z</time></trkpt><trkpt lat="45.313115" lon="7.5912117"><ele>398.0</ele><time>2026-04-04T14:41:40.739Z</time></trkpt><trkpt lat="45.3132" lon="7.5911917"><ele>399.0</ele><time>2026-04-04T14:41:42.739Z</time></trkpt><trkpt lat="45.3132933" lon="7.5912267"><ele>400.0</ele><time>2026-04-04T14:41:44.739Z</time></trkpt><trkpt lat="45.31336" lon="7.5912917"><ele>401.0</ele><time>2026-04-04T14:41:46.739Z</time></trkpt><trkpt lat="45.3133883" lon="7.5914233"><ele>402.0</ele><time>2026-04-04T14:41:48.739Z</time></trkpt><trkpt lat="45.31341" lon="7.5916083"><ele>403.0</ele><time>2026-04-04T14:41:50.739Z</time></trkpt><trkpt lat="45.3134217" lon="7.59173"><ele>403.00000000000006</ele><time>2026-04-04T14:41:51.739Z</time></trkpt><trkpt lat="45.3134333" lon="7.5918683"><ele>403.0</ele><time>2026-04-04T14:41:52.74Z</time></trkpt><trkpt lat="45.3134417" lon="7.5919867"><ele>403.0</ele><time>2026-04-04T14:41:53.739Z</time></trkpt><trkpt lat="45.3134333" lon="7.5921383"><ele>403.0</ele><time>2026-04-04T14:41:55.74Z</time></trkpt><trkpt lat="45.3134317" lon="7.592235"><ele>403.00000000000006</ele><time>2026-04-04T14:41:57.74Z</time></trkpt><trkpt lat="45.31343" lon="7.59236"><ele>403.0</ele><time>2026-04-04T14:41:59.739Z</time></trkpt><trkpt lat="45.3134183" lon="7.5925317"><ele>402.79999999999995</ele><time>2026-04-04T14:42:01.739Z</time></trkpt><trkpt lat="45.3134033" lon="7.592705"><ele>402.6</ele><time>2026-04-04T14:42:03.739Z</time></trkpt><trkpt lat="45.313405" lon="7.592855"><ele>402.4</ele><time>2026-04-04T14:42:05.74Z</time></trkpt><trkpt lat="45.3134317" lon="7.59297"><ele>402.20000000000005</ele><time>2026-04-04T14:42:07.739Z</time></trkpt><trkpt lat="45.3135" lon="7.59305"><ele>402.0</ele><time>2026-04-04T14:42:09.74Z</time></trkpt><trkpt lat="45.31355" lon="7.5931267"><ele>402.0</ele><time>2026-04-04T14:42:11.739Z</time></trkpt><trkpt lat="45.313585" lon="7.5932117"><ele>402.0</ele><time>2026-04-04T14:42:13.74Z</time></trkpt><trkpt lat="45.31364" lon="7.5933033"><ele>402.0</ele><time>2026-04-04T14:42:15.739Z</time></trkpt><trkpt lat="45.3136833" lon="7.5934167"><ele>402.0</ele><time>2026-04-04T14:42:17.74Z</time></trkpt><trkpt lat="45.3137117" lon="7.59355"><ele>402.0</ele><time>2026-04-04T14:42:19.739Z</time></trkpt><trkpt lat="45.31374" lon="7.59369"><ele>402.0</ele><time>2026-04-04T14:42:21.739Z</time></trkpt><trkpt lat="45.3137817" lon="7.593835"><ele>401.0</ele><time>2026-04-04T14:42:23.739Z</time></trkpt><trkpt lat="45.31379" lon="7.5939933"><ele>400.0</ele><time>2026-04-04T14:42:25.739Z</time></trkpt><trkpt lat="45.3138033" lon="7.594165"><ele>399.0</ele><time>2026-04-04T14:42:27.74Z</time></trkpt><trkpt lat="45.313825" lon="7.5943367"><ele>398.0</ele><time>2026-04-04T14:42:29.739Z</time></trkpt><trkpt lat="45.3138517" lon="7.5944317"><ele>397.0</ele><time>2026-04-04T14:42:30.74Z</time></trkpt><trkpt lat="45.31391" lon="7.5945533"><ele>400.83333333333337</ele><time>2026-04-04T14:42:32.739Z</time></trkpt><trkpt lat="45.3139783" lon="7.5946233"><ele>404.6666666666667</ele><time>2026-04-04T14:42:34.739Z</time></trkpt><trkpt lat="45.3140583" lon="7.5946717"><ele>408.5</ele><time>2026-04-04T14:42:36.739Z</time></trkpt><trkpt lat="45.3141367" lon="7.5946867"><ele>412.33333333333337</ele><time>2026-04-04T14:42:38.739Z</time></trkpt><trkpt lat="45.3142217" lon="7.5946517"><ele>416.1666666666667</ele><time>2026-04-04T14:42:41.74Z</time></trkpt><trkpt lat="45.3142983" lon="7.5945833"><ele>420.0</ele><time>2026-04-04T14:42:43.739Z</time></trkpt><trkpt lat="45.3143683" lon="7.5945167"><ele>421.5</ele><time>2026-04-04T14:42:45.739Z</time></trkpt><trkpt lat="45.31444" lon="7.5944383"><ele>423.0</ele><time>2026-04-04T14:42:47.739Z</time></trkpt><trkpt lat="45.3145233" lon="7.59442"><ele>424.5</ele><time>2026-04-04T14:42:52.74Z</time></trkpt><trkpt lat="45.31459" lon="7.5943433"><ele>426.0</ele><time>2026-04-04T14:42:54.739Z</time></trkpt><trkpt lat="45.3146867" lon="7.5942533"><ele>427.5</ele><time>2026-04-04T14:42:56.739Z</time></trkpt><trkpt lat="45.3147333" lon="7.5941867"><ele>429.0</ele><time>2026-04-04T14:42:57.739Z</time></trkpt><trkpt lat="45.3147767" lon="7.5941067"><ele>429.0</ele><time>2026-04-04T14:42:58.739Z</time></trkpt><trkpt lat="45.3148167" lon="7.5940367"><ele>429.0</ele><time>2026-04-04T14:42:59.739Z</time></trkpt><trkpt lat="45.3148733" lon="7.59393"><ele>429.0</ele><time>2026-04-04T14:43:01.739Z</time></trkpt><trkpt lat="45.3148" lon="7.5940317"><ele>429.0</ele><time>2026-04-04T14:43:08.739Z</time></trkpt><trkpt lat="45.3147033" lon="7.5941"><ele>429.0</ele><time>2026-04-04T14:43:10.739Z</time></trkpt><trkpt lat="45.3146017" lon="7.5941233"><ele>429.0</ele><time>2026-04-04T14:43:12.74Z</time></trkpt><trkpt lat="45.3145417" lon="7.5940933"><ele>429.0</ele><time>2026-04-04T14:43:14.739Z</time></trkpt><trkpt lat="45.3145633" lon="7.594005"><ele>429.0</ele><time>2026-04-04T14:43:17.74Z</time></trkpt><trkpt lat="45.3145933" lon="7.5938817"><ele>429.0</ele><time>2026-04-04T14:43:19.74Z</time></trkpt><trkpt lat="45.314605" lon="7.593725"><ele>429.0</ele><time>2026-04-04T14:43:21.739Z</time></trkpt><trkpt lat="45.3146367" lon="7.5935583"><ele>429.5</ele><time>2026-04-04T14:43:23.739Z</time></trkpt><trkpt lat="45.3146567" lon="7.5934533"><ele>430.0</ele><time>2026-04-04T14:43:24.74Z</time></trkpt><trkpt lat="45.3146783" lon="7.593345"><ele>430.5</ele><time>2026-04-04T14:43:25.74Z</time></trkpt><trkpt lat="45.314705" lon="7.5932367"><ele>431.0</ele><time>2026-04-04T14:43:26.739Z</time></trkpt><trkpt lat="45.3147267" lon="7.5931233"><ele>431.5</ele><time>2026-04-04T14:43:27.739Z</time></trkpt><trkpt lat="45.31476" lon="7.5930167"><ele>432.0</ele><time>2026-04-04T14:43:28.739Z</time></trkpt><trkpt lat="45.3148017" lon="7.5929283"><ele>434.5</ele><time>2026-04-04T14:43:29.739Z</time></trkpt><trkpt lat="45.3148367" lon="7.5928467"><ele>437.0</ele><time>2026-04-04T14:43:30.739Z</time></trkpt><trkpt lat="45.31488" lon="7.592775"><ele>439.5</ele><time>2026-04-04T14:43:31.739Z</time></trkpt><trkpt lat="45.3149467" lon="7.5926267"><ele>442.0</ele><time>2026-04-04T14:43:33.739Z</time></trkpt><trkpt lat="45.31496" lon="7.5925317"><ele>444.5</ele><time>2026-04-04T14:43:34.739Z</time></trkpt><trkpt lat="45.3149633" lon="7.5924267"><ele>447.0</ele><time>2026-04-04T14:43:35.739Z</time></trkpt><trkpt lat="45.314975" lon="7.59227"><ele>448.1428571428571</ele><time>2026-04-04T14:43:37.739Z</time></trkpt><trkpt lat="45.315" lon="7.5921783"><ele>449.2857142857143</ele><time>2026-04-04T14:43:39.739Z</time></trkpt><trkpt lat="45.3150633" lon="7.5921767"><ele>450.42857142857144</ele><time>2026-04-04T14:43:43.739Z</time></trkpt><trkpt lat="45.3151017" lon="7.592265"><ele>451.57142857142856</ele><time>2026-04-04T14:43:45.739Z</time></trkpt><trkpt lat="45.3151467" lon="7.5923517"><ele>452.7142857142857</ele><time>2026-04-04T14:43:47.739Z</time></trkpt><trkpt lat="45.3152083" lon="7.5924283"><ele>453.85714285714283</ele><time>2026-04-04T14:43:50.739Z</time></trkpt><trkpt lat="45.3152283" lon="7.5925367"><ele>455.0</ele><time>2026-04-04T14:44:42.739Z</time></trkpt><trkpt lat="45.315305" lon="7.5925567"><ele>455.0</ele><time>2026-04-04T14:44:44.739Z</time></trkpt><trkpt lat="45.3153867" lon="7.5925617"><ele>455.0</ele><time>2026-04-04T14:44:46.74Z</time></trkpt><trkpt lat="45.3154817" lon="7.5925717"><ele>455.0</ele><time>2026-04-04T14:44:48.739Z</time></trkpt><trkpt lat="45.3155717" lon="7.5925733"><ele>455.0</ele><time>2026-04-04T14:44:50.74Z</time></trkpt><trkpt lat="45.3156683" lon="7.592595"><ele>455.0</ele><time>2026-04-04T14:44:52.739Z</time></trkpt><trkpt lat="45.3157583" lon="7.592625"><ele>457.4</ele><time>2026-04-04T14:44:54.739Z</time></trkpt><trkpt lat="45.315835" lon="7.592645"><ele>459.8</ele><time>2026-04-04T14:44:56.74Z</time></trkpt><trkpt lat="45.3159083" lon="7.5926433"><ele>462.20000000000005</ele><time>2026-04-04T14:44:58.739Z</time></trkpt><trkpt lat="45.3160183" lon="7.5926383"><ele>464.6</ele><time>2026-04-04T14:45:00.738Z</time></trkpt><trkpt lat="45.316145" lon="7.5926233"><ele>467.0</ele><time>2026-04-04T14:45:02.738Z</time></trkpt><trkpt lat="45.3162583" lon="7.59262"><ele>467.0</ele><time>2026-04-04T14:45:04.739Z</time></trkpt><trkpt lat="45.31634" lon="7.59258"><ele>467.00000000000006</ele><time>2026-04-04T14:45:06.738Z</time></trkpt><trkpt lat="45.3164267" lon="7.5925417"><ele>467.00000000000006</ele><time>2026-04-04T14:45:08.739Z</time></trkpt><trkpt lat="45.3165283" lon="7.5924733"><ele>467.0</ele><time>2026-04-04T14:45:10.738Z</time></trkpt><trkpt lat="45.316615" lon="7.5923983"><ele>467.0</ele><time>2026-04-04T14:45:12.738Z</time></trkpt><trkpt lat="45.316685" lon="7.5923167"><ele>467.3333333333333</ele><time>2026-04-04T14:45:14.739Z</time></trkpt><trkpt lat="45.3167533" lon="7.59226"><ele>467.66666666666663</ele><time>2026-04-04T14:45:16.739Z</time></trkpt><trkpt lat="45.31682" lon="7.59224"><ele>468.0</ele><time>2026-04-04T14:45:18.738Z</time></trkpt><trkpt lat="45.3168983" lon="7.592275"><ele>468.33333333333337</ele><time>2026-04-04T14:45:21.739Z</time></trkpt><trkpt lat="45.3169783" lon="7.5923033"><ele>468.6666666666667</ele><time>2026-04-04T14:45:23.739Z</time></trkpt><trkpt lat="45.31706" lon="7.5923067"><ele>469.0</ele><time>2026-04-04T14:45:25.739Z</time></trkpt><trkpt lat="45.3171333" lon="7.5923217"><ele>469.00000000000006</ele><time>2026-04-04T14:45:27.738Z</time></trkpt><trkpt lat="45.317205" lon="7.5923283"><ele>469.0</ele><time>2026-04-04T14:45:29.738Z</time></trkpt><trkpt lat="45.3172933" lon="7.5923117"><ele>469.0</ele><time>2026-04-04T14:45:32.739Z</time></trkpt><trkpt lat="45.3173583" lon="7.5922933"><ele>469.0</ele><time>2026-04-04T14:45:34.738Z</time></trkpt><trkpt lat="45.317435" lon="7.5922867"><ele>469.00000000000006</ele><time>2026-04-04T14:45:36.738Z</time></trkpt><trkpt lat="45.3175283" lon="7.5923083"><ele>469.0</ele><time>2026-04-04T14:45:38.738Z</time></trkpt><trkpt lat="45.3176033" lon="7.5923467"><ele>470.33333333333337</ele><time>2026-04-04T14:45:40.739Z</time></trkpt><trkpt lat="45.31764" lon="7.5924233"><ele>471.6666666666667</ele><time>2026-04-04T14:45:43.738Z</time></trkpt><trkpt lat="45.317665" lon="7.5925367"><ele>473.0</ele><time>2026-04-04T14:45:48.738Z</time></trkpt><trkpt lat="45.3175933" lon="7.5924933"><ele>474.33333333333337</ele><time>2026-04-04T14:45:52.738Z</time></trkpt><trkpt lat="45.3175233" lon="7.5924367"><ele>475.6666666666667</ele><time>2026-04-04T14:45:54.738Z</time></trkpt><trkpt lat="45.3174483" lon="7.5924133"><ele>477.0</ele><time>2026-04-04T14:45:56.738Z</time></trkpt><trkpt lat="45.3173583" lon="7.5924033"><ele>477.0</ele><time>2026-04-04T14:45:58.738Z</time></trkpt><trkpt lat="45.31726" lon="7.5923733"><ele>477.00000000000006</ele><time>2026-04-04T14:46:00.738Z</time></trkpt><trkpt lat="45.3171783" lon="7.5922933"><ele>477.00000000000006</ele><time>2026-04-04T14:46:02.738Z</time></trkpt><trkpt lat="45.3171133" lon="7.5921933"><ele>477.0</ele><time>2026-04-04T14:46:04.738Z</time></trkpt><trkpt lat="45.3170533" lon="7.5921"><ele>477.0</ele><time>2026-04-04T14:46:06.738Z</time></trkpt><trkpt lat="45.3169917" lon="7.5920317"><ele>480.20000000000005</ele><time>2026-04-04T14:46:08.738Z</time></trkpt><trkpt lat="45.3169033" lon="7.5919883"><ele>483.40000000000003</ele><time>2026-04-04T14:46:10.739Z</time></trkpt><trkpt lat="45.3168233" lon="7.5919567"><ele>486.59999999999997</ele><time>2026-04-04T14:46:12.738Z</time></trkpt><trkpt lat="45.3167183" lon="7.5919133"><ele>489.79999999999995</ele><time>2026-04-04T14:46:14.738Z</time></trkpt><trkpt lat="45.3166083" lon="7.5919033"><ele>493.0</ele><time>2026-04-04T14:46:16.738Z</time></trkpt><trkpt lat="45.316545" lon="7.5918967"><ele>493.0</ele><time>2026-04-04T14:46:17.739Z</time></trkpt><trkpt lat="45.316435" lon="7.5918867"><ele>492.99999999999994</ele><time>2026-04-04T14:46:19.739Z</time></trkpt><trkpt lat="45.316345" lon="7.5918533"><ele>492.99999999999994</ele><time>2026-04-04T14:46:21.739Z</time></trkpt><trkpt lat="45.3162717" lon="7.59181"><ele>493.0</ele><time>2026-04-04T14:46:23.738Z</time></trkpt><trkpt lat="45.3162067" lon="7.5916883"><ele>493.0</ele><time>2026-04-04T14:46:25.739Z</time></trkpt><trkpt lat="45.3161817" lon="7.59157"><ele>493.00000000000006</ele><time>2026-04-04T14:46:27.738Z</time></trkpt><trkpt lat="45.3162383" lon="7.5914683"><ele>493.0</ele><time>2026-04-04T14:46:30.738Z</time></trkpt><trkpt lat="45.316335" lon="7.5914433"><ele>493.0</ele><time>2026-04-04T14:46:33.738Z</time></trkpt><trkpt lat="45.31641" lon="7.5914117"><ele>493.0</ele><time>2026-04-04T14:46:35.738Z</time></trkpt><trkpt lat="45.3164633" lon="7.5913467"><ele>493.00000000000006</ele><time>2026-04-04T14:46:37.739Z</time></trkpt><trkpt lat="45.3165167" lon="7.5912817"><ele>493.0</ele><time>2026-04-04T14:46:39.738Z</time></trkpt><trkpt lat="45.3165767" lon="7.59123"><ele>493.83333333333337</ele><time>2026-04-04T14:46:41.739Z</time></trkpt><trkpt lat="45.3166617" lon="7.59117"><ele>494.6666666666667</ele><time>2026-04-04T14:46:43.738Z</time></trkpt><trkpt lat="45.3167717" lon="7.591125"><ele>495.5</ele><time>2026-04-04T14:46:45.738Z</time></trkpt><trkpt lat="45.3168383" lon="7.591105"><ele>496.33333333333337</ele><time>2026-04-04T14:46:46.739Z</time></trkpt><trkpt lat="45.3169117" lon="7.5910933"><ele>497.1666666666667</ele><time>2026-04-04T14:46:47.738Z</time></trkpt><trkpt lat="45.31698" lon="7.591085"><ele>498.0</ele><time>2026-04-04T14:46:48.739Z</time></trkpt><trkpt lat="45.3171067" lon="7.59106"><ele>498.0</ele><time>2026-04-04T14:46:50.738Z</time></trkpt><trkpt lat="45.317175" lon="7.59106"><ele>497.99999999999994</ele><time>2026-04-04T14:46:51.739Z</time></trkpt><trkpt lat="45.3172917" lon="7.5910717"><ele>497.99999999999994</ele><time>2026-04-04T14:46:53.739Z</time></trkpt><trkpt lat="45.3173983" lon="7.5910883"><ele>498.0</ele><time>2026-04-04T14:46:55.739Z</time></trkpt><trkpt lat="45.3175067" lon="7.59111"><ele>498.0</ele><time>2026-04-04T14:46:57.738Z</time></trkpt><trkpt lat="45.3176383" lon="7.5911367"><ele>498.3333333333333</ele><time>2026-04-04T14:46:59.738Z</time></trkpt><trkpt lat="45.31771" lon="7.5911467"><ele>498.66666666666663</ele><time>2026-04-04T14:47:00.738Z</time></trkpt><trkpt lat="45.317785" lon="7.5911533"><ele>499.0</ele><time>2026-04-04T14:47:01.739Z</time></trkpt><trkpt lat="45.3178533" lon="7.591165"><ele>499.3333333333333</ele><time>2026-04-04T14:47:02.738Z</time></trkpt><trkpt lat="45.3179617" lon="7.591195"><ele>499.66666666666663</ele><time>2026-04-04T14:47:04.739Z</time></trkpt><trkpt lat="45.3180467" lon="7.5912183"><ele>500.0</ele><time>2026-04-04T14:47:06.738Z</time></trkpt><trkpt lat="45.3181383" lon="7.59124"><ele>502.4</ele><time>2026-04-04T14:47:08.738Z</time></trkpt><trkpt lat="45.3182233" lon="7.5912683"><ele>504.8</ele><time>2026-04-04T14:47:10.738Z</time></trkpt><trkpt lat="45.318305" lon="7.5912667"><ele>507.20000000000005</ele><time>2026-04-04T14:47:12.739Z</time></trkpt><trkpt lat="45.3183833" lon="7.591245"><ele>509.6</ele><time>2026-04-04T14:47:14.739Z</time></trkpt><trkpt lat="45.318475" lon="7.5911917"><ele>512.0</ele><time>2026-04-04T14:47:16.738Z</time></trkpt><trkpt lat="45.3185817" lon="7.59112"><ele>512.0</ele><time>2026-04-04T14:47:18.738Z</time></trkpt><trkpt lat="45.318645" lon="7.5910867"><ele>512.0</ele><time>2026-04-04T14:47:19.738Z</time></trkpt><trkpt lat="45.318755" lon="7.5910467"><ele>512.0</ele><time>2026-04-04T14:47:21.738Z</time></trkpt><trkpt lat="45.3188683" lon="7.591035"><ele>512.0</ele><time>2026-04-04T14:47:23.738Z</time></trkpt><trkpt lat="45.31897" lon="7.5910167"><ele>512.0</ele><time>2026-04-04T14:47:25.738Z</time></trkpt><trkpt lat="45.31906" lon="7.5909983"><ele>515.4</ele><time>2026-04-04T14:47:27.738Z</time></trkpt><trkpt lat="45.31916" lon="7.5909633"><ele>518.8000000000001</ele><time>2026-04-04T14:47:29.739Z</time></trkpt><trkpt lat="45.3192633" lon="7.5909383"><ele>522.2</ele><time>2026-04-04T14:47:31.739Z</time></trkpt><trkpt lat="45.3193567" lon="7.5909217"><ele>525.6</ele><time>2026-04-04T14:47:33.738Z</time></trkpt><trkpt lat="45.319455" lon="7.5908833"><ele>529.0</ele><time>2026-04-04T14:47:35.738Z</time></trkpt><trkpt lat="45.3195333" lon="7.5908433"><ele>529.0</ele><time>2026-04-04T14:47:37.738Z</time></trkpt><trkpt lat="45.3196033" lon="7.5908417"><ele>529.0</ele><time>2026-04-04T14:47:39.738Z</time></trkpt><trkpt lat="45.3196817" lon="7.5908083"><ele>529.0</ele><time>2026-04-04T14:47:41.738Z</time></trkpt><trkpt lat="45.31976" lon="7.5907917"><ele>529.0</ele><time>2026-04-04T14:47:43.738Z</time></trkpt><trkpt lat="45.3198533" lon="7.5907817"><ele>529.0</ele><time>2026-04-04T14:47:45.738Z</time></trkpt><trkpt lat="45.3199333" lon="7.5907567"><ele>529.0</ele><time>2026-04-04T14:47:47.738Z</time></trkpt><trkpt lat="45.32" lon="7.5907483"><ele>532.1666666666667</ele><time>2026-04-04T14:47:49.739Z</time></trkpt><trkpt lat="45.3201133" lon="7.5907583"><ele>535.3333333333334</ele><time>2026-04-04T14:48:12.739Z</time></trkpt><trkpt lat="45.3201883" lon="7.5907867"><ele>538.5</ele><time>2026-04-04T14:48:14.738Z</time></trkpt><trkpt lat="45.3202683" lon="7.5908283"><ele>541.6666666666666</ele><time>2026-04-04T14:48:16.738Z</time></trkpt><trkpt lat="45.3203433" lon="7.59088"><ele>544.8333333333333</ele><time>2026-04-04T14:48:18.738Z</time></trkpt><trkpt lat="45.3203983" lon="7.5909767"><ele>548.0</ele><time>2026-04-04T14:48:21.738Z</time></trkpt><trkpt lat="45.3204617" lon="7.5910467"><ele>548.0</ele><time>2026-04-04T14:48:23.739Z</time></trkpt><trkpt lat="45.3205467" lon="7.5910917"><ele>548.0</ele><time>2026-04-04T14:48:25.738Z</time></trkpt><trkpt lat="45.3206167" lon="7.5911383"><ele>548.0</ele><time>2026-04-04T14:48:27.738Z</time></trkpt><trkpt lat="45.3206967" lon="7.5912283"><ele>548.0</ele><time>2026-04-04T14:48:29.738Z</time></trkpt><trkpt lat="45.3207617" lon="7.5913017"><ele>548.0</ele><time>2026-04-04T14:48:31.738Z</time></trkpt><trkpt lat="45.3208333" lon="7.5913333"><ele>548.0</ele><time>2026-04-04T14:48:33.738Z</time></trkpt><trkpt lat="45.320935" lon="7.5913517"><ele>550.1999999999999</ele><time>2026-04-04T14:48:36.738Z</time></trkpt><trkpt lat="45.3210133" lon="7.5914683"><ele>552.4</ele><time>2026-04-04T14:48:38.739Z</time></trkpt><trkpt lat="45.32107" lon="7.5915633"><ele>554.5999999999999</ele><time>2026-04-04T14:48:40.738Z</time></trkpt><trkpt lat="45.32116" lon="7.5917"><ele>556.8</ele><time>2026-04-04T14:48:42.738Z</time></trkpt><trkpt lat="45.3212217" lon="7.5917783"><ele>559.0</ele><time>2026-04-04T14:48:44.738Z</time></trkpt><trkpt lat="45.321305" lon="7.5918483"><ele>559.0</ele><time>2026-04-04T14:48:47.738Z</time></trkpt><trkpt lat="45.32137" lon="7.59189"><ele>559.0</ele><time>2026-04-04T14:48:49.738Z</time></trkpt><trkpt lat="45.3214383" lon="7.5919267"><ele>559.0</ele><time>2026-04-04T14:48:51.738Z</time></trkpt><trkpt lat="45.32153" lon="7.5919633"><ele>559.0</ele><time>2026-04-04T14:48:53.738Z</time></trkpt><trkpt lat="45.32162" lon="7.591985"><ele>559.0</ele><time>2026-04-04T14:48:55.738Z</time></trkpt><trkpt lat="45.3217117" lon="7.592015"><ele>559.0</ele><time>2026-04-04T14:48:57.738Z</time></trkpt><trkpt lat="45.3218117" lon="7.5920667"><ele>556.2</ele><time>2026-04-04T14:48:59.739Z</time></trkpt><trkpt lat="45.3219183" lon="7.5921417"><ele>553.4</ele><time>2026-04-04T14:49:01.739Z</time></trkpt><trkpt lat="45.3219983" lon="7.592245"><ele>550.6</ele><time>2026-04-04T14:49:03.738Z</time></trkpt><trkpt lat="45.322045" lon="7.592385"><ele>547.8</ele><time>2026-04-04T14:49:05.738Z</time></trkpt><trkpt lat="45.3220667" lon="7.59254"><ele>545.0</ele><time>2026-04-04T14:49:07.739Z</time></trkpt><trkpt lat="45.3220717" lon="7.5926367"><ele>545.0</ele><time>2026-04-04T14:49:08.738Z</time></trkpt><trkpt lat="45.32207" lon="7.5927383"><ele>545.0</ele><time>2026-04-04T14:49:09.738Z</time></trkpt><trkpt lat="45.3220367" lon="7.5929083"><ele>545.0</ele><time>2026-04-04T14:49:11.737Z</time></trkpt><trkpt lat="45.3220133" lon="7.593"><ele>545.0</ele><time>2026-04-04T14:49:12.737Z</time></trkpt><trkpt lat="45.3219683" lon="7.5931617"><ele>545.0</ele><time>2026-04-04T14:49:14.738Z</time></trkpt><trkpt lat="45.32195" lon="7.5932483"><ele>542.2857142857143</ele><time>2026-04-04T14:49:15.737Z</time></trkpt><trkpt lat="45.3219333" lon="7.5933367"><ele>539.5714285714287</ele><time>2026-04-04T14:49:16.737Z</time></trkpt><trkpt lat="45.32191" lon="7.59343"><ele>536.8571428571429</ele><time>2026-04-04T14:49:17.737Z</time></trkpt><trkpt lat="45.321895" lon="7.5935217"><ele>534.1428571428571</ele><time>2026-04-04T14:49:18.737Z</time></trkpt><trkpt lat="45.3218883" lon="7.593615"><ele>531.4285714285713</ele><time>2026-04-04T14:49:19.738Z</time></trkpt><trkpt lat="45.32189" lon="7.5937133"><ele>528.7142857142857</ele><time>2026-04-04T14:49:20.737Z</time></trkpt><trkpt lat="45.3218917" lon="7.593805"><ele>526.0</ele><time>2026-04-04T14:49:21.738Z</time></trkpt><trkpt lat="45.321895" lon="7.593895"><ele>523.2</ele><time>2026-04-04T14:49:22.738Z</time></trkpt><trkpt lat="45.321905" lon="7.59407"><ele>520.4000000000001</ele><time>2026-04-04T14:49:24.737Z</time></trkpt><trkpt lat="45.3218983" lon="7.5941667"><ele>517.6</ele><time>2026-04-04T14:49:25.738Z</time></trkpt><trkpt lat="45.3218917" lon="7.5942617"><ele>514.8000000000001</ele><time>2026-04-04T14:49:26.738Z</time></trkpt><trkpt lat="45.3219" lon="7.5944183"><ele>512.0</ele><time>2026-04-04T14:49:28.738Z</time></trkpt><trkpt lat="45.3219167" lon="7.5945533"><ele>510.71428571428567</ele><time>2026-04-04T14:49:30.737Z</time></trkpt><trkpt lat="45.321945" lon="7.5946617"><ele>509.4285714285714</ele><time>2026-04-04T14:49:32.737Z</time></trkpt><trkpt lat="45.3219917" lon="7.5947283"><ele>508.1428571428571</ele><time>2026-04-04T14:49:34.737Z</time></trkpt><trkpt lat="45.3220617" lon="7.5947483"><ele>506.8571428571429</ele><time>2026-04-04T14:49:36.738Z</time></trkpt><trkpt lat="45.32215" lon="7.5947567"><ele>505.5714285714286</ele><time>2026-04-04T14:49:39.737Z</time></trkpt><trkpt lat="45.32221" lon="7.5947983"><ele>504.28571428571433</ele><time>2026-04-04T14:49:41.737Z</time></trkpt><trkpt lat="45.32227" lon="7.5948467"><ele>503.0</ele><time>2026-04-04T14:49:43.737Z</time></trkpt><trkpt lat="45.322325" lon="7.5949283"><ele>502.2</ele><time>2026-04-04T14:49:45.737Z</time></trkpt><trkpt lat="45.3223733" lon="7.5950333"><ele>501.4</ele><time>2026-04-04T14:49:47.738Z</time></trkpt><trkpt lat="45.3224067" lon="7.5951967"><ele>500.59999999999997</ele><time>2026-04-04T14:49:49.737Z</time></trkpt><trkpt lat="45.322425" lon="7.5953"><ele>499.79999999999995</ele><time>2026-04-04T14:49:50.737Z</time></trkpt><trkpt lat="45.3224583" lon="7.59541"><ele>499.0</ele><time>2026-04-04T14:49:52.737Z</time></trkpt><trkpt lat="45.32243" lon="7.59555"><ele>498.33333333333337</ele><time>2026-04-04T14:50:06.737Z</time></trkpt><trkpt lat="45.322475" lon="7.5956283"><ele>497.6666666666667</ele><time>2026-04-04T14:50:09.737Z</time></trkpt><trkpt lat="45.322475" lon="7.59576"><ele>497.0</ele><time>2026-04-04T14:50:12.737Z</time></trkpt><trkpt lat="45.3224683" lon="7.5958767"><ele>496.33333333333337</ele><time>2026-04-04T14:50:15.738Z</time></trkpt><trkpt lat="45.32246" lon="7.5959733"><ele>495.6666666666667</ele><time>2026-04-04T14:50:18.737Z</time></trkpt><trkpt lat="45.3224467" lon="7.5960833"><ele>495.0</ele><time>2026-04-04T14:50:21.737Z</time></trkpt><trkpt lat="45.3224383" lon="7.5962017"><ele>495.0</ele><time>2026-04-04T14:50:23.737Z</time></trkpt><trkpt lat="45.3224383" lon="7.5963033"><ele>495.0</ele><time>2026-04-04T14:50:27.737Z</time></trkpt><trkpt lat="45.3223383" lon="7.5963033"><ele>495.0</ele><time>2026-04-04T14:50:38.737Z</time></trkpt><trkpt lat="45.3223183" lon="7.5961517"><ele>495.0</ele><time>2026-04-04T14:51:43.738Z</time></trkpt><trkpt lat="45.3223222" lon="7.5962665"><ele>495.0</ele><time>2026-04-04T14:54:55.737Z</time></trkpt><trkpt lat="45.32233" lon="7.5961768"><ele>495.0</ele><time>2026-04-04T14:59:58.735Z</time></trkpt><trkpt lat="45.3223238" lon="7.5960365"><ele>495.0</ele><time>2026-04-04T15:02:12.735Z</time></trkpt><trkpt lat="45.322331" lon="7.595928"><ele>495.0</ele><time>2026-04-04T15:02:14.734Z</time></trkpt><trkpt lat="45.3223313" lon="7.595822"><ele>495.0</ele><time>2026-04-04T15:02:16.734Z</time></trkpt><trkpt lat="45.3223448" lon="7.5956897"><ele>495.0</ele><time>2026-04-04T15:02:18.734Z</time></trkpt><trkpt lat="45.3223453" lon="7.5955318"><ele>495.0</ele><time>2026-04-04T15:02:20.735Z</time></trkpt><trkpt lat="45.3223498" lon="7.595396"><ele>495.6666666666667</ele><time>2026-04-04T15:02:22.734Z</time></trkpt><trkpt lat="45.3223412" lon="7.5952955"><ele>496.33333333333337</ele><time>2026-04-04T15:02:24.734Z</time></trkpt><trkpt lat="45.3223333" lon="7.5951883"><ele>497.0</ele><time>2026-04-04T15:02:26.734Z</time></trkpt><trkpt lat="45.32233" lon="7.595095"><ele>497.6666666666667</ele><time>2026-04-04T15:02:28.734Z</time></trkpt><trkpt lat="45.3222933" lon="7.595005"><ele>498.33333333333337</ele><time>2026-04-04T15:02:31.734Z</time></trkpt><trkpt lat="45.3223133" lon="7.5948383"><ele>499.0</ele><time>2026-04-04T15:02:46.734Z</time></trkpt><trkpt lat="45.3224017" lon="7.59489"><ele>499.0</ele><time>2026-04-04T15:02:50.734Z</time></trkpt><trkpt lat="45.3224617" lon="7.594975"><ele>499.0</ele><time>2026-04-04T15:02:53.734Z</time></trkpt><trkpt lat="45.3224567" lon="7.5950783"><ele>499.0</ele><time>2026-04-04T15:02:56.734Z</time></trkpt><trkpt lat="45.3223667" lon="7.595185"><ele>499.0</ele><time>2026-04-04T15:03:35.734Z</time></trkpt><trkpt lat="45.3223267" lon="7.595065"><ele>499.0</ele><time>2026-04-04T15:04:28.734Z</time></trkpt><trkpt lat="45.3222983" lon="7.594955"><ele>499.0</ele><time>2026-04-04T15:04:31.733Z</time></trkpt><trkpt lat="45.3222433" lon="7.594835"><ele>499.0</ele><time>2026-04-04T15:04:33.734Z</time></trkpt><trkpt lat="45.3221883" lon="7.5947183"><ele>499.0</ele><time>2026-04-04T15:04:35.733Z</time></trkpt><trkpt lat="45.3221133" lon="7.5946467"><ele>499.0</ele><time>2026-04-04T15:04:37.734Z</time></trkpt><trkpt lat="45.3220283" lon="7.59458"><ele>499.0</ele><time>2026-04-04T15:04:39.733Z</time></trkpt><trkpt lat="45.3219583" lon="7.5945033"><ele>501.1666666666667</ele><time>2026-04-04T15:04:41.733Z</time></trkpt><trkpt lat="45.3219383" lon="7.5944183"><ele>503.33333333333337</ele><time>2026-04-04T15:04:43.733Z</time></trkpt><trkpt lat="45.321945" lon="7.5942733"><ele>505.5</ele><time>2026-04-04T15:04:45.733Z</time></trkpt><trkpt lat="45.3219567" lon="7.594145"><ele>507.66666666666663</ele><time>2026-04-04T15:04:47.733Z</time></trkpt><trkpt lat="45.321975" lon="7.5940133"><ele>509.8333333333333</ele><time>2026-04-04T15:04:49.733Z</time></trkpt><trkpt lat="45.3219933" lon="7.5939067"><ele>512.0</ele><time>2026-04-04T15:04:51.734Z</time></trkpt><trkpt lat="45.322015" lon="7.5937617"><ele>514.3333333333333</ele><time>2026-04-04T15:04:53.733Z</time></trkpt><trkpt lat="45.322055" lon="7.5935833"><ele>516.6666666666666</ele><time>2026-04-04T15:04:55.733Z</time></trkpt><trkpt lat="45.3220767" lon="7.5934717"><ele>519.0</ele><time>2026-04-04T15:04:56.733Z</time></trkpt><trkpt lat="45.3220967" lon="7.593375"><ele>521.3333333333334</ele><time>2026-04-04T15:04:57.734Z</time></trkpt><trkpt lat="45.3221183" lon="7.5932817"><ele>523.6666666666667</ele><time>2026-04-04T15:04:58.734Z</time></trkpt><trkpt lat="45.3221383" lon="7.5931917"><ele>526.0</ele><time>2026-04-04T15:04:59.733Z</time></trkpt><trkpt lat="45.3221633" lon="7.5930933"><ele>526.0</ele><time>2026-04-04T15:05:00.733Z</time></trkpt><trkpt lat="45.322195" lon="7.5929767"><ele>526.0</ele><time>2026-04-04T15:05:01.733Z</time></trkpt><trkpt lat="45.322225" lon="7.59288"><ele>526.0</ele><time>2026-04-04T15:05:02.734Z</time></trkpt><trkpt lat="45.32225" lon="7.5927833"><ele>526.0</ele><time>2026-04-04T15:05:03.733Z</time></trkpt><trkpt lat="45.3222683" lon="7.5926867"><ele>526.0</ele><time>2026-04-04T15:05:04.733Z</time></trkpt><trkpt lat="45.3222783" lon="7.5925933"><ele>526.0</ele><time>2026-04-04T15:05:05.733Z</time></trkpt><trkpt lat="45.322275" lon="7.5925017"><ele>526.0</ele><time>2026-04-04T15:05:06.734Z</time></trkpt><trkpt lat="45.322265" lon="7.592405"><ele>524.2</ele><time>2026-04-04T15:05:07.734Z</time></trkpt><trkpt lat="45.32225" lon="7.5923017"><ele>522.4000000000001</ele><time>2026-04-04T15:05:08.733Z</time></trkpt><trkpt lat="45.32224" lon="7.59221"><ele>520.6</ele><time>2026-04-04T15:05:09.733Z</time></trkpt><trkpt lat="45.3222133" lon="7.5920517"><ele>518.8000000000001</ele><time>2026-04-04T15:05:11.733Z</time></trkpt><trkpt lat="45.3221367" lon="7.5919083"><ele>517.0</ele><time>2026-04-04T15:05:13.733Z</time></trkpt><trkpt lat="45.3220483" lon="7.5918133"><ele>522.6666666666667</ele><time>2026-04-04T15:05:15.733Z</time></trkpt><trkpt lat="45.3219917" lon="7.5917217"><ele>528.3333333333334</ele><time>2026-04-04T15:05:17.734Z</time></trkpt><trkpt lat="45.3219833" lon="7.5916167"><ele>534.0</ele><time>2026-04-04T15:05:19.733Z</time></trkpt><trkpt lat="45.3220233" lon="7.591475"><ele>539.6666666666666</ele><time>2026-04-04T15:05:21.734Z</time></trkpt><trkpt lat="45.3220467" lon="7.5913767"><ele>545.3333333333333</ele><time>2026-04-04T15:05:22.734Z</time></trkpt><trkpt lat="45.3220717" lon="7.591285"><ele>551.0</ele><time>2026-04-04T15:05:23.733Z</time></trkpt><trkpt lat="45.322085" lon="7.5911883"><ele>553.3333333333333</ele><time>2026-04-04T15:05:24.733Z</time></trkpt><trkpt lat="45.322085" lon="7.5910917"><ele>555.6666666666666</ele><time>2026-04-04T15:05:25.733Z</time></trkpt><trkpt lat="45.3220817" lon="7.5910017"><ele>558.0</ele><time>2026-04-04T15:05:26.734Z</time></trkpt><trkpt lat="45.3221117" lon="7.5908967"><ele>560.3333333333334</ele><time>2026-04-04T15:05:28.733Z</time></trkpt><trkpt lat="45.3221967" lon="7.5908083"><ele>562.6666666666667</ele><time>2026-04-04T15:05:30.733Z</time></trkpt><trkpt lat="45.322285" lon="7.5906733"><ele>565.0</ele><time>2026-04-04T15:05:32.734Z</time></trkpt><trkpt lat="45.32233" lon="7.5906017"><ele>561.4</ele><time>2026-04-04T15:05:33.733Z</time></trkpt><trkpt lat="45.3223967" lon="7.5904683"><ele>557.8</ele><time>2026-04-04T15:05:35.733Z</time></trkpt><trkpt lat="45.32243" lon="7.590355"><ele>554.2</ele><time>2026-04-04T15:05:37.733Z</time></trkpt><trkpt lat="45.3224833" lon="7.59026"><ele>550.6</ele><time>2026-04-04T15:05:40.733Z</time></trkpt><trkpt lat="45.32255" lon="7.59021"><ele>547.0</ele><time>2026-04-04T15:05:42.733Z</time></trkpt><trkpt lat="45.32263" lon="7.5901517"><ele>547.0</ele><time>2026-04-04T15:05:44.733Z</time></trkpt><trkpt lat="45.3227383" lon="7.5900517"><ele>547.0</ele><time>2026-04-04T15:05:46.733Z</time></trkpt><trkpt lat="45.3228183" lon="7.5899333"><ele>547.0</ele><time>2026-04-04T15:05:48.733Z</time></trkpt><trkpt lat="45.3228683" lon="7.58982"><ele>547.0</ele><time>2026-04-04T15:05:50.733Z</time></trkpt><trkpt lat="45.322925" lon="7.5897633"><ele>547.0</ele><time>2026-04-04T15:05:52.733Z</time></trkpt><trkpt lat="45.323025" lon="7.5897583"><ele>546.5</ele><time>2026-04-04T15:05:54.734Z</time></trkpt><trkpt lat="45.3230917" lon="7.5897467"><ele>546.0</ele><time>2026-04-04T15:05:55.733Z</time></trkpt><trkpt lat="45.32316" lon="7.5897317"><ele>545.5</ele><time>2026-04-04T15:05:56.733Z</time></trkpt><trkpt lat="45.32322" lon="7.5896983"><ele>545.0</ele><time>2026-04-04T15:05:57.734Z</time></trkpt><trkpt lat="45.323275" lon="7.5896517"><ele>544.5</ele><time>2026-04-04T15:05:58.733Z</time></trkpt><trkpt lat="45.323365" lon="7.5895417"><ele>544.0</ele><time>2026-04-04T15:06:00.733Z</time></trkpt><trkpt lat="45.3234217" lon="7.58943"><ele>546.0</ele><time>2026-04-04T15:06:02.734Z</time></trkpt><trkpt lat="45.3234483" lon="7.589315"><ele>548.0</ele><time>2026-04-04T15:06:04.734Z</time></trkpt><trkpt lat="45.3234833" lon="7.5892"><ele>550.0</ele><time>2026-04-04T15:06:06.733Z</time></trkpt><trkpt lat="45.3235217" lon="7.589065"><ele>552.0</ele><time>2026-04-04T15:06:08.733Z</time></trkpt><trkpt lat="45.3235467" lon="7.5889383"><ele>554.0</ele><time>2026-04-04T15:06:10.734Z</time></trkpt><trkpt lat="45.3235717" lon="7.5888367"><ele>556.0</ele><time>2026-04-04T15:06:12.733Z</time></trkpt><trkpt lat="45.3236117" lon="7.58875"><ele>556.0</ele><time>2026-04-04T15:06:14.733Z</time></trkpt><trkpt lat="45.3236933" lon="7.588735"><ele>556.0</ele><time>2026-04-04T15:06:17.734Z</time></trkpt><trkpt lat="45.3237517" lon="7.58883"><ele>556.0</ele><time>2026-04-04T15:06:19.733Z</time></trkpt><trkpt lat="45.3238233" lon="7.5889183"><ele>556.0</ele><time>2026-04-04T15:06:21.734Z</time></trkpt><trkpt lat="45.3238983" lon="7.5890717"><ele>556.0</ele><time>2026-04-04T15:06:23.733Z</time></trkpt><trkpt lat="45.3239467" lon="7.5891633"><ele>558.4</ele><time>2026-04-04T15:06:24.733Z</time></trkpt><trkpt lat="45.3240133" lon="7.58926"><ele>560.8</ele><time>2026-04-04T15:06:26.733Z</time></trkpt><trkpt lat="45.3241017" lon="7.5893133"><ele>563.1999999999999</ele><time>2026-04-04T15:06:28.733Z</time></trkpt><trkpt lat="45.3242133" lon="7.5893317"><ele>565.6</ele><time>2026-04-04T15:06:30.733Z</time></trkpt><trkpt lat="45.3242967" lon="7.58934"><ele>568.0</ele><time>2026-04-04T15:06:32.733Z</time></trkpt><trkpt lat="45.3243917" lon="7.5892967"><ele>568.0</ele><time>2026-04-04T15:06:34.733Z</time></trkpt><trkpt lat="45.324465" lon="7.5892167"><ele>568.0</ele><time>2026-04-04T15:06:36.733Z</time></trkpt><trkpt lat="45.3245133" lon="7.58911"><ele>568.0</ele><time>2026-04-04T15:06:38.733Z</time></trkpt><trkpt lat="45.3245667" lon="7.5890283"><ele>568.0</ele><time>2026-04-04T15:06:40.733Z</time></trkpt><trkpt lat="45.3246017" lon="7.5889517"><ele>568.0</ele><time>2026-04-04T15:06:42.733Z</time></trkpt><trkpt lat="45.32471" lon="7.5888583"><ele>568.0</ele><time>2026-04-04T15:07:15.733Z</time></trkpt><trkpt lat="45.3247217" lon="7.5887433"><ele>568.0</ele><time>2026-04-04T15:07:42.733Z</time></trkpt><trkpt lat="45.32477" lon="7.5886233"><ele>568.0</ele><time>2026-04-04T15:07:44.733Z</time></trkpt><trkpt lat="45.32481" lon="7.5885133"><ele>568.0</ele><time>2026-04-04T15:07:46.733Z</time></trkpt><trkpt lat="45.3248567" lon="7.588395"><ele>568.0</ele><time>2026-04-04T15:07:48.733Z</time></trkpt><trkpt lat="45.32491" lon="7.58827"><ele>572.8</ele><time>2026-04-04T15:07:50.732Z</time></trkpt><trkpt lat="45.3249517" lon="7.5881333"><ele>577.5999999999999</ele><time>2026-04-04T15:07:52.732Z</time></trkpt><trkpt lat="45.3250017" lon="7.5879817"><ele>582.4000000000001</ele><time>2026-04-04T15:07:54.732Z</time></trkpt><trkpt lat="45.3250283" lon="7.58789"><ele>587.2</ele><time>2026-04-04T15:07:55.733Z</time></trkpt><trkpt lat="45.32509" lon="7.587735"><ele>592.0</ele><time>2026-04-04T15:07:57.732Z</time></trkpt><trkpt lat="45.32517" lon="7.5876217"><ele>595.6666666666667</ele><time>2026-04-04T15:07:59.732Z</time></trkpt><trkpt lat="45.3252683" lon="7.5875683"><ele>599.3333333333334</ele><time>2026-04-04T15:08:01.732Z</time></trkpt><trkpt lat="45.3253733" lon="7.5875333"><ele>603.0</ele><time>2026-04-04T15:08:03.732Z</time></trkpt><trkpt lat="45.3254367" lon="7.5875183"><ele>606.6666666666666</ele><time>2026-04-04T15:08:04.732Z</time></trkpt><trkpt lat="45.3255017" lon="7.5875067"><ele>610.3333333333333</ele><time>2026-04-04T15:08:05.732Z</time></trkpt><trkpt lat="45.3255667" lon="7.5874833"><ele>614.0</ele><time>2026-04-04T15:08:06.733Z</time></trkpt><trkpt lat="45.3256633" lon="7.58741"><ele>615.5</ele><time>2026-04-04T15:08:08.732Z</time></trkpt><trkpt lat="45.325725" lon="7.58733"><ele>617.0</ele><time>2026-04-04T15:08:10.732Z</time></trkpt><trkpt lat="45.3257783" lon="7.587235"><ele>618.5</ele><time>2026-04-04T15:08:12.733Z</time></trkpt><trkpt lat="45.3258383" lon="7.587195"><ele>620.0</ele><time>2026-04-04T15:08:14.732Z</time></trkpt><trkpt lat="45.3259267" lon="7.587205"><ele>621.5</ele><time>2026-04-04T15:08:16.732Z</time></trkpt><trkpt lat="45.32602" lon="7.58724"><ele>623.0</ele><time>2026-04-04T15:08:18.733Z</time></trkpt><trkpt lat="45.3261067" lon="7.587265"><ele>623.0</ele><time>2026-04-04T15:08:20.732Z</time></trkpt><trkpt lat="45.32619" lon="7.587235"><ele>623.0</ele><time>2026-04-04T15:08:22.733Z</time></trkpt><trkpt lat="45.3262933" lon="7.587165"><ele>623.0</ele><time>2026-04-04T15:08:24.732Z</time></trkpt><trkpt lat="45.3263867" lon="7.58709"><ele>623.0</ele><time>2026-04-04T15:08:26.733Z</time></trkpt><trkpt lat="45.32644" lon="7.58703"><ele>623.0</ele><time>2026-04-04T15:08:27.732Z</time></trkpt><trkpt lat="45.3264933" lon="7.586955"><ele>626.0</ele><time>2026-04-04T15:08:28.733Z</time></trkpt><trkpt lat="45.32654" lon="7.5868767"><ele>629.0</ele><time>2026-04-04T15:08:29.732Z</time></trkpt><trkpt lat="45.3265983" lon="7.5867783"><ele>632.0</ele><time>2026-04-04T15:08:30.732Z</time></trkpt><trkpt lat="45.3266533" lon="7.5866867"><ele>635.0</ele><time>2026-04-04T15:08:31.733Z</time></trkpt><trkpt lat="45.326705" lon="7.586595"><ele>638.0</ele><time>2026-04-04T15:08:32.733Z</time></trkpt><trkpt lat="45.3267617" lon="7.5864983"><ele>641.0</ele><time>2026-04-04T15:08:33.732Z</time></trkpt><trkpt lat="45.326815" lon="7.5864067"><ele>641.0</ele><time>2026-04-04T15:08:34.732Z</time></trkpt><trkpt lat="45.3268683" lon="7.5863117"><ele>641.0</ele><time>2026-04-04T15:08:35.732Z</time></trkpt><trkpt lat="45.3269167" lon="7.5862133"><ele>641.0</ele><time>2026-04-04T15:08:36.733Z</time></trkpt><trkpt lat="45.3269667" lon="7.5861117"><ele>641.0</ele><time>2026-04-04T15:08:37.732Z</time></trkpt><trkpt lat="45.3270133" lon="7.5860183"><ele>641.0</ele><time>2026-04-04T15:08:38.732Z</time></trkpt><trkpt lat="45.327055" lon="7.58594"><ele>641.0</ele><time>2026-04-04T15:08:39.732Z</time></trkpt><trkpt lat="45.3270933" lon="7.5858633"><ele>640.4285714285714</ele><time>2026-04-04T15:08:40.733Z</time></trkpt><trkpt lat="45.3271283" lon="7.5857817"><ele>639.8571428571429</ele><time>2026-04-04T15:08:41.733Z</time></trkpt><trkpt lat="45.3271667" lon="7.5857"><ele>639.2857142857142</ele><time>2026-04-04T15:08:42.732Z</time></trkpt><trkpt lat="45.3272083" lon="7.5856167"><ele>638.7142857142858</ele><time>2026-04-04T15:08:43.732Z</time></trkpt><trkpt lat="45.327245" lon="7.5855367"><ele>638.1428571428571</ele><time>2026-04-04T15:08:44.732Z</time></trkpt><trkpt lat="45.3272817" lon="7.5854433"><ele>637.5714285714286</ele><time>2026-04-04T15:08:45.732Z</time></trkpt><trkpt lat="45.3273133" lon="7.58534"><ele>637.0</ele><time>2026-04-04T15:08:46.733Z</time></trkpt><trkpt lat="45.3273433" lon="7.5852367"><ele>637.0</ele><time>2026-04-04T15:08:47.732Z</time></trkpt><trkpt lat="45.3273683" lon="7.5851517"><ele>637.0</ele><time>2026-04-04T15:08:48.732Z</time></trkpt><trkpt lat="45.3273967" lon="7.5850667"><ele>637.0</ele><time>2026-04-04T15:08:49.732Z</time></trkpt><trkpt lat="45.3274167" lon="7.5849717"><ele>637.0</ele><time>2026-04-04T15:08:50.732Z</time></trkpt><trkpt lat="45.3274333" lon="7.5848783"><ele>637.0</ele><time>2026-04-04T15:08:51.732Z</time></trkpt><trkpt lat="45.327445" lon="7.584785"><ele>637.0</ele><time>2026-04-04T15:08:52.733Z</time></trkpt><trkpt lat="45.3274433" lon="7.5846867"><ele>637.0</ele><time>2026-04-04T15:08:53.732Z</time></trkpt><trkpt lat="45.32744" lon="7.5845883"><ele>638.3333333333334</ele><time>2026-04-04T15:08:54.732Z</time></trkpt><trkpt lat="45.3274367" lon="7.584475"><ele>639.6666666666667</ele><time>2026-04-04T15:08:55.732Z</time></trkpt><trkpt lat="45.3274417" lon="7.5843483"><ele>641.0</ele><time>2026-04-04T15:08:56.733Z</time></trkpt><trkpt lat="45.327445" lon="7.58423"><ele>642.3333333333334</ele><time>2026-04-04T15:08:57.732Z</time></trkpt><trkpt lat="45.3274633" lon="7.58411"><ele>643.6666666666666</ele><time>2026-04-04T15:08:58.732Z</time></trkpt><trkpt lat="45.3274883" lon="7.5839967"><ele>645.0</ele><time>2026-04-04T15:08:59.733Z</time></trkpt><trkpt lat="45.3275133" lon="7.5838883"><ele>645.0</ele><time>2026-04-04T15:09:00.732Z</time></trkpt><trkpt lat="45.3275433" lon="7.583795"><ele>645.0</ele><time>2026-04-04T15:09:01.733Z</time></trkpt><trkpt lat="45.327575" lon="7.5837133"><ele>645.0</ele><time>2026-04-04T15:09:02.733Z</time></trkpt><trkpt lat="45.32761" lon="7.5836317"><ele>645.0</ele><time>2026-04-04T15:09:03.732Z</time></trkpt><trkpt lat="45.327675" lon="7.5834917"><ele>645.0</ele><time>2026-04-04T15:09:05.733Z</time></trkpt><trkpt lat="45.3277" lon="7.5834083"><ele>645.0</ele><time>2026-04-04T15:09:06.732Z</time></trkpt><trkpt lat="45.3277217" lon="7.5832433"><ele>648.0</ele><time>2026-04-04T15:09:08.732Z</time></trkpt><trkpt lat="45.3277" lon="7.5830817"><ele>651.0</ele><time>2026-04-04T15:09:10.733Z</time></trkpt><trkpt lat="45.3276867" lon="7.58299"><ele>654.0</ele><time>2026-04-04T15:09:11.733Z</time></trkpt><trkpt lat="45.3276883" lon="7.5828233"><ele>657.0</ele><time>2026-04-04T15:09:13.732Z</time></trkpt><trkpt lat="45.3277017" lon="7.582675"><ele>660.0</ele><time>2026-04-04T15:09:15.732Z</time></trkpt><trkpt lat="45.3277483" lon="7.58251"><ele>661.5</ele><time>2026-04-04T15:09:17.733Z</time></trkpt><trkpt lat="45.32778" lon="7.5824117"><ele>663.0</ele><time>2026-04-04T15:09:18.732Z</time></trkpt><trkpt lat="45.3278117" lon="7.5823167"><ele>664.5</ele><time>2026-04-04T15:09:19.733Z</time></trkpt><trkpt lat="45.327845" lon="7.5822183"><ele>666.0</ele><time>2026-04-04T15:09:20.732Z</time></trkpt><trkpt lat="45.3278667" lon="7.582125"><ele>667.5</ele><time>2026-04-04T15:09:21.732Z</time></trkpt><trkpt lat="45.3278683" lon="7.5820267"><ele>669.0</ele><time>2026-04-04T15:09:22.733Z</time></trkpt><trkpt lat="45.3278483" lon="7.5818567"><ele>670.4000000000001</ele><time>2026-04-04T15:09:24.732Z</time></trkpt><trkpt lat="45.32783" lon="7.5817683"><ele>671.8</ele><time>2026-04-04T15:09:25.732Z</time></trkpt><trkpt lat="45.3277733" lon="7.5816483"><ele>673.2</ele><time>2026-04-04T15:09:27.732Z</time></trkpt><trkpt lat="45.327695" lon="7.581535"><ele>674.5999999999999</ele><time>2026-04-04T15:09:29.733Z</time></trkpt><trkpt lat="45.32762" lon="7.581415"><ele>676.0</ele><time>2026-04-04T15:09:31.732Z</time></trkpt><trkpt lat="45.3275833" lon="7.5813267"><ele>676.0</ele><time>2026-04-04T15:09:33.733Z</time></trkpt><trkpt lat="45.3275733" lon="7.581235"><ele>676.0</ele><time>2026-04-04T15:09:35.733Z</time></trkpt><trkpt lat="45.3276433" lon="7.5811233"><ele>676.0</ele><time>2026-04-04T15:09:38.732Z</time></trkpt><trkpt lat="45.3277283" lon="7.5810483"><ele>676.0</ele><time>2026-04-04T15:09:40.732Z</time></trkpt><trkpt lat="45.3278133" lon="7.5809717"><ele>676.0</ele><time>2026-04-04T15:09:42.732Z</time></trkpt><trkpt lat="45.3279" lon="7.5808417"><ele>677.0</ele><time>2026-04-04T15:09:44.732Z</time></trkpt><trkpt lat="45.32795" lon="7.580785"><ele>678.0</ele><time>2026-04-04T15:09:45.733Z</time></trkpt><trkpt lat="45.3280167" lon="7.5806483"><ele>679.0</ele><time>2026-04-04T15:09:47.732Z</time></trkpt><trkpt lat="45.3280633" lon="7.58054"><ele>680.0</ele><time>2026-04-04T15:09:49.733Z</time></trkpt><trkpt lat="45.328115" lon="7.5804517"><ele>681.0</ele><time>2026-04-04T15:09:51.732Z</time></trkpt><trkpt lat="45.32818" lon="7.5803667"><ele>682.0</ele><time>2026-04-04T15:09:53.733Z</time></trkpt><trkpt lat="45.328255" lon="7.580245"><ele>682.0</ele><time>2026-04-04T15:09:55.732Z</time></trkpt><trkpt lat="45.3283233" lon="7.58014"><ele>682.0</ele><time>2026-04-04T15:09:57.732Z</time></trkpt><trkpt lat="45.32838" lon="7.5800833"><ele>682.0</ele><time>2026-04-04T15:09:59.732Z</time></trkpt><trkpt lat="45.3284483" lon="7.58008"><ele>682.0</ele><time>2026-04-04T15:10:01.732Z</time></trkpt><trkpt lat="45.3285417" lon="7.5801133"><ele>682.0</ele><time>2026-04-04T15:10:03.732Z</time></trkpt><trkpt lat="45.3286633" lon="7.5801533"><ele>682.0</ele><time>2026-04-04T15:10:05.733Z</time></trkpt><trkpt lat="45.3287883" lon="7.5801933"><ele>682.0</ele><time>2026-04-04T15:10:07.732Z</time></trkpt><trkpt lat="45.3288533" lon="7.5802117"><ele>682.0</ele><time>2026-04-04T15:10:08.732Z</time></trkpt><trkpt lat="45.3289717" lon="7.580235"><ele>682.0</ele><time>2026-04-04T15:10:10.732Z</time></trkpt><trkpt lat="45.3290717" lon="7.5802833"><ele>682.0</ele><time>2026-04-04T15:10:12.732Z</time></trkpt><trkpt lat="45.3291733" lon="7.58034"><ele>681.0</ele><time>2026-04-04T15:10:14.732Z</time></trkpt><trkpt lat="45.3292717" lon="7.580365"><ele>680.0</ele><time>2026-04-04T15:10:16.732Z</time></trkpt><trkpt lat="45.3293367" lon="7.5803617"><ele>679.0</ele><time>2026-04-04T15:10:17.733Z</time></trkpt><trkpt lat="45.3294017" lon="7.5803467"><ele>678.0</ele><time>2026-04-04T15:10:18.732Z</time></trkpt><trkpt lat="45.3294717" lon="7.58033"><ele>677.0</ele><time>2026-04-04T15:10:19.733Z</time></trkpt><trkpt lat="45.32954" lon="7.5803067"><ele>676.0</ele><time>2026-04-04T15:10:20.732Z</time></trkpt><trkpt lat="45.32961" lon="7.5803"><ele>675.0</ele><time>2026-04-04T15:10:21.732Z</time></trkpt><trkpt lat="45.32968" lon="7.5802917"><ele>674.3333333333334</ele><time>2026-04-04T15:10:22.732Z</time></trkpt><trkpt lat="45.3297517" lon="7.580285"><ele>673.6666666666666</ele><time>2026-04-04T15:10:23.732Z</time></trkpt><trkpt lat="45.3298167" lon="7.580275"><ele>673.0</ele><time>2026-04-04T15:10:24.733Z</time></trkpt><trkpt lat="45.3298817" lon="7.5802583"><ele>672.3333333333333</ele><time>2026-04-04T15:10:25.732Z</time></trkpt><trkpt lat="45.3299983" lon="7.5801867"><ele>671.6666666666666</ele><time>2026-04-04T15:10:27.732Z</time></trkpt><trkpt lat="45.33008" lon="7.5800717"><ele>671.0</ele><time>2026-04-04T15:10:29.732Z</time></trkpt><trkpt lat="45.3301533" lon="7.5799467"><ele>671.0</ele><time>2026-04-04T15:10:31.733Z</time></trkpt><trkpt lat="45.33018" lon="7.5798633"><ele>671.0</ele><time>2026-04-04T15:10:32.733Z</time></trkpt><trkpt lat="45.33023" lon="7.5797183"><ele>671.0</ele><time>2026-04-04T15:10:34.732Z</time></trkpt><trkpt lat="45.33027" lon="7.5795533"><ele>671.0</ele><time>2026-04-04T15:10:36.732Z</time></trkpt><trkpt lat="45.3303033" lon="7.5794083"><ele>671.0</ele><time>2026-04-04T15:10:38.732Z</time></trkpt><trkpt lat="45.3303433" lon="7.579305"><ele>672.5</ele><time>2026-04-04T15:10:40.732Z</time></trkpt><trkpt lat="45.3303833" lon="7.5791983"><ele>674.0</ele><time>2026-04-04T15:10:43.732Z</time></trkpt><trkpt lat="45.3304867" lon="7.5792517"><ele>675.5</ele><time>2026-04-04T15:10:49.732Z</time></trkpt><trkpt lat="45.3305483" lon="7.5793117"><ele>677.0</ele><time>2026-04-04T15:10:53.732Z</time></trkpt><trkpt lat="45.3306033" lon="7.579385"><ele>678.5</ele><time>2026-04-04T15:10:56.732Z</time></trkpt><trkpt lat="45.3306517" lon="7.579445"><ele>680.0</ele><time>2026-04-04T15:10:58.733Z</time></trkpt><trkpt lat="45.3307167" lon="7.5795267"><ele>674.6</ele><time>2026-04-04T15:11:00.733Z</time></trkpt><trkpt lat="45.330775" lon="7.57959"><ele>669.2</ele><time>2026-04-04T15:11:01.733Z</time></trkpt><trkpt lat="45.3308633" lon="7.5797133"><ele>663.8</ele><time>2026-04-04T15:11:03.732Z</time></trkpt><trkpt lat="45.3309233" lon="7.5798"><ele>658.4</ele><time>2026-04-04T15:11:04.733Z</time></trkpt><trkpt lat="45.33098" lon="7.5798867"><ele>653.0</ele><time>2026-04-04T15:11:05.733Z</time></trkpt><trkpt lat="45.331035" lon="7.5800417"><ele>653.0</ele><time>2026-04-04T15:11:07.732Z</time></trkpt><trkpt lat="45.3310917" lon="7.580175"><ele>653.0</ele><time>2026-04-04T15:11:09.732Z</time></trkpt><trkpt lat="45.331155" lon="7.5802533"><ele>653.0</ele><time>2026-04-04T15:11:11.733Z</time></trkpt><trkpt lat="45.3312417" lon="7.580335"><ele>653.0</ele><time>2026-04-04T15:11:13.733Z</time></trkpt><trkpt lat="45.3313167" lon="7.5803983"><ele>653.0</ele><time>2026-04-04T15:11:15.732Z</time></trkpt><trkpt lat="45.331385" lon="7.5804983"><ele>653.5</ele><time>2026-04-04T15:11:18.732Z</time></trkpt><trkpt lat="45.33141" lon="7.5806417"><ele>654.0</ele><time>2026-04-04T15:11:20.732Z</time></trkpt><trkpt lat="45.3314167" lon="7.5807333"><ele>654.5</ele><time>2026-04-04T15:11:21.733Z</time></trkpt><trkpt lat="45.3314283" lon="7.5808317"><ele>655.0</ele><time>2026-04-04T15:11:22.732Z</time></trkpt><trkpt lat="45.3314317" lon="7.5809333"><ele>655.5</ele><time>2026-04-04T15:11:23.732Z</time></trkpt><trkpt lat="45.3314317" lon="7.5810267"><ele>656.0</ele><time>2026-04-04T15:11:24.733Z</time></trkpt><trkpt lat="45.3314283" lon="7.5811833"><ele>653.3333333333333</ele><time>2026-04-04T15:11:26.733Z</time></trkpt><trkpt lat="45.3314217" lon="7.5813317"><ele>650.6666666666666</ele><time>2026-04-04T15:11:28.732Z</time></trkpt><trkpt lat="45.3314117" lon="7.5814483"><ele>648.0</ele><time>2026-04-04T15:11:30.732Z</time></trkpt><trkpt lat="45.3314167" lon="7.581545"><ele>645.3333333333334</ele><time>2026-04-04T15:11:32.732Z</time></trkpt><trkpt lat="45.3314417" lon="7.5816317"><ele>642.6666666666667</ele><time>2026-04-04T15:11:34.733Z</time></trkpt><trkpt lat="45.3314917" lon="7.581705"><ele>640.0</ele><time>2026-04-04T15:11:36.733Z</time></trkpt><trkpt lat="45.3315633" lon="7.5818017"><ele>640.0</ele><time>2026-04-04T15:11:38.731Z</time></trkpt><trkpt lat="45.3316067" lon="7.5818683"><ele>640.0</ele><time>2026-04-04T15:11:39.731Z</time></trkpt><trkpt lat="45.3316683" lon="7.5820183"><ele>640.0</ele><time>2026-04-04T15:11:41.731Z</time></trkpt><trkpt lat="45.3317417" lon="7.5822083"><ele>640.0</ele><time>2026-04-04T15:11:43.732Z</time></trkpt><trkpt lat="45.33177" lon="7.5823083"><ele>640.0</ele><time>2026-04-04T15:11:44.732Z</time></trkpt><trkpt lat="45.3317967" lon="7.5824083"><ele>637.1666666666667</ele><time>2026-04-04T15:11:45.731Z</time></trkpt><trkpt lat="45.3318133" lon="7.582565"><ele>634.3333333333334</ele><time>2026-04-04T15:11:47.731Z</time></trkpt><trkpt lat="45.3318333" lon="7.5827033"><ele>631.5</ele><time>2026-04-04T15:11:49.732Z</time></trkpt><trkpt lat="45.3318833" lon="7.5828"><ele>628.6666666666666</ele><time>2026-04-04T15:11:51.732Z</time></trkpt><trkpt lat="45.3319433" lon="7.582865"><ele>625.8333333333333</ele><time>2026-04-04T15:11:53.732Z</time></trkpt><trkpt lat="45.3320133" lon="7.5829083"><ele>623.0</ele><time>2026-04-04T15:11:55.731Z</time></trkpt><trkpt lat="45.332095" lon="7.5829333"><ele>621.0</ele><time>2026-04-04T15:11:57.731Z</time></trkpt><trkpt lat="45.3321833" lon="7.5829517"><ele>619.0</ele><time>2026-04-04T15:11:59.731Z</time></trkpt><trkpt lat="45.3322733" lon="7.5829767"><ele>617.0</ele><time>2026-04-04T15:12:01.731Z</time></trkpt><trkpt lat="45.3323617" lon="7.5830367"><ele>615.0</ele><time>2026-04-04T15:12:03.731Z</time></trkpt><trkpt lat="45.3324167" lon="7.583155"><ele>613.0</ele><time>2026-04-04T15:12:05.731Z</time></trkpt><trkpt lat="45.332465" lon="7.5833167"><ele>613.0</ele><time>2026-04-04T15:12:07.731Z</time></trkpt><trkpt lat="45.3324883" lon="7.583405"><ele>613.0</ele><time>2026-04-04T15:12:08.732Z</time></trkpt><trkpt lat="45.3325383" lon="7.5835633"><ele>613.0</ele><time>2026-04-04T15:12:10.732Z</time></trkpt><trkpt lat="45.3325867" lon="7.5836967"><ele>613.0</ele><time>2026-04-04T15:12:12.731Z</time></trkpt><trkpt lat="45.332655" lon="7.5838067"><ele>613.0</ele><time>2026-04-04T15:12:14.732Z</time></trkpt><trkpt lat="45.3327183" lon="7.5839033"><ele>611.1666666666667</ele><time>2026-04-04T15:12:16.731Z</time></trkpt><trkpt lat="45.3327567" lon="7.5840033"><ele>609.3333333333334</ele><time>2026-04-04T15:12:18.732Z</time></trkpt><trkpt lat="45.33277" lon="7.58415"><ele>607.5</ele><time>2026-04-04T15:12:20.731Z</time></trkpt><trkpt lat="45.3327667" lon="7.584245"><ele>605.6666666666666</ele><time>2026-04-04T15:12:21.731Z</time></trkpt><trkpt lat="45.3327567" lon="7.5843483"><ele>603.8333333333333</ele><time>2026-04-04T15:12:22.732Z</time></trkpt><trkpt lat="45.332745" lon="7.5844417"><ele>602.0</ele><time>2026-04-04T15:12:23.731Z</time></trkpt><trkpt lat="45.3327233" lon="7.58454"><ele>601.0</ele><time>2026-04-04T15:12:24.731Z</time></trkpt><trkpt lat="45.3326917" lon="7.5847067"><ele>600.0</ele><time>2026-04-04T15:12:26.732Z</time></trkpt><trkpt lat="45.3326567" lon="7.5848567"><ele>599.0</ele><time>2026-04-04T15:12:28.731Z</time></trkpt><trkpt lat="45.3326" lon="7.5849983"><ele>598.0</ele><time>2026-04-04T15:12:30.731Z</time></trkpt><trkpt lat="45.3325417" lon="7.5851583"><ele>598.0</ele><time>2026-04-04T15:12:32.732Z</time></trkpt><trkpt lat="45.3324767" lon="7.5852967"><ele>598.0</ele><time>2026-04-04T15:12:34.731Z</time></trkpt><trkpt lat="45.3324167" lon="7.5854133"><ele>598.0</ele><time>2026-04-04T15:12:36.731Z</time></trkpt><trkpt lat="45.3323633" lon="7.5855217"><ele>598.0</ele><time>2026-04-04T15:12:38.732Z</time></trkpt><trkpt lat="45.3323" lon="7.5856333"><ele>598.0</ele><time>2026-04-04T15:12:40.731Z</time></trkpt><trkpt lat="45.3321983" lon="7.5857033"><ele>593.8</ele><time>2026-04-04T15:12:42.731Z</time></trkpt><trkpt lat="45.332095" lon="7.585765"><ele>589.5999999999999</ele><time>2026-04-04T15:12:44.731Z</time></trkpt><trkpt lat="45.332" lon="7.5858533"><ele>585.4000000000001</ele><time>2026-04-04T15:12:46.731Z</time></trkpt><trkpt lat="45.3319517" lon="7.5859133"><ele>581.2</ele><time>2026-04-04T15:12:47.731Z</time></trkpt><trkpt lat="45.3318667" lon="7.5860167"><ele>577.0</ele><time>2026-04-04T15:12:49.731Z</time></trkpt><trkpt lat="45.3318" lon="7.5861283"><ele>577.0</ele><time>2026-04-04T15:12:51.731Z</time></trkpt><trkpt lat="45.3317283" lon="7.58616"><ele>577.0</ele><time>2026-04-04T15:12:53.731Z</time></trkpt><trkpt lat="45.331665" lon="7.5860983"><ele>577.0</ele><time>2026-04-04T15:12:55.731Z</time></trkpt><trkpt lat="45.33162" lon="7.585975"><ele>577.0</ele><time>2026-04-04T15:12:57.731Z</time></trkpt><trkpt lat="45.3316" lon="7.5858083"><ele>577.0</ele><time>2026-04-04T15:12:59.731Z</time></trkpt><trkpt lat="45.3315733" lon="7.5856583"><ele>577.0</ele><time>2026-04-04T15:13:01.731Z</time></trkpt><trkpt lat="45.3315467" lon="7.58554"><ele>577.0</ele><time>2026-04-04T15:13:03.731Z</time></trkpt><trkpt lat="45.3315383" lon="7.5853817"><ele>577.0</ele><time>2026-04-04T15:13:05.732Z</time></trkpt><trkpt lat="45.331555" lon="7.585275"><ele>577.0</ele><time>2026-04-04T15:13:06.732Z</time></trkpt><trkpt lat="45.33157" lon="7.5851817"><ele>577.0</ele><time>2026-04-04T15:13:07.732Z</time></trkpt><trkpt lat="45.3315883" lon="7.585085"><ele>577.0</ele><time>2026-04-04T15:13:08.731Z</time></trkpt><trkpt lat="45.331605" lon="7.58499"><ele>578.0</ele><time>2026-04-04T15:13:09.731Z</time></trkpt><trkpt lat="45.3316133" lon="7.5848983"><ele>579.0</ele><time>2026-04-04T15:13:10.732Z</time></trkpt><trkpt lat="45.3316283" lon="7.5847283"><ele>580.0</ele><time>2026-04-04T15:13:12.731Z</time></trkpt><trkpt lat="45.3316767" lon="7.5845717"><ele>581.0</ele><time>2026-04-04T15:13:14.731Z</time></trkpt><trkpt lat="45.331715" lon="7.584495"><ele>582.0</ele><time>2026-04-04T15:13:15.731Z</time></trkpt><trkpt lat="45.3317567" lon="7.5843883"><ele>581.2</ele><time>2026-04-04T15:13:17.732Z</time></trkpt><trkpt lat="45.331715" lon="7.58432"><ele>580.4000000000001</ele><time>2026-04-04T15:13:20.731Z</time></trkpt><trkpt lat="45.331615" lon="7.584335"><ele>579.5999999999999</ele><time>2026-04-04T15:13:22.731Z</time></trkpt><trkpt lat="45.3315067" lon="7.584375"><ele>578.8</ele><time>2026-04-04T15:13:24.732Z</time></trkpt><trkpt lat="45.331395" lon="7.5843883"><ele>578.0</ele><time>2026-04-04T15:13:26.731Z</time></trkpt><trkpt lat="45.3313217" lon="7.5844333"><ele>578.0</ele><time>2026-04-04T15:13:28.731Z</time></trkpt><trkpt lat="45.3312633" lon="7.584505"><ele>578.0</ele><time>2026-04-04T15:13:30.731Z</time></trkpt><trkpt lat="45.3311733" lon="7.5846017"><ele>578.0</ele><time>2026-04-04T15:13:32.731Z</time></trkpt><trkpt lat="45.331105" lon="7.584695"><ele>578.0</ele><time>2026-04-04T15:13:34.731Z</time></trkpt><trkpt lat="45.3310567" lon="7.5847883"><ele>578.0</ele><time>2026-04-04T15:13:36.731Z</time></trkpt><trkpt lat="45.331005" lon="7.5848817"><ele>575.0</ele><time>2026-04-04T15:13:38.731Z</time></trkpt><trkpt lat="45.3309467" lon="7.584995"><ele>572.0</ele><time>2026-04-04T15:13:40.731Z</time></trkpt><trkpt lat="45.3308767" lon="7.5851033"><ele>569.0</ele><time>2026-04-04T15:13:42.731Z</time></trkpt><trkpt lat="45.3308067" lon="7.5852217"><ele>566.0</ele><time>2026-04-04T15:13:44.731Z</time></trkpt><trkpt lat="45.3307417" lon="7.5853017"><ele>563.0</ele><time>2026-04-04T15:13:46.732Z</time></trkpt><trkpt lat="45.3306733" lon="7.5853633"><ele>561.6666666666666</ele><time>2026-04-04T15:13:48.731Z</time></trkpt><trkpt lat="45.3306517" lon="7.5854583"><ele>560.3333333333333</ele><time>2026-04-04T15:13:50.732Z</time></trkpt><trkpt lat="45.33069" lon="7.5855483"><ele>559.0</ele><time>2026-04-04T15:13:53.732Z</time></trkpt><trkpt lat="45.330665" lon="7.5856617"><ele>557.6666666666666</ele><time>2026-04-04T15:14:17.732Z</time></trkpt><trkpt lat="45.3305767" lon="7.585665"><ele>556.3333333333334</ele><time>2026-04-04T15:14:20.731Z</time></trkpt><trkpt lat="45.330505" lon="7.5856367"><ele>555.0</ele><time>2026-04-04T15:14:22.731Z</time></trkpt><trkpt lat="45.3304367" lon="7.5855733"><ele>555.1666666666666</ele><time>2026-04-04T15:14:24.731Z</time></trkpt><trkpt lat="45.3303683" lon="7.5854633"><ele>555.3333333333334</ele><time>2026-04-04T15:14:26.732Z</time></trkpt><trkpt lat="45.33031" lon="7.5853633"><ele>555.5</ele><time>2026-04-04T15:14:28.732Z</time></trkpt><trkpt lat="45.3302467" lon="7.5853217"><ele>555.6666666666667</ele><time>2026-04-04T15:14:30.731Z</time></trkpt><trkpt lat="45.330185" lon="7.5853783"><ele>555.8333333333334</ele><time>2026-04-04T15:14:33.731Z</time></trkpt><trkpt lat="45.3301333" lon="7.58547"><ele>556.0</ele><time>2026-04-04T15:14:36.731Z</time></trkpt><trkpt lat="45.3300067" lon="7.5855233"><ele>555.6</ele><time>2026-04-04T15:14:38.731Z</time></trkpt><trkpt lat="45.3299233" lon="7.5855283"><ele>555.2</ele><time>2026-04-04T15:14:39.732Z</time></trkpt><trkpt lat="45.3298433" lon="7.5855067"><ele>554.8</ele><time>2026-04-04T15:14:40.731Z</time></trkpt><trkpt lat="45.32975" lon="7.5854483"><ele>554.4</ele><time>2026-04-04T15:14:41.731Z</time></trkpt><trkpt lat="45.329655" lon="7.58538"><ele>554.0</ele><time>2026-04-04T15:14:42.731Z</time></trkpt><trkpt lat="45.3295617" lon="7.585295"><ele>555.3333333333333</ele><time>2026-04-04T15:14:43.731Z</time></trkpt><trkpt lat="45.3294933" lon="7.5852133"><ele>556.6666666666666</ele><time>2026-04-04T15:14:44.731Z</time></trkpt><trkpt lat="45.3294333" lon="7.5851333"><ele>558.0</ele><time>2026-04-04T15:14:45.731Z</time></trkpt><trkpt lat="45.3293833" lon="7.5850683"><ele>559.3333333333334</ele><time>2026-04-04T15:14:46.732Z</time></trkpt><trkpt lat="45.32929" lon="7.585"><ele>560.6666666666667</ele><time>2026-04-04T15:14:48.731Z</time></trkpt><trkpt lat="45.3292817" lon="7.585125"><ele>562.0</ele><time>2026-04-04T15:14:51.731Z</time></trkpt><trkpt lat="45.3292933" lon="7.5852933"><ele>560.6666666666667</ele><time>2026-04-04T15:14:53.732Z</time></trkpt><trkpt lat="45.3292767" lon="7.5854083"><ele>559.3333333333334</ele><time>2026-04-04T15:14:55.731Z</time></trkpt><trkpt lat="45.3292383" lon="7.585485"><ele>558.0</ele><time>2026-04-04T15:14:56.732Z</time></trkpt><trkpt lat="45.32919" lon="7.5855633"><ele>556.6666666666666</ele><time>2026-04-04T15:14:57.731Z</time></trkpt><trkpt lat="45.3291333" lon="7.58564"><ele>555.3333333333333</ele><time>2026-04-04T15:14:58.731Z</time></trkpt><trkpt lat="45.3290733" lon="7.5857167"><ele>554.0</ele><time>2026-04-04T15:14:59.731Z</time></trkpt><trkpt lat="45.3290167" lon="7.5858067"><ele>554.0</ele><time>2026-04-04T15:15:00.731Z</time></trkpt><trkpt lat="45.3289817" lon="7.5859"><ele>554.0</ele><time>2026-04-04T15:15:01.732Z</time></trkpt><trkpt lat="45.3289567" lon="7.586005"><ele>554.0</ele><time>2026-04-04T15:15:02.731Z</time></trkpt><trkpt lat="45.3289433" lon="7.586115"><ele>554.0</ele><time>2026-04-04T15:15:03.732Z</time></trkpt><trkpt lat="45.3289383" lon="7.58622"><ele>554.0</ele><time>2026-04-04T15:15:04.732Z</time></trkpt><trkpt lat="45.3289433" lon="7.5863333"><ele>554.0</ele><time>2026-04-04T15:15:05.731Z</time></trkpt><trkpt lat="45.3289483" lon="7.58645"><ele>554.3333333333333</ele><time>2026-04-04T15:15:06.732Z</time></trkpt><trkpt lat="45.328955" lon="7.586555"><ele>554.6666666666666</ele><time>2026-04-04T15:15:07.731Z</time></trkpt><trkpt lat="45.3289567" lon="7.5866483"><ele>555.0</ele><time>2026-04-04T15:15:08.732Z</time></trkpt><trkpt lat="45.3289633" lon="7.5868167"><ele>555.3333333333334</ele><time>2026-04-04T15:15:10.731Z</time></trkpt><trkpt lat="45.3289433" lon="7.586975"><ele>555.6666666666667</ele><time>2026-04-04T15:15:12.731Z</time></trkpt><trkpt lat="45.3289117" lon="7.5870567"><ele>556.0</ele><time>2026-04-04T15:15:13.731Z</time></trkpt><trkpt lat="45.3288467" lon="7.5871833"><ele>556.0</ele><time>2026-04-04T15:15:15.731Z</time></trkpt><trkpt lat="45.3287983" lon="7.58725"><ele>556.0</ele><time>2026-04-04T15:15:16.731Z</time></trkpt><trkpt lat="45.32872" lon="7.587355"><ele>556.0</ele><time>2026-04-04T15:15:18.732Z</time></trkpt><trkpt lat="45.3286033" lon="7.58742"><ele>556.0</ele><time>2026-04-04T15:15:20.731Z</time></trkpt><trkpt lat="45.3285283" lon="7.587445"><ele>556.0</ele><time>2026-04-04T15:15:21.731Z</time></trkpt><trkpt lat="45.3284617" lon="7.5874617"><ele>556.0</ele><time>2026-04-04T15:15:22.732Z</time></trkpt><trkpt lat="45.3283667" lon="7.587535"><ele>556.0</ele><time>2026-04-04T15:15:24.732Z</time></trkpt><trkpt lat="45.3283117" lon="7.5876767"><ele>556.0</ele><time>2026-04-04T15:15:26.731Z</time></trkpt><trkpt lat="45.3282917" lon="7.5878517"><ele>556.0</ele><time>2026-04-04T15:15:28.731Z</time></trkpt><trkpt lat="45.3282783" lon="7.5880133"><ele>556.0</ele><time>2026-04-04T15:15:30.731Z</time></trkpt><trkpt lat="45.32829" lon="7.588195"><ele>554.0</ele><time>2026-04-04T15:15:32.73Z</time></trkpt><trkpt lat="45.3282867" lon="7.5883033"><ele>552.0</ele><time>2026-04-04T15:15:33.73Z</time></trkpt><trkpt lat="45.3282883" lon="7.58842"><ele>550.0</ele><time>2026-04-04T15:15:34.73Z</time></trkpt><trkpt lat="45.3282917" lon="7.5885317"><ele>548.0</ele><time>2026-04-04T15:15:35.731Z</time></trkpt><trkpt lat="45.328295" lon="7.5886283"><ele>546.0</ele><time>2026-04-04T15:15:36.73Z</time></trkpt><trkpt lat="45.32829" lon="7.5887283"><ele>544.0</ele><time>2026-04-04T15:15:37.73Z</time></trkpt><trkpt lat="45.32827" lon="7.5888317"><ele>543.0</ele><time>2026-04-04T15:15:38.73Z</time></trkpt><trkpt lat="45.32824" lon="7.5889467"><ele>542.0</ele><time>2026-04-04T15:15:39.73Z</time></trkpt><trkpt lat="45.3282067" lon="7.589055"><ele>541.0</ele><time>2026-04-04T15:15:40.73Z</time></trkpt><trkpt lat="45.3281667" lon="7.589165"><ele>540.0</ele><time>2026-04-04T15:15:41.73Z</time></trkpt><trkpt lat="45.328125" lon="7.5892767"><ele>539.0</ele><time>2026-04-04T15:15:42.73Z</time></trkpt><trkpt lat="45.3280817" lon="7.5893867"><ele>538.0</ele><time>2026-04-04T15:15:43.73Z</time></trkpt><trkpt lat="45.32804" lon="7.5894983"><ele>540.4</ele><time>2026-04-04T15:15:44.73Z</time></trkpt><trkpt lat="45.32799" lon="7.5896083"><ele>542.8</ele><time>2026-04-04T15:15:45.73Z</time></trkpt><trkpt lat="45.3279467" lon="7.5897183"><ele>545.2</ele><time>2026-04-04T15:15:46.731Z</time></trkpt><trkpt lat="45.3279" lon="7.58983"><ele>547.6</ele><time>2026-04-04T15:15:47.73Z</time></trkpt><trkpt lat="45.3278533" lon="7.589945"><ele>550.0</ele><time>2026-04-04T15:15:48.73Z</time></trkpt><trkpt lat="45.32781" lon="7.5900517"><ele>550.0</ele><time>2026-04-04T15:15:49.73Z</time></trkpt><trkpt lat="45.327765" lon="7.590165"><ele>550.0</ele><time>2026-04-04T15:15:50.731Z</time></trkpt><trkpt lat="45.327735" lon="7.590275"><ele>550.0</ele><time>2026-04-04T15:15:51.73Z</time></trkpt><trkpt lat="45.327695" lon="7.5903817"><ele>550.0</ele><time>2026-04-04T15:15:52.73Z</time></trkpt><trkpt lat="45.3276617" lon="7.5904767"><ele>550.0</ele><time>2026-04-04T15:15:53.731Z</time></trkpt><trkpt lat="45.3275983" lon="7.5905867"><ele>550.0</ele><time>2026-04-04T15:15:55.73Z</time></trkpt><trkpt lat="45.3275367" lon="7.5906167"><ele>550.0</ele><time>2026-04-04T15:15:59.731Z</time></trkpt><trkpt lat="45.3274833" lon="7.59052"><ele>550.0</ele><time>2026-04-04T15:16:02.73Z</time></trkpt><trkpt lat="45.3274167" lon="7.5904033"><ele>550.0</ele><time>2026-04-04T15:16:04.731Z</time></trkpt><trkpt lat="45.3273783" lon="7.5903217"><ele>550.0</ele><time>2026-04-04T15:16:05.73Z</time></trkpt><trkpt lat="45.3273383" lon="7.59024"><ele>550.0</ele><time>2026-04-04T15:16:06.73Z</time></trkpt><trkpt lat="45.3273017" lon="7.590165"><ele>550.0</ele><time>2026-04-04T15:16:07.73Z</time></trkpt><trkpt lat="45.3272583" lon="7.5900983"><ele>550.1666666666667</ele><time>2026-04-04T15:16:08.731Z</time></trkpt><trkpt lat="45.3272017" lon="7.5900483"><ele>550.3333333333334</ele><time>2026-04-04T15:16:09.73Z</time></trkpt><trkpt lat="45.3271383" lon="7.5899983"><ele>550.5</ele><time>2026-04-04T15:16:10.73Z</time></trkpt><trkpt lat="45.3270633" lon="7.58994"><ele>550.6666666666666</ele><time>2026-04-04T15:16:11.731Z</time></trkpt><trkpt lat="45.3269867" lon="7.58987"><ele>550.8333333333333</ele><time>2026-04-04T15:16:12.73Z</time></trkpt><trkpt lat="45.32691" lon="7.5898033"><ele>551.0</ele><time>2026-04-04T15:16:13.731Z</time></trkpt><trkpt lat="45.326835" lon="7.58974"><ele>550.9999999999999</ele><time>2026-04-04T15:16:14.731Z</time></trkpt><trkpt lat="45.326765" lon="7.589685"><ele>551.0</ele><time>2026-04-04T15:16:15.731Z</time></trkpt><trkpt lat="45.3266983" lon="7.589635"><ele>551.0</ele><time>2026-04-04T15:16:16.73Z</time></trkpt><trkpt lat="45.3266283" lon="7.5896017"><ele>551.0</ele><time>2026-04-04T15:16:17.731Z</time></trkpt><trkpt lat="45.3265583" lon="7.58957"><ele>551.0</ele><time>2026-04-04T15:16:18.731Z</time></trkpt><trkpt lat="45.3264867" lon="7.5895367"><ele>550.9999999999999</ele><time>2026-04-04T15:16:19.73Z</time></trkpt><trkpt lat="45.32642" lon="7.58952"><ele>551.0</ele><time>2026-04-04T15:16:20.73Z</time></trkpt><trkpt lat="45.3263067" lon="7.5895267"><ele>554.0</ele><time>2026-04-04T15:16:22.73Z</time></trkpt><trkpt lat="45.3262417" lon="7.5895517"><ele>557.0</ele><time>2026-04-04T15:16:23.73Z</time></trkpt><trkpt lat="45.326175" lon="7.589575"><ele>560.0</ele><time>2026-04-04T15:16:24.731Z</time></trkpt><trkpt lat="45.3261117" lon="7.5895933"><ele>563.0</ele><time>2026-04-04T15:16:25.73Z</time></trkpt><trkpt lat="45.3260517" lon="7.589625"><ele>566.0</ele><time>2026-04-04T15:16:26.73Z</time></trkpt><trkpt lat="45.325955" lon="7.5897283"><ele>569.0</ele><time>2026-04-04T15:16:28.73Z</time></trkpt><trkpt lat="45.3258983" lon="7.5897867"><ele>569.0</ele><time>2026-04-04T15:16:29.73Z</time></trkpt><trkpt lat="45.325835" lon="7.5898433"><ele>569.0</ele><time>2026-04-04T15:16:30.73Z</time></trkpt><trkpt lat="45.3257733" lon="7.5898917"><ele>569.0</ele><time>2026-04-04T15:16:31.73Z</time></trkpt><trkpt lat="45.3256617" lon="7.589925"><ele>569.0</ele><time>2026-04-04T15:16:33.731Z</time></trkpt><trkpt lat="45.32556" lon="7.58992"><ele>569.0</ele><time>2026-04-04T15:16:35.73Z</time></trkpt><trkpt lat="45.3254517" lon="7.58986"><ele>569.75</ele><time>2026-04-04T15:16:37.73Z</time></trkpt><trkpt lat="45.3253617" lon="7.589745"><ele>570.5</ele><time>2026-04-04T15:16:39.731Z</time></trkpt><trkpt lat="45.3252833" lon="7.5896167"><ele>571.25</ele><time>2026-04-04T15:16:41.73Z</time></trkpt><trkpt lat="45.3252017" lon="7.5894917"><ele>572.0</ele><time>2026-04-04T15:16:43.73Z</time></trkpt><trkpt lat="45.325135" lon="7.58936"><ele>572.0</ele><time>2026-04-04T15:16:45.73Z</time></trkpt><trkpt lat="45.3250867" lon="7.5892617"><ele>572.0</ele><time>2026-04-04T15:16:47.73Z</time></trkpt><trkpt lat="45.3250217" lon="7.5892067"><ele>572.0</ele><time>2026-04-04T15:16:51.731Z</time></trkpt><trkpt lat="45.3249433" lon="7.5892583"><ele>572.0</ele><time>2026-04-04T15:16:53.73Z</time></trkpt><trkpt lat="45.3248867" lon="7.5893083"><ele>572.0</ele><time>2026-04-04T15:16:54.73Z</time></trkpt><trkpt lat="45.3248133" lon="7.58935"><ele>572.0</ele><time>2026-04-04T15:16:55.731Z</time></trkpt><trkpt lat="45.3247317" lon="7.58939"><ele>571.2</ele><time>2026-04-04T15:16:56.731Z</time></trkpt><trkpt lat="45.32466" lon="7.5894217"><ele>570.4000000000001</ele><time>2026-04-04T15:16:57.73Z</time></trkpt><trkpt lat="45.3245567" lon="7.589485"><ele>569.5999999999999</ele><time>2026-04-04T15:16:59.73Z</time></trkpt><trkpt lat="45.3244883" lon="7.5895517"><ele>568.8</ele><time>2026-04-04T15:17:01.73Z</time></trkpt><trkpt lat="45.324405" lon="7.5895833"><ele>568.0</ele><time>2026-04-04T15:17:03.73Z</time></trkpt><trkpt lat="45.324295" lon="7.5895867"><ele>568.0</ele><time>2026-04-04T15:17:05.73Z</time></trkpt><trkpt lat="45.3242267" lon="7.589575"><ele>568.0</ele><time>2026-04-04T15:17:06.731Z</time></trkpt><trkpt lat="45.3241517" lon="7.5895483"><ele>568.0</ele><time>2026-04-04T15:17:07.73Z</time></trkpt><trkpt lat="45.3240683" lon="7.5895233"><ele>568.0</ele><time>2026-04-04T15:17:08.731Z</time></trkpt><trkpt lat="45.3240083" lon="7.5894783"><ele>568.0</ele><time>2026-04-04T15:17:09.73Z</time></trkpt><trkpt lat="45.32396" lon="7.5894183"><ele>568.0</ele><time>2026-04-04T15:17:10.731Z</time></trkpt><trkpt lat="45.3239183" lon="7.5893483"><ele>568.0</ele><time>2026-04-04T15:17:11.73Z</time></trkpt><trkpt lat="45.32384" lon="7.5892317"><ele>565.6</ele><time>2026-04-04T15:17:13.731Z</time></trkpt><trkpt lat="45.32379" lon="7.5890967"><ele>563.1999999999999</ele><time>2026-04-04T15:17:15.73Z</time></trkpt><trkpt lat="45.3237333" lon="7.5889767"><ele>560.8</ele><time>2026-04-04T15:17:17.73Z</time></trkpt><trkpt lat="45.32367" lon="7.5889483"><ele>558.4</ele><time>2026-04-04T15:17:20.731Z</time></trkpt><trkpt lat="45.3236617" lon="7.58906"><ele>556.0</ele><time>2026-04-04T15:17:23.73Z</time></trkpt><trkpt lat="45.32367" lon="7.5891983"><ele>556.0</ele><time>2026-04-04T15:17:25.731Z</time></trkpt><trkpt lat="45.3236833" lon="7.5893383"><ele>556.0</ele><time>2026-04-04T15:17:27.73Z</time></trkpt><trkpt lat="45.3236867" lon="7.5894633"><ele>556.0</ele><time>2026-04-04T15:17:29.73Z</time></trkpt><trkpt lat="45.3236617" lon="7.5896133"><ele>556.0</ele><time>2026-04-04T15:17:31.73Z</time></trkpt><trkpt lat="45.323625" lon="7.5896917"><ele>556.0</ele><time>2026-04-04T15:17:32.73Z</time></trkpt><trkpt lat="45.32357" lon="7.5897517"><ele>556.0</ele><time>2026-04-04T15:17:33.73Z</time></trkpt><trkpt lat="45.323515" lon="7.5898117"><ele>554.5</ele><time>2026-04-04T15:17:34.73Z</time></trkpt><trkpt lat="45.3234533" lon="7.589855"><ele>553.0</ele><time>2026-04-04T15:17:35.73Z</time></trkpt><trkpt lat="45.3233867" lon="7.5898917"><ele>551.5</ele><time>2026-04-04T15:17:36.73Z</time></trkpt><trkpt lat="45.3233067" lon="7.5899133"><ele>550.0</ele><time>2026-04-04T15:17:37.73Z</time></trkpt><trkpt lat="45.3232067" lon="7.5899233"><ele>548.5</ele><time>2026-04-04T15:17:38.731Z</time></trkpt><trkpt lat="45.3231133" lon="7.589915"><ele>547.0</ele><time>2026-04-04T15:17:39.73Z</time></trkpt><trkpt lat="45.3230167" lon="7.589945"><ele>547.0</ele><time>2026-04-04T15:17:41.73Z</time></trkpt><trkpt lat="45.322935" lon="7.590075"><ele>547.0</ele><time>2026-04-04T15:17:43.73Z</time></trkpt><trkpt lat="45.3228883" lon="7.5901367"><ele>547.0</ele><time>2026-04-04T15:17:44.73Z</time></trkpt><trkpt lat="45.3228133" lon="7.5902217"><ele>547.0</ele><time>2026-04-04T15:17:46.73Z</time></trkpt><trkpt lat="45.3227217" lon="7.5902983"><ele>547.0</ele><time>2026-04-04T15:17:48.73Z</time></trkpt><trkpt lat="45.3226083" lon="7.59035"><ele>544.8333333333334</ele><time>2026-04-04T15:17:50.73Z</time></trkpt><trkpt lat="45.3225417" lon="7.5903883"><ele>542.6666666666667</ele><time>2026-04-04T15:17:52.731Z</time></trkpt><trkpt lat="45.3225183" lon="7.5905467"><ele>540.5</ele><time>2026-04-04T15:17:54.731Z</time></trkpt><trkpt lat="45.3225017" lon="7.5906367"><ele>538.3333333333334</ele><time>2026-04-04T15:17:55.73Z</time></trkpt><trkpt lat="45.3224867" lon="7.5907267"><ele>536.1666666666666</ele><time>2026-04-04T15:17:56.731Z</time></trkpt><trkpt lat="45.3224417" lon="7.590855"><ele>534.0</ele><time>2026-04-04T15:17:58.73Z</time></trkpt><trkpt lat="45.322335" lon="7.5909367"><ele>534.0</ele><time>2026-04-04T15:18:00.73Z</time></trkpt><trkpt lat="45.3222617" lon="7.5909817"><ele>534.0</ele><time>2026-04-04T15:18:02.73Z</time></trkpt><trkpt lat="45.3222533" lon="7.5910833"><ele>534.0</ele><time>2026-04-04T15:18:04.73Z</time></trkpt><trkpt lat="45.3222583" lon="7.5912467"><ele>534.0</ele><time>2026-04-04T15:18:06.73Z</time></trkpt><trkpt lat="45.3222383" lon="7.59135"><ele>534.0</ele><time>2026-04-04T15:18:07.73Z</time></trkpt><trkpt lat="45.3222183" lon="7.5914483"><ele>534.0</ele><time>2026-04-04T15:18:08.73Z</time></trkpt><trkpt lat="45.3221983" lon="7.5915833"><ele>531.5</ele><time>2026-04-04T15:18:10.731Z</time></trkpt><trkpt lat="45.3222433" lon="7.591655"><ele>529.0</ele><time>2026-04-04T15:18:13.73Z</time></trkpt><trkpt lat="45.32232" lon="7.59176"><ele>526.5</ele><time>2026-04-04T15:18:15.73Z</time></trkpt><trkpt lat="45.3223583" lon="7.5918617"><ele>524.0</ele><time>2026-04-04T15:18:16.73Z</time></trkpt><trkpt lat="45.3223883" lon="7.592"><ele>521.5</ele><time>2026-04-04T15:18:17.73Z</time></trkpt><trkpt lat="45.3224133" lon="7.5921233"><ele>519.0</ele><time>2026-04-04T15:18:18.73Z</time></trkpt><trkpt lat="45.3224333" lon="7.5922383"><ele>518.6666666666666</ele><time>2026-04-04T15:18:19.731Z</time></trkpt><trkpt lat="45.322445" lon="7.592335"><ele>518.3333333333334</ele><time>2026-04-04T15:18:20.73Z</time></trkpt><trkpt lat="45.3224467" lon="7.59244"><ele>518.0</ele><time>2026-04-04T15:18:21.73Z</time></trkpt><trkpt lat="45.3224383" lon="7.5925383"><ele>517.6666666666667</ele><time>2026-04-04T15:18:22.731Z</time></trkpt><trkpt lat="45.3224133" lon="7.5926517"><ele>517.3333333333334</ele><time>2026-04-04T15:18:23.73Z</time></trkpt><trkpt lat="45.3223783" lon="7.5927717"><ele>517.0</ele><time>2026-04-04T15:18:24.731Z</time></trkpt><trkpt lat="45.322335" lon="7.5928917"><ele>518.5</ele><time>2026-04-04T15:18:25.73Z</time></trkpt><trkpt lat="45.3223067" lon="7.5930017"><ele>520.0</ele><time>2026-04-04T15:18:26.73Z</time></trkpt><trkpt lat="45.32227" lon="7.5930983"><ele>521.5</ele><time>2026-04-04T15:18:27.731Z</time></trkpt><trkpt lat="45.3222483" lon="7.5931833"><ele>523.0</ele><time>2026-04-04T15:18:28.73Z</time></trkpt><trkpt lat="45.3221983" lon="7.5933483"><ele>524.5</ele><time>2026-04-04T15:18:30.73Z</time></trkpt><trkpt lat="45.322185" lon="7.59344"><ele>526.0</ele><time>2026-04-04T15:18:31.73Z</time></trkpt><trkpt lat="45.3221633" lon="7.5935367"><ele>522.5</ele><time>2026-04-04T15:18:32.73Z</time></trkpt><trkpt lat="45.322135" lon="7.5937067"><ele>519.0</ele><time>2026-04-04T15:18:34.73Z</time></trkpt><trkpt lat="45.3221167" lon="7.59388"><ele>515.5</ele><time>2026-04-04T15:18:36.73Z</time></trkpt><trkpt lat="45.3220967" lon="7.5940383"><ele>512.0</ele><time>2026-04-04T15:18:38.731Z</time></trkpt><trkpt lat="45.3221067" lon="7.5941683"><ele>511.99999999999994</ele><time>2026-04-04T15:18:40.731Z</time></trkpt><trkpt lat="45.3221433" lon="7.59427"><ele>512.0</ele><time>2026-04-04T15:18:42.73Z</time></trkpt><trkpt lat="45.322225" lon="7.594345"><ele>512.0</ele><time>2026-04-04T15:18:44.731Z</time></trkpt><trkpt lat="45.3222983" lon="7.59442"><ele>512.0</ele><time>2026-04-04T15:18:46.73Z</time></trkpt><trkpt lat="45.32234" lon="7.594525"><ele>511.99999999999994</ele><time>2026-04-04T15:18:48.73Z</time></trkpt><trkpt lat="45.32237" lon="7.594605"><ele>512.0</ele><time>2026-04-04T15:18:49.73Z</time></trkpt><trkpt lat="45.3224117" lon="7.5947667"><ele>509.8333333333333</ele><time>2026-04-04T15:18:51.731Z</time></trkpt><trkpt lat="45.3224383" lon="7.594945"><ele>507.66666666666663</ele><time>2026-04-04T15:18:53.73Z</time></trkpt><trkpt lat="45.322455" lon="7.5950317"><ele>505.5</ele><time>2026-04-04T15:18:54.731Z</time></trkpt><trkpt lat="45.3224667" lon="7.5951333"><ele>503.33333333333337</ele><time>2026-04-04T15:18:55.73Z</time></trkpt><trkpt lat="45.3224683" lon="7.595235"><ele>501.1666666666667</ele><time>2026-04-04T15:18:56.731Z</time></trkpt><trkpt lat="45.322465" lon="7.59533"><ele>499.0</ele><time>2026-04-04T15:18:57.73Z</time></trkpt><trkpt lat="45.3224617" lon="7.5954217"><ele>498.33333333333337</ele><time>2026-04-04T15:18:58.731Z</time></trkpt><trkpt lat="45.3224667" lon="7.595515"><ele>497.6666666666667</ele><time>2026-04-04T15:18:59.73Z</time></trkpt><trkpt lat="45.322475" lon="7.5956133"><ele>497.0</ele><time>2026-04-04T15:19:00.73Z</time></trkpt><trkpt lat="45.3224767" lon="7.5957083"><ele>496.33333333333337</ele><time>2026-04-04T15:19:01.731Z</time></trkpt><trkpt lat="45.3224767" lon="7.595855"><ele>495.6666666666667</ele><time>2026-04-04T15:19:03.73Z</time></trkpt><trkpt lat="45.3224483" lon="7.595965"><ele>495.0</ele><time>2026-04-04T15:19:05.73Z</time></trkpt><trkpt lat="45.32238" lon="7.5960067"><ele>494.99999999999994</ele><time>2026-04-04T15:19:07.73Z</time></trkpt><trkpt lat="45.3223217" lon="7.59597"><ele>495.0</ele><time>2026-04-04T15:19:08.73Z</time></trkpt><trkpt lat="45.3222533" lon="7.5959217"><ele>494.99999999999994</ele><time>2026-04-04T15:19:09.73Z</time></trkpt><trkpt lat="45.322185" lon="7.595875"><ele>494.99999999999994</ele><time>2026-04-04T15:19:10.731Z</time></trkpt><trkpt lat="45.3221183" lon="7.5958383"><ele>495.0</ele><time>2026-04-04T15:19:11.73Z</time></trkpt><trkpt lat="45.3220517" lon="7.5958117"><ele>494.99999999999994</ele><time>2026-04-04T15:19:12.73Z</time></trkpt><trkpt lat="45.321985" lon="7.5958083"><ele>494.99999999999994</ele><time>2026-04-04T15:19:13.73Z</time></trkpt><trkpt lat="45.3219217" lon="7.5958133"><ele>494.2</ele><time>2026-04-04T15:19:14.73Z</time></trkpt><trkpt lat="45.321805" lon="7.5958433"><ele>493.4</ele><time>2026-04-04T15:19:16.731Z</time></trkpt><trkpt lat="45.3217017" lon="7.59588"><ele>492.6</ele><time>2026-04-04T15:19:18.73Z</time></trkpt><trkpt lat="45.32164" lon="7.59591"><ele>491.8</ele><time>2026-04-04T15:19:19.73Z</time></trkpt><trkpt lat="45.3215233" lon="7.5959433"><ele>491.0</ele><time>2026-04-04T15:19:21.73Z</time></trkpt><trkpt lat="45.32141" lon="7.59596"><ele>488.8333333333333</ele><time>2026-04-04T15:19:23.73Z</time></trkpt><trkpt lat="45.32134" lon="7.5959717"><ele>486.66666666666663</ele><time>2026-04-04T15:19:24.73Z</time></trkpt><trkpt lat="45.3212683" lon="7.5959717"><ele>484.5</ele><time>2026-04-04T15:19:25.731Z</time></trkpt><trkpt lat="45.321195" lon="7.5959667"><ele>482.33333333333337</ele><time>2026-04-04T15:19:26.731Z</time></trkpt><trkpt lat="45.3211233" lon="7.5959683"><ele>480.1666666666667</ele><time>2026-04-04T15:19:27.73Z</time></trkpt><trkpt lat="45.3210317" lon="7.5959883"><ele>478.0</ele><time>2026-04-04T15:19:28.731Z</time></trkpt><trkpt lat="45.3209467" lon="7.595995"><ele>478.00000000000006</ele><time>2026-04-04T15:19:29.731Z</time></trkpt><trkpt lat="45.32086" lon="7.5960017"><ele>478.0</ele><time>2026-04-04T15:19:30.73Z</time></trkpt><trkpt lat="45.3207817" lon="7.5959883"><ele>478.0</ele><time>2026-04-04T15:19:31.73Z</time></trkpt><trkpt lat="45.3207133" lon="7.5959717"><ele>478.0</ele><time>2026-04-04T15:19:32.73Z</time></trkpt><trkpt lat="45.3206233" lon="7.5959683"><ele>478.00000000000006</ele><time>2026-04-04T15:19:34.729Z</time></trkpt><trkpt lat="45.3205517" lon="7.5959717"><ele>478.0</ele><time>2026-04-04T15:19:36.729Z</time></trkpt><trkpt lat="45.3204533" lon="7.5960033"><ele>476.6666666666667</ele><time>2026-04-04T15:19:38.729Z</time></trkpt><trkpt lat="45.3203717" lon="7.5960267"><ele>475.33333333333337</ele><time>2026-04-04T15:19:40.729Z</time></trkpt><trkpt lat="45.3202933" lon="7.5960583"><ele>474.0</ele><time>2026-04-04T15:19:42.73Z</time></trkpt><trkpt lat="45.3201833" lon="7.596065"><ele>472.66666666666663</ele><time>2026-04-04T15:19:44.729Z</time></trkpt><trkpt lat="45.3201183" lon="7.596065"><ele>471.3333333333333</ele><time>2026-04-04T15:19:45.73Z</time></trkpt><trkpt lat="45.3200533" lon="7.5960817"><ele>470.0</ele><time>2026-04-04T15:19:46.729Z</time></trkpt><trkpt lat="45.3199867" lon="7.5960983"><ele>469.99999999999994</ele><time>2026-04-04T15:19:47.73Z</time></trkpt><trkpt lat="45.31992" lon="7.5961083"><ele>470.0</ele><time>2026-04-04T15:19:48.73Z</time></trkpt><trkpt lat="45.319845" lon="7.5961283"><ele>470.0</ele><time>2026-04-04T15:19:49.729Z</time></trkpt><trkpt lat="45.319765" lon="7.59615"><ele>470.0</ele><time>2026-04-04T15:19:50.729Z</time></trkpt><trkpt lat="45.319685" lon="7.5961717"><ele>469.99999999999994</ele><time>2026-04-04T15:19:51.729Z</time></trkpt><trkpt lat="45.3196067" lon="7.5961933"><ele>470.0</ele><time>2026-04-04T15:19:52.729Z</time></trkpt><trkpt lat="45.3195383" lon="7.596225"><ele>469.4</ele><time>2026-04-04T15:19:53.729Z</time></trkpt><trkpt lat="45.3194683" lon="7.5962617"><ele>468.8</ele><time>2026-04-04T15:19:54.729Z</time></trkpt><trkpt lat="45.31941" lon="7.5962967"><ele>468.20000000000005</ele><time>2026-04-04T15:19:55.729Z</time></trkpt><trkpt lat="45.3193117" lon="7.5964017"><ele>467.6</ele><time>2026-04-04T15:19:57.73Z</time></trkpt><trkpt lat="45.3192533" lon="7.5965467"><ele>467.0</ele><time>2026-04-04T15:19:59.729Z</time></trkpt><trkpt lat="45.31918" lon="7.5966717"><ele>466.99999999999994</ele><time>2026-04-04T15:20:01.729Z</time></trkpt><trkpt lat="45.3191267" lon="7.59673"><ele>467.0</ele><time>2026-04-04T15:20:02.73Z</time></trkpt><trkpt lat="45.3190683" lon="7.596775"><ele>466.99999999999994</ele><time>2026-04-04T15:20:03.729Z</time></trkpt><trkpt lat="45.3189983" lon="7.5968033"><ele>466.99999999999994</ele><time>2026-04-04T15:20:04.729Z</time></trkpt><trkpt lat="45.3189167" lon="7.5968233"><ele>467.0</ele><time>2026-04-04T15:20:05.729Z</time></trkpt><trkpt lat="45.3188417" lon="7.5968383"><ele>466.99999999999994</ele><time>2026-04-04T15:20:06.729Z</time></trkpt><trkpt lat="45.3187783" lon="7.596835"><ele>466.99999999999994</ele><time>2026-04-04T15:20:07.729Z</time></trkpt><trkpt lat="45.3187083" lon="7.5968267"><ele>464.3333333333333</ele><time>2026-04-04T15:20:08.729Z</time></trkpt><trkpt lat="45.3185917" lon="7.596795"><ele>461.66666666666663</ele><time>2026-04-04T15:20:10.729Z</time></trkpt><trkpt lat="45.3185283" lon="7.5967883"><ele>459.0</ele><time>2026-04-04T15:20:11.729Z</time></trkpt><trkpt lat="45.3184533" lon="7.59678"><ele>456.33333333333337</ele><time>2026-04-04T15:20:12.73Z</time></trkpt><trkpt lat="45.3183667" lon="7.5967817"><ele>453.6666666666667</ele><time>2026-04-04T15:20:13.73Z</time></trkpt><trkpt lat="45.3182667" lon="7.5967817"><ele>451.0</ele><time>2026-04-04T15:20:14.729Z</time></trkpt><trkpt lat="45.3181667" lon="7.5967767"><ele>451.00000000000006</ele><time>2026-04-04T15:20:15.729Z</time></trkpt><trkpt lat="45.31807" lon="7.59678"><ele>451.0</ele><time>2026-04-04T15:20:16.73Z</time></trkpt><trkpt lat="45.317985" lon="7.5967933"><ele>451.0</ele><time>2026-04-04T15:20:17.73Z</time></trkpt><trkpt lat="45.3179133" lon="7.596815"><ele>451.0</ele><time>2026-04-04T15:20:18.73Z</time></trkpt><trkpt lat="45.3178217" lon="7.5968583"><ele>451.00000000000006</ele><time>2026-04-04T15:20:20.729Z</time></trkpt><trkpt lat="45.31779" lon="7.5969583"><ele>451.0</ele><time>2026-04-04T15:20:22.729Z</time></trkpt><trkpt lat="45.317805" lon="7.5971017"><ele>448.0</ele><time>2026-04-04T15:20:24.729Z</time></trkpt><trkpt lat="45.3177867" lon="7.5972317"><ele>445.0</ele><time>2026-04-04T15:20:26.729Z</time></trkpt><trkpt lat="45.3177283" lon="7.59731"><ele>442.0</ele><time>2026-04-04T15:20:28.73Z</time></trkpt><trkpt lat="45.317635" lon="7.59735"><ele>439.0</ele><time>2026-04-04T15:20:30.729Z</time></trkpt><trkpt lat="45.317525" lon="7.59739"><ele>436.0</ele><time>2026-04-04T15:20:32.729Z</time></trkpt><trkpt lat="45.3173917" lon="7.597415"><ele>436.0</ele><time>2026-04-04T15:20:34.729Z</time></trkpt><trkpt lat="45.3173183" lon="7.59739"><ele>436.0</ele><time>2026-04-04T15:20:35.729Z</time></trkpt><trkpt lat="45.31725" lon="7.5973533"><ele>436.0</ele><time>2026-04-04T15:20:36.729Z</time></trkpt><trkpt lat="45.3171617" lon="7.597245"><ele>436.0</ele><time>2026-04-04T15:20:38.729Z</time></trkpt><trkpt lat="45.3171017" lon="7.5971"><ele>436.0</ele><time>2026-04-04T15:20:40.729Z</time></trkpt><trkpt lat="45.3170367" lon="7.59695"><ele>431.8</ele><time>2026-04-04T15:20:42.73Z</time></trkpt><trkpt lat="45.31698" lon="7.596815"><ele>427.6</ele><time>2026-04-04T15:20:44.729Z</time></trkpt><trkpt lat="45.3169667" lon="7.5966767"><ele>423.4</ele><time>2026-04-04T15:20:46.729Z</time></trkpt><trkpt lat="45.3169617" lon="7.5965333"><ele>419.2</ele><time>2026-04-04T15:20:48.73Z</time></trkpt><trkpt lat="45.316945" lon="7.59643"><ele>415.0</ele><time>2026-04-04T15:20:50.729Z</time></trkpt><trkpt lat="45.3168567" lon="7.596405"><ele>415.0</ele><time>2026-04-04T15:20:53.729Z</time></trkpt><trkpt lat="45.3167517" lon="7.5964583"><ele>415.0</ele><time>2026-04-04T15:20:55.73Z</time></trkpt><trkpt lat="45.3166933" lon="7.5964983"><ele>415.0</ele><time>2026-04-04T15:20:56.729Z</time></trkpt><trkpt lat="45.3165983" lon="7.5966217"><ele>415.0</ele><time>2026-04-04T15:20:58.73Z</time></trkpt><trkpt lat="45.31652" lon="7.59674"><ele>415.0</ele><time>2026-04-04T15:21:00.729Z</time></trkpt><trkpt lat="45.3164483" lon="7.596835"><ele>411.4</ele><time>2026-04-04T15:21:02.729Z</time></trkpt><trkpt lat="45.3163833" lon="7.5969183"><ele>407.8</ele><time>2026-04-04T15:21:04.729Z</time></trkpt><trkpt lat="45.3163217" lon="7.5969817"><ele>404.20000000000005</ele><time>2026-04-04T15:21:06.729Z</time></trkpt><trkpt lat="45.316205" lon="7.5970383"><ele>400.6</ele><time>2026-04-04T15:21:08.729Z</time></trkpt><trkpt lat="45.3161067" lon="7.5971"><ele>397.0</ele><time>2026-04-04T15:21:10.729Z</time></trkpt><trkpt lat="45.3160033" lon="7.59721"><ele>396.33333333333337</ele><time>2026-04-04T15:21:12.73Z</time></trkpt><trkpt lat="45.3159567" lon="7.59728"><ele>395.6666666666667</ele><time>2026-04-04T15:21:13.729Z</time></trkpt><trkpt lat="45.315915" lon="7.59736"><ele>395.0</ele><time>2026-04-04T15:21:14.729Z</time></trkpt><trkpt lat="45.3158767" lon="7.59744"><ele>394.33333333333337</ele><time>2026-04-04T15:21:15.729Z</time></trkpt><trkpt lat="45.315835" lon="7.59751"><ele>393.6666666666667</ele><time>2026-04-04T15:21:16.729Z</time></trkpt><trkpt lat="45.3157383" lon="7.5976283"><ele>393.0</ele><time>2026-04-04T15:21:18.729Z</time></trkpt><trkpt lat="45.3156567" lon="7.597735"><ele>391.4</ele><time>2026-04-04T15:21:20.73Z</time></trkpt><trkpt lat="45.3155867" lon="7.5978517"><ele>389.79999999999995</ele><time>2026-04-04T15:21:22.73Z</time></trkpt><trkpt lat="45.3155283" lon="7.597975"><ele>388.2</ele><time>2026-04-04T15:21:24.73Z</time></trkpt><trkpt lat="45.3154617" lon="7.5981"><ele>386.6</ele><time>2026-04-04T15:21:26.729Z</time></trkpt><trkpt lat="45.3154233" lon="7.5981783"><ele>385.0</ele><time>2026-04-04T15:21:27.729Z</time></trkpt><trkpt lat="45.315395" lon="7.5982667"><ele>384.2</ele><time>2026-04-04T15:21:28.729Z</time></trkpt><trkpt lat="45.3153583" lon="7.5983483"><ele>383.4</ele><time>2026-04-04T15:21:29.729Z</time></trkpt><trkpt lat="45.3152983" lon="7.59849"><ele>382.6</ele><time>2026-04-04T15:21:31.729Z</time></trkpt><trkpt lat="45.3152367" lon="7.5986267"><ele>381.8</ele><time>2026-04-04T15:21:33.729Z</time></trkpt><trkpt lat="45.3151733" lon="7.59877"><ele>381.0</ele><time>2026-04-04T15:21:35.729Z</time></trkpt><trkpt lat="45.3151" lon="7.5988883"><ele>379.4</ele><time>2026-04-04T15:21:37.73Z</time></trkpt><trkpt lat="45.3150333" lon="7.599"><ele>377.8</ele><time>2026-04-04T15:21:39.729Z</time></trkpt><trkpt lat="45.314975" lon="7.5991383"><ele>376.2</ele><time>2026-04-04T15:21:41.729Z</time></trkpt><trkpt lat="45.3149083" lon="7.59928"><ele>374.59999999999997</ele><time>2026-04-04T15:21:43.729Z</time></trkpt><trkpt lat="45.314865" lon="7.599355"><ele>373.0</ele><time>2026-04-04T15:21:44.73Z</time></trkpt><trkpt lat="45.314825" lon="7.599425"><ele>371.79999999999995</ele><time>2026-04-04T15:21:45.729Z</time></trkpt><trkpt lat="45.3147433" lon="7.5995283"><ele>370.6</ele><time>2026-04-04T15:21:47.729Z</time></trkpt><trkpt lat="45.3146517" lon="7.599615"><ele>369.4</ele><time>2026-04-04T15:21:49.73Z</time></trkpt><trkpt lat="45.3145933" lon="7.59966"><ele>368.20000000000005</ele><time>2026-04-04T15:21:51.73Z</time></trkpt><trkpt lat="45.3145033" lon="7.59974"><ele>367.0</ele><time>2026-04-04T15:22:13.73Z</time></trkpt><trkpt lat="45.31444" lon="7.5997233"><ele>366.20000000000005</ele><time>2026-04-04T15:22:15.729Z</time></trkpt><trkpt lat="45.3143783" lon="7.5996683"><ele>365.4</ele><time>2026-04-04T15:22:16.729Z</time></trkpt><trkpt lat="45.314315" lon="7.59958"><ele>364.6</ele><time>2026-04-04T15:22:17.729Z</time></trkpt><trkpt lat="45.3142533" lon="7.5994583"><ele>363.79999999999995</ele><time>2026-04-04T15:22:18.73Z</time></trkpt><trkpt lat="45.31419" lon="7.5993283"><ele>363.0</ele><time>2026-04-04T15:22:19.729Z</time></trkpt><trkpt lat="45.3141167" lon="7.5991733"><ele>363.0</ele><time>2026-04-04T15:22:20.729Z</time></trkpt><trkpt lat="45.3140417" lon="7.5990033"><ele>363.0</ele><time>2026-04-04T15:22:21.73Z</time></trkpt><trkpt lat="45.313965" lon="7.5988317"><ele>363.0</ele><time>2026-04-04T15:22:22.729Z</time></trkpt><trkpt lat="45.3138917" lon="7.5986583"><ele>363.0</ele><time>2026-04-04T15:22:23.729Z</time></trkpt><trkpt lat="45.3138133" lon="7.5984583"><ele>364.0</ele><time>2026-04-04T15:22:24.729Z</time></trkpt><trkpt lat="45.3137383" lon="7.598265"><ele>365.0</ele><time>2026-04-04T15:22:25.73Z</time></trkpt><trkpt lat="45.3136767" lon="7.5980617"><ele>366.0</ele><time>2026-04-04T15:22:26.73Z</time></trkpt><trkpt lat="45.3136183" lon="7.597855"><ele>367.3333333333333</ele><time>2026-04-04T15:22:27.73Z</time></trkpt><trkpt lat="45.31356" lon="7.5976567"><ele>368.66666666666663</ele><time>2026-04-04T15:22:28.73Z</time></trkpt><trkpt lat="45.3135" lon="7.5974583"><ele>370.0</ele><time>2026-04-04T15:22:29.729Z</time></trkpt><trkpt lat="45.3134267" lon="7.5972733"><ele>370.0</ele><time>2026-04-04T15:22:30.729Z</time></trkpt><trkpt lat="45.3133567" lon="7.5971017"><ele>370.0</ele><time>2026-04-04T15:22:31.729Z</time></trkpt><trkpt lat="45.313305" lon="7.5969133"><ele>370.0</ele><time>2026-04-04T15:22:32.73Z</time></trkpt><trkpt lat="45.313275" lon="7.5967033"><ele>370.0</ele><time>2026-04-04T15:22:33.729Z</time></trkpt><trkpt lat="45.3132617" lon="7.59648"><ele>373.0</ele><time>2026-04-04T15:22:34.729Z</time></trkpt><trkpt lat="45.31325" lon="7.596265"><ele>376.0</ele><time>2026-04-04T15:22:35.73Z</time></trkpt><trkpt lat="45.3132383" lon="7.5960483"><ele>379.0</ele><time>2026-04-04T15:22:36.729Z</time></trkpt><trkpt lat="45.3132267" lon="7.5958183"><ele>382.66666666666663</ele><time>2026-04-04T15:22:37.729Z</time></trkpt><trkpt lat="45.3132283" lon="7.5955767"><ele>386.3333333333333</ele><time>2026-04-04T15:22:38.729Z</time></trkpt><trkpt lat="45.3132233" lon="7.5953217"><ele>390.0</ele><time>2026-04-04T15:22:39.729Z</time></trkpt><trkpt lat="45.3132033" lon="7.5950733"><ele>389.33333333333337</ele><time>2026-04-04T15:22:40.729Z</time></trkpt><trkpt lat="45.3131717" lon="7.5948217"><ele>388.6666666666667</ele><time>2026-04-04T15:22:41.729Z</time></trkpt><trkpt lat="45.3131133" lon="7.5945733"><ele>388.0</ele><time>2026-04-04T15:22:42.73Z</time></trkpt><trkpt lat="45.313045" lon="7.594325"><ele>388.0</ele><time>2026-04-04T15:22:43.729Z</time></trkpt><trkpt lat="45.3129533" lon="7.5940767"><ele>388.0</ele><time>2026-04-04T15:22:44.729Z</time></trkpt><trkpt lat="45.3128517" lon="7.5938283"><ele>388.0</ele><time>2026-04-04T15:22:45.729Z</time></trkpt><trkpt lat="45.31275" lon="7.5935983"><ele>389.6666666666667</ele><time>2026-04-04T15:22:46.73Z</time></trkpt><trkpt lat="45.3126633" lon="7.5933867"><ele>391.33333333333337</ele><time>2026-04-04T15:22:47.729Z</time></trkpt><trkpt lat="45.3125767" lon="7.5932067"><ele>393.0</ele><time>2026-04-04T15:22:48.729Z</time></trkpt><trkpt lat="45.3124917" lon="7.5930533"><ele>393.0</ele><time>2026-04-04T15:22:49.729Z</time></trkpt><trkpt lat="45.312405" lon="7.592925"><ele>393.0</ele><time>2026-04-04T15:22:50.729Z</time></trkpt><trkpt lat="45.31233" lon="7.5928067"><ele>393.0</ele><time>2026-04-04T15:22:51.729Z</time></trkpt><trkpt lat="45.312265" lon="7.59272"><ele>393.0</ele><time>2026-04-04T15:22:52.729Z</time></trkpt><trkpt lat="45.3122167" lon="7.5926567"><ele>393.0</ele><time>2026-04-04T15:22:53.73Z</time></trkpt><trkpt lat="45.31217" lon="7.5925517"><ele>393.0</ele><time>2026-04-04T15:22:55.73Z</time></trkpt><trkpt lat="45.312165" lon="7.5924417"><ele>393.0</ele><time>2026-04-04T15:22:57.73Z</time></trkpt><trkpt lat="45.3121483" lon="7.5923217"><ele>393.0</ele><time>2026-04-04T15:22:59.729Z</time></trkpt><trkpt lat="45.3121317" lon="7.59221"><ele>393.0</ele><time>2026-04-04T15:23:01.729Z</time></trkpt><trkpt lat="45.3121367" lon="7.5921117"><ele>393.0</ele><time>2026-04-04T15:23:03.729Z</time></trkpt><trkpt lat="45.3121267" lon="7.5919983"><ele>393.0</ele><time>2026-04-04T15:23:05.729Z</time></trkpt><trkpt lat="45.3121333" lon="7.591865"><ele>393.0</ele><time>2026-04-04T15:23:07.729Z</time></trkpt><trkpt lat="45.3121483" lon="7.5917217"><ele>393.0</ele><time>2026-04-04T15:23:09.73Z</time></trkpt><trkpt lat="45.3121433" lon="7.5916017"><ele>393.0</ele><time>2026-04-04T15:23:11.73Z</time></trkpt><trkpt lat="45.3121217" lon="7.5914917"><ele>393.0</ele><time>2026-04-04T15:23:13.729Z</time></trkpt><trkpt lat="45.312095" lon="7.5913967"><ele>393.0</ele><time>2026-04-04T15:23:15.729Z</time></trkpt><trkpt lat="45.3120817" lon="7.5912667"><ele>393.0</ele><time>2026-04-04T15:23:17.729Z</time></trkpt><trkpt lat="45.3120817" lon="7.5910933"><ele>393.0</ele><time>2026-04-04T15:23:19.729Z</time></trkpt><trkpt lat="45.312085" lon="7.59099"><ele>393.0</ele><time>2026-04-04T15:23:20.73Z</time></trkpt><trkpt lat="45.3120867" lon="7.5908833"><ele>393.0</ele><time>2026-04-04T15:23:21.73Z</time></trkpt><trkpt lat="45.312085" lon="7.5907767"><ele>393.0</ele><time>2026-04-04T15:23:22.73Z</time></trkpt><trkpt lat="45.3120867" lon="7.59066"><ele>393.0</ele><time>2026-04-04T15:23:23.729Z</time></trkpt><trkpt lat="45.3120883" lon="7.590545"><ele>393.0</ele><time>2026-04-04T15:23:24.729Z</time></trkpt><trkpt lat="45.31209" lon="7.5904417"><ele>393.6666666666667</ele><time>2026-04-04T15:23:25.73Z</time></trkpt><trkpt lat="45.312095" lon="7.59034"><ele>394.33333333333337</ele><time>2026-04-04T15:23:26.729Z</time></trkpt><trkpt lat="45.3120917" lon="7.5902467"><ele>395.0</ele><time>2026-04-04T15:23:27.729Z</time></trkpt><trkpt lat="45.3120833" lon="7.590075"><ele>395.6666666666667</ele><time>2026-04-04T15:23:29.73Z</time></trkpt><trkpt lat="45.312075" lon="7.589975"><ele>396.33333333333337</ele><time>2026-04-04T15:23:30.73Z</time></trkpt><trkpt lat="45.312065" lon="7.5898717"><ele>397.0</ele><time>2026-04-04T15:23:31.729Z</time></trkpt><trkpt lat="45.3120567" lon="7.5897717"><ele>397.0</ele><time>2026-04-04T15:23:32.73Z</time></trkpt><trkpt lat="45.312045" lon="7.5896817"><ele>397.0</ele><time>2026-04-04T15:23:33.729Z</time></trkpt><trkpt lat="45.3120417" lon="7.5895717"><ele>397.0</ele><time>2026-04-04T15:23:34.729Z</time></trkpt><trkpt lat="45.3120333" lon="7.5894667"><ele>397.0</ele><time>2026-04-04T15:23:35.73Z</time></trkpt><trkpt lat="45.312025" lon="7.5893733"><ele>397.0</ele><time>2026-04-04T15:23:36.73Z</time></trkpt><trkpt lat="45.3120217" lon="7.58926"><ele>397.0</ele><time>2026-04-04T15:23:37.73Z</time></trkpt><trkpt lat="45.3120133" lon="7.58914"><ele>397.0</ele><time>2026-04-04T15:23:38.73Z</time></trkpt><trkpt lat="45.312" lon="7.5890283"><ele>398.00000000000006</ele><time>2026-04-04T15:23:39.73Z</time></trkpt><trkpt lat="45.311985" lon="7.5889267"><ele>399.0</ele><time>2026-04-04T15:23:40.73Z</time></trkpt><trkpt lat="45.31197" lon="7.588835"><ele>400.0</ele><time>2026-04-04T15:23:41.729Z</time></trkpt><trkpt lat="45.31193" lon="7.5886833"><ele>401.0</ele><time>2026-04-04T15:23:43.729Z</time></trkpt><trkpt lat="45.3118983" lon="7.5885683"><ele>402.00000000000006</ele><time>2026-04-04T15:23:45.728Z</time></trkpt><trkpt lat="45.3119133" lon="7.5884517"><ele>403.0</ele><time>2026-04-04T15:23:47.728Z</time></trkpt><trkpt lat="45.3119683" lon="7.5883233"><ele>403.1666666666667</ele><time>2026-04-04T15:23:49.728Z</time></trkpt><trkpt lat="45.312015" lon="7.5882167"><ele>403.33333333333337</ele><time>2026-04-04T15:23:51.728Z</time></trkpt><trkpt lat="45.3120317" lon="7.5880983"><ele>403.5</ele><time>2026-04-04T15:23:53.728Z</time></trkpt><trkpt lat="45.3120133" lon="7.5879867"><ele>403.66666666666663</ele><time>2026-04-04T15:23:55.728Z</time></trkpt><trkpt lat="45.31196" lon="7.587855"><ele>403.8333333333333</ele><time>2026-04-04T15:23:57.728Z</time></trkpt><trkpt lat="45.3119217" lon="7.5877717"><ele>404.0</ele><time>2026-04-04T15:23:58.728Z</time></trkpt><trkpt lat="45.311895" lon="7.5876883"><ele>404.79999999999995</ele><time>2026-04-04T15:23:59.728Z</time></trkpt><trkpt lat="45.3118317" lon="7.5875367"><ele>405.59999999999997</ele><time>2026-04-04T15:24:01.729Z</time></trkpt><trkpt lat="45.3117433" lon="7.587425"><ele>406.4</ele><time>2026-04-04T15:24:03.729Z</time></trkpt><trkpt lat="45.3116567" lon="7.58735"><ele>407.2</ele><time>2026-04-04T15:24:05.729Z</time></trkpt><trkpt lat="45.3115733" lon="7.5873"><ele>408.0</ele><time>2026-04-04T15:24:07.728Z</time></trkpt><trkpt lat="45.3115183" lon="7.5872283"><ele>408.0</ele><time>2026-04-04T15:24:09.728Z</time></trkpt><trkpt lat="45.3114933" lon="7.5870817"><ele>408.0</ele><time>2026-04-04T15:24:11.728Z</time></trkpt><trkpt lat="45.3114867" lon="7.5869667"><ele>408.0</ele><time>2026-04-04T15:24:12.728Z</time></trkpt><trkpt lat="45.3114933" lon="7.58684"><ele>408.0</ele><time>2026-04-04T15:24:13.729Z</time></trkpt><trkpt lat="45.3115083" lon="7.5866683"><ele>408.0</ele><time>2026-04-04T15:24:14.728Z</time></trkpt><trkpt lat="45.3115183" lon="7.58651"><ele>408.5</ele><time>2026-04-04T15:24:15.728Z</time></trkpt><trkpt lat="45.3115167" lon="7.5863817"><ele>409.0</ele><time>2026-04-04T15:24:16.728Z</time></trkpt><trkpt lat="45.3115117" lon="7.586255"><ele>409.5</ele><time>2026-04-04T15:24:17.729Z</time></trkpt><trkpt lat="45.311505" lon="7.586135"><ele>410.0</ele><time>2026-04-04T15:24:18.729Z</time></trkpt><trkpt lat="45.311495" lon="7.5860083"><ele>410.5</ele><time>2026-04-04T15:24:19.729Z</time></trkpt><trkpt lat="45.3114867" lon="7.5858867"><ele>411.0</ele><time>2026-04-04T15:24:20.728Z</time></trkpt><trkpt lat="45.3114717" lon="7.5857783"><ele>411.1428571428571</ele><time>2026-04-04T15:24:21.728Z</time></trkpt><trkpt lat="45.311455" lon="7.58567"><ele>411.2857142857143</ele><time>2026-04-04T15:24:22.728Z</time></trkpt><trkpt lat="45.3114433" lon="7.5855617"><ele>411.42857142857144</ele><time>2026-04-04T15:24:23.729Z</time></trkpt><trkpt lat="45.3114383" lon="7.5854567"><ele>411.57142857142856</ele><time>2026-04-04T15:24:24.728Z</time></trkpt><trkpt lat="45.31143" lon="7.5853533"><ele>411.7142857142857</ele><time>2026-04-04T15:24:25.729Z</time></trkpt><trkpt lat="45.3114217" lon="7.585245"><ele>411.85714285714283</ele><time>2026-04-04T15:24:26.728Z</time></trkpt><trkpt lat="45.31142" lon="7.58515"><ele>412.0</ele><time>2026-04-04T15:24:27.728Z</time></trkpt><trkpt lat="45.3114267" lon="7.5850583"><ele>412.25</ele><time>2026-04-04T15:24:28.729Z</time></trkpt><trkpt lat="45.311455" lon="7.58489"><ele>412.5</ele><time>2026-04-04T15:24:30.728Z</time></trkpt><trkpt lat="45.311485" lon="7.58473"><ele>412.75</ele><time>2026-04-04T15:24:32.728Z</time></trkpt><trkpt lat="45.3115383" lon="7.5845667"><ele>413.0</ele><time>2026-04-04T15:24:34.728Z</time></trkpt><trkpt lat="45.311575" lon="7.5844483"><ele>412.5</ele><time>2026-04-04T15:24:35.728Z</time></trkpt><trkpt lat="45.3116083" lon="7.5842817"><ele>412.0</ele><time>2026-04-04T15:24:36.728Z</time></trkpt><trkpt lat="45.3116433" lon="7.5840733"><ele>411.5</ele><time>2026-04-04T15:24:37.728Z</time></trkpt><trkpt lat="45.3116683" lon="7.5838767"><ele>411.0</ele><time>2026-04-04T15:24:38.728Z</time></trkpt><trkpt lat="45.3116867" lon="7.5837033"><ele>411.5</ele><time>2026-04-04T15:24:39.729Z</time></trkpt><trkpt lat="45.3116917" lon="7.5835467"><ele>412.0</ele><time>2026-04-04T15:24:40.728Z</time></trkpt><trkpt lat="45.3116817" lon="7.58342"><ele>412.5</ele><time>2026-04-04T15:24:41.728Z</time></trkpt><trkpt lat="45.3116617" lon="7.5833067"><ele>413.0</ele><time>2026-04-04T15:24:42.729Z</time></trkpt><trkpt lat="45.311635" lon="7.583205"><ele>413.5</ele><time>2026-04-04T15:24:43.729Z</time></trkpt><trkpt lat="45.3116083" lon="7.5831083"><ele>414.0</ele><time>2026-04-04T15:24:44.728Z</time></trkpt><trkpt lat="45.3115833" lon="7.583015"><ele>414.0</ele><time>2026-04-04T15:24:45.728Z</time></trkpt><trkpt lat="45.3115567" lon="7.5829333"><ele>414.0</ele><time>2026-04-04T15:24:46.729Z</time></trkpt><trkpt lat="45.31151" lon="7.5828183"><ele>414.0</ele><time>2026-04-04T15:24:48.728Z</time></trkpt><trkpt lat="45.31146" lon="7.5827467"><ele>414.0</ele><time>2026-04-04T15:24:50.728Z</time></trkpt><trkpt lat="45.31136" lon="7.5827367"><ele>414.0</ele><time>2026-04-04T15:24:52.728Z</time></trkpt><trkpt lat="45.3112833" lon="7.5827617"><ele>414.0</ele><time>2026-04-04T15:24:53.728Z</time></trkpt><trkpt lat="45.3112" lon="7.582795"><ele>413.6</ele><time>2026-04-04T15:24:54.728Z</time></trkpt><trkpt lat="45.3111133" lon="7.58282"><ele>413.2</ele><time>2026-04-04T15:24:55.728Z</time></trkpt><trkpt lat="45.3110167" lon="7.5828517"><ele>412.8</ele><time>2026-04-04T15:24:56.728Z</time></trkpt><trkpt lat="45.3109117" lon="7.5828783"><ele>412.40000000000003</ele><time>2026-04-04T15:24:57.728Z</time></trkpt><trkpt lat="45.3108" lon="7.5829083"><ele>412.0</ele><time>2026-04-04T15:24:58.728Z</time></trkpt><trkpt lat="45.310685" lon="7.58294"><ele>411.8</ele><time>2026-04-04T15:24:59.729Z</time></trkpt><trkpt lat="45.3105833" lon="7.5829667"><ele>411.6</ele><time>2026-04-04T15:25:00.729Z</time></trkpt><trkpt lat="45.310485" lon="7.5829983"><ele>411.40000000000003</ele><time>2026-04-04T15:25:01.728Z</time></trkpt><trkpt lat="45.31039" lon="7.5830233"><ele>411.20000000000005</ele><time>2026-04-04T15:25:02.729Z</time></trkpt><trkpt lat="45.3102983" lon="7.58304"><ele>411.0</ele><time>2026-04-04T15:25:03.729Z</time></trkpt><trkpt lat="45.3102267" lon="7.5830517"><ele>405.0</ele><time>2026-04-04T15:25:04.728Z</time></trkpt><trkpt lat="45.310135" lon="7.5830867"><ele>405.0</ele><time>2026-04-04T15:25:06.728Z</time></trkpt><trkpt lat="45.3100583" lon="7.583095"><ele>405.0</ele><time>2026-04-04T15:25:09.729Z</time></trkpt><trkpt lat="45.310005" lon="7.5831667"><ele>405.0</ele><time>2026-04-04T15:25:12.728Z</time></trkpt><trkpt lat="45.309955" lon="7.583255"><ele>405.0</ele><time>2026-04-04T15:25:15.728Z</time></trkpt><trkpt lat="45.30989" lon="7.583265"><ele>405.0</ele><time>2026-04-04T15:25:26.727Z</time></trkpt></trkseg></trk></gpx>